<?xml version='1.0' encoding='UTF-8'?><gpx version="1.1" creator="JPX - https://github.com/jenetics/jpx" xmlns="http://www.topografix.com/GPX/1/1"><trk><trkseg><trkpt lat="32.9752639" lon="9.6331571"><ele>210.0</ele><time>2026-04-21T06:43:19.297Z</time></trkpt><trkpt lat="32.9751769" lon="9.6331359"><ele>210.0</ele><time>2026-04-21T06:43:27.144Z</time></trkpt><trkpt lat="32.9751101" lon="9.6331588"><ele>210.0</ele><time>2026-04-21T06:43:50.145Z</time></trkpt><trkpt lat="32.9750476" lon="9.6332182"><ele>210.0</ele><time>2026-04-21T06:44:31.143Z</time></trkpt><trkpt lat="32.9749766" lon="9.6331639"><ele>210.0</ele><time>2026-04-21T06:44:38.144Z</time></trkpt><trkpt lat="32.9749144" lon="9.6331295"><ele>210.0</ele><time>2026-04-21T06:44:45.144Z</time></trkpt><trkpt lat="32.9748536" lon="9.6330906"><ele>210.33333333333334</ele><time>2026-04-21T06:44:48.143Z</time></trkpt><trkpt lat="32.9747986" lon="9.6330102"><ele>210.66666666666669</ele><time>2026-04-21T06:44:53.143Z</time></trkpt><trkpt lat="32.9747466" lon="9.6329528"><ele>211.0</ele><time>2026-04-21T06:44:57.144Z</time></trkpt><trkpt lat="32.9748169" lon="9.632955"><ele>211.33333333333334</ele><time>2026-04-21T06:45:03.143Z</time></trkpt><trkpt lat="32.9748956" lon="9.6330018"><ele>211.66666666666669</ele><time>2026-04-21T06:45:06.143Z</time></trkpt><trkpt lat="32.974959" lon="9.6330232"><ele>212.0</ele><time>2026-04-21T06:45:09.143Z</time></trkpt><trkpt lat="32.974919" lon="9.6329459"><ele>212.00000000000003</ele><time>2026-04-21T06:45:19.143Z</time></trkpt><trkpt lat="32.974976" lon="9.6329085"><ele>212.0</ele><time>2026-04-21T06:45:28.144Z</time></trkpt><trkpt lat="32.9750882" lon="9.632872"><ele>212.0</ele><time>2026-04-21T06:45:42.144Z</time></trkpt><trkpt lat="32.9751516" lon="9.6328497"><ele>212.0</ele><time>2026-04-21T06:45:43.143Z</time></trkpt><trkpt lat="32.9752473" lon="9.6328068"><ele>212.00000000000003</ele><time>2026-04-21T06:45:45.143Z</time></trkpt><trkpt lat="32.9753411" lon="9.6327719"><ele>212.0</ele><time>2026-04-21T06:45:47.143Z</time></trkpt><trkpt lat="32.9752986" lon="9.6328474"><ele>211.71428571428572</ele><time>2026-04-21T06:45:51.144Z</time></trkpt><trkpt lat="32.9752844" lon="9.6329247"><ele>211.42857142857142</ele><time>2026-04-21T06:45:59.143Z</time></trkpt><trkpt lat="32.9752399" lon="9.6329902"><ele>211.14285714285714</ele><time>2026-04-21T06:46:08.143Z</time></trkpt><trkpt lat="32.9751989" lon="9.6330493"><ele>210.85714285714286</ele><time>2026-04-21T06:46:13.143Z</time></trkpt><trkpt lat="32.975122" lon="9.6330999"><ele>210.57142857142856</ele><time>2026-04-21T06:46:24.144Z</time></trkpt><trkpt lat="32.9750577" lon="9.6331319"><ele>210.28571428571428</ele><time>2026-04-21T06:46:27.143Z</time></trkpt><trkpt lat="32.9751155" lon="9.63307"><ele>210.0</ele><time>2026-04-21T06:46:32.144Z</time></trkpt><trkpt lat="32.9750783" lon="9.6331567"><ele>210.0</ele><time>2026-04-21T06:46:42.144Z</time></trkpt><trkpt lat="32.975155" lon="9.6331513"><ele>210.0</ele><time>2026-04-21T06:46:57.144Z</time></trkpt><trkpt lat="32.9752063" lon="9.6332314"><ele>210.0</ele><time>2026-04-21T06:47:12.143Z</time></trkpt><trkpt lat="32.9752074" lon="9.6333103"><ele>210.0</ele><time>2026-04-21T06:47:16.143Z</time></trkpt><trkpt lat="32.9751258" lon="9.6333799"><ele>210.0</ele><time>2026-04-21T06:47:19.143Z</time></trkpt><trkpt lat="32.9750183" lon="9.6334496"><ele>210.0</ele><time>2026-04-21T06:47:21.143Z</time></trkpt><trkpt lat="32.9749549" lon="9.6335018"><ele>210.0</ele><time>2026-04-21T06:47:22.143Z</time></trkpt><trkpt lat="32.9750455" lon="9.6335605"><ele>210.0</ele><time>2026-04-21T06:47:25.144Z</time></trkpt><trkpt lat="32.9751185" lon="9.6335438"><ele>210.0</ele><time>2026-04-21T06:47:26.143Z</time></trkpt><trkpt lat="32.9751796" lon="9.6335132"><ele>210.0</ele><time>2026-04-21T06:47:28.144Z</time></trkpt><trkpt lat="32.9751066" lon="9.6334245"><ele>210.0</ele><time>2026-04-21T06:47:35.143Z</time></trkpt><trkpt lat="32.9750028" lon="9.6334261"><ele>210.0</ele><time>2026-04-21T06:47:41.143Z</time></trkpt><trkpt lat="32.9751343" lon="9.6333263"><ele>210.0</ele><time>2026-04-21T06:47:53.143Z</time></trkpt><trkpt lat="32.9752137" lon="9.6332813"><ele>210.0</ele><time>2026-04-21T06:47:55.143Z</time></trkpt><trkpt lat="32.9753085" lon="9.6332879"><ele>210.0</ele><time>2026-04-21T06:47:57.143Z</time></trkpt><trkpt lat="32.9753533" lon="9.6333481"><ele>210.0</ele><time>2026-04-21T06:48:14.143Z</time></trkpt><trkpt lat="32.97529" lon="9.6333684"><ele>210.0</ele><time>2026-04-21T06:48:25.142Z</time></trkpt><trkpt lat="32.9758547" lon="9.6326926"><ele>210.0</ele><time>2026-04-21T07:21:44.134Z</time></trkpt><trkpt lat="32.9759616" lon="9.6324505"><ele>210.0</ele><time>2026-04-21T07:21:46.134Z</time></trkpt><trkpt lat="32.9760149" lon="9.6323289"><ele>210.0</ele><time>2026-04-21T07:21:47.134Z</time></trkpt><trkpt lat="32.9760642" lon="9.6322127"><ele>210.0</ele><time>2026-04-21T07:21:48.134Z</time></trkpt><trkpt lat="32.9761027" lon="9.6321211"><ele>210.0</ele><time>2026-04-21T07:21:49.135Z</time></trkpt><trkpt lat="32.9761589" lon="9.6320244"><ele>210.0</ele><time>2026-04-21T07:21:51.134Z</time></trkpt><trkpt lat="32.976264" lon="9.6320714"><ele>210.0</ele><time>2026-04-21T07:21:54.135Z</time></trkpt><trkpt lat="32.9763761" lon="9.6321547"><ele>210.0</ele><time>2026-04-21T07:21:56.134Z</time></trkpt><trkpt lat="32.9764578" lon="9.6322089"><ele>210.0</ele><time>2026-04-21T07:21:57.135Z</time></trkpt><trkpt lat="32.9765531" lon="9.6322744"><ele>210.0</ele><time>2026-04-21T07:21:58.135Z</time></trkpt><trkpt lat="32.9766648" lon="9.6323506"><ele>210.0</ele><time>2026-04-21T07:21:59.134Z</time></trkpt><trkpt lat="32.9767813" lon="9.6324276"><ele>210.0</ele><time>2026-04-21T07:22:00.135Z</time></trkpt><trkpt lat="32.9768943" lon="9.6325041"><ele>210.0</ele><time>2026-04-21T07:22:01.134Z</time></trkpt><trkpt lat="32.9770152" lon="9.6325753"><ele>210.0</ele><time>2026-04-21T07:22:02.134Z</time></trkpt><trkpt lat="32.9771418" lon="9.6326388"><ele>210.0</ele><time>2026-04-21T07:22:03.135Z</time></trkpt><trkpt lat="32.9772682" lon="9.6327056"><ele>210.0</ele><time>2026-04-21T07:22:04.134Z</time></trkpt><trkpt lat="32.977395" lon="9.6327788"><ele>210.66666666666669</ele><time>2026-04-21T07:22:05.134Z</time></trkpt><trkpt lat="32.9775226" lon="9.6328542"><ele>211.33333333333334</ele><time>2026-04-21T07:22:06.134Z</time></trkpt><trkpt lat="32.9777717" lon="9.6330094"><ele>212.0</ele><time>2026-04-21T07:22:08.134Z</time></trkpt><trkpt lat="32.9778996" lon="9.6330794"><ele>212.0</ele><time>2026-04-21T07:22:09.134Z</time></trkpt><trkpt lat="32.9780017" lon="9.6331308"><ele>212.0</ele><time>2026-04-21T07:22:10.135Z</time></trkpt><trkpt lat="32.9781183" lon="9.6331909"><ele>212.0</ele><time>2026-04-21T07:22:11.134Z</time></trkpt><trkpt lat="32.9782359" lon="9.6332596"><ele>212.0</ele><time>2026-04-21T07:22:12.134Z</time></trkpt><trkpt lat="32.9783564" lon="9.6333316"><ele>211.75</ele><time>2026-04-21T07:22:13.134Z</time></trkpt><trkpt lat="32.9784777" lon="9.6334033"><ele>211.5</ele><time>2026-04-21T07:22:14.134Z</time></trkpt><trkpt lat="32.9785996" lon="9.6334723"><ele>211.25</ele><time>2026-04-21T07:22:15.135Z</time></trkpt><trkpt lat="32.9787249" lon="9.6335381"><ele>211.0</ele><time>2026-04-21T07:22:16.134Z</time></trkpt><trkpt lat="32.9788585" lon="9.6336114"><ele>211.0</ele><time>2026-04-21T07:22:17.135Z</time></trkpt><trkpt lat="32.978986" lon="9.633681"><ele>211.0</ele><time>2026-04-21T07:22:18.135Z</time></trkpt><trkpt lat="32.9791166" lon="9.6337488"><ele>211.0</ele><time>2026-04-21T07:22:19.134Z</time></trkpt><trkpt lat="32.9792453" lon="9.6338211"><ele>211.0</ele><time>2026-04-21T07:22:20.135Z</time></trkpt><trkpt lat="32.9793624" lon="9.633888"><ele>211.25</ele><time>2026-04-21T07:22:21.134Z</time></trkpt><trkpt lat="32.9794723" lon="9.6339492"><ele>211.5</ele><time>2026-04-21T07:22:22.134Z</time></trkpt><trkpt lat="32.9795828" lon="9.6340123"><ele>211.75</ele><time>2026-04-21T07:22:23.134Z</time></trkpt><trkpt lat="32.9796988" lon="9.634077"><ele>212.0</ele><time>2026-04-21T07:22:24.133Z</time></trkpt><trkpt lat="32.9798079" lon="9.6341512"><ele>212.0</ele><time>2026-04-21T07:22:25.133Z</time></trkpt><trkpt lat="32.9799227" lon="9.6342254"><ele>212.0</ele><time>2026-04-21T07:22:26.133Z</time></trkpt><trkpt lat="32.9800333" lon="9.634298"><ele>212.0</ele><time>2026-04-21T07:22:27.134Z</time></trkpt><trkpt lat="32.9802736" lon="9.6344212"><ele>212.0</ele><time>2026-04-21T07:22:29.133Z</time></trkpt><trkpt lat="32.9803897" lon="9.6344871"><ele>212.0</ele><time>2026-04-21T07:22:30.133Z</time></trkpt><trkpt lat="32.9805059" lon="9.6345516"><ele>212.0</ele><time>2026-04-21T07:22:31.134Z</time></trkpt><trkpt lat="32.9806271" lon="9.6346166"><ele>212.0</ele><time>2026-04-21T07:22:32.133Z</time></trkpt><trkpt lat="32.9807473" lon="9.6346797"><ele>211.75</ele><time>2026-04-21T07:22:33.133Z</time></trkpt><trkpt lat="32.9808671" lon="9.6347474"><ele>211.5</ele><time>2026-04-21T07:22:34.133Z</time></trkpt><trkpt lat="32.9809876" lon="9.6348142"><ele>211.25</ele><time>2026-04-21T07:22:35.134Z</time></trkpt><trkpt lat="32.9810952" lon="9.6348741"><ele>211.0</ele><time>2026-04-21T07:22:36.133Z</time></trkpt><trkpt lat="32.9812078" lon="9.6349374"><ele>211.0</ele><time>2026-04-21T07:22:37.133Z</time></trkpt><trkpt lat="32.9813144" lon="9.6349964"><ele>211.0</ele><time>2026-04-21T07:22:38.133Z</time></trkpt><trkpt lat="32.9814322" lon="9.6350624"><ele>211.0</ele><time>2026-04-21T07:22:39.133Z</time></trkpt><trkpt lat="32.9815409" lon="9.6351217"><ele>211.0</ele><time>2026-04-21T07:22:40.134Z</time></trkpt><trkpt lat="32.9816468" lon="9.6351836"><ele>210.66666666666666</ele><time>2026-04-21T07:22:41.133Z</time></trkpt><trkpt lat="32.9818602" lon="9.6353024"><ele>210.33333333333331</ele><time>2026-04-21T07:22:43.134Z</time></trkpt><trkpt lat="32.98197" lon="9.6353706"><ele>210.0</ele><time>2026-04-21T07:22:44.133Z</time></trkpt><trkpt lat="32.9820801" lon="9.6354308"><ele>210.66666666666669</ele><time>2026-04-21T07:22:45.134Z</time></trkpt><trkpt lat="32.9821938" lon="9.6354931"><ele>211.33333333333334</ele><time>2026-04-21T07:22:46.132Z</time></trkpt><trkpt lat="32.9823175" lon="9.6355538"><ele>212.0</ele><time>2026-04-21T07:22:47.133Z</time></trkpt><trkpt lat="32.9825457" lon="9.6356882"><ele>212.66666666666669</ele><time>2026-04-21T07:22:49.134Z</time></trkpt><trkpt lat="32.9826546" lon="9.635753"><ele>213.33333333333331</ele><time>2026-04-21T07:22:50.134Z</time></trkpt><trkpt lat="32.9828854" lon="9.6358687"><ele>214.0</ele><time>2026-04-21T07:22:52.134Z</time></trkpt><trkpt lat="32.983106" lon="9.6360022"><ele>214.0</ele><time>2026-04-21T07:22:54.133Z</time></trkpt><trkpt lat="32.9832157" lon="9.6360735"><ele>214.0</ele><time>2026-04-21T07:22:55.134Z</time></trkpt><trkpt lat="32.983324" lon="9.636137"><ele>214.0</ele><time>2026-04-21T07:22:56.134Z</time></trkpt><trkpt lat="32.9834462" lon="9.6362062"><ele>214.0</ele><time>2026-04-21T07:22:57.134Z</time></trkpt><trkpt lat="32.9835589" lon="9.6362674"><ele>213.25</ele><time>2026-04-21T07:22:58.134Z</time></trkpt><trkpt lat="32.9836783" lon="9.6363334"><ele>212.5</ele><time>2026-04-21T07:22:59.133Z</time></trkpt><trkpt lat="32.9837943" lon="9.6364"><ele>211.75</ele><time>2026-04-21T07:23:00.134Z</time></trkpt><trkpt lat="32.9839007" lon="9.6364595"><ele>211.0</ele><time>2026-04-21T07:23:01.134Z</time></trkpt><trkpt lat="32.9840178" lon="9.636529"><ele>211.0</ele><time>2026-04-21T07:23:02.134Z</time></trkpt><trkpt lat="32.9841355" lon="9.6365931"><ele>211.0</ele><time>2026-04-21T07:23:03.133Z</time></trkpt><trkpt lat="32.9842547" lon="9.6366606"><ele>211.0</ele><time>2026-04-21T07:23:04.133Z</time></trkpt><trkpt lat="32.9843708" lon="9.636726"><ele>211.0</ele><time>2026-04-21T07:23:05.134Z</time></trkpt><trkpt lat="32.9844827" lon="9.6367915"><ele>210.66666666666666</ele><time>2026-04-21T07:23:06.133Z</time></trkpt><trkpt lat="32.9845944" lon="9.6368538"><ele>210.33333333333331</ele><time>2026-04-21T07:23:07.134Z</time></trkpt><trkpt lat="32.9847143" lon="9.6369143"><ele>210.0</ele><time>2026-04-21T07:23:08.133Z</time></trkpt><trkpt lat="32.9849487" lon="9.6370414"><ele>211.33333333333331</ele><time>2026-04-21T07:23:10.133Z</time></trkpt><trkpt lat="32.9850623" lon="9.6371044"><ele>212.66666666666666</ele><time>2026-04-21T07:23:11.133Z</time></trkpt><trkpt lat="32.9852768" lon="9.6372337"><ele>214.0</ele><time>2026-04-21T07:23:13.134Z</time></trkpt><trkpt lat="32.9853883" lon="9.6372965"><ele>214.0</ele><time>2026-04-21T07:23:14.133Z</time></trkpt><trkpt lat="32.9855045" lon="9.6373554"><ele>213.99999999999997</ele><time>2026-04-21T07:23:15.134Z</time></trkpt><trkpt lat="32.9856049" lon="9.6374069"><ele>213.99999999999997</ele><time>2026-04-21T07:23:16.134Z</time></trkpt><trkpt lat="32.9856923" lon="9.637445"><ele>214.0</ele><time>2026-04-21T07:23:17.133Z</time></trkpt><trkpt lat="32.985765" lon="9.6374724"><ele>214.0</ele><time>2026-04-21T07:23:18.134Z</time></trkpt><trkpt lat="32.9858758" lon="9.6375365"><ele>213.83333333333331</ele><time>2026-04-21T07:23:20.133Z</time></trkpt><trkpt lat="32.9859321" lon="9.6375727"><ele>213.66666666666666</ele><time>2026-04-21T07:23:21.133Z</time></trkpt><trkpt lat="32.9859964" lon="9.6376126"><ele>213.5</ele><time>2026-04-21T07:23:22.134Z</time></trkpt><trkpt lat="32.9860769" lon="9.6376547"><ele>213.33333333333331</ele><time>2026-04-21T07:23:23.133Z</time></trkpt><trkpt lat="32.9861653" lon="9.6377072"><ele>213.16666666666666</ele><time>2026-04-21T07:23:24.133Z</time></trkpt><trkpt lat="32.9862682" lon="9.6377573"><ele>213.0</ele><time>2026-04-21T07:23:25.133Z</time></trkpt><trkpt lat="32.9863719" lon="9.6378152"><ele>213.0</ele><time>2026-04-21T07:23:26.134Z</time></trkpt><trkpt lat="32.9865834" lon="9.6379279"><ele>213.0</ele><time>2026-04-21T07:23:28.133Z</time></trkpt><trkpt lat="32.9866875" lon="9.6379758"><ele>213.0</ele><time>2026-04-21T07:23:29.133Z</time></trkpt><trkpt lat="32.9868689" lon="9.6381074"><ele>213.0</ele><time>2026-04-21T07:23:31.133Z</time></trkpt><trkpt lat="32.9869704" lon="9.6381696"><ele>213.0</ele><time>2026-04-21T07:23:32.134Z</time></trkpt><trkpt lat="32.9870703" lon="9.6382292"><ele>213.0</ele><time>2026-04-21T07:23:33.134Z</time></trkpt><trkpt lat="32.987168" lon="9.6382893"><ele>213.0</ele><time>2026-04-21T07:23:34.134Z</time></trkpt><trkpt lat="32.9872647" lon="9.6383431"><ele>213.0</ele><time>2026-04-21T07:23:35.134Z</time></trkpt><trkpt lat="32.9873554" lon="9.638396"><ele>213.0</ele><time>2026-04-21T07:23:36.134Z</time></trkpt><trkpt lat="32.9874328" lon="9.6384434"><ele>213.0</ele><time>2026-04-21T07:23:37.134Z</time></trkpt><trkpt lat="32.9875066" lon="9.6384811"><ele>213.0</ele><time>2026-04-21T07:23:38.133Z</time></trkpt><trkpt lat="32.9875814" lon="9.6385189"><ele>213.0</ele><time>2026-04-21T07:23:39.134Z</time></trkpt><trkpt lat="32.9877237" lon="9.6386153"><ele>213.0</ele><time>2026-04-21T07:23:41.133Z</time></trkpt><trkpt lat="32.9877925" lon="9.6386709"><ele>213.16666666666666</ele><time>2026-04-21T07:23:42.133Z</time></trkpt><trkpt lat="32.9878577" lon="9.6387422"><ele>213.33333333333331</ele><time>2026-04-21T07:23:43.134Z</time></trkpt><trkpt lat="32.9879186" lon="9.6388277"><ele>213.5</ele><time>2026-04-21T07:23:44.133Z</time></trkpt><trkpt lat="32.9879798" lon="9.6389092"><ele>213.66666666666666</ele><time>2026-04-21T07:23:45.134Z</time></trkpt><trkpt lat="32.9880251" lon="9.6389728"><ele>213.83333333333331</ele><time>2026-04-21T07:23:46.133Z</time></trkpt><trkpt lat="32.9880891" lon="9.6390621"><ele>214.0</ele><time>2026-04-21T07:23:48.133Z</time></trkpt><trkpt lat="32.9881557" lon="9.6391546"><ele>214.0</ele><time>2026-04-21T07:23:51.133Z</time></trkpt><trkpt lat="32.987985" lon="9.638965"><ele>213.99999999999997</ele><time>2026-04-21T07:27:04.132Z</time></trkpt><trkpt lat="32.9879317" lon="9.6389117"><ele>213.99999999999997</ele><time>2026-04-21T07:27:05.133Z</time></trkpt><trkpt lat="32.987885" lon="9.63885"><ele>214.0</ele><time>2026-04-21T07:27:06.132Z</time></trkpt><trkpt lat="32.987845" lon="9.6387883"><ele>214.0</ele><time>2026-04-21T07:27:07.132Z</time></trkpt><trkpt lat="32.9877967" lon="9.6387233"><ele>213.99999999999997</ele><time>2026-04-21T07:27:08.133Z</time></trkpt><trkpt lat="32.9877417" lon="9.6386583"><ele>214.0</ele><time>2026-04-21T07:27:09.133Z</time></trkpt><trkpt lat="32.9876783" lon="9.6386"><ele>214.0</ele><time>2026-04-21T07:27:10.133Z</time></trkpt><trkpt lat="32.987615" lon="9.63855"><ele>214.0</ele><time>2026-04-21T07:27:11.132Z</time></trkpt><trkpt lat="32.987555" lon="9.6385033"><ele>213.99999999999997</ele><time>2026-04-21T07:27:12.133Z</time></trkpt><trkpt lat="32.9874967" lon="9.6384567"><ele>214.0</ele><time>2026-04-21T07:27:13.133Z</time></trkpt><trkpt lat="32.9874283" lon="9.6384217"><ele>213.83333333333331</ele><time>2026-04-21T07:27:14.133Z</time></trkpt><trkpt lat="32.9873517" lon="9.6383867"><ele>213.66666666666666</ele><time>2026-04-21T07:27:15.132Z</time></trkpt><trkpt lat="32.9872767" lon="9.6383483"><ele>213.5</ele><time>2026-04-21T07:27:16.133Z</time></trkpt><trkpt lat="32.9872033" lon="9.638305"><ele>213.33333333333331</ele><time>2026-04-21T07:27:17.133Z</time></trkpt><trkpt lat="32.98713" lon="9.6382683"><ele>213.16666666666666</ele><time>2026-04-21T07:27:18.133Z</time></trkpt><trkpt lat="32.9870617" lon="9.63823"><ele>213.0</ele><time>2026-04-21T07:27:19.133Z</time></trkpt><trkpt lat="32.9869933" lon="9.638195"><ele>213.0</ele><time>2026-04-21T07:27:20.133Z</time></trkpt><trkpt lat="32.9869217" lon="9.63815"><ele>213.0</ele><time>2026-04-21T07:27:21.133Z</time></trkpt><trkpt lat="32.98684" lon="9.6381083"><ele>213.0</ele><time>2026-04-21T07:27:22.132Z</time></trkpt><trkpt lat="32.9866783" lon="9.6380167"><ele>213.0</ele><time>2026-04-21T07:27:24.133Z</time></trkpt><trkpt lat="32.9865883" lon="9.637955"><ele>213.0</ele><time>2026-04-21T07:27:25.133Z</time></trkpt><trkpt lat="32.9864883" lon="9.6378933"><ele>213.0</ele><time>2026-04-21T07:27:26.132Z</time></trkpt><trkpt lat="32.98638" lon="9.6378217"><ele>213.0</ele><time>2026-04-21T07:27:27.132Z</time></trkpt><trkpt lat="32.9862683" lon="9.6377583"><ele>213.0</ele><time>2026-04-21T07:27:28.132Z</time></trkpt><trkpt lat="32.9861467" lon="9.6376917"><ele>212.75</ele><time>2026-04-21T07:27:29.132Z</time></trkpt><trkpt lat="32.9860317" lon="9.637635"><ele>212.5</ele><time>2026-04-21T07:27:30.132Z</time></trkpt><trkpt lat="32.9859217" lon="9.63758"><ele>212.25</ele><time>2026-04-21T07:27:31.132Z</time></trkpt><trkpt lat="32.9858133" lon="9.6375333"><ele>212.0</ele><time>2026-04-21T07:27:32.133Z</time></trkpt><trkpt lat="32.9857233" lon="9.6374933"><ele>212.39999999999998</ele><time>2026-04-21T07:27:33.133Z</time></trkpt><trkpt lat="32.9856367" lon="9.6374467"><ele>212.79999999999998</ele><time>2026-04-21T07:27:34.132Z</time></trkpt><trkpt lat="32.9855433" lon="9.6373983"><ele>213.2</ele><time>2026-04-21T07:27:35.132Z</time></trkpt><trkpt lat="32.9854483" lon="9.637335"><ele>213.6</ele><time>2026-04-21T07:27:36.132Z</time></trkpt><trkpt lat="32.9853483" lon="9.637265"><ele>214.0</ele><time>2026-04-21T07:27:37.133Z</time></trkpt><trkpt lat="32.985245" lon="9.6372033"><ele>214.0</ele><time>2026-04-21T07:27:38.132Z</time></trkpt><trkpt lat="32.9851283" lon="9.637145"><ele>214.0</ele><time>2026-04-21T07:27:39.133Z</time></trkpt><trkpt lat="32.9850083" lon="9.6370717"><ele>214.0</ele><time>2026-04-21T07:27:40.132Z</time></trkpt><trkpt lat="32.9848867" lon="9.6370017"><ele>214.0</ele><time>2026-04-21T07:27:41.133Z</time></trkpt><trkpt lat="32.98476" lon="9.6369217"><ele>212.66666666666666</ele><time>2026-04-21T07:27:42.133Z</time></trkpt><trkpt lat="32.9846383" lon="9.6368467"><ele>211.33333333333331</ele><time>2026-04-21T07:27:43.132Z</time></trkpt><trkpt lat="32.9843933" lon="9.6367067"><ele>210.0</ele><time>2026-04-21T07:27:45.132Z</time></trkpt><trkpt lat="32.98427" lon="9.63665"><ele>210.25</ele><time>2026-04-21T07:27:46.132Z</time></trkpt><trkpt lat="32.984145" lon="9.6365883"><ele>210.5</ele><time>2026-04-21T07:27:47.133Z</time></trkpt><trkpt lat="32.98402" lon="9.63651"><ele>210.75</ele><time>2026-04-21T07:27:48.133Z</time></trkpt><trkpt lat="32.9838933" lon="9.6364383"><ele>211.0</ele><time>2026-04-21T07:27:49.133Z</time></trkpt><trkpt lat="32.9837683" lon="9.6363783"><ele>211.0</ele><time>2026-04-21T07:27:50.133Z</time></trkpt><trkpt lat="32.9836567" lon="9.6363167"><ele>211.0</ele><time>2026-04-21T07:27:51.133Z</time></trkpt><trkpt lat="32.9835183" lon="9.636255"><ele>211.0</ele><time>2026-04-21T07:27:52.132Z</time></trkpt><trkpt lat="32.9833917" lon="9.636195"><ele>211.0</ele><time>2026-04-21T07:27:53.132Z</time></trkpt><trkpt lat="32.9832717" lon="9.6361317"><ele>211.75</ele><time>2026-04-21T07:27:54.133Z</time></trkpt><trkpt lat="32.9831633" lon="9.6360617"><ele>212.5</ele><time>2026-04-21T07:27:55.132Z</time></trkpt><trkpt lat="32.9830533" lon="9.6359917"><ele>213.25</ele><time>2026-04-21T07:27:56.133Z</time></trkpt><trkpt lat="32.98295" lon="9.6359267"><ele>214.0</ele><time>2026-04-21T07:27:57.133Z</time></trkpt><trkpt lat="32.9828433" lon="9.6358683"><ele>214.0</ele><time>2026-04-21T07:27:58.132Z</time></trkpt><trkpt lat="32.98274" lon="9.6358017"><ele>214.0</ele><time>2026-04-21T07:27:59.133Z</time></trkpt><trkpt lat="32.9826283" lon="9.6357333"><ele>214.0</ele><time>2026-04-21T07:28:00.132Z</time></trkpt><trkpt lat="32.98252" lon="9.6356717"><ele>214.0</ele><time>2026-04-21T07:28:01.132Z</time></trkpt><trkpt lat="32.9824133" lon="9.6356083"><ele>213.33333333333331</ele><time>2026-04-21T07:28:02.132Z</time></trkpt><trkpt lat="32.9823033" lon="9.6355517"><ele>212.66666666666669</ele><time>2026-04-21T07:28:03.132Z</time></trkpt><trkpt lat="32.9822067" lon="9.635495"><ele>212.0</ele><time>2026-04-21T07:28:04.131Z</time></trkpt><trkpt lat="32.9820033" lon="9.6353717"><ele>212.0</ele><time>2026-04-21T07:28:06.132Z</time></trkpt><trkpt lat="32.9819067" lon="9.6353167"><ele>212.0</ele><time>2026-04-21T07:28:07.131Z</time></trkpt><trkpt lat="32.9818017" lon="9.63526"><ele>212.0</ele><time>2026-04-21T07:28:08.131Z</time></trkpt><trkpt lat="32.9816883" lon="9.6352017"><ele>212.0</ele><time>2026-04-21T07:28:09.131Z</time></trkpt><trkpt lat="32.9815733" lon="9.6351333"><ele>211.75</ele><time>2026-04-21T07:28:10.131Z</time></trkpt><trkpt lat="32.9814617" lon="9.63508"><ele>211.5</ele><time>2026-04-21T07:28:11.132Z</time></trkpt><trkpt lat="32.981355" lon="9.635015"><ele>211.25</ele><time>2026-04-21T07:28:12.131Z</time></trkpt><trkpt lat="32.9812433" lon="9.6349517"><ele>211.0</ele><time>2026-04-21T07:28:13.132Z</time></trkpt><trkpt lat="32.981135" lon="9.6348967"><ele>211.0</ele><time>2026-04-21T07:28:14.131Z</time></trkpt><trkpt lat="32.9810317" lon="9.6348367"><ele>211.0</ele><time>2026-04-21T07:28:15.131Z</time></trkpt><trkpt lat="32.9809283" lon="9.6347733"><ele>211.0</ele><time>2026-04-21T07:28:16.132Z</time></trkpt><trkpt lat="32.9808167" lon="9.6347183"><ele>211.0</ele><time>2026-04-21T07:28:17.132Z</time></trkpt><trkpt lat="32.9807183" lon="9.634655"><ele>211.20000000000002</ele><time>2026-04-21T07:28:18.131Z</time></trkpt><trkpt lat="32.9806233" lon="9.634605"><ele>211.4</ele><time>2026-04-21T07:28:19.132Z</time></trkpt><trkpt lat="32.9805283" lon="9.6345517"><ele>211.6</ele><time>2026-04-21T07:28:20.131Z</time></trkpt><trkpt lat="32.98043" lon="9.6344967"><ele>211.8</ele><time>2026-04-21T07:28:21.132Z</time></trkpt><trkpt lat="32.9803233" lon="9.6344417"><ele>212.0</ele><time>2026-04-21T07:28:22.132Z</time></trkpt><trkpt lat="32.9802133" lon="9.634385"><ele>212.0</ele><time>2026-04-21T07:28:23.131Z</time></trkpt><trkpt lat="32.9801" lon="9.634325"><ele>212.0</ele><time>2026-04-21T07:28:24.132Z</time></trkpt><trkpt lat="32.9799883" lon="9.63426"><ele>212.0</ele><time>2026-04-21T07:28:25.132Z</time></trkpt><trkpt lat="32.9797683" lon="9.6341433"><ele>212.0</ele><time>2026-04-21T07:28:27.131Z</time></trkpt><trkpt lat="32.97966" lon="9.6340717"><ele>212.0</ele><time>2026-04-21T07:28:28.132Z</time></trkpt><trkpt lat="32.9795567" lon="9.6340083"><ele>212.0</ele><time>2026-04-21T07:28:29.132Z</time></trkpt><trkpt lat="32.9794583" lon="9.6339517"><ele>212.0</ele><time>2026-04-21T07:28:30.131Z</time></trkpt><trkpt lat="32.9793533" lon="9.6338983"><ele>212.0</ele><time>2026-04-21T07:28:31.132Z</time></trkpt><trkpt lat="32.97924" lon="9.633835"><ele>212.0</ele><time>2026-04-21T07:28:32.131Z</time></trkpt><trkpt lat="32.9791283" lon="9.6337733"><ele>212.0</ele><time>2026-04-21T07:28:33.131Z</time></trkpt><trkpt lat="32.9790283" lon="9.6337033"><ele>212.0</ele><time>2026-04-21T07:28:34.131Z</time></trkpt><trkpt lat="32.9789267" lon="9.6336383"><ele>211.8</ele><time>2026-04-21T07:28:35.132Z</time></trkpt><trkpt lat="32.9788283" lon="9.6335867"><ele>211.6</ele><time>2026-04-21T07:28:36.131Z</time></trkpt><trkpt lat="32.9787283" lon="9.6335317"><ele>211.4</ele><time>2026-04-21T07:28:37.131Z</time></trkpt><trkpt lat="32.978625" lon="9.6334717"><ele>211.20000000000002</ele><time>2026-04-21T07:28:38.132Z</time></trkpt><trkpt lat="32.9785267" lon="9.63342"><ele>211.0</ele><time>2026-04-21T07:28:39.131Z</time></trkpt><trkpt lat="32.978425" lon="9.6333583"><ele>211.25</ele><time>2026-04-21T07:28:40.132Z</time></trkpt><trkpt lat="32.9783233" lon="9.6332933"><ele>211.5</ele><time>2026-04-21T07:28:41.131Z</time></trkpt><trkpt lat="32.9782117" lon="9.63322"><ele>211.75</ele><time>2026-04-21T07:28:42.131Z</time></trkpt><trkpt lat="32.9780967" lon="9.6331667"><ele>212.0</ele><time>2026-04-21T07:28:43.131Z</time></trkpt><trkpt lat="32.9779833" lon="9.6331083"><ele>212.0</ele><time>2026-04-21T07:28:44.131Z</time></trkpt><trkpt lat="32.9778733" lon="9.6330517"><ele>212.0</ele><time>2026-04-21T07:28:45.131Z</time></trkpt><trkpt lat="32.9777633" lon="9.6329933"><ele>212.0</ele><time>2026-04-21T07:28:46.132Z</time></trkpt><trkpt lat="32.9775467" lon="9.6328767"><ele>211.5</ele><time>2026-04-21T07:28:48.132Z</time></trkpt><trkpt lat="32.977445" lon="9.6328167"><ele>211.0</ele><time>2026-04-21T07:28:49.131Z</time></trkpt><trkpt lat="32.9773383" lon="9.6327467"><ele>210.5</ele><time>2026-04-21T07:28:50.132Z</time></trkpt><trkpt lat="32.9772283" lon="9.63268"><ele>210.0</ele><time>2026-04-21T07:28:51.132Z</time></trkpt><trkpt lat="32.97712" lon="9.6326167"><ele>210.0</ele><time>2026-04-21T07:28:52.132Z</time></trkpt><trkpt lat="32.9770133" lon="9.6325617"><ele>210.0</ele><time>2026-04-21T07:28:53.132Z</time></trkpt><trkpt lat="32.9769083" lon="9.6325"><ele>210.0</ele><time>2026-04-21T07:28:54.132Z</time></trkpt><trkpt lat="32.9768033" lon="9.6324467"><ele>210.0</ele><time>2026-04-21T07:28:55.132Z</time></trkpt><trkpt lat="32.9766983" lon="9.63238"><ele>210.0</ele><time>2026-04-21T07:28:56.131Z</time></trkpt><trkpt lat="32.9765883" lon="9.63231"><ele>210.0</ele><time>2026-04-21T07:28:57.132Z</time></trkpt><trkpt lat="32.9764733" lon="9.6322367"><ele>210.0</ele><time>2026-04-21T07:28:58.131Z</time></trkpt><trkpt lat="32.97637" lon="9.632175"><ele>210.0</ele><time>2026-04-21T07:28:59.132Z</time></trkpt><trkpt lat="32.976285" lon="9.6321233"><ele>210.0</ele><time>2026-04-21T07:29:00.131Z</time></trkpt><trkpt lat="32.976215" lon="9.6320883"><ele>210.0</ele><time>2026-04-21T07:29:01.132Z</time></trkpt><trkpt lat="32.9761233" lon="9.6320333"><ele>210.0</ele><time>2026-04-21T07:29:03.131Z</time></trkpt><trkpt lat="32.9760183" lon="9.6319983"><ele>210.0</ele><time>2026-04-21T07:29:36.13Z</time></trkpt><trkpt lat="32.9758533" lon="9.6319167"><ele>210.14285714285714</ele><time>2026-04-21T07:29:38.132Z</time></trkpt><trkpt lat="32.9757767" lon="9.631875"><ele>210.28571428571428</ele><time>2026-04-21T07:29:39.131Z</time></trkpt><trkpt lat="32.9756933" lon="9.6318367"><ele>210.42857142857144</ele><time>2026-04-21T07:29:40.131Z</time></trkpt><trkpt lat="32.9756217" lon="9.631795"><ele>210.57142857142856</ele><time>2026-04-21T07:29:41.131Z</time></trkpt><trkpt lat="32.97556" lon="9.6317617"><ele>210.71428571428572</ele><time>2026-04-21T07:29:42.132Z</time></trkpt><trkpt lat="32.9755033" lon="9.6317283"><ele>210.85714285714286</ele><time>2026-04-21T07:29:43.132Z</time></trkpt><trkpt lat="32.975445" lon="9.6316983"><ele>211.0</ele><time>2026-04-21T07:29:44.131Z</time></trkpt><trkpt lat="32.9753817" lon="9.631665"><ele>210.99999999999997</ele><time>2026-04-21T07:29:45.132Z</time></trkpt><trkpt lat="32.9753117" lon="9.631625"><ele>211.0</ele><time>2026-04-21T07:29:46.132Z</time></trkpt><trkpt lat="32.975225" lon="9.631575"><ele>211.0</ele><time>2026-04-21T07:29:47.131Z</time></trkpt><trkpt lat="32.9751283" lon="9.6315267"><ele>211.0</ele><time>2026-04-21T07:29:48.132Z</time></trkpt><trkpt lat="32.9750517" lon="9.6314917"><ele>210.99999999999997</ele><time>2026-04-21T07:29:49.131Z</time></trkpt><trkpt lat="32.9749867" lon="9.6314617"><ele>211.0</ele><time>2026-04-21T07:29:50.131Z</time></trkpt><trkpt lat="32.974925" lon="9.6314267"><ele>211.99999999999997</ele><time>2026-04-21T07:29:51.132Z</time></trkpt><trkpt lat="32.9748583" lon="9.6314017"><ele>213.0</ele><time>2026-04-21T07:29:52.131Z</time></trkpt><trkpt lat="32.9747767" lon="9.6313833"><ele>214.0</ele><time>2026-04-21T07:29:53.132Z</time></trkpt><trkpt lat="32.974705" lon="9.6313817"><ele>215.0</ele><time>2026-04-21T07:29:54.132Z</time></trkpt><trkpt lat="32.97463" lon="9.63137"><ele>215.99999999999997</ele><time>2026-04-21T07:29:55.132Z</time></trkpt><trkpt lat="32.97455" lon="9.63136"><ele>217.0</ele><time>2026-04-21T07:29:56.132Z</time></trkpt><trkpt lat="32.9744683" lon="9.6313417"><ele>217.0</ele><time>2026-04-21T07:29:57.131Z</time></trkpt><trkpt lat="32.9742867" lon="9.6312833"><ele>217.0</ele><time>2026-04-21T07:29:59.132Z</time></trkpt><trkpt lat="32.97419" lon="9.6312517"><ele>217.0</ele><time>2026-04-21T07:30:00.132Z</time></trkpt><trkpt lat="32.9741" lon="9.6312267"><ele>217.0</ele><time>2026-04-21T07:30:01.132Z</time></trkpt><trkpt lat="32.9740033" lon="9.6312033"><ele>216.2</ele><time>2026-04-21T07:30:02.132Z</time></trkpt><trkpt lat="32.97391" lon="9.6311783"><ele>215.39999999999998</ele><time>2026-04-21T07:30:03.131Z</time></trkpt><trkpt lat="32.9738133" lon="9.631165"><ele>214.60000000000002</ele><time>2026-04-21T07:30:04.131Z</time></trkpt><trkpt lat="32.9737183" lon="9.6311467"><ele>213.8</ele><time>2026-04-21T07:30:05.131Z</time></trkpt><trkpt lat="32.9736233" lon="9.6311333"><ele>213.0</ele><time>2026-04-21T07:30:06.132Z</time></trkpt><trkpt lat="32.97354" lon="9.6311317"><ele>212.8</ele><time>2026-04-21T07:30:07.131Z</time></trkpt><trkpt lat="32.9734517" lon="9.6311117"><ele>212.60000000000002</ele><time>2026-04-21T07:30:08.132Z</time></trkpt><trkpt lat="32.973365" lon="9.631085"><ele>212.39999999999998</ele><time>2026-04-21T07:30:09.132Z</time></trkpt><trkpt lat="32.9732817" lon="9.6310567"><ele>212.2</ele><time>2026-04-21T07:30:10.131Z</time></trkpt><trkpt lat="32.9731917" lon="9.6310417"><ele>212.0</ele><time>2026-04-21T07:30:11.131Z</time></trkpt><trkpt lat="32.9730967" lon="9.63101"><ele>211.39999999999998</ele><time>2026-04-21T07:30:12.132Z</time></trkpt><trkpt lat="32.9729967" lon="9.6309767"><ele>210.79999999999998</ele><time>2026-04-21T07:30:13.131Z</time></trkpt><trkpt lat="32.9729" lon="9.6309417"><ele>210.2</ele><time>2026-04-21T07:30:14.132Z</time></trkpt><trkpt lat="32.9727983" lon="9.630915"><ele>209.6</ele><time>2026-04-21T07:30:15.132Z</time></trkpt><trkpt lat="32.9726967" lon="9.63089"><ele>209.0</ele><time>2026-04-21T07:30:16.132Z</time></trkpt><trkpt lat="32.9726083" lon="9.630875"><ele>208.79999999999998</ele><time>2026-04-21T07:30:17.132Z</time></trkpt><trkpt lat="32.9725217" lon="9.63085"><ele>208.6</ele><time>2026-04-21T07:30:18.131Z</time></trkpt><trkpt lat="32.9723617" lon="9.630805"><ele>208.4</ele><time>2026-04-21T07:30:20.131Z</time></trkpt><trkpt lat="32.9722733" lon="9.630785"><ele>208.2</ele><time>2026-04-21T07:30:21.131Z</time></trkpt><trkpt lat="32.9721767" lon="9.630755"><ele>208.0</ele><time>2026-04-21T07:30:22.131Z</time></trkpt><trkpt lat="32.9720733" lon="9.6307267"><ele>208.0</ele><time>2026-04-21T07:30:23.132Z</time></trkpt><trkpt lat="32.971965" lon="9.6307033"><ele>208.0</ele><time>2026-04-21T07:30:24.131Z</time></trkpt><trkpt lat="32.9718567" lon="9.6306783"><ele>208.0</ele><time>2026-04-21T07:30:25.131Z</time></trkpt><trkpt lat="32.9717383" lon="9.63064"><ele>208.0</ele><time>2026-04-21T07:30:26.132Z</time></trkpt><trkpt lat="32.971615" lon="9.6306033"><ele>208.5</ele><time>2026-04-21T07:30:27.132Z</time></trkpt><trkpt lat="32.971495" lon="9.630575"><ele>209.0</ele><time>2026-04-21T07:30:28.131Z</time></trkpt><trkpt lat="32.97137" lon="9.63056"><ele>209.5</ele><time>2026-04-21T07:30:29.131Z</time></trkpt><trkpt lat="32.9712417" lon="9.6305333"><ele>210.0</ele><time>2026-04-21T07:30:30.132Z</time></trkpt><trkpt lat="32.971115" lon="9.6305117"><ele>210.0</ele><time>2026-04-21T07:30:31.131Z</time></trkpt><trkpt lat="32.97099" lon="9.63048"><ele>210.0</ele><time>2026-04-21T07:30:32.131Z</time></trkpt><trkpt lat="32.9708617" lon="9.630455"><ele>210.0</ele><time>2026-04-21T07:30:33.131Z</time></trkpt><trkpt lat="32.9707383" lon="9.6304367"><ele>210.0</ele><time>2026-04-21T07:30:34.131Z</time></trkpt><trkpt lat="32.97061" lon="9.630415"><ele>210.6</ele><time>2026-04-21T07:30:35.132Z</time></trkpt><trkpt lat="32.970495" lon="9.6303933"><ele>211.2</ele><time>2026-04-21T07:30:36.131Z</time></trkpt><trkpt lat="32.9703967" lon="9.6303867"><ele>211.8</ele><time>2026-04-21T07:30:37.132Z</time></trkpt><trkpt lat="32.9703017" lon="9.630385"><ele>212.4</ele><time>2026-04-21T07:30:38.132Z</time></trkpt><trkpt lat="32.9702033" lon="9.6303883"><ele>213.0</ele><time>2026-04-21T07:30:39.131Z</time></trkpt><trkpt lat="32.9700033" lon="9.6304083"><ele>213.33333333333334</ele><time>2026-04-21T07:30:41.131Z</time></trkpt><trkpt lat="32.9699" lon="9.6303967"><ele>213.66666666666669</ele><time>2026-04-21T07:30:42.132Z</time></trkpt><trkpt lat="32.9698117" lon="9.6303867"><ele>214.0</ele><time>2026-04-21T07:30:43.132Z</time></trkpt><trkpt lat="32.9697267" lon="9.630375"><ele>214.33333333333334</ele><time>2026-04-21T07:30:44.132Z</time></trkpt><trkpt lat="32.969645" lon="9.63036"><ele>214.66666666666669</ele><time>2026-04-21T07:30:45.131Z</time></trkpt><trkpt lat="32.9695633" lon="9.6303533"><ele>215.0</ele><time>2026-04-21T07:30:46.131Z</time></trkpt><trkpt lat="32.9694817" lon="9.63034"><ele>215.0</ele><time>2026-04-21T07:30:47.131Z</time></trkpt><trkpt lat="32.9693933" lon="9.6303183"><ele>215.0</ele><time>2026-04-21T07:30:48.131Z</time></trkpt><trkpt lat="32.9693117" lon="9.6302967"><ele>215.0</ele><time>2026-04-21T07:30:49.132Z</time></trkpt><trkpt lat="32.9692283" lon="9.6302767"><ele>215.0</ele><time>2026-04-21T07:30:50.131Z</time></trkpt><trkpt lat="32.9691267" lon="9.6302567"><ele>215.0</ele><time>2026-04-21T07:30:51.132Z</time></trkpt><trkpt lat="32.969025" lon="9.63025"><ele>214.4</ele><time>2026-04-21T07:30:52.13Z</time></trkpt><trkpt lat="32.9689217" lon="9.6302483"><ele>213.8</ele><time>2026-04-21T07:30:53.13Z</time></trkpt><trkpt lat="32.9688167" lon="9.6302417"><ele>213.2</ele><time>2026-04-21T07:30:54.131Z</time></trkpt><trkpt lat="32.9687183" lon="9.63023"><ele>212.6</ele><time>2026-04-21T07:30:55.13Z</time></trkpt><trkpt lat="32.9686217" lon="9.630215"><ele>212.0</ele><time>2026-04-21T07:30:56.131Z</time></trkpt><trkpt lat="32.9685233" lon="9.6301983"><ele>212.0</ele><time>2026-04-21T07:30:57.131Z</time></trkpt><trkpt lat="32.9684267" lon="9.630175"><ele>212.0</ele><time>2026-04-21T07:30:58.131Z</time></trkpt><trkpt lat="32.9683267" lon="9.6301583"><ele>212.0</ele><time>2026-04-21T07:30:59.131Z</time></trkpt><trkpt lat="32.9682267" lon="9.6301283"><ele>212.0</ele><time>2026-04-21T07:31:00.13Z</time></trkpt><trkpt lat="32.968015" lon="9.6300883"><ele>210.5</ele><time>2026-04-21T07:31:02.131Z</time></trkpt><trkpt lat="32.9679033" lon="9.6300817"><ele>209.0</ele><time>2026-04-21T07:31:03.13Z</time></trkpt><trkpt lat="32.967785" lon="9.630075"><ele>207.5</ele><time>2026-04-21T07:31:04.13Z</time></trkpt><trkpt lat="32.9676683" lon="9.6300617"><ele>206.0</ele><time>2026-04-21T07:31:05.13Z</time></trkpt><trkpt lat="32.9675517" lon="9.63005"><ele>205.75</ele><time>2026-04-21T07:31:06.13Z</time></trkpt><trkpt lat="32.9674367" lon="9.6300333"><ele>205.5</ele><time>2026-04-21T07:31:07.131Z</time></trkpt><trkpt lat="32.9673283" lon="9.6300117"><ele>205.25</ele><time>2026-04-21T07:31:08.13Z</time></trkpt><trkpt lat="32.96721" lon="9.62999"><ele>205.0</ele><time>2026-04-21T07:31:09.131Z</time></trkpt><trkpt lat="32.9671" lon="9.6299667"><ele>205.0</ele><time>2026-04-21T07:31:10.13Z</time></trkpt><trkpt lat="32.96699" lon="9.6299317"><ele>205.0</ele><time>2026-04-21T07:31:11.13Z</time></trkpt><trkpt lat="32.96688" lon="9.6299117"><ele>205.0</ele><time>2026-04-21T07:31:12.13Z</time></trkpt><trkpt lat="32.96677" lon="9.6298917"><ele>205.0</ele><time>2026-04-21T07:31:13.13Z</time></trkpt><trkpt lat="32.9666567" lon="9.6298667"><ele>206.5</ele><time>2026-04-21T07:31:14.13Z</time></trkpt><trkpt lat="32.9665467" lon="9.629845"><ele>208.0</ele><time>2026-04-21T07:31:15.131Z</time></trkpt><trkpt lat="32.9664333" lon="9.6298217"><ele>209.5</ele><time>2026-04-21T07:31:16.13Z</time></trkpt><trkpt lat="32.9663267" lon="9.6298083"><ele>211.0</ele><time>2026-04-21T07:31:17.13Z</time></trkpt><trkpt lat="32.96621" lon="9.62979"><ele>211.0</ele><time>2026-04-21T07:31:18.131Z</time></trkpt><trkpt lat="32.9660967" lon="9.6297733"><ele>211.0</ele><time>2026-04-21T07:31:19.13Z</time></trkpt><trkpt lat="32.965985" lon="9.629745"><ele>211.0</ele><time>2026-04-21T07:31:20.131Z</time></trkpt><trkpt lat="32.9658683" lon="9.6297267"><ele>211.0</ele><time>2026-04-21T07:31:21.131Z</time></trkpt><trkpt lat="32.96565" lon="9.6296817"><ele>211.20000000000002</ele><time>2026-04-21T07:31:23.131Z</time></trkpt><trkpt lat="32.9655417" lon="9.6296633"><ele>211.4</ele><time>2026-04-21T07:31:24.13Z</time></trkpt><trkpt lat="32.96543" lon="9.629645"><ele>211.6</ele><time>2026-04-21T07:31:25.13Z</time></trkpt><trkpt lat="32.96532" lon="9.629625"><ele>211.8</ele><time>2026-04-21T07:31:26.131Z</time></trkpt><trkpt lat="32.96521" lon="9.6296117"><ele>212.0</ele><time>2026-04-21T07:31:27.13Z</time></trkpt><trkpt lat="32.965095" lon="9.6295917"><ele>212.6</ele><time>2026-04-21T07:31:28.131Z</time></trkpt><trkpt lat="32.9649833" lon="9.6295617"><ele>213.2</ele><time>2026-04-21T07:31:29.13Z</time></trkpt><trkpt lat="32.96488" lon="9.62954"><ele>213.8</ele><time>2026-04-21T07:31:30.131Z</time></trkpt><trkpt lat="32.964765" lon="9.6295267"><ele>214.4</ele><time>2026-04-21T07:31:31.13Z</time></trkpt><trkpt lat="32.9646583" lon="9.629505"><ele>215.0</ele><time>2026-04-21T07:31:32.13Z</time></trkpt><trkpt lat="32.9645433" lon="9.629495"><ele>215.0</ele><time>2026-04-21T07:31:33.131Z</time></trkpt><trkpt lat="32.9644267" lon="9.6294833"><ele>215.0</ele><time>2026-04-21T07:31:34.131Z</time></trkpt><trkpt lat="32.96431" lon="9.6294667"><ele>215.0</ele><time>2026-04-21T07:31:35.13Z</time></trkpt><trkpt lat="32.9641917" lon="9.629445"><ele>215.0</ele><time>2026-04-21T07:31:36.131Z</time></trkpt><trkpt lat="32.96407" lon="9.6294167"><ele>213.75</ele><time>2026-04-21T07:31:37.13Z</time></trkpt><trkpt lat="32.96395" lon="9.6293833"><ele>212.5</ele><time>2026-04-21T07:31:38.13Z</time></trkpt><trkpt lat="32.9638383" lon="9.6293533"><ele>211.25</ele><time>2026-04-21T07:31:39.13Z</time></trkpt><trkpt lat="32.9637317" lon="9.629325"><ele>210.0</ele><time>2026-04-21T07:31:40.13Z</time></trkpt><trkpt lat="32.96362" lon="9.6293083"><ele>210.0</ele><time>2026-04-21T07:31:41.13Z</time></trkpt><trkpt lat="32.963505" lon="9.62929"><ele>210.0</ele><time>2026-04-21T07:31:42.13Z</time></trkpt><trkpt lat="32.963285" lon="9.6292617"><ele>210.0</ele><time>2026-04-21T07:31:44.131Z</time></trkpt><trkpt lat="32.9631683" lon="9.6292583"><ele>210.6</ele><time>2026-04-21T07:31:45.13Z</time></trkpt><trkpt lat="32.9630533" lon="9.629255"><ele>211.2</ele><time>2026-04-21T07:31:46.131Z</time></trkpt><trkpt lat="32.962945" lon="9.6292533"><ele>211.8</ele><time>2026-04-21T07:31:47.131Z</time></trkpt><trkpt lat="32.962835" lon="9.62926"><ele>212.4</ele><time>2026-04-21T07:31:48.13Z</time></trkpt><trkpt lat="32.962725" lon="9.6292633"><ele>213.0</ele><time>2026-04-21T07:31:49.13Z</time></trkpt><trkpt lat="32.9626167" lon="9.6292667"><ele>212.60000000000002</ele><time>2026-04-21T07:31:50.13Z</time></trkpt><trkpt lat="32.962505" lon="9.6292617"><ele>212.20000000000002</ele><time>2026-04-21T07:31:51.131Z</time></trkpt><trkpt lat="32.9624033" lon="9.6292467"><ele>211.8</ele><time>2026-04-21T07:31:52.131Z</time></trkpt><trkpt lat="32.96231" lon="9.629225"><ele>211.4</ele><time>2026-04-21T07:31:53.131Z</time></trkpt><trkpt lat="32.9622283" lon="9.629205"><ele>211.0</ele><time>2026-04-21T07:31:54.131Z</time></trkpt><trkpt lat="32.96217" lon="9.629175"><ele>211.0</ele><time>2026-04-21T07:31:55.131Z</time></trkpt><trkpt lat="32.9621033" lon="9.629095"><ele>211.0</ele><time>2026-04-21T07:31:57.131Z</time></trkpt><trkpt lat="32.9620383" lon="9.6290017"><ele>211.0</ele><time>2026-04-21T07:31:59.131Z</time></trkpt><trkpt lat="32.9619517" lon="9.6288967"><ele>211.0</ele><time>2026-04-21T07:32:01.13Z</time></trkpt><trkpt lat="32.9618967" lon="9.6288383"><ele>211.0</ele><time>2026-04-21T07:32:02.13Z</time></trkpt><trkpt lat="32.9618333" lon="9.6287967"><ele>210.60000000000002</ele><time>2026-04-21T07:32:03.13Z</time></trkpt><trkpt lat="32.9616883" lon="9.6287333"><ele>210.2</ele><time>2026-04-21T07:32:05.131Z</time></trkpt><trkpt lat="32.9616083" lon="9.6286967"><ele>209.8</ele><time>2026-04-21T07:32:06.131Z</time></trkpt><trkpt lat="32.9615317" lon="9.6286417"><ele>209.39999999999998</ele><time>2026-04-21T07:32:07.131Z</time></trkpt><trkpt lat="32.9614583" lon="9.628575"><ele>209.0</ele><time>2026-04-21T07:32:08.131Z</time></trkpt><trkpt lat="32.9613883" lon="9.6285033"><ele>209.0</ele><time>2026-04-21T07:32:09.131Z</time></trkpt><trkpt lat="32.9613217" lon="9.6284283"><ele>209.0</ele><time>2026-04-21T07:32:10.13Z</time></trkpt><trkpt lat="32.9612533" lon="9.628355"><ele>209.0</ele><time>2026-04-21T07:32:11.131Z</time></trkpt><trkpt lat="32.961185" lon="9.6282833"><ele>209.0</ele><time>2026-04-21T07:32:12.13Z</time></trkpt><trkpt lat="32.96111" lon="9.628215"><ele>209.0</ele><time>2026-04-21T07:32:13.13Z</time></trkpt><trkpt lat="32.9610367" lon="9.6281417"><ele>209.0</ele><time>2026-04-21T07:32:14.131Z</time></trkpt><trkpt lat="32.9609633" lon="9.6280733"><ele>209.0</ele><time>2026-04-21T07:32:15.13Z</time></trkpt><trkpt lat="32.9608867" lon="9.6279983"><ele>209.0</ele><time>2026-04-21T07:32:16.131Z</time></trkpt><trkpt lat="32.96081" lon="9.627925"><ele>209.0</ele><time>2026-04-21T07:32:17.131Z</time></trkpt><trkpt lat="32.9607267" lon="9.6278467"><ele>209.0</ele><time>2026-04-21T07:32:18.131Z</time></trkpt><trkpt lat="32.9606517" lon="9.62778"><ele>209.0</ele><time>2026-04-21T07:32:19.131Z</time></trkpt><trkpt lat="32.96057" lon="9.6277167"><ele>209.0</ele><time>2026-04-21T07:32:20.13Z</time></trkpt><trkpt lat="32.9604933" lon="9.627645"><ele>209.0</ele><time>2026-04-21T07:32:21.13Z</time></trkpt><trkpt lat="32.9604217" lon="9.62757"><ele>209.0</ele><time>2026-04-21T07:32:22.13Z</time></trkpt><trkpt lat="32.9603517" lon="9.62749"><ele>209.0</ele><time>2026-04-21T07:32:23.131Z</time></trkpt><trkpt lat="32.9602833" lon="9.62741"><ele>209.0</ele><time>2026-04-21T07:32:24.13Z</time></trkpt><trkpt lat="32.96014" lon="9.627235"><ele>209.0</ele><time>2026-04-21T07:32:26.13Z</time></trkpt><trkpt lat="32.960075" lon="9.6271517"><ele>209.0</ele><time>2026-04-21T07:32:27.13Z</time></trkpt><trkpt lat="32.9600133" lon="9.627055"><ele>209.0</ele><time>2026-04-21T07:32:28.13Z</time></trkpt><trkpt lat="32.9599483" lon="9.62697"><ele>208.79999999999998</ele><time>2026-04-21T07:32:29.131Z</time></trkpt><trkpt lat="32.9598883" lon="9.6268767"><ele>208.6</ele><time>2026-04-21T07:32:30.13Z</time></trkpt><trkpt lat="32.9598317" lon="9.6267833"><ele>208.4</ele><time>2026-04-21T07:32:31.131Z</time></trkpt><trkpt lat="32.9597783" lon="9.626685"><ele>208.2</ele><time>2026-04-21T07:32:32.131Z</time></trkpt><trkpt lat="32.9597267" lon="9.6265867"><ele>208.0</ele><time>2026-04-21T07:32:33.13Z</time></trkpt><trkpt lat="32.959675" lon="9.6264917"><ele>208.0</ele><time>2026-04-21T07:32:34.13Z</time></trkpt><trkpt lat="32.9596183" lon="9.6263883"><ele>208.0</ele><time>2026-04-21T07:32:35.131Z</time></trkpt><trkpt lat="32.9595667" lon="9.626285"><ele>208.0</ele><time>2026-04-21T07:32:36.131Z</time></trkpt><trkpt lat="32.95951" lon="9.6261867"><ele>208.0</ele><time>2026-04-21T07:32:37.13Z</time></trkpt><trkpt lat="32.9594483" lon="9.62609"><ele>208.0</ele><time>2026-04-21T07:32:38.131Z</time></trkpt><trkpt lat="32.9593917" lon="9.6259933"><ele>208.4</ele><time>2026-04-21T07:32:39.13Z</time></trkpt><trkpt lat="32.9593317" lon="9.62589"><ele>208.8</ele><time>2026-04-21T07:32:40.131Z</time></trkpt><trkpt lat="32.9592767" lon="9.62579"><ele>209.2</ele><time>2026-04-21T07:32:41.131Z</time></trkpt><trkpt lat="32.9592217" lon="9.625685"><ele>209.6</ele><time>2026-04-21T07:32:42.13Z</time></trkpt><trkpt lat="32.9591633" lon="9.625585"><ele>210.0</ele><time>2026-04-21T07:32:43.13Z</time></trkpt><trkpt lat="32.959105" lon="9.625485"><ele>210.0</ele><time>2026-04-21T07:32:44.131Z</time></trkpt><trkpt lat="32.959045" lon="9.6253933"><ele>210.0</ele><time>2026-04-21T07:32:45.13Z</time></trkpt><trkpt lat="32.9589233" lon="9.625205"><ele>210.0</ele><time>2026-04-21T07:32:47.131Z</time></trkpt><trkpt lat="32.9588667" lon="9.6251167"><ele>210.0</ele><time>2026-04-21T07:32:48.131Z</time></trkpt><trkpt lat="32.9588033" lon="9.6250283"><ele>209.8</ele><time>2026-04-21T07:32:49.131Z</time></trkpt><trkpt lat="32.958745" lon="9.62494"><ele>209.6</ele><time>2026-04-21T07:32:50.131Z</time></trkpt><trkpt lat="32.9586783" lon="9.62485"><ele>209.39999999999998</ele><time>2026-04-21T07:32:51.131Z</time></trkpt><trkpt lat="32.958615" lon="9.6247717"><ele>209.2</ele><time>2026-04-21T07:32:52.131Z</time></trkpt><trkpt lat="32.95854" lon="9.6246967"><ele>209.0</ele><time>2026-04-21T07:32:53.131Z</time></trkpt><trkpt lat="32.9584667" lon="9.6246133"><ele>209.0</ele><time>2026-04-21T07:32:54.13Z</time></trkpt><trkpt lat="32.9583983" lon="9.6245283"><ele>209.0</ele><time>2026-04-21T07:32:55.131Z</time></trkpt><trkpt lat="32.9583217" lon="9.6244483"><ele>209.0</ele><time>2026-04-21T07:32:56.13Z</time></trkpt><trkpt lat="32.9582517" lon="9.6243633"><ele>209.0</ele><time>2026-04-21T07:32:57.13Z</time></trkpt><trkpt lat="32.9581833" lon="9.624275"><ele>209.0</ele><time>2026-04-21T07:32:58.13Z</time></trkpt><trkpt lat="32.9581183" lon="9.6241817"><ele>208.39999999999998</ele><time>2026-04-21T07:32:59.131Z</time></trkpt><trkpt lat="32.9580617" lon="9.6240783"><ele>207.8</ele><time>2026-04-21T07:33:00.13Z</time></trkpt><trkpt lat="32.9580267" lon="9.623985"><ele>207.2</ele><time>2026-04-21T07:33:01.13Z</time></trkpt><trkpt lat="32.957995" lon="9.6238817"><ele>206.60000000000002</ele><time>2026-04-21T07:33:02.13Z</time></trkpt><trkpt lat="32.9579667" lon="9.6237683"><ele>206.0</ele><time>2026-04-21T07:33:03.131Z</time></trkpt><trkpt lat="32.95794" lon="9.6236517"><ele>207.0</ele><time>2026-04-21T07:33:04.13Z</time></trkpt><trkpt lat="32.95791" lon="9.62354"><ele>208.0</ele><time>2026-04-21T07:33:05.13Z</time></trkpt><trkpt lat="32.9578767" lon="9.6234317"><ele>209.0</ele><time>2026-04-21T07:33:06.13Z</time></trkpt><trkpt lat="32.9578383" lon="9.6232017"><ele>210.0</ele><time>2026-04-21T07:33:08.131Z</time></trkpt><trkpt lat="32.957815" lon="9.623095"><ele>210.0</ele><time>2026-04-21T07:33:09.13Z</time></trkpt><trkpt lat="32.9577783" lon="9.6229817"><ele>210.0</ele><time>2026-04-21T07:33:10.131Z</time></trkpt><trkpt lat="32.9577417" lon="9.622875"><ele>210.0</ele><time>2026-04-21T07:33:11.13Z</time></trkpt><trkpt lat="32.9577017" lon="9.62276"><ele>210.0</ele><time>2026-04-21T07:33:12.13Z</time></trkpt><trkpt lat="32.9576567" lon="9.6226567"><ele>210.0</ele><time>2026-04-21T07:33:13.13Z</time></trkpt><trkpt lat="32.9576117" lon="9.6225617"><ele>210.16666666666666</ele><time>2026-04-21T07:33:14.131Z</time></trkpt><trkpt lat="32.957565" lon="9.622475"><ele>210.33333333333331</ele><time>2026-04-21T07:33:15.131Z</time></trkpt><trkpt lat="32.9575033" lon="9.6224"><ele>210.5</ele><time>2026-04-21T07:33:16.13Z</time></trkpt><trkpt lat="32.9574417" lon="9.622325"><ele>210.66666666666666</ele><time>2026-04-21T07:33:17.13Z</time></trkpt><trkpt lat="32.95739" lon="9.62225"><ele>210.83333333333331</ele><time>2026-04-21T07:33:18.13Z</time></trkpt><trkpt lat="32.9573433" lon="9.6221717"><ele>211.0</ele><time>2026-04-21T07:33:19.131Z</time></trkpt><trkpt lat="32.9573083" lon="9.6220833"><ele>210.99999999999997</ele><time>2026-04-21T07:33:20.131Z</time></trkpt><trkpt lat="32.9572733" lon="9.6220017"><ele>211.0</ele><time>2026-04-21T07:33:21.131Z</time></trkpt><trkpt lat="32.9572283" lon="9.621935"><ele>211.0</ele><time>2026-04-21T07:33:22.131Z</time></trkpt><trkpt lat="32.9571667" lon="9.6218733"><ele>211.0</ele><time>2026-04-21T07:33:23.131Z</time></trkpt><trkpt lat="32.957105" lon="9.62181"><ele>210.99999999999997</ele><time>2026-04-21T07:33:24.13Z</time></trkpt><trkpt lat="32.95704" lon="9.6217467"><ele>211.0</ele><time>2026-04-21T07:33:25.13Z</time></trkpt><trkpt lat="32.9569767" lon="9.621675"><ele>210.75</ele><time>2026-04-21T07:33:26.131Z</time></trkpt><trkpt lat="32.9569183" lon="9.6215867"><ele>210.5</ele><time>2026-04-21T07:33:27.13Z</time></trkpt><trkpt lat="32.9567933" lon="9.6214183"><ele>210.25</ele><time>2026-04-21T07:33:29.131Z</time></trkpt><trkpt lat="32.956725" lon="9.621345"><ele>210.0</ele><time>2026-04-21T07:33:30.13Z</time></trkpt><trkpt lat="32.9566567" lon="9.6212683"><ele>209.83333333333334</ele><time>2026-04-21T07:33:31.131Z</time></trkpt><trkpt lat="32.9565933" lon="9.6212017"><ele>209.66666666666669</ele><time>2026-04-21T07:33:32.13Z</time></trkpt><trkpt lat="32.9565217" lon="9.6211433"><ele>209.5</ele><time>2026-04-21T07:33:33.13Z</time></trkpt><trkpt lat="32.95645" lon="9.6210883"><ele>209.33333333333334</ele><time>2026-04-21T07:33:34.13Z</time></trkpt><trkpt lat="32.9563733" lon="9.6210367"><ele>209.16666666666669</ele><time>2026-04-21T07:33:35.13Z</time></trkpt><trkpt lat="32.9562917" lon="9.62099"><ele>209.0</ele><time>2026-04-21T07:33:36.131Z</time></trkpt><trkpt lat="32.95621" lon="9.6209483"><ele>209.0</ele><time>2026-04-21T07:33:37.131Z</time></trkpt><trkpt lat="32.9561217" lon="9.6209133"><ele>209.0</ele><time>2026-04-21T07:33:38.131Z</time></trkpt><trkpt lat="32.9560317" lon="9.6208767"><ele>209.0</ele><time>2026-04-21T07:33:39.13Z</time></trkpt><trkpt lat="32.95594" lon="9.6208333"><ele>209.0</ele><time>2026-04-21T07:33:40.13Z</time></trkpt><trkpt lat="32.95585" lon="9.620795"><ele>209.0</ele><time>2026-04-21T07:33:41.131Z</time></trkpt><trkpt lat="32.9557633" lon="9.620755"><ele>209.00000000000003</ele><time>2026-04-21T07:33:42.13Z</time></trkpt><trkpt lat="32.9556833" lon="9.62072"><ele>209.0</ele><time>2026-04-21T07:33:43.13Z</time></trkpt><trkpt lat="32.9556017" lon="9.6206967"><ele>209.0</ele><time>2026-04-21T07:33:44.13Z</time></trkpt><trkpt lat="32.9555167" lon="9.62068"><ele>209.0</ele><time>2026-04-21T07:33:45.131Z</time></trkpt><trkpt lat="32.95544" lon="9.620665"><ele>209.00000000000003</ele><time>2026-04-21T07:33:46.13Z</time></trkpt><trkpt lat="32.9553567" lon="9.620645"><ele>209.0</ele><time>2026-04-21T07:33:47.13Z</time></trkpt><trkpt lat="32.9552733" lon="9.6206333"><ele>209.00000000000003</ele><time>2026-04-21T07:33:48.13Z</time></trkpt><trkpt lat="32.95512" lon="9.62063"><ele>209.0</ele><time>2026-04-21T07:33:50.131Z</time></trkpt><trkpt lat="32.9550467" lon="9.620635"><ele>209.0</ele><time>2026-04-21T07:33:51.13Z</time></trkpt><trkpt lat="32.954975" lon="9.62063"><ele>209.0</ele><time>2026-04-21T07:33:52.13Z</time></trkpt><trkpt lat="32.9549" lon="9.6206283"><ele>209.00000000000003</ele><time>2026-04-21T07:33:53.131Z</time></trkpt><trkpt lat="32.9548267" lon="9.6206317"><ele>209.0</ele><time>2026-04-21T07:33:54.131Z</time></trkpt><trkpt lat="32.9547517" lon="9.6206383"><ele>209.14285714285714</ele><time>2026-04-21T07:33:55.131Z</time></trkpt><trkpt lat="32.9546733" lon="9.6206433"><ele>209.28571428571428</ele><time>2026-04-21T07:33:56.13Z</time></trkpt><trkpt lat="32.95459" lon="9.6206483"><ele>209.42857142857144</ele><time>2026-04-21T07:33:57.13Z</time></trkpt><trkpt lat="32.9545167" lon="9.6206483"><ele>209.57142857142856</ele><time>2026-04-21T07:33:58.13Z</time></trkpt><trkpt lat="32.954445" lon="9.62065"><ele>209.71428571428572</ele><time>2026-04-21T07:33:59.13Z</time></trkpt><trkpt lat="32.9543783" lon="9.620655"><ele>209.85714285714286</ele><time>2026-04-21T07:34:00.129Z</time></trkpt><trkpt lat="32.95431" lon="9.620655"><ele>210.0</ele><time>2026-04-21T07:34:01.13Z</time></trkpt><trkpt lat="32.9542283" lon="9.62065"><ele>210.0</ele><time>2026-04-21T07:34:02.13Z</time></trkpt><trkpt lat="32.954145" lon="9.6206467"><ele>210.0</ele><time>2026-04-21T07:34:03.13Z</time></trkpt><trkpt lat="32.9540567" lon="9.62065"><ele>210.0</ele><time>2026-04-21T07:34:04.13Z</time></trkpt><trkpt lat="32.953965" lon="9.6206517"><ele>210.0</ele><time>2026-04-21T07:34:05.13Z</time></trkpt><trkpt lat="32.9538767" lon="9.6206517"><ele>210.0</ele><time>2026-04-21T07:34:06.129Z</time></trkpt><trkpt lat="32.9537933" lon="9.620655"><ele>210.0</ele><time>2026-04-21T07:34:07.129Z</time></trkpt><trkpt lat="32.953705" lon="9.6206583"><ele>210.0</ele><time>2026-04-21T07:34:08.129Z</time></trkpt><trkpt lat="32.9536133" lon="9.6206617"><ele>210.0</ele><time>2026-04-21T07:34:09.129Z</time></trkpt><trkpt lat="32.9534417" lon="9.6206583"><ele>210.0</ele><time>2026-04-21T07:34:11.129Z</time></trkpt><trkpt lat="32.9533633" lon="9.6206567"><ele>210.0</ele><time>2026-04-21T07:34:12.129Z</time></trkpt><trkpt lat="32.9532767" lon="9.6206517"><ele>210.0</ele><time>2026-04-21T07:34:13.13Z</time></trkpt><trkpt lat="32.9531867" lon="9.6206433"><ele>210.33333333333334</ele><time>2026-04-21T07:34:14.13Z</time></trkpt><trkpt lat="32.9531" lon="9.6206367"><ele>210.66666666666669</ele><time>2026-04-21T07:34:15.129Z</time></trkpt><trkpt lat="32.95301" lon="9.6206383"><ele>211.0</ele><time>2026-04-21T07:34:16.129Z</time></trkpt><trkpt lat="32.9529233" lon="9.6206433"><ele>211.33333333333334</ele><time>2026-04-21T07:34:17.13Z</time></trkpt><trkpt lat="32.9528367" lon="9.6206467"><ele>211.66666666666669</ele><time>2026-04-21T07:34:18.13Z</time></trkpt><trkpt lat="32.952755" lon="9.6206533"><ele>212.0</ele><time>2026-04-21T07:34:19.13Z</time></trkpt><trkpt lat="32.95266" lon="9.62066"><ele>212.00000000000003</ele><time>2026-04-21T07:34:20.13Z</time></trkpt><trkpt lat="32.9525667" lon="9.620665"><ele>212.0</ele><time>2026-04-21T07:34:21.13Z</time></trkpt><trkpt lat="32.9524767" lon="9.6206717"><ele>212.0</ele><time>2026-04-21T07:34:22.129Z</time></trkpt><trkpt lat="32.952395" lon="9.6206783"><ele>212.0</ele><time>2026-04-21T07:34:23.129Z</time></trkpt><trkpt lat="32.9523117" lon="9.6206867"><ele>212.00000000000003</ele><time>2026-04-21T07:34:24.13Z</time></trkpt><trkpt lat="32.9522283" lon="9.620695"><ele>212.0</ele><time>2026-04-21T07:34:25.129Z</time></trkpt><trkpt lat="32.9521433" lon="9.620705"><ele>210.6</ele><time>2026-04-21T07:34:26.13Z</time></trkpt><trkpt lat="32.9520567" lon="9.620705"><ele>209.2</ele><time>2026-04-21T07:34:27.129Z</time></trkpt><trkpt lat="32.95197" lon="9.6207117"><ele>207.8</ele><time>2026-04-21T07:34:28.129Z</time></trkpt><trkpt lat="32.951875" lon="9.6207167"><ele>206.4</ele><time>2026-04-21T07:34:29.129Z</time></trkpt><trkpt lat="32.95179" lon="9.6207233"><ele>205.0</ele><time>2026-04-21T07:34:30.13Z</time></trkpt><trkpt lat="32.9516183" lon="9.62073"><ele>205.0</ele><time>2026-04-21T07:34:32.13Z</time></trkpt><trkpt lat="32.9515283" lon="9.620735"><ele>205.0</ele><time>2026-04-21T07:34:33.13Z</time></trkpt><trkpt lat="32.9514483" lon="9.62074"><ele>205.0</ele><time>2026-04-21T07:34:34.13Z</time></trkpt><trkpt lat="32.951375" lon="9.6207383"><ele>205.0</ele><time>2026-04-21T07:34:35.13Z</time></trkpt><trkpt lat="32.9513033" lon="9.6207417"><ele>205.0</ele><time>2026-04-21T07:34:36.13Z</time></trkpt><trkpt lat="32.9512367" lon="9.6207433"><ele>205.0</ele><time>2026-04-21T07:34:37.129Z</time></trkpt><trkpt lat="32.9511733" lon="9.620735"><ele>205.0</ele><time>2026-04-21T07:34:38.129Z</time></trkpt><trkpt lat="32.95111" lon="9.62073"><ele>205.0</ele><time>2026-04-21T07:34:39.13Z</time></trkpt><trkpt lat="32.9509817" lon="9.620735"><ele>205.0</ele><time>2026-04-21T07:34:41.13Z</time></trkpt><trkpt lat="32.9509183" lon="9.620745"><ele>205.0</ele><time>2026-04-21T07:34:42.13Z</time></trkpt><trkpt lat="32.950805" lon="9.620765"><ele>205.0</ele><time>2026-04-21T07:34:44.13Z</time></trkpt><trkpt lat="32.9506833" lon="9.6207883"><ele>205.0</ele><time>2026-04-21T07:34:46.129Z</time></trkpt><trkpt lat="32.950615" lon="9.620805"><ele>205.83333333333331</ele><time>2026-04-21T07:34:47.13Z</time></trkpt><trkpt lat="32.9505433" lon="9.6208217"><ele>206.66666666666666</ele><time>2026-04-21T07:34:48.129Z</time></trkpt><trkpt lat="32.950475" lon="9.620825"><ele>207.5</ele><time>2026-04-21T07:34:49.13Z</time></trkpt><trkpt lat="32.9504017" lon="9.6208267"><ele>208.33333333333331</ele><time>2026-04-21T07:34:50.13Z</time></trkpt><trkpt lat="32.95033" lon="9.6208267"><ele>209.16666666666666</ele><time>2026-04-21T07:34:51.13Z</time></trkpt><trkpt lat="32.9501867" lon="9.620785"><ele>210.0</ele><time>2026-04-21T07:34:53.129Z</time></trkpt><trkpt lat="32.95011" lon="9.6207717"><ele>210.0</ele><time>2026-04-21T07:34:54.13Z</time></trkpt><trkpt lat="32.9500417" lon="9.620775"><ele>210.0</ele><time>2026-04-21T07:34:55.13Z</time></trkpt><trkpt lat="32.9499183" lon="9.6207817"><ele>210.0</ele><time>2026-04-21T07:34:57.129Z</time></trkpt><trkpt lat="32.9498533" lon="9.62079"><ele>210.0</ele><time>2026-04-21T07:34:58.13Z</time></trkpt><trkpt lat="32.949785" lon="9.6207983"><ele>210.0</ele><time>2026-04-21T07:34:59.129Z</time></trkpt><trkpt lat="32.9497083" lon="9.6208017"><ele>210.0</ele><time>2026-04-21T07:35:00.13Z</time></trkpt><trkpt lat="32.949635" lon="9.62081"><ele>209.83333333333334</ele><time>2026-04-21T07:35:01.129Z</time></trkpt><trkpt lat="32.9495567" lon="9.62081"><ele>209.66666666666669</ele><time>2026-04-21T07:35:02.129Z</time></trkpt><trkpt lat="32.9494667" lon="9.620815"><ele>209.5</ele><time>2026-04-21T07:35:03.129Z</time></trkpt><trkpt lat="32.9493883" lon="9.620825"><ele>209.33333333333334</ele><time>2026-04-21T07:35:04.13Z</time></trkpt><trkpt lat="32.9493133" lon="9.6208267"><ele>209.16666666666669</ele><time>2026-04-21T07:35:05.13Z</time></trkpt><trkpt lat="32.94924" lon="9.62084"><ele>209.0</ele><time>2026-04-21T07:35:06.13Z</time></trkpt><trkpt lat="32.9491617" lon="9.6208567"><ele>209.00000000000003</ele><time>2026-04-21T07:35:07.129Z</time></trkpt><trkpt lat="32.949075" lon="9.620875"><ele>209.0</ele><time>2026-04-21T07:35:08.129Z</time></trkpt><trkpt lat="32.9489917" lon="9.6208783"><ele>209.0</ele><time>2026-04-21T07:35:09.13Z</time></trkpt><trkpt lat="32.9489017" lon="9.6208717"><ele>209.0</ele><time>2026-04-21T07:35:10.129Z</time></trkpt><trkpt lat="32.9488133" lon="9.62087"><ele>209.00000000000003</ele><time>2026-04-21T07:35:11.129Z</time></trkpt><trkpt lat="32.9487317" lon="9.6208667"><ele>209.0</ele><time>2026-04-21T07:35:12.13Z</time></trkpt><trkpt lat="32.948535" lon="9.620875"><ele>209.00000000000003</ele><time>2026-04-21T07:35:15.13Z</time></trkpt><trkpt lat="32.948465" lon="9.62088"><ele>209.0</ele><time>2026-04-21T07:35:16.13Z</time></trkpt><trkpt lat="32.9483933" lon="9.6208917"><ele>209.0</ele><time>2026-04-21T07:35:17.13Z</time></trkpt><trkpt lat="32.9483133" lon="9.6209017"><ele>209.0</ele><time>2026-04-21T07:35:18.13Z</time></trkpt><trkpt lat="32.9482383" lon="9.6209033"><ele>209.00000000000003</ele><time>2026-04-21T07:35:19.13Z</time></trkpt><trkpt lat="32.9481567" lon="9.6208983"><ele>209.0</ele><time>2026-04-21T07:35:20.13Z</time></trkpt><trkpt lat="32.9480833" lon="9.6208933"><ele>209.00000000000003</ele><time>2026-04-21T07:35:21.129Z</time></trkpt><trkpt lat="32.9480067" lon="9.6208917"><ele>209.0</ele><time>2026-04-21T07:35:22.129Z</time></trkpt><trkpt lat="32.9479267" lon="9.6208967"><ele>209.0</ele><time>2026-04-21T07:35:23.13Z</time></trkpt><trkpt lat="32.9478367" lon="9.6209"><ele>209.0</ele><time>2026-04-21T07:35:24.13Z</time></trkpt><trkpt lat="32.9477433" lon="9.6208967"><ele>209.00000000000003</ele><time>2026-04-21T07:35:25.129Z</time></trkpt><trkpt lat="32.9476517" lon="9.6208983"><ele>209.0</ele><time>2026-04-21T07:35:26.13Z</time></trkpt><trkpt lat="32.947575" lon="9.6209033"><ele>209.2</ele><time>2026-04-21T07:35:27.129Z</time></trkpt><trkpt lat="32.94751" lon="9.6209033"><ele>209.39999999999998</ele><time>2026-04-21T07:35:28.13Z</time></trkpt><trkpt lat="32.9474267" lon="9.62089"><ele>209.6</ele><time>2026-04-21T07:35:30.129Z</time></trkpt><trkpt lat="32.9473283" lon="9.620895"><ele>209.8</ele><time>2026-04-21T07:35:33.13Z</time></trkpt><trkpt lat="32.94718" lon="9.6209133"><ele>210.0</ele><time>2026-04-21T07:35:35.129Z</time></trkpt><trkpt lat="32.947095" lon="9.62092"><ele>210.0</ele><time>2026-04-21T07:35:36.13Z</time></trkpt><trkpt lat="32.9470167" lon="9.620945"><ele>210.0</ele><time>2026-04-21T07:35:37.13Z</time></trkpt><trkpt lat="32.9469383" lon="9.62097"><ele>210.0</ele><time>2026-04-21T07:35:38.13Z</time></trkpt><trkpt lat="32.94686" lon="9.62099"><ele>210.0</ele><time>2026-04-21T07:35:39.13Z</time></trkpt><trkpt lat="32.9467833" lon="9.6210033"><ele>210.0</ele><time>2026-04-21T07:35:40.129Z</time></trkpt><trkpt lat="32.9467117" lon="9.6210083"><ele>210.0</ele><time>2026-04-21T07:35:41.13Z</time></trkpt><trkpt lat="32.9466033" lon="9.6209733"><ele>210.33333333333334</ele><time>2026-04-21T07:35:43.129Z</time></trkpt><trkpt lat="32.9464883" lon="9.620955"><ele>210.66666666666669</ele><time>2026-04-21T07:35:45.129Z</time></trkpt><trkpt lat="32.9464167" lon="9.6209517"><ele>211.0</ele><time>2026-04-21T07:35:46.129Z</time></trkpt><trkpt lat="32.94634" lon="9.6209633"><ele>211.33333333333334</ele><time>2026-04-21T07:35:47.129Z</time></trkpt><trkpt lat="32.946255" lon="9.6209683"><ele>211.66666666666669</ele><time>2026-04-21T07:35:48.129Z</time></trkpt><trkpt lat="32.9461717" lon="9.620965"><ele>212.0</ele><time>2026-04-21T07:35:49.13Z</time></trkpt><trkpt lat="32.9461" lon="9.6209667"><ele>212.0</ele><time>2026-04-21T07:35:50.13Z</time></trkpt><trkpt lat="32.9460283" lon="9.620965"><ele>212.0</ele><time>2026-04-21T07:35:51.129Z</time></trkpt><trkpt lat="32.9459633" lon="9.62097"><ele>212.0</ele><time>2026-04-21T07:35:52.13Z</time></trkpt><trkpt lat="32.9458817" lon="9.620975"><ele>212.0</ele><time>2026-04-21T07:35:53.129Z</time></trkpt><trkpt lat="32.9458133" lon="9.6209667"><ele>212.0</ele><time>2026-04-21T07:35:54.129Z</time></trkpt><trkpt lat="32.9456233" lon="9.6209717"><ele>211.83333333333334</ele><time>2026-04-21T07:35:57.129Z</time></trkpt><trkpt lat="32.945555" lon="9.6209717"><ele>211.66666666666669</ele><time>2026-04-21T07:35:58.13Z</time></trkpt><trkpt lat="32.94547" lon="9.6209817"><ele>211.5</ele><time>2026-04-21T07:35:59.13Z</time></trkpt><trkpt lat="32.9453767" lon="9.62098"><ele>211.33333333333331</ele><time>2026-04-21T07:36:00.13Z</time></trkpt><trkpt lat="32.9452817" lon="9.6209883"><ele>211.16666666666666</ele><time>2026-04-21T07:36:01.129Z</time></trkpt><trkpt lat="32.945195" lon="9.6209833"><ele>211.0</ele><time>2026-04-21T07:36:02.129Z</time></trkpt><trkpt lat="32.9451217" lon="9.6209867"><ele>211.14285714285714</ele><time>2026-04-21T07:36:03.13Z</time></trkpt><trkpt lat="32.9450417" lon="9.62099"><ele>211.28571428571428</ele><time>2026-04-21T07:36:04.13Z</time></trkpt><trkpt lat="32.9449617" lon="9.620995"><ele>211.42857142857144</ele><time>2026-04-21T07:36:05.129Z</time></trkpt><trkpt lat="32.94489" lon="9.621005"><ele>211.57142857142856</ele><time>2026-04-21T07:36:06.13Z</time></trkpt><trkpt lat="32.9448267" lon="9.62101"><ele>211.7142857142857</ele><time>2026-04-21T07:36:07.13Z</time></trkpt><trkpt lat="32.9447617" lon="9.62102"><ele>211.85714285714286</ele><time>2026-04-21T07:36:08.129Z</time></trkpt><trkpt lat="32.9446967" lon="9.6210233"><ele>212.0</ele><time>2026-04-21T07:36:09.13Z</time></trkpt><trkpt lat="32.94462" lon="9.6210317"><ele>212.00000000000003</ele><time>2026-04-21T07:36:10.13Z</time></trkpt><trkpt lat="32.9445383" lon="9.6210333"><ele>212.0</ele><time>2026-04-21T07:36:11.13Z</time></trkpt><trkpt lat="32.94445" lon="9.6210333"><ele>212.0</ele><time>2026-04-21T07:36:12.129Z</time></trkpt><trkpt lat="32.9443617" lon="9.6210283"><ele>212.0</ele><time>2026-04-21T07:36:13.129Z</time></trkpt><trkpt lat="32.944275" lon="9.62103"><ele>212.00000000000003</ele><time>2026-04-21T07:36:14.13Z</time></trkpt><trkpt lat="32.944205" lon="9.621035"><ele>212.0</ele><time>2026-04-21T07:36:15.13Z</time></trkpt><trkpt lat="32.9440183" lon="9.6210367"><ele>211.6</ele><time>2026-04-21T07:36:18.13Z</time></trkpt><trkpt lat="32.9439367" lon="9.621035"><ele>211.2</ele><time>2026-04-21T07:36:19.129Z</time></trkpt><trkpt lat="32.9438417" lon="9.6210367"><ele>210.8</ele><time>2026-04-21T07:36:20.129Z</time></trkpt><trkpt lat="32.94375" lon="9.6210467"><ele>210.4</ele><time>2026-04-21T07:36:21.13Z</time></trkpt><trkpt lat="32.9436567" lon="9.6210483"><ele>210.0</ele><time>2026-04-21T07:36:22.13Z</time></trkpt><trkpt lat="32.9435567" lon="9.6210517"><ele>210.0</ele><time>2026-04-21T07:36:23.13Z</time></trkpt><trkpt lat="32.94346" lon="9.621065"><ele>210.0</ele><time>2026-04-21T07:36:24.129Z</time></trkpt><trkpt lat="32.9433633" lon="9.6210717"><ele>210.0</ele><time>2026-04-21T07:36:25.13Z</time></trkpt><trkpt lat="32.9432633" lon="9.6210733"><ele>210.0</ele><time>2026-04-21T07:36:26.13Z</time></trkpt><trkpt lat="32.9431667" lon="9.6210733"><ele>210.0</ele><time>2026-04-21T07:36:27.13Z</time></trkpt><trkpt lat="32.9430717" lon="9.62107"><ele>210.2</ele><time>2026-04-21T07:36:28.13Z</time></trkpt><trkpt lat="32.9429733" lon="9.6210683"><ele>210.4</ele><time>2026-04-21T07:36:29.129Z</time></trkpt><trkpt lat="32.9428733" lon="9.6210683"><ele>210.60000000000002</ele><time>2026-04-21T07:36:30.13Z</time></trkpt><trkpt lat="32.9427733" lon="9.6210633"><ele>210.8</ele><time>2026-04-21T07:36:31.129Z</time></trkpt><trkpt lat="32.942675" lon="9.6210683"><ele>211.0</ele><time>2026-04-21T07:36:32.129Z</time></trkpt><trkpt lat="32.9425783" lon="9.62108"><ele>211.5</ele><time>2026-04-21T07:36:33.129Z</time></trkpt><trkpt lat="32.9424833" lon="9.6210833"><ele>212.0</ele><time>2026-04-21T07:36:34.13Z</time></trkpt><trkpt lat="32.9423967" lon="9.6210967"><ele>212.5</ele><time>2026-04-21T07:36:35.13Z</time></trkpt><trkpt lat="32.94231" lon="9.6211067"><ele>213.0</ele><time>2026-04-21T07:36:36.13Z</time></trkpt><trkpt lat="32.9421283" lon="9.6211133"><ele>213.0</ele><time>2026-04-21T07:36:38.13Z</time></trkpt><trkpt lat="32.942035" lon="9.62112"><ele>213.0</ele><time>2026-04-21T07:36:39.13Z</time></trkpt><trkpt lat="32.9419383" lon="9.621125"><ele>213.0</ele><time>2026-04-21T07:36:40.13Z</time></trkpt><trkpt lat="32.94184" lon="9.62113"><ele>213.0</ele><time>2026-04-21T07:36:41.13Z</time></trkpt><trkpt lat="32.9417533" lon="9.621135"><ele>213.0</ele><time>2026-04-21T07:36:42.13Z</time></trkpt><trkpt lat="32.9416867" lon="9.6211367"><ele>213.0</ele><time>2026-04-21T07:36:43.129Z</time></trkpt><trkpt lat="32.9415633" lon="9.6211467"><ele>213.0</ele><time>2026-04-21T07:36:45.13Z</time></trkpt><trkpt lat="32.9414867" lon="9.621155"><ele>213.0</ele><time>2026-04-21T07:36:46.129Z</time></trkpt><trkpt lat="32.9414033" lon="9.621165"><ele>213.0</ele><time>2026-04-21T07:36:47.129Z</time></trkpt><trkpt lat="32.9413083" lon="9.6211567"><ele>213.0</ele><time>2026-04-21T07:36:48.13Z</time></trkpt><trkpt lat="32.9412167" lon="9.6211517"><ele>213.0</ele><time>2026-04-21T07:36:49.13Z</time></trkpt><trkpt lat="32.94112" lon="9.62115"><ele>213.0</ele><time>2026-04-21T07:36:50.13Z</time></trkpt><trkpt lat="32.9410333" lon="9.62115"><ele>213.0</ele><time>2026-04-21T07:36:51.13Z</time></trkpt><trkpt lat="32.94094" lon="9.62115"><ele>213.0</ele><time>2026-04-21T07:36:52.13Z</time></trkpt><trkpt lat="32.9408467" lon="9.621145"><ele>213.0</ele><time>2026-04-21T07:36:53.13Z</time></trkpt><trkpt lat="32.9407483" lon="9.6211417"><ele>213.0</ele><time>2026-04-21T07:36:54.13Z</time></trkpt><trkpt lat="32.9406483" lon="9.62114"><ele>213.0</ele><time>2026-04-21T07:36:55.129Z</time></trkpt><trkpt lat="32.940555" lon="9.6211483"><ele>212.75</ele><time>2026-04-21T07:36:56.129Z</time></trkpt><trkpt lat="32.9404583" lon="9.6211517"><ele>212.5</ele><time>2026-04-21T07:36:57.129Z</time></trkpt><trkpt lat="32.9402633" lon="9.6211567"><ele>212.25</ele><time>2026-04-21T07:36:59.129Z</time></trkpt><trkpt lat="32.9401633" lon="9.6211567"><ele>212.0</ele><time>2026-04-21T07:37:00.129Z</time></trkpt><trkpt lat="32.940065" lon="9.62116"><ele>212.2</ele><time>2026-04-21T07:37:01.129Z</time></trkpt><trkpt lat="32.9399667" lon="9.62117"><ele>212.39999999999998</ele><time>2026-04-21T07:37:02.129Z</time></trkpt><trkpt lat="32.9398667" lon="9.6211717"><ele>212.60000000000002</ele><time>2026-04-21T07:37:03.13Z</time></trkpt><trkpt lat="32.9397717" lon="9.621185"><ele>212.8</ele><time>2026-04-21T07:37:04.129Z</time></trkpt><trkpt lat="32.939675" lon="9.6211917"><ele>213.0</ele><time>2026-04-21T07:37:05.13Z</time></trkpt><trkpt lat="32.93958" lon="9.6212033"><ele>213.0</ele><time>2026-04-21T07:37:06.129Z</time></trkpt><trkpt lat="32.9394967" lon="9.6212067"><ele>213.0</ele><time>2026-04-21T07:37:07.13Z</time></trkpt><trkpt lat="32.9394033" lon="9.62121"><ele>213.0</ele><time>2026-04-21T07:37:08.13Z</time></trkpt><trkpt lat="32.9393083" lon="9.6212183"><ele>213.0</ele><time>2026-04-21T07:37:09.13Z</time></trkpt><trkpt lat="32.9392033" lon="9.6212217"><ele>213.0</ele><time>2026-04-21T07:37:10.13Z</time></trkpt><trkpt lat="32.9390967" lon="9.6212183"><ele>213.0</ele><time>2026-04-21T07:37:11.129Z</time></trkpt><trkpt lat="32.9389883" lon="9.62122"><ele>213.0</ele><time>2026-04-21T07:37:12.13Z</time></trkpt><trkpt lat="32.9388833" lon="9.62122"><ele>213.0</ele><time>2026-04-21T07:37:13.129Z</time></trkpt><trkpt lat="32.9387917" lon="9.6212283"><ele>213.0</ele><time>2026-04-21T07:37:14.13Z</time></trkpt><trkpt lat="32.9387117" lon="9.6212333"><ele>213.0</ele><time>2026-04-21T07:37:15.13Z</time></trkpt><trkpt lat="32.9386267" lon="9.6212367"><ele>213.0</ele><time>2026-04-21T07:37:16.129Z</time></trkpt><trkpt lat="32.9385433" lon="9.6212383"><ele>213.0</ele><time>2026-04-21T07:37:17.129Z</time></trkpt><trkpt lat="32.93846" lon="9.6212367"><ele>213.0</ele><time>2026-04-21T07:37:18.129Z</time></trkpt><trkpt lat="32.93829" lon="9.621235"><ele>213.0</ele><time>2026-04-21T07:37:20.129Z</time></trkpt><trkpt lat="32.9381933" lon="9.6212333"><ele>213.0</ele><time>2026-04-21T07:37:21.129Z</time></trkpt><trkpt lat="32.9380983" lon="9.6212367"><ele>213.0</ele><time>2026-04-21T07:37:22.128Z</time></trkpt><trkpt lat="32.9380033" lon="9.621235"><ele>213.0</ele><time>2026-04-21T07:37:23.129Z</time></trkpt><trkpt lat="32.937905" lon="9.6212433"><ele>213.0</ele><time>2026-04-21T07:37:24.128Z</time></trkpt><trkpt lat="32.937805" lon="9.6212483"><ele>213.0</ele><time>2026-04-21T07:37:25.128Z</time></trkpt><trkpt lat="32.9377067" lon="9.6212583"><ele>213.0</ele><time>2026-04-21T07:37:26.129Z</time></trkpt><trkpt lat="32.93761" lon="9.6212633"><ele>213.0</ele><time>2026-04-21T07:37:27.128Z</time></trkpt><trkpt lat="32.937515" lon="9.6212717"><ele>213.0</ele><time>2026-04-21T07:37:28.128Z</time></trkpt><trkpt lat="32.9374217" lon="9.6212717"><ele>213.0</ele><time>2026-04-21T07:37:29.129Z</time></trkpt><trkpt lat="32.9373317" lon="9.6212767"><ele>213.0</ele><time>2026-04-21T07:37:30.128Z</time></trkpt><trkpt lat="32.9372467" lon="9.6212833"><ele>213.0</ele><time>2026-04-21T07:37:31.129Z</time></trkpt><trkpt lat="32.93716" lon="9.6212933"><ele>213.0</ele><time>2026-04-21T07:37:32.128Z</time></trkpt><trkpt lat="32.9370717" lon="9.6213"><ele>213.0</ele><time>2026-04-21T07:37:33.129Z</time></trkpt><trkpt lat="32.93697" lon="9.6213"><ele>213.0</ele><time>2026-04-21T07:37:34.129Z</time></trkpt><trkpt lat="32.93687" lon="9.6213033"><ele>213.0</ele><time>2026-04-21T07:37:35.129Z</time></trkpt><trkpt lat="32.9367717" lon="9.621305"><ele>213.0</ele><time>2026-04-21T07:37:36.128Z</time></trkpt><trkpt lat="32.936675" lon="9.62131"><ele>212.83333333333334</ele><time>2026-04-21T07:37:37.128Z</time></trkpt><trkpt lat="32.9365883" lon="9.6213133"><ele>212.66666666666669</ele><time>2026-04-21T07:37:38.129Z</time></trkpt><trkpt lat="32.936515" lon="9.6213117"><ele>212.5</ele><time>2026-04-21T07:37:39.128Z</time></trkpt><trkpt lat="32.936385" lon="9.6213167"><ele>212.33333333333334</ele><time>2026-04-21T07:37:41.129Z</time></trkpt><trkpt lat="32.936315" lon="9.6213183"><ele>212.16666666666669</ele><time>2026-04-21T07:37:42.128Z</time></trkpt><trkpt lat="32.93624" lon="9.6213183"><ele>212.0</ele><time>2026-04-21T07:37:43.128Z</time></trkpt><trkpt lat="32.93617" lon="9.6213233"><ele>212.0</ele><time>2026-04-21T07:37:44.128Z</time></trkpt><trkpt lat="32.9361017" lon="9.6213317"><ele>212.0</ele><time>2026-04-21T07:37:45.129Z</time></trkpt><trkpt lat="32.9359883" lon="9.6213467"><ele>212.0</ele><time>2026-04-21T07:37:47.129Z</time></trkpt><trkpt lat="32.9358683" lon="9.621355"><ele>212.0</ele><time>2026-04-21T07:37:49.129Z</time></trkpt><trkpt lat="32.935795" lon="9.6213533"><ele>212.0</ele><time>2026-04-21T07:37:50.128Z</time></trkpt><trkpt lat="32.9357167" lon="9.621355"><ele>212.33333333333334</ele><time>2026-04-21T07:37:51.129Z</time></trkpt><trkpt lat="32.9356333" lon="9.6213583"><ele>212.66666666666669</ele><time>2026-04-21T07:37:52.129Z</time></trkpt><trkpt lat="32.93555" lon="9.62136"><ele>213.0</ele><time>2026-04-21T07:37:53.128Z</time></trkpt><trkpt lat="32.9354633" lon="9.62136"><ele>213.33333333333331</ele><time>2026-04-21T07:37:54.129Z</time></trkpt><trkpt lat="32.93537" lon="9.62136"><ele>213.66666666666666</ele><time>2026-04-21T07:37:55.129Z</time></trkpt><trkpt lat="32.935275" lon="9.6213567"><ele>214.0</ele><time>2026-04-21T07:37:56.129Z</time></trkpt><trkpt lat="32.9351733" lon="9.62136"><ele>214.0</ele><time>2026-04-21T07:37:57.128Z</time></trkpt><trkpt lat="32.9350667" lon="9.62136"><ele>214.0</ele><time>2026-04-21T07:37:58.128Z</time></trkpt><trkpt lat="32.93496" lon="9.6213617"><ele>214.0</ele><time>2026-04-21T07:37:59.128Z</time></trkpt><trkpt lat="32.9348583" lon="9.62136"><ele>214.0</ele><time>2026-04-21T07:38:00.128Z</time></trkpt><trkpt lat="32.9346567" lon="9.62136"><ele>214.0</ele><time>2026-04-21T07:38:02.129Z</time></trkpt><trkpt lat="32.9345567" lon="9.6213617"><ele>213.99999999999997</ele><time>2026-04-21T07:38:03.129Z</time></trkpt><trkpt lat="32.9344517" lon="9.621365"><ele>213.99999999999997</ele><time>2026-04-21T07:38:04.129Z</time></trkpt><trkpt lat="32.934345" lon="9.6213667"><ele>214.0</ele><time>2026-04-21T07:38:05.129Z</time></trkpt><trkpt lat="32.9342433" lon="9.6213717"><ele>214.0</ele><time>2026-04-21T07:38:06.128Z</time></trkpt><trkpt lat="32.934145" lon="9.621375"><ele>214.2</ele><time>2026-04-21T07:38:07.129Z</time></trkpt><trkpt lat="32.9340483" lon="9.6213783"><ele>214.39999999999998</ele><time>2026-04-21T07:38:08.129Z</time></trkpt><trkpt lat="32.9339517" lon="9.62138"><ele>214.6</ele><time>2026-04-21T07:38:09.129Z</time></trkpt><trkpt lat="32.9338583" lon="9.6213883"><ele>214.8</ele><time>2026-04-21T07:38:10.128Z</time></trkpt><trkpt lat="32.9337617" lon="9.6213883"><ele>215.0</ele><time>2026-04-21T07:38:11.129Z</time></trkpt><trkpt lat="32.933665" lon="9.6213983"><ele>215.0</ele><time>2026-04-21T07:38:12.128Z</time></trkpt><trkpt lat="32.93357" lon="9.621405"><ele>215.0</ele><time>2026-04-21T07:38:13.129Z</time></trkpt><trkpt lat="32.933475" lon="9.6214133"><ele>215.0</ele><time>2026-04-21T07:38:14.129Z</time></trkpt><trkpt lat="32.9333717" lon="9.6214183"><ele>215.0</ele><time>2026-04-21T07:38:15.129Z</time></trkpt><trkpt lat="32.9332683" lon="9.6214267"><ele>215.0</ele><time>2026-04-21T07:38:16.128Z</time></trkpt><trkpt lat="32.9331667" lon="9.621435"><ele>214.8</ele><time>2026-04-21T07:38:17.128Z</time></trkpt><trkpt lat="32.9330667" lon="9.6214467"><ele>214.6</ele><time>2026-04-21T07:38:18.128Z</time></trkpt><trkpt lat="32.9329717" lon="9.6214533"><ele>214.39999999999998</ele><time>2026-04-21T07:38:19.129Z</time></trkpt><trkpt lat="32.932875" lon="9.621455"><ele>214.2</ele><time>2026-04-21T07:38:20.128Z</time></trkpt><trkpt lat="32.93278" lon="9.6214617"><ele>214.0</ele><time>2026-04-21T07:38:21.128Z</time></trkpt><trkpt lat="32.932575" lon="9.6214733"><ele>214.39999999999998</ele><time>2026-04-21T07:38:23.129Z</time></trkpt><trkpt lat="32.9324767" lon="9.6214733"><ele>214.79999999999998</ele><time>2026-04-21T07:38:24.128Z</time></trkpt><trkpt lat="32.9323717" lon="9.621475"><ele>215.20000000000002</ele><time>2026-04-21T07:38:25.129Z</time></trkpt><trkpt lat="32.9322683" lon="9.621475"><ele>215.60000000000002</ele><time>2026-04-21T07:38:26.129Z</time></trkpt><trkpt lat="32.9321683" lon="9.6214817"><ele>216.0</ele><time>2026-04-21T07:38:27.128Z</time></trkpt><trkpt lat="32.9320683" lon="9.6214917"><ele>216.0</ele><time>2026-04-21T07:38:28.128Z</time></trkpt><trkpt lat="32.93197" lon="9.6214967"><ele>216.00000000000003</ele><time>2026-04-21T07:38:29.129Z</time></trkpt><trkpt lat="32.9318683" lon="9.6215"><ele>216.00000000000003</ele><time>2026-04-21T07:38:30.128Z</time></trkpt><trkpt lat="32.931765" lon="9.6215"><ele>216.0</ele><time>2026-04-21T07:38:31.129Z</time></trkpt><trkpt lat="32.9316717" lon="9.6215083"><ele>216.0</ele><time>2026-04-21T07:38:32.128Z</time></trkpt><trkpt lat="32.931575" lon="9.6215217"><ele>216.20000000000002</ele><time>2026-04-21T07:38:33.129Z</time></trkpt><trkpt lat="32.931475" lon="9.6215217"><ele>216.40000000000003</ele><time>2026-04-21T07:38:34.128Z</time></trkpt><trkpt lat="32.9313717" lon="9.6215217"><ele>216.6</ele><time>2026-04-21T07:38:35.128Z</time></trkpt><trkpt lat="32.9312683" lon="9.6215233"><ele>216.8</ele><time>2026-04-21T07:38:36.129Z</time></trkpt><trkpt lat="32.9311683" lon="9.62152"><ele>217.0</ele><time>2026-04-21T07:38:37.129Z</time></trkpt><trkpt lat="32.931065" lon="9.6215267"><ele>217.0</ele><time>2026-04-21T07:38:38.128Z</time></trkpt><trkpt lat="32.93096" lon="9.6215233"><ele>217.0</ele><time>2026-04-21T07:38:39.128Z</time></trkpt><trkpt lat="32.9308517" lon="9.621525"><ele>217.0</ele><time>2026-04-21T07:38:40.129Z</time></trkpt><trkpt lat="32.9307433" lon="9.6215283"><ele>217.0</ele><time>2026-04-21T07:38:41.129Z</time></trkpt><trkpt lat="32.9306317" lon="9.6215383"><ele>217.0</ele><time>2026-04-21T07:38:42.128Z</time></trkpt><trkpt lat="32.9304217" lon="9.6215533"><ele>217.0</ele><time>2026-04-21T07:38:44.129Z</time></trkpt><trkpt lat="32.9303183" lon="9.621555"><ele>217.0</ele><time>2026-04-21T07:38:45.129Z</time></trkpt><trkpt lat="32.930215" lon="9.6215583"><ele>217.0</ele><time>2026-04-21T07:38:46.129Z</time></trkpt><trkpt lat="32.9301183" lon="9.62156"><ele>217.0</ele><time>2026-04-21T07:38:47.129Z</time></trkpt><trkpt lat="32.9300267" lon="9.6215617"><ele>217.0</ele><time>2026-04-21T07:38:48.128Z</time></trkpt><trkpt lat="32.92993" lon="9.62156"><ele>216.6</ele><time>2026-04-21T07:38:49.128Z</time></trkpt><trkpt lat="32.9298283" lon="9.62156"><ele>216.2</ele><time>2026-04-21T07:38:50.128Z</time></trkpt><trkpt lat="32.929725" lon="9.6215683"><ele>215.8</ele><time>2026-04-21T07:38:51.128Z</time></trkpt><trkpt lat="32.9296267" lon="9.6215667"><ele>215.4</ele><time>2026-04-21T07:38:52.129Z</time></trkpt><trkpt lat="32.9295317" lon="9.6215633"><ele>215.0</ele><time>2026-04-21T07:38:53.129Z</time></trkpt><trkpt lat="32.9294467" lon="9.62156"><ele>215.00000000000003</ele><time>2026-04-21T07:38:54.129Z</time></trkpt><trkpt lat="32.9293733" lon="9.6215517"><ele>215.0</ele><time>2026-04-21T07:38:55.128Z</time></trkpt><trkpt lat="32.9292917" lon="9.621555"><ele>215.0</ele><time>2026-04-21T07:38:56.129Z</time></trkpt><trkpt lat="32.929205" lon="9.6215567"><ele>215.0</ele><time>2026-04-21T07:38:57.128Z</time></trkpt><trkpt lat="32.9291133" lon="9.62156"><ele>215.00000000000003</ele><time>2026-04-21T07:38:58.129Z</time></trkpt><trkpt lat="32.9290183" lon="9.621565"><ele>215.0</ele><time>2026-04-21T07:38:59.128Z</time></trkpt><trkpt lat="32.92892" lon="9.62157"><ele>215.25</ele><time>2026-04-21T07:39:00.129Z</time></trkpt><trkpt lat="32.9288183" lon="9.62158"><ele>215.5</ele><time>2026-04-21T07:39:01.128Z</time></trkpt><trkpt lat="32.9287167" lon="9.621585"><ele>215.75</ele><time>2026-04-21T07:39:02.128Z</time></trkpt><trkpt lat="32.928615" lon="9.6215867"><ele>216.0</ele><time>2026-04-21T07:39:03.129Z</time></trkpt><trkpt lat="32.9284117" lon="9.621605"><ele>215.8</ele><time>2026-04-21T07:39:05.128Z</time></trkpt><trkpt lat="32.92831" lon="9.621615"><ele>215.60000000000002</ele><time>2026-04-21T07:39:06.128Z</time></trkpt><trkpt lat="32.928215" lon="9.6216167"><ele>215.4</ele><time>2026-04-21T07:39:07.128Z</time></trkpt><trkpt lat="32.928115" lon="9.6216167"><ele>215.2</ele><time>2026-04-21T07:39:08.129Z</time></trkpt><trkpt lat="32.9280117" lon="9.6216167"><ele>215.0</ele><time>2026-04-21T07:39:09.129Z</time></trkpt><trkpt lat="32.927905" lon="9.62162"><ele>215.0</ele><time>2026-04-21T07:39:10.128Z</time></trkpt><trkpt lat="32.92779" lon="9.6216283"><ele>215.0</ele><time>2026-04-21T07:39:11.128Z</time></trkpt><trkpt lat="32.927675" lon="9.62163"><ele>215.0</ele><time>2026-04-21T07:39:12.128Z</time></trkpt><trkpt lat="32.9275583" lon="9.6216367"><ele>215.0</ele><time>2026-04-21T07:39:13.129Z</time></trkpt><trkpt lat="32.9274483" lon="9.6216433"><ele>215.0</ele><time>2026-04-21T07:39:14.129Z</time></trkpt><trkpt lat="32.9273417" lon="9.6216483"><ele>215.0</ele><time>2026-04-21T07:39:15.128Z</time></trkpt><trkpt lat="32.92724" lon="9.6216517"><ele>215.0</ele><time>2026-04-21T07:39:16.129Z</time></trkpt><trkpt lat="32.9271333" lon="9.6216617"><ele>215.0</ele><time>2026-04-21T07:39:17.128Z</time></trkpt><trkpt lat="32.9270183" lon="9.621665"><ele>215.0</ele><time>2026-04-21T07:39:18.129Z</time></trkpt><trkpt lat="32.926905" lon="9.6216667"><ele>215.0</ele><time>2026-04-21T07:39:19.129Z</time></trkpt><trkpt lat="32.9267917" lon="9.6216683"><ele>215.0</ele><time>2026-04-21T07:39:20.129Z</time></trkpt><trkpt lat="32.9266917" lon="9.62167"><ele>215.0</ele><time>2026-04-21T07:39:21.128Z</time></trkpt><trkpt lat="32.9265883" lon="9.6216767"><ele>215.0</ele><time>2026-04-21T07:39:22.128Z</time></trkpt><trkpt lat="32.9264933" lon="9.6216883"><ele>215.0</ele><time>2026-04-21T07:39:23.129Z</time></trkpt><trkpt lat="32.926395" lon="9.6216983"><ele>215.25</ele><time>2026-04-21T07:39:24.129Z</time></trkpt><trkpt lat="32.926205" lon="9.6217167"><ele>215.5</ele><time>2026-04-21T07:39:26.129Z</time></trkpt><trkpt lat="32.926115" lon="9.6217117"><ele>215.75</ele><time>2026-04-21T07:39:27.129Z</time></trkpt><trkpt lat="32.9260283" lon="9.6217217"><ele>216.0</ele><time>2026-04-21T07:39:28.128Z</time></trkpt><trkpt lat="32.92594" lon="9.6217217"><ele>216.4</ele><time>2026-04-21T07:39:29.129Z</time></trkpt><trkpt lat="32.925855" lon="9.6217267"><ele>216.8</ele><time>2026-04-21T07:39:30.129Z</time></trkpt><trkpt lat="32.925765" lon="9.6217233"><ele>217.20000000000002</ele><time>2026-04-21T07:39:31.129Z</time></trkpt><trkpt lat="32.92568" lon="9.621725"><ele>217.60000000000002</ele><time>2026-04-21T07:39:32.128Z</time></trkpt><trkpt lat="32.92559" lon="9.6217317"><ele>218.0</ele><time>2026-04-21T07:39:33.128Z</time></trkpt><trkpt lat="32.9254883" lon="9.6217333"><ele>218.0</ele><time>2026-04-21T07:39:34.129Z</time></trkpt><trkpt lat="32.9253867" lon="9.6217367"><ele>218.0</ele><time>2026-04-21T07:39:35.128Z</time></trkpt><trkpt lat="32.925285" lon="9.62174"><ele>218.0</ele><time>2026-04-21T07:39:36.129Z</time></trkpt><trkpt lat="32.9251833" lon="9.62173"><ele>218.0</ele><time>2026-04-21T07:39:37.129Z</time></trkpt><trkpt lat="32.92509" lon="9.6217283"><ele>218.0</ele><time>2026-04-21T07:39:38.128Z</time></trkpt><trkpt lat="32.9249983" lon="9.6217183"><ele>217.83333333333334</ele><time>2026-04-21T07:39:39.128Z</time></trkpt><trkpt lat="32.924905" lon="9.6217117"><ele>217.66666666666669</ele><time>2026-04-21T07:39:40.129Z</time></trkpt><trkpt lat="32.9248133" lon="9.6217033"><ele>217.5</ele><time>2026-04-21T07:39:41.129Z</time></trkpt><trkpt lat="32.92472" lon="9.6217017"><ele>217.33333333333331</ele><time>2026-04-21T07:39:42.128Z</time></trkpt><trkpt lat="32.9246333" lon="9.6216933"><ele>217.16666666666666</ele><time>2026-04-21T07:39:43.129Z</time></trkpt><trkpt lat="32.92455" lon="9.6216883"><ele>217.0</ele><time>2026-04-21T07:39:44.128Z</time></trkpt><trkpt lat="32.924455" lon="9.6216767"><ele>217.0</ele><time>2026-04-21T07:39:45.129Z</time></trkpt><trkpt lat="32.9242617" lon="9.6216533"><ele>217.0</ele><time>2026-04-21T07:39:47.128Z</time></trkpt><trkpt lat="32.9241717" lon="9.6216383"><ele>217.0</ele><time>2026-04-21T07:39:48.128Z</time></trkpt><trkpt lat="32.924085" lon="9.6216233"><ele>217.0</ele><time>2026-04-21T07:39:49.128Z</time></trkpt><trkpt lat="32.9239967" lon="9.6216083"><ele>217.2</ele><time>2026-04-21T07:39:50.128Z</time></trkpt><trkpt lat="32.9239067" lon="9.621595"><ele>217.39999999999998</ele><time>2026-04-21T07:39:51.129Z</time></trkpt><trkpt lat="32.9238067" lon="9.6215817"><ele>217.60000000000002</ele><time>2026-04-21T07:39:52.128Z</time></trkpt><trkpt lat="32.9237167" lon="9.6215683"><ele>217.8</ele><time>2026-04-21T07:39:53.129Z</time></trkpt><trkpt lat="32.9236283" lon="9.621555"><ele>218.0</ele><time>2026-04-21T07:39:54.129Z</time></trkpt><trkpt lat="32.92354" lon="9.6215517"><ele>218.0</ele><time>2026-04-21T07:39:55.128Z</time></trkpt><trkpt lat="32.9234433" lon="9.621555"><ele>218.0</ele><time>2026-04-21T07:39:56.128Z</time></trkpt><trkpt lat="32.923345" lon="9.6215567"><ele>218.0</ele><time>2026-04-21T07:39:57.129Z</time></trkpt><trkpt lat="32.9232433" lon="9.6215617"><ele>218.0</ele><time>2026-04-21T07:39:58.129Z</time></trkpt><trkpt lat="32.9231367" lon="9.6215617"><ele>218.0</ele><time>2026-04-21T07:39:59.129Z</time></trkpt><trkpt lat="32.9230283" lon="9.62156"><ele>218.2</ele><time>2026-04-21T07:40:00.128Z</time></trkpt><trkpt lat="32.9229233" lon="9.6215483"><ele>218.4</ele><time>2026-04-21T07:40:01.128Z</time></trkpt><trkpt lat="32.92282" lon="9.6215433"><ele>218.59999999999997</ele><time>2026-04-21T07:40:02.128Z</time></trkpt><trkpt lat="32.922715" lon="9.62153"><ele>218.79999999999998</ele><time>2026-04-21T07:40:03.128Z</time></trkpt><trkpt lat="32.9226117" lon="9.621515"><ele>219.0</ele><time>2026-04-21T07:40:04.129Z</time></trkpt><trkpt lat="32.9225117" lon="9.6215083"><ele>219.25</ele><time>2026-04-21T07:40:05.128Z</time></trkpt><trkpt lat="32.9224083" lon="9.6215067"><ele>219.5</ele><time>2026-04-21T07:40:06.129Z</time></trkpt><trkpt lat="32.9221983" lon="9.62152"><ele>219.75</ele><time>2026-04-21T07:40:08.129Z</time></trkpt><trkpt lat="32.9220883" lon="9.6215267"><ele>220.0</ele><time>2026-04-21T07:40:09.129Z</time></trkpt><trkpt lat="32.92198" lon="9.6215467"><ele>220.0</ele><time>2026-04-21T07:40:10.129Z</time></trkpt><trkpt lat="32.9218783" lon="9.62157"><ele>220.0</ele><time>2026-04-21T07:40:11.128Z</time></trkpt><trkpt lat="32.9217833" lon="9.621605"><ele>220.0</ele><time>2026-04-21T07:40:12.128Z</time></trkpt><trkpt lat="32.9216817" lon="9.6216367"><ele>220.0</ele><time>2026-04-21T07:40:13.128Z</time></trkpt><trkpt lat="32.9215733" lon="9.62166"><ele>220.0</ele><time>2026-04-21T07:40:14.129Z</time></trkpt><trkpt lat="32.9214717" lon="9.6216783"><ele>219.8</ele><time>2026-04-21T07:40:15.129Z</time></trkpt><trkpt lat="32.921365" lon="9.62169"><ele>219.6</ele><time>2026-04-21T07:40:16.128Z</time></trkpt><trkpt lat="32.9212583" lon="9.6216933"><ele>219.39999999999998</ele><time>2026-04-21T07:40:17.129Z</time></trkpt><trkpt lat="32.921155" lon="9.6217"><ele>219.2</ele><time>2026-04-21T07:40:18.128Z</time></trkpt><trkpt lat="32.9210467" lon="9.6217067"><ele>219.0</ele><time>2026-04-21T07:40:19.129Z</time></trkpt><trkpt lat="32.9209433" lon="9.6217133"><ele>219.39999999999998</ele><time>2026-04-21T07:40:20.128Z</time></trkpt><trkpt lat="32.9208367" lon="9.6217183"><ele>219.79999999999998</ele><time>2026-04-21T07:40:21.129Z</time></trkpt><trkpt lat="32.92073" lon="9.6217267"><ele>220.20000000000002</ele><time>2026-04-21T07:40:22.129Z</time></trkpt><trkpt lat="32.9206233" lon="9.6217333"><ele>220.60000000000002</ele><time>2026-04-21T07:40:23.128Z</time></trkpt><trkpt lat="32.9205083" lon="9.6217433"><ele>221.0</ele><time>2026-04-21T07:40:24.128Z</time></trkpt><trkpt lat="32.9203967" lon="9.6217433"><ele>221.0</ele><time>2026-04-21T07:40:25.129Z</time></trkpt><trkpt lat="32.9202833" lon="9.6217483"><ele>221.0</ele><time>2026-04-21T07:40:26.128Z</time></trkpt><trkpt lat="32.9201683" lon="9.6217467"><ele>221.0</ele><time>2026-04-21T07:40:27.129Z</time></trkpt><trkpt lat="32.91995" lon="9.62175"><ele>221.0</ele><time>2026-04-21T07:40:29.129Z</time></trkpt><trkpt lat="32.9198367" lon="9.6217483"><ele>221.0</ele><time>2026-04-21T07:40:30.128Z</time></trkpt><trkpt lat="32.9197183" lon="9.62175"><ele>221.0</ele><time>2026-04-21T07:40:31.129Z</time></trkpt><trkpt lat="32.9196067" lon="9.6217433"><ele>221.0</ele><time>2026-04-21T07:40:32.128Z</time></trkpt><trkpt lat="32.9194983" lon="9.6217433"><ele>221.0</ele><time>2026-04-21T07:40:33.129Z</time></trkpt><trkpt lat="32.9193833" lon="9.6217333"><ele>221.0</ele><time>2026-04-21T07:40:34.128Z</time></trkpt><trkpt lat="32.91928" lon="9.6217283"><ele>221.00000000000003</ele><time>2026-04-21T07:40:35.129Z</time></trkpt><trkpt lat="32.9191833" lon="9.6217317"><ele>221.00000000000003</ele><time>2026-04-21T07:40:36.129Z</time></trkpt><trkpt lat="32.9190867" lon="9.621735"><ele>221.0</ele><time>2026-04-21T07:40:37.129Z</time></trkpt><trkpt lat="32.9189983" lon="9.6217383"><ele>221.0</ele><time>2026-04-21T07:40:38.129Z</time></trkpt><trkpt lat="32.9189133" lon="9.6217333"><ele>220.66666666666669</ele><time>2026-04-21T07:40:39.129Z</time></trkpt><trkpt lat="32.9188383" lon="9.62171"><ele>220.33333333333334</ele><time>2026-04-21T07:40:40.128Z</time></trkpt><trkpt lat="32.9187633" lon="9.6216833"><ele>220.0</ele><time>2026-04-21T07:40:41.128Z</time></trkpt><trkpt lat="32.9186933" lon="9.6216683"><ele>219.66666666666669</ele><time>2026-04-21T07:40:42.128Z</time></trkpt><trkpt lat="32.91861" lon="9.621655"><ele>219.33333333333334</ele><time>2026-04-21T07:40:43.129Z</time></trkpt><trkpt lat="32.91853" lon="9.62165"><ele>219.0</ele><time>2026-04-21T07:40:44.128Z</time></trkpt><trkpt lat="32.9184567" lon="9.6216467"><ele>219.2</ele><time>2026-04-21T07:40:45.128Z</time></trkpt><trkpt lat="32.9183817" lon="9.621655"><ele>219.39999999999998</ele><time>2026-04-21T07:40:46.128Z</time></trkpt><trkpt lat="32.9183033" lon="9.6216633"><ele>219.6</ele><time>2026-04-21T07:40:47.128Z</time></trkpt><trkpt lat="32.9182183" lon="9.6216817"><ele>219.8</ele><time>2026-04-21T07:40:48.129Z</time></trkpt><trkpt lat="32.918045" lon="9.62173"><ele>220.0</ele><time>2026-04-21T07:40:50.128Z</time></trkpt><trkpt lat="32.91796" lon="9.6217383"><ele>220.0</ele><time>2026-04-21T07:40:51.129Z</time></trkpt><trkpt lat="32.9178717" lon="9.6217417"><ele>220.0</ele><time>2026-04-21T07:40:52.128Z</time></trkpt><trkpt lat="32.9177783" lon="9.6217333"><ele>220.0</ele><time>2026-04-21T07:40:53.127Z</time></trkpt><trkpt lat="32.917685" lon="9.6217383"><ele>220.0</ele><time>2026-04-21T07:40:54.128Z</time></trkpt><trkpt lat="32.91759" lon="9.6217383"><ele>220.0</ele><time>2026-04-21T07:40:55.128Z</time></trkpt><trkpt lat="32.9174933" lon="9.6217417"><ele>220.2</ele><time>2026-04-21T07:40:56.128Z</time></trkpt><trkpt lat="32.917395" lon="9.6217433"><ele>220.4</ele><time>2026-04-21T07:40:57.127Z</time></trkpt><trkpt lat="32.917285" lon="9.62174"><ele>220.60000000000002</ele><time>2026-04-21T07:40:58.128Z</time></trkpt><trkpt lat="32.91718" lon="9.62174"><ele>220.8</ele><time>2026-04-21T07:40:59.127Z</time></trkpt><trkpt lat="32.9170767" lon="9.62174"><ele>221.0</ele><time>2026-04-21T07:41:00.127Z</time></trkpt><trkpt lat="32.916975" lon="9.6217383"><ele>221.0</ele><time>2026-04-21T07:41:01.128Z</time></trkpt><trkpt lat="32.9168767" lon="9.6217333"><ele>221.00000000000003</ele><time>2026-04-21T07:41:02.127Z</time></trkpt><trkpt lat="32.9167783" lon="9.621735"><ele>221.00000000000003</ele><time>2026-04-21T07:41:03.128Z</time></trkpt><trkpt lat="32.9166767" lon="9.6217317"><ele>221.0</ele><time>2026-04-21T07:41:04.127Z</time></trkpt><trkpt lat="32.9165767" lon="9.6217383"><ele>221.0</ele><time>2026-04-21T07:41:05.128Z</time></trkpt><trkpt lat="32.9164733" lon="9.6217367"><ele>221.0</ele><time>2026-04-21T07:41:06.128Z</time></trkpt><trkpt lat="32.9163683" lon="9.621735"><ele>221.0</ele><time>2026-04-21T07:41:07.128Z</time></trkpt><trkpt lat="32.9162517" lon="9.6217383"><ele>221.0</ele><time>2026-04-21T07:41:08.128Z</time></trkpt><trkpt lat="32.9161283" lon="9.6217383"><ele>221.0</ele><time>2026-04-21T07:41:09.127Z</time></trkpt><trkpt lat="32.9158833" lon="9.6217433"><ele>221.0</ele><time>2026-04-21T07:41:11.127Z</time></trkpt><trkpt lat="32.91576" lon="9.6217533"><ele>221.0</ele><time>2026-04-21T07:41:12.127Z</time></trkpt><trkpt lat="32.9156333" lon="9.6217617"><ele>221.0</ele><time>2026-04-21T07:41:13.127Z</time></trkpt><trkpt lat="32.9155083" lon="9.6217683"><ele>221.0</ele><time>2026-04-21T07:41:14.127Z</time></trkpt><trkpt lat="32.9153767" lon="9.62177"><ele>221.0</ele><time>2026-04-21T07:41:15.127Z</time></trkpt><trkpt lat="32.91524" lon="9.62177"><ele>221.0</ele><time>2026-04-21T07:41:16.128Z</time></trkpt><trkpt lat="32.91512" lon="9.6217733"><ele>221.0</ele><time>2026-04-21T07:41:17.128Z</time></trkpt><trkpt lat="32.9149933" lon="9.6217733"><ele>221.0</ele><time>2026-04-21T07:41:18.128Z</time></trkpt><trkpt lat="32.9148683" lon="9.62177"><ele>221.25</ele><time>2026-04-21T07:41:19.127Z</time></trkpt><trkpt lat="32.914745" lon="9.621765"><ele>221.5</ele><time>2026-04-21T07:41:20.127Z</time></trkpt><trkpt lat="32.914625" lon="9.6217667"><ele>221.75</ele><time>2026-04-21T07:41:21.127Z</time></trkpt><trkpt lat="32.9145" lon="9.6217617"><ele>222.0</ele><time>2026-04-21T07:41:22.128Z</time></trkpt><trkpt lat="32.9143783" lon="9.6217767"><ele>222.0</ele><time>2026-04-21T07:41:23.128Z</time></trkpt><trkpt lat="32.914255" lon="9.6217933"><ele>222.0</ele><time>2026-04-21T07:41:24.127Z</time></trkpt><trkpt lat="32.9141283" lon="9.6218067"><ele>222.0</ele><time>2026-04-21T07:41:25.128Z</time></trkpt><trkpt lat="32.9140033" lon="9.62181"><ele>222.0</ele><time>2026-04-21T07:41:26.127Z</time></trkpt><trkpt lat="32.9138667" lon="9.6217933"><ele>222.0</ele><time>2026-04-21T07:41:27.128Z</time></trkpt><trkpt lat="32.913745" lon="9.6217817"><ele>222.0</ele><time>2026-04-21T07:41:28.127Z</time></trkpt><trkpt lat="32.9136133" lon="9.6217717"><ele>222.0</ele><time>2026-04-21T07:41:29.127Z</time></trkpt><trkpt lat="32.9134883" lon="9.6217667"><ele>222.0</ele><time>2026-04-21T07:41:30.128Z</time></trkpt><trkpt lat="32.9132367" lon="9.6217633"><ele>222.0</ele><time>2026-04-21T07:41:32.128Z</time></trkpt><trkpt lat="32.91311" lon="9.62177"><ele>222.0</ele><time>2026-04-21T07:41:33.127Z</time></trkpt><trkpt lat="32.9129833" lon="9.6217633"><ele>222.0</ele><time>2026-04-21T07:41:34.128Z</time></trkpt><trkpt lat="32.9128567" lon="9.6217617"><ele>222.0</ele><time>2026-04-21T07:41:35.127Z</time></trkpt><trkpt lat="32.9127283" lon="9.6217567"><ele>222.0</ele><time>2026-04-21T07:41:36.127Z</time></trkpt><trkpt lat="32.9125967" lon="9.6217533"><ele>222.0</ele><time>2026-04-21T07:41:37.127Z</time></trkpt><trkpt lat="32.9124667" lon="9.62175"><ele>222.0</ele><time>2026-04-21T07:41:38.128Z</time></trkpt><trkpt lat="32.9123333" lon="9.6217483"><ele>222.0</ele><time>2026-04-21T07:41:39.127Z</time></trkpt><trkpt lat="32.9122" lon="9.62175"><ele>222.0</ele><time>2026-04-21T07:41:40.128Z</time></trkpt><trkpt lat="32.91207" lon="9.6217517"><ele>222.0</ele><time>2026-04-21T07:41:41.127Z</time></trkpt><trkpt lat="32.911935" lon="9.6217567"><ele>222.0</ele><time>2026-04-21T07:41:42.128Z</time></trkpt><trkpt lat="32.9118067" lon="9.6217633"><ele>222.0</ele><time>2026-04-21T07:41:43.127Z</time></trkpt><trkpt lat="32.911675" lon="9.6217633"><ele>222.0</ele><time>2026-04-21T07:41:44.127Z</time></trkpt><trkpt lat="32.911545" lon="9.6217633"><ele>222.0</ele><time>2026-04-21T07:41:45.127Z</time></trkpt><trkpt lat="32.911415" lon="9.621775"><ele>222.0</ele><time>2026-04-21T07:41:46.127Z</time></trkpt><trkpt lat="32.9112933" lon="9.6217767"><ele>222.0</ele><time>2026-04-21T07:41:47.127Z</time></trkpt><trkpt lat="32.9111733" lon="9.621775"><ele>222.0</ele><time>2026-04-21T07:41:48.128Z</time></trkpt><trkpt lat="32.9110533" lon="9.62177"><ele>222.0</ele><time>2026-04-21T07:41:49.128Z</time></trkpt><trkpt lat="32.9109383" lon="9.621765"><ele>222.0</ele><time>2026-04-21T07:41:50.128Z</time></trkpt><trkpt lat="32.910825" lon="9.6217633"><ele>222.0</ele><time>2026-04-21T07:41:51.128Z</time></trkpt><trkpt lat="32.91059" lon="9.6217633"><ele>221.6</ele><time>2026-04-21T07:41:53.127Z</time></trkpt><trkpt lat="32.910475" lon="9.6217617"><ele>221.2</ele><time>2026-04-21T07:41:54.127Z</time></trkpt><trkpt lat="32.9103617" lon="9.6217633"><ele>220.8</ele><time>2026-04-21T07:41:55.127Z</time></trkpt><trkpt lat="32.9102467" lon="9.62176"><ele>220.4</ele><time>2026-04-21T07:41:56.128Z</time></trkpt><trkpt lat="32.9101433" lon="9.62176"><ele>220.0</ele><time>2026-04-21T07:41:57.128Z</time></trkpt><trkpt lat="32.9100433" lon="9.621755"><ele>219.6</ele><time>2026-04-21T07:41:58.127Z</time></trkpt><trkpt lat="32.9099483" lon="9.6217483"><ele>219.2</ele><time>2026-04-21T07:41:59.127Z</time></trkpt><trkpt lat="32.90985" lon="9.6217483"><ele>218.8</ele><time>2026-04-21T07:42:00.128Z</time></trkpt><trkpt lat="32.909745" lon="9.6217433"><ele>218.4</ele><time>2026-04-21T07:42:01.127Z</time></trkpt><trkpt lat="32.9096533" lon="9.6217383"><ele>218.0</ele><time>2026-04-21T07:42:02.128Z</time></trkpt><trkpt lat="32.90956" lon="9.62174"><ele>218.0</ele><time>2026-04-21T07:42:03.128Z</time></trkpt><trkpt lat="32.9094633" lon="9.62174"><ele>218.0</ele><time>2026-04-21T07:42:04.128Z</time></trkpt><trkpt lat="32.9093567" lon="9.6217383"><ele>218.0</ele><time>2026-04-21T07:42:05.127Z</time></trkpt><trkpt lat="32.9092483" lon="9.6217383"><ele>218.0</ele><time>2026-04-21T07:42:06.127Z</time></trkpt><trkpt lat="32.90913" lon="9.6217367"><ele>218.0</ele><time>2026-04-21T07:42:07.128Z</time></trkpt><trkpt lat="32.9090167" lon="9.6217417"><ele>218.5</ele><time>2026-04-21T07:42:08.128Z</time></trkpt><trkpt lat="32.908905" lon="9.62174"><ele>219.0</ele><time>2026-04-21T07:42:09.128Z</time></trkpt><trkpt lat="32.9087883" lon="9.62175"><ele>219.5</ele><time>2026-04-21T07:42:10.128Z</time></trkpt><trkpt lat="32.9086767" lon="9.6217567"><ele>220.0</ele><time>2026-04-21T07:42:11.128Z</time></trkpt><trkpt lat="32.908565" lon="9.6217617"><ele>220.25</ele><time>2026-04-21T07:42:12.127Z</time></trkpt><trkpt lat="32.90834" lon="9.621755"><ele>220.5</ele><time>2026-04-21T07:42:14.128Z</time></trkpt><trkpt lat="32.9082317" lon="9.6217517"><ele>220.75</ele><time>2026-04-21T07:42:15.127Z</time></trkpt><trkpt lat="32.908125" lon="9.6217483"><ele>221.0</ele><time>2026-04-21T07:42:16.127Z</time></trkpt><trkpt lat="32.9080217" lon="9.62175"><ele>221.0</ele><time>2026-04-21T07:42:17.128Z</time></trkpt><trkpt lat="32.9079117" lon="9.6217483"><ele>221.00000000000003</ele><time>2026-04-21T07:42:18.127Z</time></trkpt><trkpt lat="32.9078067" lon="9.62175"><ele>221.00000000000003</ele><time>2026-04-21T07:42:19.127Z</time></trkpt><trkpt lat="32.9077067" lon="9.621755"><ele>221.0</ele><time>2026-04-21T07:42:20.127Z</time></trkpt><trkpt lat="32.907595" lon="9.6217483"><ele>221.0</ele><time>2026-04-21T07:42:21.127Z</time></trkpt><trkpt lat="32.90748" lon="9.621745"><ele>221.0</ele><time>2026-04-21T07:42:22.127Z</time></trkpt><trkpt lat="32.90737" lon="9.6217433"><ele>221.0</ele><time>2026-04-21T07:42:23.127Z</time></trkpt><trkpt lat="32.907255" lon="9.6217467"><ele>221.0</ele><time>2026-04-21T07:42:24.127Z</time></trkpt><trkpt lat="32.9071367" lon="9.62175"><ele>221.0</ele><time>2026-04-21T07:42:25.127Z</time></trkpt><trkpt lat="32.90702" lon="9.6217533"><ele>221.0</ele><time>2026-04-21T07:42:26.127Z</time></trkpt><trkpt lat="32.9069067" lon="9.6217517"><ele>221.00000000000003</ele><time>2026-04-21T07:42:27.127Z</time></trkpt><trkpt lat="32.906795" lon="9.6217467"><ele>221.00000000000003</ele><time>2026-04-21T07:42:28.128Z</time></trkpt><trkpt lat="32.9066833" lon="9.621755"><ele>221.0</ele><time>2026-04-21T07:42:29.127Z</time></trkpt><trkpt lat="32.9065733" lon="9.6217583"><ele>221.0</ele><time>2026-04-21T07:42:30.127Z</time></trkpt><trkpt lat="32.9064683" lon="9.6217567"><ele>221.4</ele><time>2026-04-21T07:42:31.127Z</time></trkpt><trkpt lat="32.90637" lon="9.6217583"><ele>221.8</ele><time>2026-04-21T07:42:32.128Z</time></trkpt><trkpt lat="32.9062833" lon="9.6217533"><ele>222.20000000000002</ele><time>2026-04-21T07:42:33.128Z</time></trkpt><trkpt lat="32.9061133" lon="9.6217517"><ele>222.60000000000002</ele><time>2026-04-21T07:42:35.127Z</time></trkpt><trkpt lat="32.9060233" lon="9.6217483"><ele>223.0</ele><time>2026-04-21T07:42:36.128Z</time></trkpt><trkpt lat="32.9059433" lon="9.621745"><ele>223.33333333333331</ele><time>2026-04-21T07:42:37.127Z</time></trkpt><trkpt lat="32.9058667" lon="9.621745"><ele>223.66666666666666</ele><time>2026-04-21T07:42:38.127Z</time></trkpt><trkpt lat="32.9057883" lon="9.621745"><ele>224.0</ele><time>2026-04-21T07:42:39.127Z</time></trkpt><trkpt lat="32.9057133" lon="9.6217467"><ele>224.33333333333331</ele><time>2026-04-21T07:42:40.127Z</time></trkpt><trkpt lat="32.9056417" lon="9.6217483"><ele>224.66666666666666</ele><time>2026-04-21T07:42:41.127Z</time></trkpt><trkpt lat="32.905565" lon="9.6217517"><ele>225.0</ele><time>2026-04-21T07:42:42.128Z</time></trkpt><trkpt lat="32.905475" lon="9.621745"><ele>225.0</ele><time>2026-04-21T07:42:43.127Z</time></trkpt><trkpt lat="32.9054033" lon="9.62175"><ele>225.0</ele><time>2026-04-21T07:42:44.128Z</time></trkpt><trkpt lat="32.905335" lon="9.6217517"><ele>225.0</ele><time>2026-04-21T07:42:45.127Z</time></trkpt><trkpt lat="32.9052017" lon="9.6217517"><ele>225.0</ele><time>2026-04-21T07:42:47.128Z</time></trkpt><trkpt lat="32.905125" lon="9.6217517"><ele>225.0</ele><time>2026-04-21T07:42:48.127Z</time></trkpt><trkpt lat="32.90506" lon="9.6217533"><ele>225.0</ele><time>2026-04-21T07:42:49.127Z</time></trkpt><trkpt lat="32.9049933" lon="9.621755"><ele>225.16666666666666</ele><time>2026-04-21T07:42:50.127Z</time></trkpt><trkpt lat="32.904925" lon="9.6217483"><ele>225.33333333333331</ele><time>2026-04-21T07:42:51.128Z</time></trkpt><trkpt lat="32.9048517" lon="9.6217517"><ele>225.5</ele><time>2026-04-21T07:42:52.127Z</time></trkpt><trkpt lat="32.9047733" lon="9.6217483"><ele>225.66666666666666</ele><time>2026-04-21T07:42:53.128Z</time></trkpt><trkpt lat="32.9046983" lon="9.6217467"><ele>225.83333333333331</ele><time>2026-04-21T07:42:54.127Z</time></trkpt><trkpt lat="32.9045533" lon="9.6217383"><ele>226.0</ele><time>2026-04-21T07:42:56.127Z</time></trkpt><trkpt lat="32.9044733" lon="9.621745"><ele>225.99999999999997</ele><time>2026-04-21T07:42:57.127Z</time></trkpt><trkpt lat="32.9043883" lon="9.621755"><ele>226.0</ele><time>2026-04-21T07:42:58.128Z</time></trkpt><trkpt lat="32.9043017" lon="9.621765"><ele>226.0</ele><time>2026-04-21T07:42:59.128Z</time></trkpt><trkpt lat="32.904215" lon="9.62177"><ele>226.0</ele><time>2026-04-21T07:43:00.128Z</time></trkpt><trkpt lat="32.9041333" lon="9.6217617"><ele>225.99999999999997</ele><time>2026-04-21T07:43:01.127Z</time></trkpt><trkpt lat="32.9040517" lon="9.621755"><ele>226.0</ele><time>2026-04-21T07:43:02.127Z</time></trkpt><trkpt lat="32.9039667" lon="9.6217433"><ele>225.83333333333331</ele><time>2026-04-21T07:43:03.127Z</time></trkpt><trkpt lat="32.903885" lon="9.621755"><ele>225.66666666666666</ele><time>2026-04-21T07:43:04.128Z</time></trkpt><trkpt lat="32.9038" lon="9.6217567"><ele>225.5</ele><time>2026-04-21T07:43:05.128Z</time></trkpt><trkpt lat="32.9037133" lon="9.6217567"><ele>225.33333333333331</ele><time>2026-04-21T07:43:06.127Z</time></trkpt><trkpt lat="32.9036217" lon="9.62176"><ele>225.16666666666666</ele><time>2026-04-21T07:43:07.127Z</time></trkpt><trkpt lat="32.9035283" lon="9.62176"><ele>225.0</ele><time>2026-04-21T07:43:08.128Z</time></trkpt><trkpt lat="32.903435" lon="9.6217617"><ele>224.66666666666666</ele><time>2026-04-21T07:43:09.127Z</time></trkpt><trkpt lat="32.9033417" lon="9.6217567"><ele>224.33333333333331</ele><time>2026-04-21T07:43:10.127Z</time></trkpt><trkpt lat="32.9032567" lon="9.6217567"><ele>224.0</ele><time>2026-04-21T07:43:11.127Z</time></trkpt><trkpt lat="32.90318" lon="9.62176"><ele>223.66666666666666</ele><time>2026-04-21T07:43:12.127Z</time></trkpt><trkpt lat="32.903105" lon="9.62176"><ele>223.33333333333331</ele><time>2026-04-21T07:43:13.127Z</time></trkpt><trkpt lat="32.9030233" lon="9.6217567"><ele>223.0</ele><time>2026-04-21T07:43:14.128Z</time></trkpt><trkpt lat="32.90294" lon="9.621755"><ele>223.0</ele><time>2026-04-21T07:43:15.127Z</time></trkpt><trkpt lat="32.9027967" lon="9.62175"><ele>223.0</ele><time>2026-04-21T07:43:17.128Z</time></trkpt><trkpt lat="32.9027233" lon="9.62175"><ele>223.0</ele><time>2026-04-21T07:43:18.128Z</time></trkpt><trkpt lat="32.9026467" lon="9.6217517"><ele>223.0</ele><time>2026-04-21T07:43:19.127Z</time></trkpt><trkpt lat="32.9025633" lon="9.6217517"><ele>223.0</ele><time>2026-04-21T07:43:20.127Z</time></trkpt><trkpt lat="32.902475" lon="9.62176"><ele>223.49999999999997</ele><time>2026-04-21T07:43:21.127Z</time></trkpt><trkpt lat="32.9023883" lon="9.62177"><ele>224.0</ele><time>2026-04-21T07:43:22.127Z</time></trkpt><trkpt lat="32.902295" lon="9.6217633"><ele>224.5</ele><time>2026-04-21T07:43:23.127Z</time></trkpt><trkpt lat="32.9022133" lon="9.6217567"><ele>225.0</ele><time>2026-04-21T07:43:24.127Z</time></trkpt><trkpt lat="32.9021283" lon="9.62176"><ele>225.49999999999997</ele><time>2026-04-21T07:43:25.128Z</time></trkpt><trkpt lat="32.9020583" lon="9.621765"><ele>226.0</ele><time>2026-04-21T07:43:26.128Z</time></trkpt><trkpt lat="32.9019517" lon="9.6217483"><ele>226.0</ele><time>2026-04-21T07:43:28.127Z</time></trkpt><trkpt lat="32.901885" lon="9.62173"><ele>226.0</ele><time>2026-04-21T07:43:30.127Z</time></trkpt><trkpt lat="32.9018017" lon="9.6217217"><ele>226.0</ele><time>2026-04-21T07:51:07.126Z</time></trkpt><trkpt lat="32.901605" lon="9.6217283"><ele>226.0</ele><time>2026-04-21T07:51:11.125Z</time></trkpt><trkpt lat="32.9015083" lon="9.6216833"><ele>226.20000000000002</ele><time>2026-04-21T07:51:13.125Z</time></trkpt><trkpt lat="32.9014167" lon="9.6216517"><ele>226.40000000000003</ele><time>2026-04-21T07:51:15.125Z</time></trkpt><trkpt lat="32.90132" lon="9.6216817"><ele>226.6</ele><time>2026-04-21T07:51:17.126Z</time></trkpt><trkpt lat="32.9012017" lon="9.6217017"><ele>226.8</ele><time>2026-04-21T07:51:19.125Z</time></trkpt><trkpt lat="32.901075" lon="9.6217133"><ele>227.0</ele><time>2026-04-21T07:51:21.126Z</time></trkpt><trkpt lat="32.9010083" lon="9.6217233"><ele>227.00000000000003</ele><time>2026-04-21T07:51:22.126Z</time></trkpt><trkpt lat="32.9009333" lon="9.6217233"><ele>227.0</ele><time>2026-04-21T07:51:23.126Z</time></trkpt><trkpt lat="32.90086" lon="9.621725"><ele>227.0</ele><time>2026-04-21T07:51:24.126Z</time></trkpt><trkpt lat="32.9007833" lon="9.621735"><ele>227.0</ele><time>2026-04-21T07:51:25.125Z</time></trkpt><trkpt lat="32.9007017" lon="9.62174"><ele>227.00000000000003</ele><time>2026-04-21T07:51:26.126Z</time></trkpt><trkpt lat="32.90062" lon="9.6217467"><ele>227.0</ele><time>2026-04-21T07:51:27.125Z</time></trkpt><trkpt lat="32.9005483" lon="9.6217633"><ele>226.50000000000003</ele><time>2026-04-21T07:51:28.126Z</time></trkpt><trkpt lat="32.9003933" lon="9.62178"><ele>226.0</ele><time>2026-04-21T07:51:30.125Z</time></trkpt><trkpt lat="32.9003167" lon="9.6217817"><ele>225.5</ele><time>2026-04-21T07:51:31.126Z</time></trkpt><trkpt lat="32.9002483" lon="9.6217817"><ele>225.0</ele><time>2026-04-21T07:51:32.126Z</time></trkpt><trkpt lat="32.90018" lon="9.621765"><ele>224.50000000000003</ele><time>2026-04-21T07:51:33.126Z</time></trkpt><trkpt lat="32.9001083" lon="9.6217417"><ele>224.0</ele><time>2026-04-21T07:51:34.126Z</time></trkpt><trkpt lat="32.8999933" lon="9.6217133"><ele>223.79999999999998</ele><time>2026-04-21T07:51:36.126Z</time></trkpt><trkpt lat="32.8999317" lon="9.621695"><ele>223.59999999999997</ele><time>2026-04-21T07:51:37.125Z</time></trkpt><trkpt lat="32.89982" lon="9.6216767"><ele>223.4</ele><time>2026-04-21T07:51:39.125Z</time></trkpt><trkpt lat="32.8996983" lon="9.6216633"><ele>223.2</ele><time>2026-04-21T07:51:41.126Z</time></trkpt><trkpt lat="32.8995767" lon="9.6216583"><ele>223.0</ele><time>2026-04-21T07:51:43.126Z</time></trkpt><trkpt lat="32.8994617" lon="9.6216483"><ele>223.0</ele><time>2026-04-21T07:51:45.125Z</time></trkpt><trkpt lat="32.899355" lon="9.6216617"><ele>223.0</ele><time>2026-04-21T07:51:47.124Z</time></trkpt><trkpt lat="32.8992517" lon="9.6216383"><ele>223.0</ele><time>2026-04-21T07:51:49.125Z</time></trkpt><trkpt lat="32.89905" lon="9.6215983"><ele>223.0</ele><time>2026-04-21T07:51:53.124Z</time></trkpt><trkpt lat="32.8989583" lon="9.6215967"><ele>223.4</ele><time>2026-04-21T07:51:55.124Z</time></trkpt><trkpt lat="32.8988517" lon="9.6215867"><ele>223.8</ele><time>2026-04-21T07:51:57.125Z</time></trkpt><trkpt lat="32.898765" lon="9.6215833"><ele>224.2</ele><time>2026-04-21T07:51:59.125Z</time></trkpt><trkpt lat="32.8986967" lon="9.6215917"><ele>224.6</ele><time>2026-04-21T07:52:01.124Z</time></trkpt><trkpt lat="32.8986167" lon="9.6216283"><ele>225.0</ele><time>2026-04-21T07:56:42.123Z</time></trkpt><trkpt lat="32.89843" lon="9.62166"><ele>225.0</ele><time>2026-04-21T07:56:46.123Z</time></trkpt><trkpt lat="32.8983433" lon="9.6216683"><ele>225.0</ele><time>2026-04-21T07:56:47.123Z</time></trkpt><trkpt lat="32.8982567" lon="9.6216817"><ele>225.0</ele><time>2026-04-21T07:56:48.124Z</time></trkpt><trkpt lat="32.8981683" lon="9.6216933"><ele>225.0</ele><time>2026-04-21T07:56:49.124Z</time></trkpt><trkpt lat="32.89808" lon="9.621705"><ele>225.0</ele><time>2026-04-21T07:56:50.123Z</time></trkpt><trkpt lat="32.8979917" lon="9.6217167"><ele>225.0</ele><time>2026-04-21T07:56:51.123Z</time></trkpt><trkpt lat="32.8979067" lon="9.6217217"><ele>225.0</ele><time>2026-04-21T07:56:52.124Z</time></trkpt><trkpt lat="32.8978267" lon="9.62173"><ele>225.0</ele><time>2026-04-21T07:56:53.123Z</time></trkpt><trkpt lat="32.89775" lon="9.621735"><ele>225.0</ele><time>2026-04-21T07:56:54.123Z</time></trkpt><trkpt lat="32.897665" lon="9.621735"><ele>225.0</ele><time>2026-04-21T07:56:55.123Z</time></trkpt><trkpt lat="32.89758" lon="9.62174"><ele>225.0</ele><time>2026-04-21T07:56:56.124Z</time></trkpt><trkpt lat="32.8974967" lon="9.621745"><ele>225.0</ele><time>2026-04-21T07:56:57.123Z</time></trkpt><trkpt lat="32.8974183" lon="9.6217433"><ele>224.83333333333334</ele><time>2026-04-21T07:56:58.123Z</time></trkpt><trkpt lat="32.8973483" lon="9.62174"><ele>224.66666666666669</ele><time>2026-04-21T07:56:59.123Z</time></trkpt><trkpt lat="32.8972783" lon="9.6217333"><ele>224.5</ele><time>2026-04-21T07:57:00.123Z</time></trkpt><trkpt lat="32.8972133" lon="9.6217367"><ele>224.33333333333334</ele><time>2026-04-21T07:57:01.123Z</time></trkpt><trkpt lat="32.897145" lon="9.6217317"><ele>224.16666666666669</ele><time>2026-04-21T07:57:02.123Z</time></trkpt><trkpt lat="32.8970783" lon="9.6217233"><ele>224.0</ele><time>2026-04-21T07:57:03.123Z</time></trkpt><trkpt lat="32.8969533" lon="9.6216833"><ele>224.0</ele><time>2026-04-21T07:57:05.124Z</time></trkpt><trkpt lat="32.8968867" lon="9.62165"><ele>224.0</ele><time>2026-04-21T07:57:06.124Z</time></trkpt><trkpt lat="32.896825" lon="9.621625"><ele>224.0</ele><time>2026-04-21T07:57:07.123Z</time></trkpt><trkpt lat="32.8967533" lon="9.6216"><ele>224.0</ele><time>2026-04-21T07:57:08.124Z</time></trkpt><trkpt lat="32.89669" lon="9.6215767"><ele>224.0</ele><time>2026-04-21T07:57:09.124Z</time></trkpt><trkpt lat="32.896625" lon="9.6215633"><ele>224.0</ele><time>2026-04-21T07:57:10.123Z</time></trkpt><trkpt lat="32.8965233" lon="9.6215883"><ele>224.0</ele><time>2026-04-21T07:57:12.123Z</time></trkpt><trkpt lat="32.89641" lon="9.62159"><ele>223.83333333333334</ele><time>2026-04-21T07:57:14.123Z</time></trkpt><trkpt lat="32.8963483" lon="9.6215617"><ele>223.66666666666669</ele><time>2026-04-21T07:57:15.123Z</time></trkpt><trkpt lat="32.8962917" lon="9.6215217"><ele>223.5</ele><time>2026-04-21T07:57:16.124Z</time></trkpt><trkpt lat="32.8961933" lon="9.6214617"><ele>223.33333333333331</ele><time>2026-04-21T07:57:18.123Z</time></trkpt><trkpt lat="32.8961267" lon="9.6214617"><ele>223.16666666666666</ele><time>2026-04-21T07:57:20.123Z</time></trkpt><trkpt lat="32.8960633" lon="9.6214883"><ele>223.0</ele><time>2026-04-21T07:57:50.123Z</time></trkpt><trkpt lat="32.8958417" lon="9.6215317"><ele>223.0</ele><time>2026-04-21T07:57:53.123Z</time></trkpt><trkpt lat="32.8957517" lon="9.6215467"><ele>223.0</ele><time>2026-04-21T07:57:54.123Z</time></trkpt><trkpt lat="32.8956567" lon="9.62155"><ele>223.0</ele><time>2026-04-21T07:57:55.123Z</time></trkpt><trkpt lat="32.8955583" lon="9.621545"><ele>223.0</ele><time>2026-04-21T07:57:56.124Z</time></trkpt><trkpt lat="32.8954633" lon="9.621535"><ele>223.0</ele><time>2026-04-21T07:57:57.124Z</time></trkpt><trkpt lat="32.89537" lon="9.6215233"><ele>222.99999999999997</ele><time>2026-04-21T07:57:58.124Z</time></trkpt><trkpt lat="32.8952733" lon="9.6215117"><ele>223.0</ele><time>2026-04-21T07:57:59.123Z</time></trkpt><trkpt lat="32.8951867" lon="9.6215033"><ele>223.0</ele><time>2026-04-21T07:58:00.123Z</time></trkpt><trkpt lat="32.8951" lon="9.621505"><ele>223.0</ele><time>2026-04-21T07:58:01.124Z</time></trkpt><trkpt lat="32.8950133" lon="9.62151"><ele>222.99999999999997</ele><time>2026-04-21T07:58:02.123Z</time></trkpt><trkpt lat="32.8949233" lon="9.621515"><ele>223.0</ele><time>2026-04-21T07:58:03.123Z</time></trkpt><trkpt lat="32.89483" lon="9.6215167"><ele>222.8</ele><time>2026-04-21T07:58:04.123Z</time></trkpt><trkpt lat="32.89474" lon="9.6215067"><ele>222.60000000000002</ele><time>2026-04-21T07:58:05.123Z</time></trkpt><trkpt lat="32.8946483" lon="9.6214833"><ele>222.39999999999998</ele><time>2026-04-21T07:58:06.124Z</time></trkpt><trkpt lat="32.894555" lon="9.62146"><ele>222.2</ele><time>2026-04-21T07:58:07.124Z</time></trkpt><trkpt lat="32.894455" lon="9.6214333"><ele>222.0</ele><time>2026-04-21T07:58:08.123Z</time></trkpt><trkpt lat="32.8943567" lon="9.6214"><ele>222.0</ele><time>2026-04-21T07:58:09.123Z</time></trkpt><trkpt lat="32.894255" lon="9.621365"><ele>222.0</ele><time>2026-04-21T07:58:10.124Z</time></trkpt><trkpt lat="32.894155" lon="9.6213283"><ele>222.0</ele><time>2026-04-21T07:58:11.123Z</time></trkpt><trkpt lat="32.8939683" lon="9.6212717"><ele>222.0</ele><time>2026-04-21T07:58:13.124Z</time></trkpt><trkpt lat="32.893885" lon="9.6212717"><ele>222.28571428571428</ele><time>2026-04-21T07:58:14.124Z</time></trkpt><trkpt lat="32.89381" lon="9.6212867"><ele>222.57142857142858</ele><time>2026-04-21T07:58:15.124Z</time></trkpt><trkpt lat="32.89374" lon="9.6213033"><ele>222.85714285714286</ele><time>2026-04-21T07:58:16.123Z</time></trkpt><trkpt lat="32.89367" lon="9.6213133"><ele>223.14285714285714</ele><time>2026-04-21T07:58:17.124Z</time></trkpt><trkpt lat="32.8935983" lon="9.621325"><ele>223.42857142857144</ele><time>2026-04-21T07:58:18.123Z</time></trkpt><trkpt lat="32.8935217" lon="9.6213233"><ele>223.71428571428572</ele><time>2026-04-21T07:58:19.123Z</time></trkpt><trkpt lat="32.8934433" lon="9.62132"><ele>224.0</ele><time>2026-04-21T07:58:20.124Z</time></trkpt><trkpt lat="32.893365" lon="9.621325"><ele>224.00000000000003</ele><time>2026-04-21T07:58:21.123Z</time></trkpt><trkpt lat="32.89328" lon="9.62132"><ele>224.0</ele><time>2026-04-21T07:58:22.123Z</time></trkpt><trkpt lat="32.8931933" lon="9.6213217"><ele>224.0</ele><time>2026-04-21T07:58:23.123Z</time></trkpt><trkpt lat="32.8931067" lon="9.62132"><ele>224.0</ele><time>2026-04-21T07:58:24.123Z</time></trkpt><trkpt lat="32.8930233" lon="9.6213067"><ele>224.00000000000003</ele><time>2026-04-21T07:58:25.124Z</time></trkpt><trkpt lat="32.8929417" lon="9.62128"><ele>224.0</ele><time>2026-04-21T07:58:26.124Z</time></trkpt><trkpt lat="32.892865" lon="9.6212433"><ele>224.00000000000003</ele><time>2026-04-21T07:58:27.124Z</time></trkpt><trkpt lat="32.8927933" lon="9.6212033"><ele>224.0</ele><time>2026-04-21T07:58:28.123Z</time></trkpt><trkpt lat="32.89272" lon="9.6211667"><ele>224.0</ele><time>2026-04-21T07:58:29.123Z</time></trkpt><trkpt lat="32.89265" lon="9.6211333"><ele>224.0</ele><time>2026-04-21T07:58:30.123Z</time></trkpt><trkpt lat="32.8925867" lon="9.6210933"><ele>224.00000000000003</ele><time>2026-04-21T07:58:31.124Z</time></trkpt><trkpt lat="32.892525" lon="9.621065"><ele>224.0</ele><time>2026-04-21T07:58:32.124Z</time></trkpt><trkpt lat="32.8923683" lon="9.62104"><ele>224.33333333333334</ele><time>2026-04-21T07:58:34.123Z</time></trkpt><trkpt lat="32.8922917" lon="9.62103"><ele>224.66666666666669</ele><time>2026-04-21T07:58:35.123Z</time></trkpt><trkpt lat="32.8922283" lon="9.6210467"><ele>225.0</ele><time>2026-04-21T07:58:36.123Z</time></trkpt><trkpt lat="32.892125" lon="9.62111"><ele>225.33333333333331</ele><time>2026-04-21T07:58:38.123Z</time></trkpt><trkpt lat="32.8920683" lon="9.6211567"><ele>225.66666666666666</ele><time>2026-04-21T07:58:39.123Z</time></trkpt><trkpt lat="32.8919983" lon="9.6211917"><ele>226.0</ele><time>2026-04-21T07:58:40.124Z</time></trkpt><trkpt lat="32.8919233" lon="9.6212117"><ele>225.99999999999997</ele><time>2026-04-21T07:58:41.123Z</time></trkpt><trkpt lat="32.8918417" lon="9.6212283"><ele>226.0</ele><time>2026-04-21T07:58:42.124Z</time></trkpt><trkpt lat="32.8917533" lon="9.6212467"><ele>226.0</ele><time>2026-04-21T07:58:43.124Z</time></trkpt><trkpt lat="32.8916667" lon="9.6212717"><ele>226.0</ele><time>2026-04-21T07:58:44.124Z</time></trkpt><trkpt lat="32.8915783" lon="9.621305"><ele>225.99999999999997</ele><time>2026-04-21T07:58:45.123Z</time></trkpt><trkpt lat="32.8914933" lon="9.6213317"><ele>226.0</ele><time>2026-04-21T07:58:46.124Z</time></trkpt><trkpt lat="32.89142" lon="9.62138"><ele>226.16666666666666</ele><time>2026-04-21T07:58:47.123Z</time></trkpt><trkpt lat="32.8913517" lon="9.62143"><ele>226.33333333333331</ele><time>2026-04-21T07:58:48.124Z</time></trkpt><trkpt lat="32.8912867" lon="9.62149"><ele>226.5</ele><time>2026-04-21T07:58:49.124Z</time></trkpt><trkpt lat="32.8912233" lon="9.6215417"><ele>226.66666666666669</ele><time>2026-04-21T07:58:50.123Z</time></trkpt><trkpt lat="32.891155" lon="9.6215783"><ele>226.83333333333334</ele><time>2026-04-21T07:58:51.123Z</time></trkpt><trkpt lat="32.8910833" lon="9.6216167"><ele>227.0</ele><time>2026-04-21T07:58:52.123Z</time></trkpt><trkpt lat="32.8910167" lon="9.6216517"><ele>227.2</ele><time>2026-04-21T07:58:53.123Z</time></trkpt><trkpt lat="32.8908667" lon="9.621715"><ele>227.39999999999998</ele><time>2026-04-21T07:58:55.122Z</time></trkpt><trkpt lat="32.890795" lon="9.621725"><ele>227.60000000000002</ele><time>2026-04-21T07:58:56.122Z</time></trkpt><trkpt lat="32.890725" lon="9.62172"><ele>227.8</ele><time>2026-04-21T07:58:57.123Z</time></trkpt><trkpt lat="32.89065" lon="9.6217117"><ele>228.0</ele><time>2026-04-21T07:58:58.122Z</time></trkpt><trkpt lat="32.8905767" lon="9.62171"><ele>228.0</ele><time>2026-04-21T07:58:59.122Z</time></trkpt><trkpt lat="32.8905033" lon="9.6217033"><ele>228.0</ele><time>2026-04-21T07:59:00.123Z</time></trkpt><trkpt lat="32.89044" lon="9.6216883"><ele>228.0</ele><time>2026-04-21T07:59:01.123Z</time></trkpt><trkpt lat="32.89033" lon="9.6216483"><ele>228.0</ele><time>2026-04-21T07:59:03.122Z</time></trkpt><trkpt lat="32.8902133" lon="9.6216017"><ele>228.0</ele><time>2026-04-21T07:59:05.122Z</time></trkpt><trkpt lat="32.8901483" lon="9.62158"><ele>228.0</ele><time>2026-04-21T07:59:06.123Z</time></trkpt><trkpt lat="32.890085" lon="9.62155"><ele>228.0</ele><time>2026-04-21T07:59:07.122Z</time></trkpt><trkpt lat="32.889975" lon="9.6214917"><ele>228.0</ele><time>2026-04-21T07:59:09.123Z</time></trkpt><trkpt lat="32.8898833" lon="9.62148"><ele>228.0</ele><time>2026-04-21T07:59:11.122Z</time></trkpt><trkpt lat="32.889795" lon="9.6215033"><ele>228.0</ele><time>2026-04-21T07:59:13.122Z</time></trkpt><trkpt lat="32.8896467" lon="9.6215583"><ele>228.0</ele><time>2026-04-21T07:59:22.123Z</time></trkpt><trkpt lat="32.889515" lon="9.6216017"><ele>228.0</ele><time>2026-04-21T07:59:24.122Z</time></trkpt><trkpt lat="32.88945" lon="9.6216067"><ele>228.0</ele><time>2026-04-21T07:59:25.122Z</time></trkpt><trkpt lat="32.8893783" lon="9.6216117"><ele>228.0</ele><time>2026-04-21T07:59:26.122Z</time></trkpt><trkpt lat="32.889255" lon="9.6216383"><ele>228.0</ele><time>2026-04-21T07:59:28.122Z</time></trkpt><trkpt lat="32.8891833" lon="9.6216533"><ele>228.16666666666666</ele><time>2026-04-21T07:59:29.122Z</time></trkpt><trkpt lat="32.8891117" lon="9.6216667"><ele>228.33333333333331</ele><time>2026-04-21T07:59:30.123Z</time></trkpt><trkpt lat="32.8890383" lon="9.6216683"><ele>228.5</ele><time>2026-04-21T07:59:31.123Z</time></trkpt><trkpt lat="32.88897" lon="9.6216783"><ele>228.66666666666666</ele><time>2026-04-21T07:59:32.122Z</time></trkpt><trkpt lat="32.8889033" lon="9.62168"><ele>228.83333333333331</ele><time>2026-04-21T07:59:33.123Z</time></trkpt><trkpt lat="32.8887733" lon="9.6216917"><ele>229.0</ele><time>2026-04-21T07:59:35.122Z</time></trkpt><trkpt lat="32.8886933" lon="9.6216933"><ele>228.99999999999997</ele><time>2026-04-21T07:59:36.123Z</time></trkpt><trkpt lat="32.8886133" lon="9.6216883"><ele>229.0</ele><time>2026-04-21T07:59:37.123Z</time></trkpt><trkpt lat="32.8885283" lon="9.6216833"><ele>229.0</ele><time>2026-04-21T07:59:38.123Z</time></trkpt><trkpt lat="32.88845" lon="9.6216867"><ele>229.0</ele><time>2026-04-21T07:59:39.123Z</time></trkpt><trkpt lat="32.8883683" lon="9.6216867"><ele>228.99999999999997</ele><time>2026-04-21T07:59:40.122Z</time></trkpt><trkpt lat="32.8882867" lon="9.6216817"><ele>229.0</ele><time>2026-04-21T07:59:41.123Z</time></trkpt><trkpt lat="32.8882017" lon="9.6216817"><ele>229.79999999999998</ele><time>2026-04-21T07:59:42.123Z</time></trkpt><trkpt lat="32.8881217" lon="9.6216883"><ele>230.59999999999997</ele><time>2026-04-21T07:59:43.123Z</time></trkpt><trkpt lat="32.887945" lon="9.6217017"><ele>231.4</ele><time>2026-04-21T07:59:45.123Z</time></trkpt><trkpt lat="32.8878567" lon="9.6217"><ele>232.2</ele><time>2026-04-21T07:59:46.122Z</time></trkpt><trkpt lat="32.887775" lon="9.6216933"><ele>233.0</ele><time>2026-04-21T07:59:47.123Z</time></trkpt><trkpt lat="32.8876917" lon="9.6216867"><ele>233.00000000000003</ele><time>2026-04-21T07:59:48.123Z</time></trkpt><trkpt lat="32.88761" lon="9.621675"><ele>233.0</ele><time>2026-04-21T07:59:49.123Z</time></trkpt><trkpt lat="32.8875317" lon="9.62167"><ele>233.0</ele><time>2026-04-21T07:59:50.122Z</time></trkpt><trkpt lat="32.88745" lon="9.62167"><ele>233.0</ele><time>2026-04-21T07:59:51.122Z</time></trkpt><trkpt lat="32.8873683" lon="9.6216733"><ele>233.00000000000003</ele><time>2026-04-21T07:59:52.123Z</time></trkpt><trkpt lat="32.8872917" lon="9.6216783"><ele>233.0</ele><time>2026-04-21T07:59:53.122Z</time></trkpt><trkpt lat="32.88721" lon="9.6216733"><ele>232.8</ele><time>2026-04-21T07:59:54.123Z</time></trkpt><trkpt lat="32.8871283" lon="9.6216783"><ele>232.60000000000002</ele><time>2026-04-21T07:59:55.123Z</time></trkpt><trkpt lat="32.8870333" lon="9.6216717"><ele>232.39999999999998</ele><time>2026-04-21T07:59:56.122Z</time></trkpt><trkpt lat="32.8869317" lon="9.621675"><ele>232.2</ele><time>2026-04-21T07:59:57.122Z</time></trkpt><trkpt lat="32.886835" lon="9.6216767"><ele>232.0</ele><time>2026-04-21T07:59:58.122Z</time></trkpt><trkpt lat="32.886735" lon="9.6216783"><ele>232.0</ele><time>2026-04-21T07:59:59.123Z</time></trkpt><trkpt lat="32.8866417" lon="9.6216833"><ele>232.0</ele><time>2026-04-21T08:00:00.122Z</time></trkpt><trkpt lat="32.886535" lon="9.6216833"><ele>232.0</ele><time>2026-04-21T08:00:01.122Z</time></trkpt><trkpt lat="32.8864283" lon="9.621685"><ele>232.0</ele><time>2026-04-21T08:00:02.123Z</time></trkpt><trkpt lat="32.8863217" lon="9.621685"><ele>232.0</ele><time>2026-04-21T08:00:03.123Z</time></trkpt><trkpt lat="32.8862167" lon="9.621685"><ele>232.0</ele><time>2026-04-21T08:00:04.122Z</time></trkpt><trkpt lat="32.8860117" lon="9.6216817"><ele>232.0</ele><time>2026-04-21T08:00:06.122Z</time></trkpt><trkpt lat="32.8859067" lon="9.621685"><ele>232.0</ele><time>2026-04-21T08:00:07.123Z</time></trkpt><trkpt lat="32.8858017" lon="9.6216867"><ele>232.0</ele><time>2026-04-21T08:00:08.122Z</time></trkpt><trkpt lat="32.8856967" lon="9.6216883"><ele>232.0</ele><time>2026-04-21T08:00:09.123Z</time></trkpt><trkpt lat="32.885585" lon="9.6216833"><ele>232.0</ele><time>2026-04-21T08:00:10.123Z</time></trkpt><trkpt lat="32.8854683" lon="9.621675"><ele>232.0</ele><time>2026-04-21T08:00:11.122Z</time></trkpt><trkpt lat="32.8853567" lon="9.6216717"><ele>232.0</ele><time>2026-04-21T08:00:12.122Z</time></trkpt><trkpt lat="32.8852433" lon="9.62167"><ele>232.0</ele><time>2026-04-21T08:00:13.123Z</time></trkpt><trkpt lat="32.8851383" lon="9.6216683"><ele>232.0</ele><time>2026-04-21T08:00:14.123Z</time></trkpt><trkpt lat="32.885035" lon="9.621665"><ele>232.0</ele><time>2026-04-21T08:00:15.122Z</time></trkpt><trkpt lat="32.8849383" lon="9.6216683"><ele>232.0</ele><time>2026-04-21T08:00:16.123Z</time></trkpt><trkpt lat="32.8848417" lon="9.62167"><ele>232.0</ele><time>2026-04-21T08:00:17.123Z</time></trkpt><trkpt lat="32.88474" lon="9.62167"><ele>231.8</ele><time>2026-04-21T08:00:18.122Z</time></trkpt><trkpt lat="32.8846433" lon="9.621675"><ele>231.6</ele><time>2026-04-21T08:00:19.123Z</time></trkpt><trkpt lat="32.884535" lon="9.62167"><ele>231.40000000000003</ele><time>2026-04-21T08:00:20.123Z</time></trkpt><trkpt lat="32.8844217" lon="9.621665"><ele>231.20000000000002</ele><time>2026-04-21T08:00:21.123Z</time></trkpt><trkpt lat="32.8843117" lon="9.62166"><ele>231.0</ele><time>2026-04-21T08:00:22.122Z</time></trkpt><trkpt lat="32.8842017" lon="9.62166"><ele>231.66666666666669</ele><time>2026-04-21T08:00:23.123Z</time></trkpt><trkpt lat="32.88409" lon="9.6216617"><ele>232.33333333333334</ele><time>2026-04-21T08:00:24.122Z</time></trkpt><trkpt lat="32.8839733" lon="9.6216533"><ele>233.0</ele><time>2026-04-21T08:00:25.122Z</time></trkpt><trkpt lat="32.883735" lon="9.6216533"><ele>233.0</ele><time>2026-04-21T08:00:27.123Z</time></trkpt><trkpt lat="32.8836167" lon="9.6216417"><ele>233.0</ele><time>2026-04-21T08:00:28.123Z</time></trkpt><trkpt lat="32.8835" lon="9.6216367"><ele>233.0</ele><time>2026-04-21T08:00:29.122Z</time></trkpt><trkpt lat="32.88339" lon="9.6216333"><ele>233.0</ele><time>2026-04-21T08:00:30.122Z</time></trkpt><trkpt lat="32.8832783" lon="9.6216367"><ele>232.4</ele><time>2026-04-21T08:00:31.123Z</time></trkpt><trkpt lat="32.8831633" lon="9.6216333"><ele>231.8</ele><time>2026-04-21T08:00:32.123Z</time></trkpt><trkpt lat="32.8830517" lon="9.621635"><ele>231.2</ele><time>2026-04-21T08:00:33.123Z</time></trkpt><trkpt lat="32.8829383" lon="9.621635"><ele>230.6</ele><time>2026-04-21T08:00:34.122Z</time></trkpt><trkpt lat="32.88283" lon="9.621645"><ele>230.0</ele><time>2026-04-21T08:00:35.122Z</time></trkpt><trkpt lat="32.8827183" lon="9.6216517"><ele>230.0</ele><time>2026-04-21T08:00:36.122Z</time></trkpt><trkpt lat="32.8826033" lon="9.6216517"><ele>230.0</ele><time>2026-04-21T08:00:37.122Z</time></trkpt><trkpt lat="32.88249" lon="9.6216483"><ele>230.0</ele><time>2026-04-21T08:00:38.123Z</time></trkpt><trkpt lat="32.8823783" lon="9.6216467"><ele>230.0</ele><time>2026-04-21T08:00:39.122Z</time></trkpt><trkpt lat="32.882265" lon="9.6216483"><ele>230.2</ele><time>2026-04-21T08:00:40.123Z</time></trkpt><trkpt lat="32.88215" lon="9.621645"><ele>230.4</ele><time>2026-04-21T08:00:41.123Z</time></trkpt><trkpt lat="32.88205" lon="9.6216483"><ele>230.60000000000002</ele><time>2026-04-21T08:00:42.122Z</time></trkpt><trkpt lat="32.8819433" lon="9.6216467"><ele>230.8</ele><time>2026-04-21T08:00:43.122Z</time></trkpt><trkpt lat="32.881835" lon="9.62164"><ele>231.0</ele><time>2026-04-21T08:00:44.123Z</time></trkpt><trkpt lat="32.8817233" lon="9.6216367"><ele>231.25</ele><time>2026-04-21T08:00:45.122Z</time></trkpt><trkpt lat="32.8816133" lon="9.6216267"><ele>231.5</ele><time>2026-04-21T08:00:46.123Z</time></trkpt><trkpt lat="32.881405" lon="9.6216483"><ele>231.75</ele><time>2026-04-21T08:00:48.123Z</time></trkpt><trkpt lat="32.8813067" lon="9.62165"><ele>232.0</ele><time>2026-04-21T08:00:49.122Z</time></trkpt><trkpt lat="32.8812033" lon="9.6216417"><ele>232.0</ele><time>2026-04-21T08:00:50.123Z</time></trkpt><trkpt lat="32.881095" lon="9.6216333"><ele>232.0</ele><time>2026-04-21T08:00:51.122Z</time></trkpt><trkpt lat="32.8809833" lon="9.6216233"><ele>232.0</ele><time>2026-04-21T08:00:52.122Z</time></trkpt><trkpt lat="32.8808717" lon="9.6216333"><ele>232.0</ele><time>2026-04-21T08:00:53.122Z</time></trkpt><trkpt lat="32.880765" lon="9.6216333"><ele>232.0</ele><time>2026-04-21T08:00:54.123Z</time></trkpt><trkpt lat="32.88067" lon="9.62163"><ele>232.0</ele><time>2026-04-21T08:00:55.122Z</time></trkpt><trkpt lat="32.8805883" lon="9.62162"><ele>232.0</ele><time>2026-04-21T08:00:56.123Z</time></trkpt><trkpt lat="32.8805217" lon="9.6216083"><ele>232.0</ele><time>2026-04-21T08:00:57.123Z</time></trkpt><trkpt lat="32.8804133" lon="9.621555"><ele>232.0</ele><time>2026-04-21T08:00:59.122Z</time></trkpt><trkpt lat="32.880305" lon="9.6215367"><ele>232.0</ele><time>2026-04-21T08:01:01.122Z</time></trkpt><trkpt lat="32.880205" lon="9.6215283"><ele>232.0</ele><time>2026-04-21T08:01:03.122Z</time></trkpt><trkpt lat="32.8800883" lon="9.621515"><ele>232.0</ele><time>2026-04-21T08:01:05.123Z</time></trkpt><trkpt lat="32.8800233" lon="9.6215133"><ele>232.0</ele><time>2026-04-21T08:01:06.122Z</time></trkpt><trkpt lat="32.8799133" lon="9.6215117"><ele>232.0</ele><time>2026-04-21T08:01:08.122Z</time></trkpt><trkpt lat="32.8797083" lon="9.6215517"><ele>231.99999999999997</ele><time>2026-04-21T08:01:12.123Z</time></trkpt><trkpt lat="32.879625" lon="9.62156"><ele>232.0</ele><time>2026-04-21T08:01:14.123Z</time></trkpt><trkpt lat="32.8795483" lon="9.6215417"><ele>232.0</ele><time>2026-04-21T08:01:17.122Z</time></trkpt><trkpt lat="32.8794933" lon="9.6214633"><ele>232.0</ele><time>2026-04-21T08:01:20.123Z</time></trkpt><trkpt lat="32.8794583" lon="9.6213567"><ele>231.99999999999997</ele><time>2026-04-21T08:01:22.123Z</time></trkpt><trkpt lat="32.87944" lon="9.62128"><ele>232.0</ele><time>2026-04-21T08:01:23.123Z</time></trkpt><trkpt lat="32.8794117" lon="9.6212033"><ele>231.99999999999997</ele><time>2026-04-21T08:01:24.122Z</time></trkpt><trkpt lat="32.8793867" lon="9.6211167"><ele>232.0</ele><time>2026-04-21T08:01:25.123Z</time></trkpt><trkpt lat="32.8793583" lon="9.62102"><ele>232.0</ele><time>2026-04-21T08:01:26.122Z</time></trkpt><trkpt lat="32.8793217" lon="9.620925"><ele>232.0</ele><time>2026-04-21T08:01:27.123Z</time></trkpt><trkpt lat="32.8792917" lon="9.6208133"><ele>231.99999999999997</ele><time>2026-04-21T08:01:28.123Z</time></trkpt><trkpt lat="32.87927" lon="9.6206983"><ele>232.0</ele><time>2026-04-21T08:01:29.122Z</time></trkpt><trkpt lat="32.879235" lon="9.6204633"><ele>232.0</ele><time>2026-04-21T08:01:31.122Z</time></trkpt><trkpt lat="32.8792233" lon="9.6203483"><ele>232.0</ele><time>2026-04-21T08:01:32.122Z</time></trkpt><trkpt lat="32.8792067" lon="9.6202317"><ele>232.0</ele><time>2026-04-21T08:01:33.122Z</time></trkpt><trkpt lat="32.8792017" lon="9.6201217"><ele>232.0</ele><time>2026-04-21T08:01:34.123Z</time></trkpt><trkpt lat="32.8791967" lon="9.6200033"><ele>232.0</ele><time>2026-04-21T08:01:35.122Z</time></trkpt><trkpt lat="32.879185" lon="9.6198883"><ele>232.16666666666666</ele><time>2026-04-21T08:01:36.122Z</time></trkpt><trkpt lat="32.8791583" lon="9.6197867"><ele>232.33333333333331</ele><time>2026-04-21T08:01:37.123Z</time></trkpt><trkpt lat="32.879135" lon="9.6196867"><ele>232.5</ele><time>2026-04-21T08:01:38.122Z</time></trkpt><trkpt lat="32.8790983" lon="9.6195933"><ele>232.66666666666669</ele><time>2026-04-21T08:01:39.123Z</time></trkpt><trkpt lat="32.8790517" lon="9.6195083"><ele>232.83333333333334</ele><time>2026-04-21T08:01:40.123Z</time></trkpt><trkpt lat="32.8789983" lon="9.6194233"><ele>233.0</ele><time>2026-04-21T08:01:41.123Z</time></trkpt><trkpt lat="32.8789317" lon="9.6193533"><ele>233.0</ele><time>2026-04-21T08:01:42.122Z</time></trkpt><trkpt lat="32.87885" lon="9.6192883"><ele>233.0</ele><time>2026-04-21T08:01:43.122Z</time></trkpt><trkpt lat="32.87877" lon="9.6192267"><ele>233.0</ele><time>2026-04-21T08:01:44.123Z</time></trkpt><trkpt lat="32.8786917" lon="9.6191567"><ele>233.0</ele><time>2026-04-21T08:01:45.122Z</time></trkpt><trkpt lat="32.87861" lon="9.61908"><ele>233.0</ele><time>2026-04-21T08:01:46.123Z</time></trkpt><trkpt lat="32.8785267" lon="9.6189933"><ele>233.0</ele><time>2026-04-21T08:01:47.122Z</time></trkpt><trkpt lat="32.8784517" lon="9.6189017"><ele>233.0</ele><time>2026-04-21T08:01:48.123Z</time></trkpt><trkpt lat="32.8783767" lon="9.6188067"><ele>233.0</ele><time>2026-04-21T08:01:49.122Z</time></trkpt><trkpt lat="32.8782983" lon="9.61871"><ele>233.0</ele><time>2026-04-21T08:01:50.123Z</time></trkpt><trkpt lat="32.87816" lon="9.6185133"><ele>233.0</ele><time>2026-04-21T08:01:52.122Z</time></trkpt><trkpt lat="32.87808" lon="9.6184117"><ele>233.0</ele><time>2026-04-21T08:01:53.123Z</time></trkpt><trkpt lat="32.877995" lon="9.61831"><ele>233.0</ele><time>2026-04-21T08:01:54.123Z</time></trkpt><trkpt lat="32.8779133" lon="9.6182183"><ele>233.0</ele><time>2026-04-21T08:01:55.123Z</time></trkpt><trkpt lat="32.8778367" lon="9.6181317"><ele>233.0</ele><time>2026-04-21T08:01:56.122Z</time></trkpt><trkpt lat="32.8777567" lon="9.6180567"><ele>233.0</ele><time>2026-04-21T08:01:57.122Z</time></trkpt><trkpt lat="32.8776767" lon="9.6179967"><ele>233.0</ele><time>2026-04-21T08:01:58.123Z</time></trkpt><trkpt lat="32.8775917" lon="9.617945"><ele>233.0</ele><time>2026-04-21T08:01:59.122Z</time></trkpt><trkpt lat="32.8774967" lon="9.6178967"><ele>233.0</ele><time>2026-04-21T08:02:00.123Z</time></trkpt><trkpt lat="32.8774017" lon="9.6178617"><ele>233.2</ele><time>2026-04-21T08:02:01.122Z</time></trkpt><trkpt lat="32.877305" lon="9.61783"><ele>233.4</ele><time>2026-04-21T08:02:02.122Z</time></trkpt><trkpt lat="32.8772033" lon="9.617805"><ele>233.59999999999997</ele><time>2026-04-21T08:02:03.123Z</time></trkpt><trkpt lat="32.8771017" lon="9.6177867"><ele>233.79999999999998</ele><time>2026-04-21T08:02:04.122Z</time></trkpt><trkpt lat="32.8769983" lon="9.617775"><ele>234.0</ele><time>2026-04-21T08:02:05.123Z</time></trkpt><trkpt lat="32.876885" lon="9.617765"><ele>233.75</ele><time>2026-04-21T08:02:06.122Z</time></trkpt><trkpt lat="32.8767683" lon="9.61777"><ele>233.5</ele><time>2026-04-21T08:02:07.123Z</time></trkpt><trkpt lat="32.8766567" lon="9.61779"><ele>233.25</ele><time>2026-04-21T08:02:08.122Z</time></trkpt><trkpt lat="32.87655" lon="9.61781"><ele>233.0</ele><time>2026-04-21T08:02:09.123Z</time></trkpt><trkpt lat="32.8764367" lon="9.6178167"><ele>233.0</ele><time>2026-04-21T08:02:10.122Z</time></trkpt><trkpt lat="32.8763283" lon="9.617815"><ele>233.0</ele><time>2026-04-21T08:02:11.122Z</time></trkpt><trkpt lat="32.8761033" lon="9.6177783"><ele>233.0</ele><time>2026-04-21T08:02:13.122Z</time></trkpt><trkpt lat="32.8759917" lon="9.61775"><ele>232.8</ele><time>2026-04-21T08:02:14.123Z</time></trkpt><trkpt lat="32.87589" lon="9.6177183"><ele>232.60000000000002</ele><time>2026-04-21T08:02:15.122Z</time></trkpt><trkpt lat="32.875795" lon="9.617675"><ele>232.39999999999998</ele><time>2026-04-21T08:02:16.123Z</time></trkpt><trkpt lat="32.8756933" lon="9.61762"><ele>232.2</ele><time>2026-04-21T08:02:17.122Z</time></trkpt><trkpt lat="32.875605" lon="9.617555"><ele>232.0</ele><time>2026-04-21T08:02:18.122Z</time></trkpt><trkpt lat="32.8755167" lon="9.6174867"><ele>232.0</ele><time>2026-04-21T08:02:19.122Z</time></trkpt><trkpt lat="32.8754317" lon="9.6174233"><ele>232.0</ele><time>2026-04-21T08:02:20.122Z</time></trkpt><trkpt lat="32.8753517" lon="9.61736"><ele>232.0</ele><time>2026-04-21T08:02:21.123Z</time></trkpt><trkpt lat="32.8752717" lon="9.61729"><ele>232.0</ele><time>2026-04-21T08:02:22.122Z</time></trkpt><trkpt lat="32.875185" lon="9.617215"><ele>232.0</ele><time>2026-04-21T08:02:23.123Z</time></trkpt><trkpt lat="32.8751067" lon="9.617145"><ele>231.8</ele><time>2026-04-21T08:02:24.123Z</time></trkpt><trkpt lat="32.8750267" lon="9.61706"><ele>231.6</ele><time>2026-04-21T08:02:25.123Z</time></trkpt><trkpt lat="32.874945" lon="9.6169817"><ele>231.40000000000003</ele><time>2026-04-21T08:02:26.122Z</time></trkpt><trkpt lat="32.8748617" lon="9.6169"><ele>231.20000000000002</ele><time>2026-04-21T08:02:27.123Z</time></trkpt><trkpt lat="32.8747633" lon="9.616825"><ele>231.0</ele><time>2026-04-21T08:02:28.122Z</time></trkpt><trkpt lat="32.8746583" lon="9.616765"><ele>231.5</ele><time>2026-04-21T08:02:29.123Z</time></trkpt><trkpt lat="32.874555" lon="9.61672"><ele>232.0</ele><time>2026-04-21T08:02:30.123Z</time></trkpt><trkpt lat="32.874455" lon="9.61669"><ele>232.5</ele><time>2026-04-21T08:02:31.123Z</time></trkpt><trkpt lat="32.8743583" lon="9.61667"><ele>233.0</ele><time>2026-04-21T08:02:32.122Z</time></trkpt><trkpt lat="32.8741267" lon="9.616665"><ele>233.2</ele><time>2026-04-21T08:02:34.121Z</time></trkpt><trkpt lat="32.8740233" lon="9.6166733"><ele>233.4</ele><time>2026-04-21T08:02:35.121Z</time></trkpt><trkpt lat="32.8739167" lon="9.6166867"><ele>233.59999999999997</ele><time>2026-04-21T08:02:36.121Z</time></trkpt><trkpt lat="32.8738067" lon="9.616695"><ele>233.79999999999998</ele><time>2026-04-21T08:02:37.122Z</time></trkpt><trkpt lat="32.8737133" lon="9.61671"><ele>234.0</ele><time>2026-04-21T08:02:38.122Z</time></trkpt><trkpt lat="32.87361" lon="9.6167183"><ele>234.0</ele><time>2026-04-21T08:02:39.121Z</time></trkpt><trkpt lat="32.8735117" lon="9.6167233"><ele>233.99999999999997</ele><time>2026-04-21T08:02:40.121Z</time></trkpt><trkpt lat="32.8734083" lon="9.6167333"><ele>233.99999999999997</ele><time>2026-04-21T08:02:41.121Z</time></trkpt><trkpt lat="32.8733083" lon="9.6167483"><ele>234.0</ele><time>2026-04-21T08:02:42.121Z</time></trkpt><trkpt lat="32.8732033" lon="9.61676"><ele>234.0</ele><time>2026-04-21T08:02:43.121Z</time></trkpt><trkpt lat="32.8730933" lon="9.6167717"><ele>234.0</ele><time>2026-04-21T08:02:44.122Z</time></trkpt><trkpt lat="32.8729783" lon="9.6167867"><ele>233.99999999999997</ele><time>2026-04-21T08:02:45.122Z</time></trkpt><trkpt lat="32.8728667" lon="9.6168017"><ele>233.99999999999997</ele><time>2026-04-21T08:02:46.122Z</time></trkpt><trkpt lat="32.8727583" lon="9.616815"><ele>234.0</ele><time>2026-04-21T08:02:47.121Z</time></trkpt><trkpt lat="32.8726533" lon="9.6168217"><ele>234.0</ele><time>2026-04-21T08:02:48.122Z</time></trkpt><trkpt lat="32.8725433" lon="9.6168283"><ele>234.25</ele><time>2026-04-21T08:02:49.122Z</time></trkpt><trkpt lat="32.8724333" lon="9.61684"><ele>234.5</ele><time>2026-04-21T08:02:50.122Z</time></trkpt><trkpt lat="32.8723217" lon="9.6168517"><ele>234.75</ele><time>2026-04-21T08:02:51.122Z</time></trkpt><trkpt lat="32.87221" lon="9.6168633"><ele>235.0</ele><time>2026-04-21T08:02:52.121Z</time></trkpt><trkpt lat="32.8720917" lon="9.6168717"><ele>235.0</ele><time>2026-04-21T08:02:53.122Z</time></trkpt><trkpt lat="32.8718583" lon="9.6168933"><ele>235.0</ele><time>2026-04-21T08:02:55.122Z</time></trkpt><trkpt lat="32.8717383" lon="9.6168967"><ele>235.0</ele><time>2026-04-21T08:02:56.122Z</time></trkpt><trkpt lat="32.871625" lon="9.616905"><ele>234.75</ele><time>2026-04-21T08:02:57.122Z</time></trkpt><trkpt lat="32.8715017" lon="9.6169083"><ele>234.5</ele><time>2026-04-21T08:02:58.121Z</time></trkpt><trkpt lat="32.871385" lon="9.6169067"><ele>234.25</ele><time>2026-04-21T08:02:59.122Z</time></trkpt><trkpt lat="32.871265" lon="9.616905"><ele>234.0</ele><time>2026-04-21T08:03:00.121Z</time></trkpt><trkpt lat="32.871145" lon="9.6169"><ele>234.0</ele><time>2026-04-21T08:03:01.122Z</time></trkpt><trkpt lat="32.8710383" lon="9.6169117"><ele>233.99999999999997</ele><time>2026-04-21T08:03:02.122Z</time></trkpt><trkpt lat="32.87093" lon="9.6169117"><ele>233.99999999999997</ele><time>2026-04-21T08:03:03.121Z</time></trkpt><trkpt lat="32.870815" lon="9.6169183"><ele>234.0</ele><time>2026-04-21T08:03:04.121Z</time></trkpt><trkpt lat="32.8707017" lon="9.616915"><ele>234.0</ele><time>2026-04-21T08:03:05.121Z</time></trkpt><trkpt lat="32.8705967" lon="9.6168967"><ele>233.75</ele><time>2026-04-21T08:03:06.121Z</time></trkpt><trkpt lat="32.87048" lon="9.6168667"><ele>233.5</ele><time>2026-04-21T08:03:07.122Z</time></trkpt><trkpt lat="32.870365" lon="9.6168283"><ele>233.25</ele><time>2026-04-21T08:03:08.122Z</time></trkpt><trkpt lat="32.8702583" lon="9.6167933"><ele>233.0</ele><time>2026-04-21T08:03:09.122Z</time></trkpt><trkpt lat="32.8701367" lon="9.6167617"><ele>233.2</ele><time>2026-04-21T08:03:10.121Z</time></trkpt><trkpt lat="32.87001" lon="9.6167283"><ele>233.4</ele><time>2026-04-21T08:03:11.122Z</time></trkpt><trkpt lat="32.8699083" lon="9.6166967"><ele>233.59999999999997</ele><time>2026-04-21T08:03:12.121Z</time></trkpt><trkpt lat="32.8698117" lon="9.6166767"><ele>233.79999999999998</ele><time>2026-04-21T08:03:13.121Z</time></trkpt><trkpt lat="32.869705" lon="9.61666"><ele>234.0</ele><time>2026-04-21T08:03:14.122Z</time></trkpt><trkpt lat="32.8694983" lon="9.61665"><ele>234.0</ele><time>2026-04-21T08:03:16.122Z</time></trkpt><trkpt lat="32.8693833" lon="9.6166317"><ele>234.0</ele><time>2026-04-21T08:03:17.121Z</time></trkpt><trkpt lat="32.8692617" lon="9.6166033"><ele>234.0</ele><time>2026-04-21T08:03:18.122Z</time></trkpt><trkpt lat="32.86915" lon="9.6165767"><ele>234.0</ele><time>2026-04-21T08:03:19.121Z</time></trkpt><trkpt lat="32.869025" lon="9.61654"><ele>234.0</ele><time>2026-04-21T08:03:20.122Z</time></trkpt><trkpt lat="32.868915" lon="9.6165017"><ele>233.99999999999997</ele><time>2026-04-21T08:03:21.121Z</time></trkpt><trkpt lat="32.86881" lon="9.6164567"><ele>233.99999999999997</ele><time>2026-04-21T08:03:22.121Z</time></trkpt><trkpt lat="32.8687167" lon="9.616405"><ele>234.0</ele><time>2026-04-21T08:03:23.121Z</time></trkpt><trkpt lat="32.8686083" lon="9.6163433"><ele>234.0</ele><time>2026-04-21T08:03:24.122Z</time></trkpt><trkpt lat="32.8685083" lon="9.6162783"><ele>233.79999999999998</ele><time>2026-04-21T08:03:25.122Z</time></trkpt><trkpt lat="32.8684133" lon="9.61622"><ele>233.59999999999997</ele><time>2026-04-21T08:03:26.121Z</time></trkpt><trkpt lat="32.86832" lon="9.6161683"><ele>233.4</ele><time>2026-04-21T08:03:27.121Z</time></trkpt><trkpt lat="32.868215" lon="9.6161167"><ele>233.2</ele><time>2026-04-21T08:03:28.122Z</time></trkpt><trkpt lat="32.8681183" lon="9.6160617"><ele>233.0</ele><time>2026-04-21T08:03:29.122Z</time></trkpt><trkpt lat="32.8680267" lon="9.6159933"><ele>232.8</ele><time>2026-04-21T08:03:30.122Z</time></trkpt><trkpt lat="32.8679367" lon="9.6159217"><ele>232.60000000000002</ele><time>2026-04-21T08:03:31.121Z</time></trkpt><trkpt lat="32.867845" lon="9.6158483"><ele>232.39999999999998</ele><time>2026-04-21T08:03:32.121Z</time></trkpt><trkpt lat="32.86776" lon="9.6157817"><ele>232.2</ele><time>2026-04-21T08:03:33.122Z</time></trkpt><trkpt lat="32.8676667" lon="9.615725"><ele>232.0</ele><time>2026-04-21T08:03:34.122Z</time></trkpt><trkpt lat="32.8675667" lon="9.615675"><ele>232.75</ele><time>2026-04-21T08:03:35.121Z</time></trkpt><trkpt lat="32.867365" lon="9.6155767"><ele>233.5</ele><time>2026-04-21T08:03:37.122Z</time></trkpt><trkpt lat="32.8672717" lon="9.6155083"><ele>234.25</ele><time>2026-04-21T08:03:38.122Z</time></trkpt><trkpt lat="32.8671767" lon="9.6154267"><ele>235.0</ele><time>2026-04-21T08:03:39.122Z</time></trkpt><trkpt lat="32.8670817" lon="9.615335"><ele>235.0</ele><time>2026-04-21T08:03:40.121Z</time></trkpt><trkpt lat="32.866985" lon="9.6152483"><ele>235.0</ele><time>2026-04-21T08:03:41.122Z</time></trkpt><trkpt lat="32.866895" lon="9.61517"><ele>235.0</ele><time>2026-04-21T08:03:42.121Z</time></trkpt><trkpt lat="32.86681" lon="9.6150917"><ele>235.0</ele><time>2026-04-21T08:03:43.122Z</time></trkpt><trkpt lat="32.8667283" lon="9.61501"><ele>235.0</ele><time>2026-04-21T08:03:44.122Z</time></trkpt><trkpt lat="32.8666417" lon="9.6149233"><ele>235.0</ele><time>2026-04-21T08:03:45.121Z</time></trkpt><trkpt lat="32.8665533" lon="9.6148367"><ele>235.0</ele><time>2026-04-21T08:03:46.122Z</time></trkpt><trkpt lat="32.86646" lon="9.61476"><ele>235.0</ele><time>2026-04-21T08:03:47.122Z</time></trkpt><trkpt lat="32.86636" lon="9.6146883"><ele>235.0</ele><time>2026-04-21T08:03:48.122Z</time></trkpt><trkpt lat="32.8662683" lon="9.6146217"><ele>235.0</ele><time>2026-04-21T08:03:49.122Z</time></trkpt><trkpt lat="32.866175" lon="9.6145533"><ele>235.0</ele><time>2026-04-21T08:03:50.121Z</time></trkpt><trkpt lat="32.8660767" lon="9.6144817"><ele>235.0</ele><time>2026-04-21T08:03:51.121Z</time></trkpt><trkpt lat="32.8659783" lon="9.6144067"><ele>235.0</ele><time>2026-04-21T08:03:52.122Z</time></trkpt><trkpt lat="32.8658767" lon="9.614325"><ele>234.75</ele><time>2026-04-21T08:03:53.121Z</time></trkpt><trkpt lat="32.8657833" lon="9.6142433"><ele>234.5</ele><time>2026-04-21T08:03:54.121Z</time></trkpt><trkpt lat="32.865685" lon="9.6141633"><ele>234.25</ele><time>2026-04-21T08:03:55.122Z</time></trkpt><trkpt lat="32.86559" lon="9.6140917"><ele>234.0</ele><time>2026-04-21T08:03:56.121Z</time></trkpt><trkpt lat="32.8654117" lon="9.6139483"><ele>234.0</ele><time>2026-04-21T08:03:58.121Z</time></trkpt><trkpt lat="32.8653317" lon="9.6138733"><ele>233.99999999999997</ele><time>2026-04-21T08:03:59.122Z</time></trkpt><trkpt lat="32.8652467" lon="9.6138"><ele>233.99999999999997</ele><time>2026-04-21T08:04:00.121Z</time></trkpt><trkpt lat="32.865165" lon="9.6137133"><ele>234.0</ele><time>2026-04-21T08:04:01.122Z</time></trkpt><trkpt lat="32.8650817" lon="9.61362"><ele>234.0</ele><time>2026-04-21T08:04:02.122Z</time></trkpt><trkpt lat="32.8650017" lon="9.613535"><ele>233.79999999999998</ele><time>2026-04-21T08:04:03.122Z</time></trkpt><trkpt lat="32.8649183" lon="9.6134517"><ele>233.59999999999997</ele><time>2026-04-21T08:04:04.122Z</time></trkpt><trkpt lat="32.8648283" lon="9.6133733"><ele>233.4</ele><time>2026-04-21T08:04:05.122Z</time></trkpt><trkpt lat="32.8647383" lon="9.61329"><ele>233.2</ele><time>2026-04-21T08:04:06.122Z</time></trkpt><trkpt lat="32.8646483" lon="9.6132267"><ele>233.0</ele><time>2026-04-21T08:04:07.122Z</time></trkpt><trkpt lat="32.8645533" lon="9.61317"><ele>233.0</ele><time>2026-04-21T08:04:08.122Z</time></trkpt><trkpt lat="32.8644517" lon="9.6131183"><ele>233.0</ele><time>2026-04-21T08:04:09.121Z</time></trkpt><trkpt lat="32.86434" lon="9.613065"><ele>233.0</ele><time>2026-04-21T08:04:10.121Z</time></trkpt><trkpt lat="32.8642367" lon="9.6130217"><ele>233.0</ele><time>2026-04-21T08:04:11.122Z</time></trkpt><trkpt lat="32.8641367" lon="9.6129717"><ele>233.0</ele><time>2026-04-21T08:04:12.122Z</time></trkpt><trkpt lat="32.8640333" lon="9.6129183"><ele>233.0</ele><time>2026-04-21T08:04:13.121Z</time></trkpt><trkpt lat="32.8639317" lon="9.61286"><ele>233.0</ele><time>2026-04-21T08:04:14.121Z</time></trkpt><trkpt lat="32.86383" lon="9.6127917"><ele>233.0</ele><time>2026-04-21T08:04:15.122Z</time></trkpt><trkpt lat="32.8637367" lon="9.61272"><ele>233.0</ele><time>2026-04-21T08:04:16.122Z</time></trkpt><trkpt lat="32.8635533" lon="9.6125667"><ele>233.16666666666669</ele><time>2026-04-21T08:04:18.122Z</time></trkpt><trkpt lat="32.8634667" lon="9.6124983"><ele>233.33333333333334</ele><time>2026-04-21T08:04:19.121Z</time></trkpt><trkpt lat="32.8633933" lon="9.612455"><ele>233.5</ele><time>2026-04-21T08:04:20.121Z</time></trkpt><trkpt lat="32.8633283" lon="9.6124083"><ele>233.66666666666669</ele><time>2026-04-21T08:04:21.121Z</time></trkpt><trkpt lat="32.8632717" lon="9.612365"><ele>233.83333333333334</ele><time>2026-04-21T08:04:22.121Z</time></trkpt><trkpt lat="32.8632167" lon="9.6123217"><ele>234.0</ele><time>2026-04-21T08:04:23.121Z</time></trkpt><trkpt lat="32.8631567" lon="9.612275"><ele>234.0</ele><time>2026-04-21T08:04:24.122Z</time></trkpt><trkpt lat="32.8630983" lon="9.612225"><ele>234.0</ele><time>2026-04-21T08:04:25.121Z</time></trkpt><trkpt lat="32.8630333" lon="9.612165"><ele>234.0</ele><time>2026-04-21T08:04:26.122Z</time></trkpt><trkpt lat="32.86297" lon="9.6121067"><ele>234.0</ele><time>2026-04-21T08:04:27.121Z</time></trkpt><trkpt lat="32.86291" lon="9.61205"><ele>234.0</ele><time>2026-04-21T08:04:28.122Z</time></trkpt><trkpt lat="32.8628567" lon="9.6119767"><ele>234.0</ele><time>2026-04-21T08:04:29.122Z</time></trkpt><trkpt lat="32.8628033" lon="9.61191"><ele>234.0</ele><time>2026-04-21T08:04:30.121Z</time></trkpt><trkpt lat="32.8627533" lon="9.6118317"><ele>234.0</ele><time>2026-04-21T08:04:31.121Z</time></trkpt><trkpt lat="32.8627" lon="9.611755"><ele>234.0</ele><time>2026-04-21T08:04:32.121Z</time></trkpt><trkpt lat="32.8626467" lon="9.6116817"><ele>234.0</ele><time>2026-04-21T08:04:33.122Z</time></trkpt><trkpt lat="32.8625933" lon="9.6116033"><ele>234.0</ele><time>2026-04-21T08:04:34.122Z</time></trkpt><trkpt lat="32.8625517" lon="9.6115183"><ele>234.0</ele><time>2026-04-21T08:04:35.122Z</time></trkpt><trkpt lat="32.8625067" lon="9.6114333"><ele>234.0</ele><time>2026-04-21T08:04:36.121Z</time></trkpt><trkpt lat="32.862465" lon="9.611355"><ele>233.99999999999997</ele><time>2026-04-21T08:04:37.121Z</time></trkpt><trkpt lat="32.8623817" lon="9.6111833"><ele>233.99999999999997</ele><time>2026-04-21T08:04:39.121Z</time></trkpt><trkpt lat="32.8623383" lon="9.611095"><ele>234.0</ele><time>2026-04-21T08:04:40.122Z</time></trkpt><trkpt lat="32.8622967" lon="9.6110033"><ele>234.0</ele><time>2026-04-21T08:04:41.121Z</time></trkpt><trkpt lat="32.86226" lon="9.610905"><ele>234.0</ele><time>2026-04-21T08:04:42.121Z</time></trkpt><trkpt lat="32.8622233" lon="9.6108083"><ele>233.99999999999997</ele><time>2026-04-21T08:04:43.121Z</time></trkpt><trkpt lat="32.8621817" lon="9.6107083"><ele>233.99999999999997</ele><time>2026-04-21T08:04:44.121Z</time></trkpt><trkpt lat="32.86214" lon="9.610605"><ele>234.0</ele><time>2026-04-21T08:04:45.121Z</time></trkpt><trkpt lat="32.8620983" lon="9.6105083"><ele>234.0</ele><time>2026-04-21T08:04:46.121Z</time></trkpt><trkpt lat="32.8620483" lon="9.610405"><ele>234.2</ele><time>2026-04-21T08:04:47.121Z</time></trkpt><trkpt lat="32.8619917" lon="9.6103133"><ele>234.39999999999998</ele><time>2026-04-21T08:04:48.121Z</time></trkpt><trkpt lat="32.861935" lon="9.610225"><ele>234.6</ele><time>2026-04-21T08:04:49.122Z</time></trkpt><trkpt lat="32.8618733" lon="9.61013"><ele>234.8</ele><time>2026-04-21T08:04:50.122Z</time></trkpt><trkpt lat="32.8618183" lon="9.61004"><ele>235.0</ele><time>2026-04-21T08:04:51.121Z</time></trkpt><trkpt lat="32.861755" lon="9.6099483"><ele>235.2</ele><time>2026-04-21T08:04:52.122Z</time></trkpt><trkpt lat="32.8616983" lon="9.6098567"><ele>235.4</ele><time>2026-04-21T08:04:53.121Z</time></trkpt><trkpt lat="32.8616433" lon="9.6097733"><ele>235.60000000000002</ele><time>2026-04-21T08:04:54.122Z</time></trkpt><trkpt lat="32.8615817" lon="9.60968"><ele>235.8</ele><time>2026-04-21T08:04:55.122Z</time></trkpt><trkpt lat="32.8615283" lon="9.6095833"><ele>236.0</ele><time>2026-04-21T08:04:56.121Z</time></trkpt><trkpt lat="32.8614867" lon="9.609485"><ele>235.25</ele><time>2026-04-21T08:04:57.121Z</time></trkpt><trkpt lat="32.86144" lon="9.60939"><ele>234.5</ele><time>2026-04-21T08:04:58.122Z</time></trkpt><trkpt lat="32.8613433" lon="9.6091767"><ele>233.75</ele><time>2026-04-21T08:05:00.121Z</time></trkpt><trkpt lat="32.8612983" lon="9.609065"><ele>233.0</ele><time>2026-04-21T08:05:01.121Z</time></trkpt><trkpt lat="32.8612517" lon="9.6089417"><ele>233.0</ele><time>2026-04-21T08:05:02.122Z</time></trkpt><trkpt lat="32.86121" lon="9.608815"><ele>233.0</ele><time>2026-04-21T08:05:03.121Z</time></trkpt><trkpt lat="32.861165" lon="9.6086883"><ele>233.0</ele><time>2026-04-21T08:05:04.122Z</time></trkpt><trkpt lat="32.86112" lon="9.60858"><ele>233.0</ele><time>2026-04-21T08:05:05.122Z</time></trkpt><trkpt lat="32.86108" lon="9.6084967"><ele>233.0</ele><time>2026-04-21T08:05:06.121Z</time></trkpt><trkpt lat="32.8610217" lon="9.6083867"><ele>233.0</ele><time>2026-04-21T08:05:08.122Z</time></trkpt><trkpt lat="32.8609833" lon="9.6083133"><ele>233.0</ele><time>2026-04-21T08:05:11.122Z</time></trkpt><trkpt lat="32.860935" lon="9.6082417"><ele>233.0</ele><time>2026-04-21T08:05:22.122Z</time></trkpt><trkpt lat="32.86084" lon="9.6080517"><ele>233.0</ele><time>2026-04-21T08:05:25.122Z</time></trkpt><trkpt lat="32.8607983" lon="9.60797"><ele>233.0</ele><time>2026-04-21T08:05:26.122Z</time></trkpt><trkpt lat="32.860755" lon="9.6078967"><ele>233.00000000000003</ele><time>2026-04-21T08:05:27.122Z</time></trkpt><trkpt lat="32.8607033" lon="9.6078167"><ele>233.0</ele><time>2026-04-21T08:05:28.122Z</time></trkpt><trkpt lat="32.86066" lon="9.60773"><ele>233.0</ele><time>2026-04-21T08:05:29.121Z</time></trkpt><trkpt lat="32.8606067" lon="9.60765"><ele>233.0</ele><time>2026-04-21T08:05:30.122Z</time></trkpt><trkpt lat="32.8605517" lon="9.6075683"><ele>233.00000000000003</ele><time>2026-04-21T08:05:31.121Z</time></trkpt><trkpt lat="32.860495" lon="9.6074767"><ele>233.0</ele><time>2026-04-21T08:05:32.121Z</time></trkpt><trkpt lat="32.860435" lon="9.6073983"><ele>233.0</ele><time>2026-04-21T08:05:33.121Z</time></trkpt><trkpt lat="32.8603733" lon="9.6073267"><ele>233.0</ele><time>2026-04-21T08:05:34.122Z</time></trkpt><trkpt lat="32.8602917" lon="9.6072517"><ele>233.0</ele><time>2026-04-21T08:05:35.121Z</time></trkpt><trkpt lat="32.8602217" lon="9.6071783"><ele>233.0</ele><time>2026-04-21T08:05:36.121Z</time></trkpt><trkpt lat="32.8601517" lon="9.607105"><ele>233.0</ele><time>2026-04-21T08:05:37.121Z</time></trkpt><trkpt lat="32.8600733" lon="9.607035"><ele>232.60000000000002</ele><time>2026-04-21T08:05:38.122Z</time></trkpt><trkpt lat="32.8599883" lon="9.60697"><ele>232.20000000000002</ele><time>2026-04-21T08:05:39.121Z</time></trkpt><trkpt lat="32.8599" lon="9.6069067"><ele>231.8</ele><time>2026-04-21T08:05:40.122Z</time></trkpt><trkpt lat="32.8598267" lon="9.6068333"><ele>231.4</ele><time>2026-04-21T08:05:41.122Z</time></trkpt><trkpt lat="32.85975" lon="9.606765"><ele>231.0</ele><time>2026-04-21T08:05:42.122Z</time></trkpt><trkpt lat="32.8597" lon="9.6066867"><ele>231.0</ele><time>2026-04-21T08:05:43.121Z</time></trkpt><trkpt lat="32.8596183" lon="9.60652"><ele>231.00000000000003</ele><time>2026-04-21T08:05:45.122Z</time></trkpt><trkpt lat="32.859575" lon="9.6064467"><ele>231.00000000000003</ele><time>2026-04-21T08:05:46.121Z</time></trkpt><trkpt lat="32.8595367" lon="9.606365"><ele>231.0</ele><time>2026-04-21T08:05:47.122Z</time></trkpt><trkpt lat="32.8594983" lon="9.6062733"><ele>231.0</ele><time>2026-04-21T08:05:48.121Z</time></trkpt><trkpt lat="32.8594683" lon="9.60617"><ele>231.4</ele><time>2026-04-21T08:05:49.121Z</time></trkpt><trkpt lat="32.8594317" lon="9.6060633"><ele>231.8</ele><time>2026-04-21T08:05:50.121Z</time></trkpt><trkpt lat="32.859405" lon="9.6059517"><ele>232.20000000000002</ele><time>2026-04-21T08:05:51.122Z</time></trkpt><trkpt lat="32.8593817" lon="9.6058317"><ele>232.60000000000002</ele><time>2026-04-21T08:05:52.121Z</time></trkpt><trkpt lat="32.8593683" lon="9.605705"><ele>233.0</ele><time>2026-04-21T08:05:53.122Z</time></trkpt><trkpt lat="32.8593533" lon="9.60558"><ele>233.0</ele><time>2026-04-21T08:05:54.122Z</time></trkpt><trkpt lat="32.859335" lon="9.605445"><ele>233.0</ele><time>2026-04-21T08:05:55.122Z</time></trkpt><trkpt lat="32.85931" lon="9.6053133"><ele>233.0</ele><time>2026-04-21T08:05:56.122Z</time></trkpt><trkpt lat="32.8592817" lon="9.605185"><ele>233.0</ele><time>2026-04-21T08:05:57.122Z</time></trkpt><trkpt lat="32.85925" lon="9.60505"><ele>232.75</ele><time>2026-04-21T08:05:58.122Z</time></trkpt><trkpt lat="32.859215" lon="9.604915"><ele>232.5</ele><time>2026-04-21T08:05:59.122Z</time></trkpt><trkpt lat="32.85918" lon="9.6047883"><ele>232.25</ele><time>2026-04-21T08:06:00.122Z</time></trkpt><trkpt lat="32.8591317" lon="9.6046667"><ele>232.0</ele><time>2026-04-21T08:06:01.122Z</time></trkpt><trkpt lat="32.8590817" lon="9.6045417"><ele>232.25</ele><time>2026-04-21T08:06:02.121Z</time></trkpt><trkpt lat="32.8590333" lon="9.6044233"><ele>232.5</ele><time>2026-04-21T08:06:03.122Z</time></trkpt><trkpt lat="32.85899" lon="9.6043067"><ele>232.75</ele><time>2026-04-21T08:06:04.121Z</time></trkpt><trkpt lat="32.8588967" lon="9.6040767"><ele>233.0</ele><time>2026-04-21T08:06:06.122Z</time></trkpt><trkpt lat="32.858855" lon="9.603955"><ele>233.0</ele><time>2026-04-21T08:06:07.122Z</time></trkpt><trkpt lat="32.85881" lon="9.6038483"><ele>233.0</ele><time>2026-04-21T08:06:08.121Z</time></trkpt><trkpt lat="32.85877" lon="9.6037467"><ele>233.0</ele><time>2026-04-21T08:06:09.12Z</time></trkpt><trkpt lat="32.8587283" lon="9.60364"><ele>233.0</ele><time>2026-04-21T08:06:10.121Z</time></trkpt><trkpt lat="32.8586917" lon="9.6035367"><ele>233.0</ele><time>2026-04-21T08:06:11.121Z</time></trkpt><trkpt lat="32.8586433" lon="9.6034383"><ele>233.0</ele><time>2026-04-21T08:06:12.12Z</time></trkpt><trkpt lat="32.8586033" lon="9.6033233"><ele>233.0</ele><time>2026-04-21T08:06:13.121Z</time></trkpt><trkpt lat="32.85856" lon="9.60321"><ele>233.0</ele><time>2026-04-21T08:06:14.121Z</time></trkpt><trkpt lat="32.8585283" lon="9.6030917"><ele>233.0</ele><time>2026-04-21T08:06:15.121Z</time></trkpt><trkpt lat="32.8584933" lon="9.6029683"><ele>233.0</ele><time>2026-04-21T08:06:16.12Z</time></trkpt><trkpt lat="32.858455" lon="9.6028433"><ele>232.8</ele><time>2026-04-21T08:06:17.121Z</time></trkpt><trkpt lat="32.858435" lon="9.60272"><ele>232.60000000000002</ele><time>2026-04-21T08:06:18.12Z</time></trkpt><trkpt lat="32.8584117" lon="9.6025933"><ele>232.39999999999998</ele><time>2026-04-21T08:06:19.12Z</time></trkpt><trkpt lat="32.858395" lon="9.602465"><ele>232.2</ele><time>2026-04-21T08:06:20.121Z</time></trkpt><trkpt lat="32.858375" lon="9.6023333"><ele>232.0</ele><time>2026-04-21T08:06:21.12Z</time></trkpt><trkpt lat="32.8583583" lon="9.6021967"><ele>232.0</ele><time>2026-04-21T08:06:22.121Z</time></trkpt><trkpt lat="32.858355" lon="9.6020417"><ele>232.0</ele><time>2026-04-21T08:06:23.121Z</time></trkpt><trkpt lat="32.8583283" lon="9.6019067"><ele>232.0</ele><time>2026-04-21T08:06:24.121Z</time></trkpt><trkpt lat="32.858305" lon="9.60178"><ele>232.0</ele><time>2026-04-21T08:06:25.121Z</time></trkpt><trkpt lat="32.8582633" lon="9.6015517"><ele>232.0</ele><time>2026-04-21T08:06:27.12Z</time></trkpt><trkpt lat="32.85824" lon="9.6014333"><ele>232.0</ele><time>2026-04-21T08:06:28.121Z</time></trkpt><trkpt lat="32.8582167" lon="9.6013117"><ele>232.0</ele><time>2026-04-21T08:06:29.12Z</time></trkpt><trkpt lat="32.858195" lon="9.601195"><ele>232.0</ele><time>2026-04-21T08:06:30.121Z</time></trkpt><trkpt lat="32.8581683" lon="9.601065"><ele>232.0</ele><time>2026-04-21T08:06:31.121Z</time></trkpt><trkpt lat="32.8581367" lon="9.6009333"><ele>232.0</ele><time>2026-04-21T08:06:32.121Z</time></trkpt><trkpt lat="32.8581117" lon="9.6008"><ele>232.0</ele><time>2026-04-21T08:06:33.121Z</time></trkpt><trkpt lat="32.85809" lon="9.600665"><ele>232.0</ele><time>2026-04-21T08:06:34.12Z</time></trkpt><trkpt lat="32.858075" lon="9.600535"><ele>232.0</ele><time>2026-04-21T08:06:35.12Z</time></trkpt><trkpt lat="32.85805" lon="9.6003983"><ele>232.0</ele><time>2026-04-21T08:06:36.12Z</time></trkpt><trkpt lat="32.858035" lon="9.60026"><ele>232.0</ele><time>2026-04-21T08:06:37.12Z</time></trkpt><trkpt lat="32.8580133" lon="9.6001217"><ele>232.0</ele><time>2026-04-21T08:06:38.12Z</time></trkpt><trkpt lat="32.858005" lon="9.599985"><ele>232.0</ele><time>2026-04-21T08:06:39.121Z</time></trkpt><trkpt lat="32.85799" lon="9.59984"><ele>232.0</ele><time>2026-04-21T08:06:40.12Z</time></trkpt><trkpt lat="32.8579767" lon="9.5996983"><ele>232.0</ele><time>2026-04-21T08:06:41.12Z</time></trkpt><trkpt lat="32.8579583" lon="9.599545"><ele>232.0</ele><time>2026-04-21T08:06:42.12Z</time></trkpt><trkpt lat="32.8579433" lon="9.59941"><ele>232.0</ele><time>2026-04-21T08:06:43.12Z</time></trkpt><trkpt lat="32.85792" lon="9.59926"><ele>231.66666666666666</ele><time>2026-04-21T08:06:44.121Z</time></trkpt><trkpt lat="32.8579017" lon="9.59912"><ele>231.33333333333331</ele><time>2026-04-21T08:06:45.12Z</time></trkpt><trkpt lat="32.8578733" lon="9.59898"><ele>231.0</ele><time>2026-04-21T08:06:46.121Z</time></trkpt><trkpt lat="32.857825" lon="9.5986733"><ele>231.25</ele><time>2026-04-21T08:06:48.121Z</time></trkpt><trkpt lat="32.8578067" lon="9.5985217"><ele>231.5</ele><time>2026-04-21T08:06:49.121Z</time></trkpt><trkpt lat="32.8577883" lon="9.5983767"><ele>231.75</ele><time>2026-04-21T08:06:50.12Z</time></trkpt><trkpt lat="32.8577783" lon="9.5982367"><ele>232.0</ele><time>2026-04-21T08:06:51.121Z</time></trkpt><trkpt lat="32.8577733" lon="9.5980983"><ele>232.0</ele><time>2026-04-21T08:06:52.12Z</time></trkpt><trkpt lat="32.85777" lon="9.5979567"><ele>232.0</ele><time>2026-04-21T08:06:53.121Z</time></trkpt><trkpt lat="32.8577733" lon="9.5978083"><ele>232.0</ele><time>2026-04-21T08:06:54.12Z</time></trkpt><trkpt lat="32.8577733" lon="9.5976667"><ele>232.0</ele><time>2026-04-21T08:06:55.121Z</time></trkpt><trkpt lat="32.8577717" lon="9.5975317"><ele>232.2</ele><time>2026-04-21T08:06:56.121Z</time></trkpt><trkpt lat="32.8577733" lon="9.5973983"><ele>232.39999999999998</ele><time>2026-04-21T08:06:57.12Z</time></trkpt><trkpt lat="32.857765" lon="9.5972683"><ele>232.60000000000002</ele><time>2026-04-21T08:06:58.121Z</time></trkpt><trkpt lat="32.8577567" lon="9.5971333"><ele>232.8</ele><time>2026-04-21T08:06:59.12Z</time></trkpt><trkpt lat="32.8577417" lon="9.5970017"><ele>233.0</ele><time>2026-04-21T08:07:00.12Z</time></trkpt><trkpt lat="32.8577233" lon="9.5968617"><ele>232.5</ele><time>2026-04-21T08:07:01.121Z</time></trkpt><trkpt lat="32.85771" lon="9.5967183"><ele>232.0</ele><time>2026-04-21T08:07:02.12Z</time></trkpt><trkpt lat="32.85769" lon="9.5965767"><ele>231.5</ele><time>2026-04-21T08:07:03.12Z</time></trkpt><trkpt lat="32.8576683" lon="9.5964233"><ele>231.0</ele><time>2026-04-21T08:07:04.121Z</time></trkpt><trkpt lat="32.85765" lon="9.5962717"><ele>231.0</ele><time>2026-04-21T08:07:05.12Z</time></trkpt><trkpt lat="32.8576217" lon="9.59613"><ele>231.0</ele><time>2026-04-21T08:07:06.121Z</time></trkpt><trkpt lat="32.8575983" lon="9.5959867"><ele>231.0</ele><time>2026-04-21T08:07:07.121Z</time></trkpt><trkpt lat="32.8575167" lon="9.5957233"><ele>231.0</ele><time>2026-04-21T08:07:09.12Z</time></trkpt><trkpt lat="32.8574717" lon="9.5955983"><ele>231.0</ele><time>2026-04-21T08:07:10.12Z</time></trkpt><trkpt lat="32.8574167" lon="9.5954667"><ele>231.0</ele><time>2026-04-21T08:07:11.121Z</time></trkpt><trkpt lat="32.8573683" lon="9.5953267"><ele>231.0</ele><time>2026-04-21T08:07:12.12Z</time></trkpt><trkpt lat="32.8573333" lon="9.595175"><ele>231.25</ele><time>2026-04-21T08:07:13.121Z</time></trkpt><trkpt lat="32.857305" lon="9.59503"><ele>231.5</ele><time>2026-04-21T08:07:14.121Z</time></trkpt><trkpt lat="32.857275" lon="9.5948967"><ele>231.75</ele><time>2026-04-21T08:07:15.12Z</time></trkpt><trkpt lat="32.8572417" lon="9.5947667"><ele>232.0</ele><time>2026-04-21T08:07:16.121Z</time></trkpt><trkpt lat="32.85722" lon="9.5946417"><ele>232.0</ele><time>2026-04-21T08:07:17.12Z</time></trkpt><trkpt lat="32.857185" lon="9.59453"><ele>232.0</ele><time>2026-04-21T08:07:18.12Z</time></trkpt><trkpt lat="32.8571417" lon="9.5944333"><ele>232.0</ele><time>2026-04-21T08:07:19.121Z</time></trkpt><trkpt lat="32.8570917" lon="9.59433"><ele>232.0</ele><time>2026-04-21T08:07:20.121Z</time></trkpt><trkpt lat="32.8570383" lon="9.5942317"><ele>232.0</ele><time>2026-04-21T08:07:21.121Z</time></trkpt><trkpt lat="32.8569933" lon="9.5941267"><ele>231.5</ele><time>2026-04-21T08:07:22.12Z</time></trkpt><trkpt lat="32.856945" lon="9.5940117"><ele>231.0</ele><time>2026-04-21T08:07:23.12Z</time></trkpt><trkpt lat="32.856915" lon="9.5938817"><ele>230.5</ele><time>2026-04-21T08:07:24.121Z</time></trkpt><trkpt lat="32.85689" lon="9.5937383"><ele>230.0</ele><time>2026-04-21T08:07:25.12Z</time></trkpt><trkpt lat="32.8568817" lon="9.59359"><ele>229.33333333333334</ele><time>2026-04-21T08:07:26.121Z</time></trkpt><trkpt lat="32.85688" lon="9.5934433"><ele>228.66666666666669</ele><time>2026-04-21T08:07:27.12Z</time></trkpt><trkpt lat="32.856885" lon="9.5933033"><ele>228.0</ele><time>2026-04-21T08:07:28.121Z</time></trkpt><trkpt lat="32.856905" lon="9.5930117"><ele>228.0</ele><time>2026-04-21T08:07:30.121Z</time></trkpt><trkpt lat="32.85691" lon="9.5928767"><ele>228.0</ele><time>2026-04-21T08:07:31.12Z</time></trkpt><trkpt lat="32.8569083" lon="9.5927417"><ele>228.0</ele><time>2026-04-21T08:07:32.12Z</time></trkpt><trkpt lat="32.8568867" lon="9.5926133"><ele>228.0</ele><time>2026-04-21T08:07:33.121Z</time></trkpt><trkpt lat="32.8568483" lon="9.5924867"><ele>228.5</ele><time>2026-04-21T08:07:34.12Z</time></trkpt><trkpt lat="32.8568" lon="9.5923717"><ele>229.0</ele><time>2026-04-21T08:07:35.12Z</time></trkpt><trkpt lat="32.8567383" lon="9.5922467"><ele>229.5</ele><time>2026-04-21T08:07:36.12Z</time></trkpt><trkpt lat="32.85667" lon="9.5921333"><ele>230.0</ele><time>2026-04-21T08:07:37.121Z</time></trkpt><trkpt lat="32.8566083" lon="9.5920267"><ele>230.75</ele><time>2026-04-21T08:07:38.12Z</time></trkpt><trkpt lat="32.8565433" lon="9.5918983"><ele>231.5</ele><time>2026-04-21T08:07:39.12Z</time></trkpt><trkpt lat="32.85648" lon="9.59178"><ele>232.25</ele><time>2026-04-21T08:07:40.12Z</time></trkpt><trkpt lat="32.8564267" lon="9.591665"><ele>233.0</ele><time>2026-04-21T08:07:41.121Z</time></trkpt><trkpt lat="32.8563683" lon="9.5915433"><ele>233.0</ele><time>2026-04-21T08:07:42.12Z</time></trkpt><trkpt lat="32.8563167" lon="9.5914317"><ele>233.0</ele><time>2026-04-21T08:07:43.12Z</time></trkpt><trkpt lat="32.8562633" lon="9.591305"><ele>233.0</ele><time>2026-04-21T08:07:44.121Z</time></trkpt><trkpt lat="32.8562183" lon="9.591185"><ele>233.0</ele><time>2026-04-21T08:07:45.12Z</time></trkpt><trkpt lat="32.8561883" lon="9.5910667"><ele>233.0</ele><time>2026-04-21T08:07:46.12Z</time></trkpt><trkpt lat="32.8561667" lon="9.59093"><ele>232.33333333333334</ele><time>2026-04-21T08:07:47.12Z</time></trkpt><trkpt lat="32.8561367" lon="9.5908083"><ele>231.66666666666669</ele><time>2026-04-21T08:07:48.12Z</time></trkpt><trkpt lat="32.8560883" lon="9.5906783"><ele>231.0</ele><time>2026-04-21T08:07:49.121Z</time></trkpt><trkpt lat="32.855995" lon="9.5904083"><ele>230.75</ele><time>2026-04-21T08:07:51.12Z</time></trkpt><trkpt lat="32.8559417" lon="9.5902867"><ele>230.5</ele><time>2026-04-21T08:07:52.121Z</time></trkpt><trkpt lat="32.8558983" lon="9.5901533"><ele>230.25</ele><time>2026-04-21T08:07:53.121Z</time></trkpt><trkpt lat="32.8558683" lon="9.5900317"><ele>230.0</ele><time>2026-04-21T08:07:54.121Z</time></trkpt><trkpt lat="32.855845" lon="9.5899017"><ele>230.0</ele><time>2026-04-21T08:07:55.121Z</time></trkpt><trkpt lat="32.855835" lon="9.589765"><ele>230.0</ele><time>2026-04-21T08:07:56.12Z</time></trkpt><trkpt lat="32.85583" lon="9.58962"><ele>230.0</ele><time>2026-04-21T08:07:57.12Z</time></trkpt><trkpt lat="32.8558333" lon="9.589485"><ele>230.0</ele><time>2026-04-21T08:07:58.12Z</time></trkpt><trkpt lat="32.8558517" lon="9.58936"><ele>230.4</ele><time>2026-04-21T08:07:59.121Z</time></trkpt><trkpt lat="32.8558733" lon="9.5892417"><ele>230.8</ele><time>2026-04-21T08:08:00.121Z</time></trkpt><trkpt lat="32.85589" lon="9.58912"><ele>231.2</ele><time>2026-04-21T08:08:01.12Z</time></trkpt><trkpt lat="32.8559067" lon="9.5889983"><ele>231.6</ele><time>2026-04-21T08:08:02.12Z</time></trkpt><trkpt lat="32.8559183" lon="9.58887"><ele>232.0</ele><time>2026-04-21T08:08:03.121Z</time></trkpt><trkpt lat="32.855935" lon="9.588735"><ele>231.75</ele><time>2026-04-21T08:08:04.121Z</time></trkpt><trkpt lat="32.85595" lon="9.5886"><ele>231.5</ele><time>2026-04-21T08:08:05.12Z</time></trkpt><trkpt lat="32.8559733" lon="9.58847"><ele>231.25</ele><time>2026-04-21T08:08:06.12Z</time></trkpt><trkpt lat="32.8559933" lon="9.58833"><ele>231.0</ele><time>2026-04-21T08:08:07.121Z</time></trkpt><trkpt lat="32.856015" lon="9.588195"><ele>230.66666666666669</ele><time>2026-04-21T08:08:08.121Z</time></trkpt><trkpt lat="32.8560367" lon="9.5880533"><ele>230.33333333333334</ele><time>2026-04-21T08:08:09.121Z</time></trkpt><trkpt lat="32.8560567" lon="9.5879067"><ele>230.0</ele><time>2026-04-21T08:08:10.121Z</time></trkpt><trkpt lat="32.8560967" lon="9.5876067"><ele>230.0</ele><time>2026-04-21T08:08:12.121Z</time></trkpt><trkpt lat="32.8561183" lon="9.5874417"><ele>230.0</ele><time>2026-04-21T08:08:13.12Z</time></trkpt><trkpt lat="32.8561367" lon="9.5872717"><ele>230.0</ele><time>2026-04-21T08:08:14.12Z</time></trkpt><trkpt lat="32.856155" lon="9.5871017"><ele>230.0</ele><time>2026-04-21T08:08:15.12Z</time></trkpt><trkpt lat="32.856185" lon="9.5869417"><ele>230.0</ele><time>2026-04-21T08:08:16.12Z</time></trkpt><trkpt lat="32.8562183" lon="9.5867833"><ele>230.0</ele><time>2026-04-21T08:08:17.12Z</time></trkpt><trkpt lat="32.8562433" lon="9.5866233"><ele>230.0</ele><time>2026-04-21T08:08:18.121Z</time></trkpt><trkpt lat="32.8562683" lon="9.58645"><ele>230.0</ele><time>2026-04-21T08:08:19.121Z</time></trkpt><trkpt lat="32.8562933" lon="9.586275"><ele>229.75</ele><time>2026-04-21T08:08:20.121Z</time></trkpt><trkpt lat="32.8563133" lon="9.5861067"><ele>229.5</ele><time>2026-04-21T08:08:21.121Z</time></trkpt><trkpt lat="32.8563333" lon="9.5859317"><ele>229.25</ele><time>2026-04-21T08:08:22.121Z</time></trkpt><trkpt lat="32.8563483" lon="9.5857483"><ele>229.0</ele><time>2026-04-21T08:08:23.121Z</time></trkpt><trkpt lat="32.856375" lon="9.5855667"><ele>229.0</ele><time>2026-04-21T08:08:24.121Z</time></trkpt><trkpt lat="32.8564" lon="9.5853917"><ele>229.0</ele><time>2026-04-21T08:08:25.12Z</time></trkpt><trkpt lat="32.856425" lon="9.5852217"><ele>229.0</ele><time>2026-04-21T08:08:26.12Z</time></trkpt><trkpt lat="32.85645" lon="9.5850567"><ele>229.0</ele><time>2026-04-21T08:08:27.121Z</time></trkpt><trkpt lat="32.856475" lon="9.584895"><ele>229.0</ele><time>2026-04-21T08:08:28.12Z</time></trkpt><trkpt lat="32.8565017" lon="9.5847333"><ele>229.0</ele><time>2026-04-21T08:08:29.121Z</time></trkpt><trkpt lat="32.85653" lon="9.5845683"><ele>229.0</ele><time>2026-04-21T08:08:30.12Z</time></trkpt><trkpt lat="32.85656" lon="9.584415"><ele>229.0</ele><time>2026-04-21T08:08:31.12Z</time></trkpt><trkpt lat="32.8566067" lon="9.5841383"><ele>229.0</ele><time>2026-04-21T08:08:33.12Z</time></trkpt><trkpt lat="32.8566183" lon="9.584015"><ele>228.99999999999997</ele><time>2026-04-21T08:08:34.12Z</time></trkpt><trkpt lat="32.8566183" lon="9.5838917"><ele>228.99999999999997</ele><time>2026-04-21T08:08:35.12Z</time></trkpt><trkpt lat="32.8566117" lon="9.5837667"><ele>229.0</ele><time>2026-04-21T08:08:36.121Z</time></trkpt><trkpt lat="32.8566067" lon="9.58365"><ele>229.0</ele><time>2026-04-21T08:08:37.121Z</time></trkpt><trkpt lat="32.8565917" lon="9.58355"><ele>229.16666666666666</ele><time>2026-04-21T08:08:38.12Z</time></trkpt><trkpt lat="32.8565833" lon="9.58345"><ele>229.33333333333331</ele><time>2026-04-21T08:08:39.12Z</time></trkpt><trkpt lat="32.856575" lon="9.5833533"><ele>229.5</ele><time>2026-04-21T08:08:40.121Z</time></trkpt><trkpt lat="32.85655" lon="9.5832633"><ele>229.66666666666669</ele><time>2026-04-21T08:08:41.121Z</time></trkpt><trkpt lat="32.8565117" lon="9.5831933"><ele>229.83333333333334</ele><time>2026-04-21T08:08:42.12Z</time></trkpt><trkpt lat="32.8564517" lon="9.5830983"><ele>230.0</ele><time>2026-04-21T08:08:44.121Z</time></trkpt><trkpt lat="32.8563933" lon="9.5830317"><ele>230.0</ele><time>2026-04-21T08:08:46.12Z</time></trkpt><trkpt lat="32.856345" lon="9.5828983"><ele>230.0</ele><time>2026-04-21T08:08:48.12Z</time></trkpt><trkpt lat="32.8563083" lon="9.5828017"><ele>230.0</ele><time>2026-04-21T08:08:49.121Z</time></trkpt><trkpt lat="32.85627" lon="9.5826967"><ele>230.0</ele><time>2026-04-21T08:08:50.12Z</time></trkpt><trkpt lat="32.856225" lon="9.582585"><ele>230.0</ele><time>2026-04-21T08:08:51.121Z</time></trkpt><trkpt lat="32.8561667" lon="9.5824667"><ele>230.33333333333334</ele><time>2026-04-21T08:08:52.12Z</time></trkpt><trkpt lat="32.8560767" lon="9.58221"><ele>230.66666666666669</ele><time>2026-04-21T08:08:54.121Z</time></trkpt><trkpt lat="32.856045" lon="9.5820633"><ele>231.0</ele><time>2026-04-21T08:08:55.12Z</time></trkpt><trkpt lat="32.8560317" lon="9.5819217"><ele>230.5</ele><time>2026-04-21T08:08:56.121Z</time></trkpt><trkpt lat="32.8560217" lon="9.5817917"><ele>230.0</ele><time>2026-04-21T08:08:57.12Z</time></trkpt><trkpt lat="32.8560183" lon="9.58168"><ele>229.5</ele><time>2026-04-21T08:08:58.12Z</time></trkpt><trkpt lat="32.8560067" lon="9.58158"><ele>229.0</ele><time>2026-04-21T08:08:59.12Z</time></trkpt><trkpt lat="32.8560017" lon="9.5814917"><ele>228.5</ele><time>2026-04-21T08:09:00.121Z</time></trkpt><trkpt lat="32.8560033" lon="9.5814"><ele>228.0</ele><time>2026-04-21T08:09:01.12Z</time></trkpt><trkpt lat="32.856015" lon="9.5813167"><ele>228.4</ele><time>2026-04-21T08:09:02.12Z</time></trkpt><trkpt lat="32.8560383" lon="9.5811817"><ele>228.8</ele><time>2026-04-21T08:09:04.121Z</time></trkpt><trkpt lat="32.856055" lon="9.5810783"><ele>229.2</ele><time>2026-04-21T08:09:06.12Z</time></trkpt><trkpt lat="32.85609" lon="9.5809983"><ele>229.6</ele><time>2026-04-21T08:09:09.12Z</time></trkpt><trkpt lat="32.856185" lon="9.5810183"><ele>230.0</ele><time>2026-04-21T08:09:13.12Z</time></trkpt><trkpt lat="32.8564183" lon="9.5810217"><ele>230.0</ele><time>2026-04-21T08:09:17.12Z</time></trkpt><trkpt lat="32.85652" lon="9.58099"><ele>230.0</ele><time>2026-04-21T08:09:19.12Z</time></trkpt><trkpt lat="32.8566283" lon="9.5809533"><ele>230.0</ele><time>2026-04-21T08:09:21.12Z</time></trkpt><trkpt lat="32.8567233" lon="9.580915"><ele>230.0</ele><time>2026-04-21T08:09:23.121Z</time></trkpt><trkpt lat="32.85682" lon="9.5808933"><ele>230.0</ele><time>2026-04-21T08:09:25.12Z</time></trkpt><trkpt lat="32.8569183" lon="9.5808717"><ele>229.6</ele><time>2026-04-21T08:09:27.121Z</time></trkpt><trkpt lat="32.8570183" lon="9.5808217"><ele>229.2</ele><time>2026-04-21T08:09:29.12Z</time></trkpt><trkpt lat="32.857125" lon="9.5807817"><ele>228.8</ele><time>2026-04-21T08:09:31.12Z</time></trkpt><trkpt lat="32.8572383" lon="9.5807483"><ele>228.4</ele><time>2026-04-21T08:09:33.121Z</time></trkpt><trkpt lat="32.85732" lon="9.5807033"><ele>228.0</ele><time>2026-04-21T08:09:35.121Z</time></trkpt><trkpt lat="32.8573717" lon="9.5804717"><ele>228.0</ele><time>2026-04-21T08:09:39.121Z</time></trkpt><trkpt lat="32.85738" lon="9.5803933"><ele>228.0</ele><time>2026-04-21T08:09:40.119Z</time></trkpt><trkpt lat="32.8574117" lon="9.5802683"><ele>228.0</ele><time>2026-04-21T08:09:42.119Z</time></trkpt><trkpt lat="32.857435" lon="9.5801833"><ele>228.0</ele><time>2026-04-21T08:09:44.119Z</time></trkpt><trkpt lat="32.857455" lon="9.5800967"><ele>228.0</ele><time>2026-04-21T08:09:46.119Z</time></trkpt><trkpt lat="32.8574583" lon="9.5799867"><ele>228.0</ele><time>2026-04-21T08:09:48.119Z</time></trkpt><trkpt lat="32.8574283" lon="9.5798717"><ele>228.5</ele><time>2026-04-21T08:09:50.119Z</time></trkpt><trkpt lat="32.857405" lon="9.57976"><ele>229.0</ele><time>2026-04-21T08:09:52.119Z</time></trkpt><trkpt lat="32.8573833" lon="9.5796217"><ele>229.5</ele><time>2026-04-21T08:09:54.12Z</time></trkpt><trkpt lat="32.85739" lon="9.5795417"><ele>230.0</ele><time>2026-04-21T08:09:56.119Z</time></trkpt><trkpt lat="32.8576517" lon="9.5795717"><ele>229.4</ele><time>2026-04-21T08:10:28.12Z</time></trkpt><trkpt lat="32.8577433" lon="9.5795783"><ele>228.8</ele><time>2026-04-21T08:10:30.12Z</time></trkpt><trkpt lat="32.85778" lon="9.5795"><ele>228.2</ele><time>2026-04-21T08:10:32.12Z</time></trkpt><trkpt lat="32.8578083" lon="9.57943"><ele>227.6</ele><time>2026-04-21T08:10:34.119Z</time></trkpt><trkpt lat="32.85789" lon="9.57939"><ele>227.0</ele><time>2026-04-21T08:11:01.12Z</time></trkpt><trkpt lat="32.858035" lon="9.57921"><ele>227.0</ele><time>2026-04-21T08:11:05.119Z</time></trkpt><trkpt lat="32.8580583" lon="9.57914"><ele>227.0</ele><time>2026-04-21T08:11:06.119Z</time></trkpt><trkpt lat="32.8580817" lon="9.5790183"><ele>227.0</ele><time>2026-04-21T08:11:08.119Z</time></trkpt><trkpt lat="32.858055" lon="9.57891"><ele>227.0</ele><time>2026-04-21T08:11:10.119Z</time></trkpt><trkpt lat="32.8580333" lon="9.578795"><ele>227.0</ele><time>2026-04-21T08:11:12.12Z</time></trkpt><trkpt lat="32.85807" lon="9.5786817"><ele>227.0</ele><time>2026-04-21T08:11:14.12Z</time></trkpt><trkpt lat="32.8581283" lon="9.578585"><ele>227.0</ele><time>2026-04-21T08:11:16.119Z</time></trkpt><trkpt lat="32.8581533" lon="9.5784817"><ele>227.0</ele><time>2026-04-21T08:11:18.119Z</time></trkpt><trkpt lat="32.8582317" lon="9.5784217"><ele>227.0</ele><time>2026-04-21T08:11:20.119Z</time></trkpt><trkpt lat="32.8582983" lon="9.5783667"><ele>227.0</ele><time>2026-04-21T08:11:22.12Z</time></trkpt><trkpt lat="32.858215" lon="9.5781533"><ele>227.00000000000003</ele><time>2026-04-21T08:11:27.12Z</time></trkpt><trkpt lat="32.858135" lon="9.578065"><ele>227.0</ele><time>2026-04-21T08:11:29.119Z</time></trkpt><trkpt lat="32.8581017" lon="9.5779867"><ele>227.0</ele><time>2026-04-21T08:11:31.12Z</time></trkpt><trkpt lat="32.8581533" lon="9.5778967"><ele>227.0</ele><time>2026-04-21T08:11:34.12Z</time></trkpt><trkpt lat="32.8582017" lon="9.5778233"><ele>227.00000000000003</ele><time>2026-04-21T08:11:36.119Z</time></trkpt><trkpt lat="32.8581667" lon="9.5777517"><ele>227.0</ele><time>2026-04-21T08:11:38.119Z</time></trkpt><trkpt lat="32.8580817" lon="9.577695"><ele>227.0</ele><time>2026-04-21T08:11:40.12Z</time></trkpt><trkpt lat="32.8580067" lon="9.577635"><ele>227.0</ele><time>2026-04-21T08:11:42.119Z</time></trkpt><trkpt lat="32.8579733" lon="9.5775317"><ele>227.0</ele><time>2026-04-21T08:11:44.119Z</time></trkpt><trkpt lat="32.8579883" lon="9.5772483"><ele>227.0</ele><time>2026-04-21T08:11:48.119Z</time></trkpt><trkpt lat="32.8579967" lon="9.5771667"><ele>227.0</ele><time>2026-04-21T08:11:49.12Z</time></trkpt><trkpt lat="32.8580017" lon="9.5770817"><ele>227.00000000000003</ele><time>2026-04-21T08:11:50.119Z</time></trkpt><trkpt lat="32.8580033" lon="9.5769917"><ele>227.0</ele><time>2026-04-21T08:11:51.12Z</time></trkpt><trkpt lat="32.858015" lon="9.5769083"><ele>227.0</ele><time>2026-04-21T08:11:52.12Z</time></trkpt><trkpt lat="32.8580317" lon="9.5768283"><ele>227.00000000000003</ele><time>2026-04-21T08:11:53.12Z</time></trkpt><trkpt lat="32.8580433" lon="9.5767433"><ele>227.0</ele><time>2026-04-21T08:11:54.12Z</time></trkpt><trkpt lat="32.8580617" lon="9.5766617"><ele>227.0</ele><time>2026-04-21T08:11:55.12Z</time></trkpt><trkpt lat="32.8580767" lon="9.57658"><ele>226.83333333333334</ele><time>2026-04-21T08:11:56.12Z</time></trkpt><trkpt lat="32.85809" lon="9.5764967"><ele>226.66666666666669</ele><time>2026-04-21T08:11:57.119Z</time></trkpt><trkpt lat="32.8581017" lon="9.5764117"><ele>226.5</ele><time>2026-04-21T08:11:58.119Z</time></trkpt><trkpt lat="32.8581117" lon="9.5763283"><ele>226.33333333333331</ele><time>2026-04-21T08:11:59.12Z</time></trkpt><trkpt lat="32.8581233" lon="9.5761983"><ele>226.16666666666666</ele><time>2026-04-21T08:12:01.12Z</time></trkpt><trkpt lat="32.85812" lon="9.5761233"><ele>226.0</ele><time>2026-04-21T08:12:02.12Z</time></trkpt><trkpt lat="32.8581183" lon="9.576045"><ele>226.0</ele><time>2026-04-21T08:12:03.12Z</time></trkpt><trkpt lat="32.8581217" lon="9.5759583"><ele>226.00000000000003</ele><time>2026-04-21T08:12:04.12Z</time></trkpt><trkpt lat="32.858115" lon="9.5758767"><ele>226.00000000000003</ele><time>2026-04-21T08:12:05.12Z</time></trkpt><trkpt lat="32.8580933" lon="9.575695"><ele>226.0</ele><time>2026-04-21T08:12:07.12Z</time></trkpt><trkpt lat="32.8580817" lon="9.5755917"><ele>226.0</ele><time>2026-04-21T08:12:08.119Z</time></trkpt><trkpt lat="32.8580683" lon="9.5754867"><ele>225.99999999999997</ele><time>2026-04-21T08:12:09.12Z</time></trkpt><trkpt lat="32.8580683" lon="9.5753833"><ele>226.0</ele><time>2026-04-21T08:12:10.119Z</time></trkpt><trkpt lat="32.85806" lon="9.5752967"><ele>226.0</ele><time>2026-04-21T08:12:11.119Z</time></trkpt><trkpt lat="32.8580533" lon="9.5751833"><ele>226.0</ele><time>2026-04-21T08:12:13.119Z</time></trkpt><trkpt lat="32.8580383" lon="9.575085"><ele>225.99999999999997</ele><time>2026-04-21T08:12:15.119Z</time></trkpt><trkpt lat="32.8580483" lon="9.57501"><ele>226.0</ele><time>2026-04-21T08:12:17.119Z</time></trkpt><trkpt lat="32.8580733" lon="9.574905"><ele>226.25</ele><time>2026-04-21T08:12:30.119Z</time></trkpt><trkpt lat="32.8581" lon="9.5747067"><ele>226.5</ele><time>2026-04-21T08:12:32.12Z</time></trkpt><trkpt lat="32.858115" lon="9.5746"><ele>226.75</ele><time>2026-04-21T08:12:33.12Z</time></trkpt><trkpt lat="32.8581233" lon="9.5744817"><ele>227.0</ele><time>2026-04-21T08:12:34.119Z</time></trkpt><trkpt lat="32.8581383" lon="9.5743667"><ele>227.2</ele><time>2026-04-21T08:12:35.12Z</time></trkpt><trkpt lat="32.8581567" lon="9.5742467"><ele>227.39999999999998</ele><time>2026-04-21T08:12:36.12Z</time></trkpt><trkpt lat="32.8581767" lon="9.5741317"><ele>227.60000000000002</ele><time>2026-04-21T08:12:37.12Z</time></trkpt><trkpt lat="32.8581867" lon="9.5740183"><ele>227.8</ele><time>2026-04-21T08:12:38.119Z</time></trkpt><trkpt lat="32.858195" lon="9.5739083"><ele>228.0</ele><time>2026-04-21T08:12:39.12Z</time></trkpt><trkpt lat="32.8581967" lon="9.5738067"><ele>228.0</ele><time>2026-04-21T08:12:40.119Z</time></trkpt><trkpt lat="32.858215" lon="9.5737183"><ele>228.0</ele><time>2026-04-21T08:12:41.119Z</time></trkpt><trkpt lat="32.8582367" lon="9.5736317"><ele>228.0</ele><time>2026-04-21T08:12:42.12Z</time></trkpt><trkpt lat="32.858255" lon="9.5735433"><ele>228.0</ele><time>2026-04-21T08:12:43.12Z</time></trkpt><trkpt lat="32.8582783" lon="9.5734567"><ele>228.0</ele><time>2026-04-21T08:12:44.12Z</time></trkpt><trkpt lat="32.8583033" lon="9.5733583"><ele>228.0</ele><time>2026-04-21T08:12:45.119Z</time></trkpt><trkpt lat="32.8583283" lon="9.5732583"><ele>228.0</ele><time>2026-04-21T08:12:46.119Z</time></trkpt><trkpt lat="32.8583517" lon="9.5731467"><ele>228.0</ele><time>2026-04-21T08:12:47.12Z</time></trkpt><trkpt lat="32.85837" lon="9.5730333"><ele>228.0</ele><time>2026-04-21T08:12:48.12Z</time></trkpt><trkpt lat="32.85839" lon="9.5729233"><ele>228.0</ele><time>2026-04-21T08:12:49.119Z</time></trkpt><trkpt lat="32.858415" lon="9.57281"><ele>228.0</ele><time>2026-04-21T08:12:50.12Z</time></trkpt><trkpt lat="32.8584383" lon="9.5727017"><ele>227.8</ele><time>2026-04-21T08:12:51.119Z</time></trkpt><trkpt lat="32.8584917" lon="9.5724883"><ele>227.60000000000002</ele><time>2026-04-21T08:12:53.12Z</time></trkpt><trkpt lat="32.8585217" lon="9.572385"><ele>227.39999999999998</ele><time>2026-04-21T08:12:54.12Z</time></trkpt><trkpt lat="32.858555" lon="9.57229"><ele>227.2</ele><time>2026-04-21T08:12:55.12Z</time></trkpt><trkpt lat="32.8585867" lon="9.5722"><ele>227.0</ele><time>2026-04-21T08:12:56.119Z</time></trkpt><trkpt lat="32.85861" lon="9.5721133"><ele>227.00000000000003</ele><time>2026-04-21T08:12:57.119Z</time></trkpt><trkpt lat="32.85863" lon="9.5720317"><ele>227.0</ele><time>2026-04-21T08:12:58.119Z</time></trkpt><trkpt lat="32.858645" lon="9.5719467"><ele>227.0</ele><time>2026-04-21T08:12:59.119Z</time></trkpt><trkpt lat="32.8586567" lon="9.5718667"><ele>227.0</ele><time>2026-04-21T08:13:00.119Z</time></trkpt><trkpt lat="32.8586683" lon="9.5717883"><ele>227.00000000000003</ele><time>2026-04-21T08:13:01.119Z</time></trkpt><trkpt lat="32.8586783" lon="9.57171"><ele>227.0</ele><time>2026-04-21T08:13:02.12Z</time></trkpt><trkpt lat="32.8586883" lon="9.57157"><ele>227.2</ele><time>2026-04-21T08:13:04.12Z</time></trkpt><trkpt lat="32.8587167" lon="9.5714483"><ele>227.39999999999998</ele><time>2026-04-21T08:13:06.12Z</time></trkpt><trkpt lat="32.85881" lon="9.5713917"><ele>227.60000000000002</ele><time>2026-04-21T08:13:08.118Z</time></trkpt><trkpt lat="32.8589267" lon="9.5713583"><ele>227.8</ele><time>2026-04-21T08:13:10.118Z</time></trkpt><trkpt lat="32.8589933" lon="9.5713417"><ele>228.0</ele><time>2026-04-21T08:13:11.119Z</time></trkpt><trkpt lat="32.8590917" lon="9.5713083"><ele>228.0</ele><time>2026-04-21T08:13:13.118Z</time></trkpt><trkpt lat="32.85898" lon="9.5713167"><ele>228.0</ele><time>2026-04-21T08:19:39.118Z</time></trkpt><trkpt lat="32.85889" lon="9.57139"><ele>228.0</ele><time>2026-04-21T08:19:41.117Z</time></trkpt><trkpt lat="32.858785" lon="9.571445"><ele>228.0</ele><time>2026-04-21T08:19:43.116Z</time></trkpt><trkpt lat="32.85868" lon="9.571465"><ele>228.0</ele><time>2026-04-21T08:19:45.117Z</time></trkpt><trkpt lat="32.8585783" lon="9.57146"><ele>228.0</ele><time>2026-04-21T08:19:47.117Z</time></trkpt><trkpt lat="32.8584683" lon="9.5714217"><ele>228.0</ele><time>2026-04-21T08:19:49.116Z</time></trkpt><trkpt lat="32.8583717" lon="9.5713583"><ele>228.0</ele><time>2026-04-21T08:19:51.116Z</time></trkpt><trkpt lat="32.858265" lon="9.5713"><ele>228.0</ele><time>2026-04-21T08:19:53.117Z</time></trkpt><trkpt lat="32.85819" lon="9.5712383"><ele>228.0</ele><time>2026-04-21T08:19:55.117Z</time></trkpt><trkpt lat="32.858115" lon="9.5711283"><ele>227.5</ele><time>2026-04-21T08:19:57.116Z</time></trkpt><trkpt lat="32.8579833" lon="9.570955"><ele>227.0</ele><time>2026-04-21T08:20:01.117Z</time></trkpt><trkpt lat="32.857905" lon="9.5708783"><ele>226.5</ele><time>2026-04-21T08:20:03.116Z</time></trkpt><trkpt lat="32.8578433" lon="9.5707917"><ele>226.0</ele><time>2026-04-21T08:20:05.117Z</time></trkpt><trkpt lat="32.85778" lon="9.5707433"><ele>226.0</ele><time>2026-04-21T08:20:07.116Z</time></trkpt><trkpt lat="32.8577033" lon="9.5707467"><ele>226.00000000000003</ele><time>2026-04-21T08:20:09.116Z</time></trkpt><trkpt lat="32.857615" lon="9.57079"><ele>226.00000000000003</ele><time>2026-04-21T08:20:11.117Z</time></trkpt><trkpt lat="32.8575267" lon="9.5707583"><ele>226.0</ele><time>2026-04-21T08:20:13.116Z</time></trkpt><trkpt lat="32.857435" lon="9.57067"><ele>226.0</ele><time>2026-04-21T08:20:15.116Z</time></trkpt><trkpt lat="32.8573533" lon="9.5705983"><ele>225.75</ele><time>2026-04-21T08:20:17.117Z</time></trkpt><trkpt lat="32.8572417" lon="9.5705683"><ele>225.5</ele><time>2026-04-21T08:20:19.116Z</time></trkpt><trkpt lat="32.8570383" lon="9.5705183"><ele>225.25</ele><time>2026-04-21T08:20:23.117Z</time></trkpt><trkpt lat="32.8569833" lon="9.57048"><ele>225.0</ele><time>2026-04-21T08:20:25.117Z</time></trkpt><trkpt lat="32.8569967" lon="9.5704017"><ele>225.0</ele><time>2026-04-21T08:20:27.116Z</time></trkpt><trkpt lat="32.857065" lon="9.570335"><ele>225.0</ele><time>2026-04-21T08:20:29.117Z</time></trkpt><trkpt lat="32.8571317" lon="9.570265"><ele>225.0</ele><time>2026-04-21T08:20:31.117Z</time></trkpt><trkpt lat="32.8571867" lon="9.5701467"><ele>225.0</ele><time>2026-04-21T08:20:33.116Z</time></trkpt><trkpt lat="32.8572567" lon="9.5700267"><ele>225.0</ele><time>2026-04-21T08:20:35.117Z</time></trkpt><trkpt lat="32.857335" lon="9.56993"><ele>225.0</ele><time>2026-04-21T08:20:37.116Z</time></trkpt><trkpt lat="32.8574017" lon="9.5698567"><ele>225.0</ele><time>2026-04-21T08:20:39.116Z</time></trkpt><trkpt lat="32.85744" lon="9.569795"><ele>225.0</ele><time>2026-04-21T08:20:41.116Z</time></trkpt><trkpt lat="32.8573567" lon="9.569665"><ele>225.0</ele><time>2026-04-21T08:20:45.117Z</time></trkpt><trkpt lat="32.8572517" lon="9.5696467"><ele>225.0</ele><time>2026-04-21T08:20:47.116Z</time></trkpt><trkpt lat="32.85714" lon="9.5696067"><ele>225.0</ele><time>2026-04-21T08:20:49.117Z</time></trkpt><trkpt lat="32.857085" lon="9.5695667"><ele>225.0</ele><time>2026-04-21T08:20:50.117Z</time></trkpt><trkpt lat="32.85704" lon="9.5695133"><ele>225.0</ele><time>2026-04-21T08:20:51.117Z</time></trkpt><trkpt lat="32.8569967" lon="9.5694567"><ele>225.0</ele><time>2026-04-21T08:20:52.116Z</time></trkpt><trkpt lat="32.856935" lon="9.5693617"><ele>225.0</ele><time>2026-04-21T08:20:54.116Z</time></trkpt><trkpt lat="32.856885" lon="9.5692717"><ele>225.0</ele><time>2026-04-21T08:20:56.116Z</time></trkpt><trkpt lat="32.8568333" lon="9.5692033"><ele>225.5</ele><time>2026-04-21T08:20:58.116Z</time></trkpt><trkpt lat="32.85679" lon="9.5691417"><ele>226.0</ele><time>2026-04-21T08:21:00.116Z</time></trkpt><trkpt lat="32.85677" lon="9.5690483"><ele>226.5</ele><time>2026-04-21T08:21:03.116Z</time></trkpt><trkpt lat="32.8567633" lon="9.568835"><ele>227.0</ele><time>2026-04-21T08:21:37.117Z</time></trkpt><trkpt lat="32.8566817" lon="9.5686283"><ele>227.2</ele><time>2026-04-21T08:21:41.116Z</time></trkpt><trkpt lat="32.8566267" lon="9.5685083"><ele>227.39999999999998</ele><time>2026-04-21T08:21:43.117Z</time></trkpt><trkpt lat="32.8565617" lon="9.5683917"><ele>227.60000000000002</ele><time>2026-04-21T08:21:45.116Z</time></trkpt><trkpt lat="32.8565267" lon="9.568275"><ele>227.8</ele><time>2026-04-21T08:21:47.117Z</time></trkpt><trkpt lat="32.8564983" lon="9.568175"><ele>228.0</ele><time>2026-04-21T08:21:49.117Z</time></trkpt><trkpt lat="32.8564417" lon="9.5680867"><ele>228.0</ele><time>2026-04-21T08:21:51.117Z</time></trkpt><trkpt lat="32.8564733" lon="9.5679933"><ele>228.0</ele><time>2026-04-21T08:21:54.116Z</time></trkpt><trkpt lat="32.8565367" lon="9.5679883"><ele>228.0</ele><time>2026-04-21T08:22:33.116Z</time></trkpt><trkpt lat="32.8566433" lon="9.56811"><ele>228.0</ele><time>2026-04-21T08:22:37.116Z</time></trkpt><trkpt lat="32.856545" lon="9.56817"><ele>228.0</ele><time>2026-04-21T08:29:54.113Z</time></trkpt><trkpt lat="32.8563517" lon="9.5681183"><ele>228.0</ele><time>2026-04-21T08:29:58.113Z</time></trkpt><trkpt lat="32.8563217" lon="9.56805"><ele>228.0</ele><time>2026-04-21T08:30:00.114Z</time></trkpt><trkpt lat="32.8562533" lon="9.567985"><ele>228.0</ele><time>2026-04-21T08:30:02.113Z</time></trkpt><trkpt lat="32.8561567" lon="9.5679683"><ele>228.0</ele><time>2026-04-21T08:30:04.114Z</time></trkpt><trkpt lat="32.85607" lon="9.568035"><ele>228.0</ele><time>2026-04-21T08:30:06.113Z</time></trkpt><trkpt lat="32.8560617" lon="9.5681233"><ele>228.0</ele><time>2026-04-21T08:30:09.114Z</time></trkpt><trkpt lat="32.8560367" lon="9.5682267"><ele>228.0</ele><time>2026-04-21T08:30:20.113Z</time></trkpt><trkpt lat="32.8560333" lon="9.5684233"><ele>228.0</ele><time>2026-04-21T08:30:24.114Z</time></trkpt><trkpt lat="32.8561167" lon="9.56843"><ele>228.0</ele><time>2026-04-21T08:32:09.114Z</time></trkpt><trkpt lat="32.8563483" lon="9.5684117"><ele>228.0</ele><time>2026-04-21T08:32:13.114Z</time></trkpt><trkpt lat="32.8564633" lon="9.568485"><ele>228.0</ele><time>2026-04-21T08:32:15.113Z</time></trkpt><trkpt lat="32.8565133" lon="9.5685467"><ele>228.0</ele><time>2026-04-21T08:32:16.113Z</time></trkpt><trkpt lat="32.856585" lon="9.5686717"><ele>228.0</ele><time>2026-04-21T08:32:18.114Z</time></trkpt><trkpt lat="32.8566283" lon="9.5687283"><ele>228.0</ele><time>2026-04-21T08:32:19.113Z</time></trkpt><trkpt lat="32.8567267" lon="9.568735"><ele>228.0</ele><time>2026-04-21T08:32:21.114Z</time></trkpt><trkpt lat="32.8567517" lon="9.5686033"><ele>228.0</ele><time>2026-04-21T08:32:23.113Z</time></trkpt><trkpt lat="32.856735" lon="9.568525"><ele>228.0</ele><time>2026-04-21T08:32:24.113Z</time></trkpt><trkpt lat="32.8567083" lon="9.5683867"><ele>228.0</ele><time>2026-04-21T08:32:26.114Z</time></trkpt><trkpt lat="32.8567083" lon="9.5682633"><ele>228.0</ele><time>2026-04-21T08:32:28.114Z</time></trkpt><trkpt lat="32.8566633" lon="9.56817"><ele>228.0</ele><time>2026-04-21T08:32:30.114Z</time></trkpt><trkpt lat="32.8565633" lon="9.5679733"><ele>228.0</ele><time>2026-04-21T08:32:34.114Z</time></trkpt><trkpt lat="32.8565" lon="9.5679917"><ele>228.0</ele><time>2026-04-21T08:32:36.113Z</time></trkpt><trkpt lat="32.856475" lon="9.56807"><ele>228.0</ele><time>2026-04-21T08:32:38.114Z</time></trkpt><trkpt lat="32.8564517" lon="9.5681917"><ele>228.0</ele><time>2026-04-21T08:32:40.114Z</time></trkpt><trkpt lat="32.8564467" lon="9.56827"><ele>228.0</ele><time>2026-04-21T08:32:41.113Z</time></trkpt><trkpt lat="32.8564383" lon="9.5684217"><ele>228.0</ele><time>2026-04-21T08:32:43.114Z</time></trkpt><trkpt lat="32.8564433" lon="9.5685"><ele>228.0</ele><time>2026-04-21T08:32:44.113Z</time></trkpt><trkpt lat="32.8564717" lon="9.5685717"><ele>228.0</ele><time>2026-04-21T08:32:45.114Z</time></trkpt><trkpt lat="32.85657" lon="9.5686517"><ele>228.0</ele><time>2026-04-21T08:32:47.113Z</time></trkpt><trkpt lat="32.856665" lon="9.568635"><ele>228.0</ele><time>2026-04-21T08:32:49.113Z</time></trkpt><trkpt lat="32.85669" lon="9.5685233"><ele>228.0</ele><time>2026-04-21T08:32:52.114Z</time></trkpt><trkpt lat="32.85672" lon="9.5682983"><ele>228.0</ele><time>2026-04-21T08:32:56.113Z</time></trkpt><trkpt lat="32.8566733" lon="9.568225"><ele>228.0</ele><time>2026-04-21T08:51:48.108Z</time></trkpt><trkpt lat="32.8565683" lon="9.5683117"><ele>228.0</ele><time>2026-04-21T08:51:52.108Z</time></trkpt><trkpt lat="32.856605" lon="9.5684283"><ele>228.0</ele><time>2026-04-21T08:51:54.108Z</time></trkpt><trkpt lat="32.8566483" lon="9.56851"><ele>228.0</ele><time>2026-04-21T08:51:55.107Z</time></trkpt><trkpt lat="32.8566983" lon="9.5685983"><ele>228.0</ele><time>2026-04-21T08:51:56.107Z</time></trkpt><trkpt lat="32.8567383" lon="9.5686767"><ele>228.0</ele><time>2026-04-21T08:51:57.107Z</time></trkpt><trkpt lat="32.8567733" lon="9.56878"><ele>228.0</ele><time>2026-04-21T08:51:59.108Z</time></trkpt><trkpt lat="32.8567917" lon="9.5688733"><ele>227.8</ele><time>2026-04-21T08:52:01.107Z</time></trkpt><trkpt lat="32.85681" lon="9.5689683"><ele>227.60000000000002</ele><time>2026-04-21T08:52:04.108Z</time></trkpt><trkpt lat="32.8568283" lon="9.5690583"><ele>227.39999999999998</ele><time>2026-04-21T08:52:13.108Z</time></trkpt><trkpt lat="32.8568883" lon="9.5692517"><ele>227.2</ele><time>2026-04-21T08:52:16.107Z</time></trkpt><trkpt lat="32.856935" lon="9.5693133"><ele>227.0</ele><time>2026-04-21T08:52:17.108Z</time></trkpt><trkpt lat="32.8569917" lon="9.5693767"><ele>227.00000000000003</ele><time>2026-04-21T08:52:18.108Z</time></trkpt><trkpt lat="32.8570433" lon="9.5694467"><ele>227.0</ele><time>2026-04-21T08:52:19.107Z</time></trkpt><trkpt lat="32.8570933" lon="9.569515"><ele>227.0</ele><time>2026-04-21T08:52:20.107Z</time></trkpt><trkpt lat="32.857155" lon="9.5695817"><ele>227.0</ele><time>2026-04-21T08:52:21.108Z</time></trkpt><trkpt lat="32.8572233" lon="9.569655"><ele>227.00000000000003</ele><time>2026-04-21T08:52:22.107Z</time></trkpt><trkpt lat="32.857285" lon="9.5697167"><ele>227.0</ele><time>2026-04-21T08:52:23.108Z</time></trkpt><trkpt lat="32.8573333" lon="9.56977"><ele>226.66666666666669</ele><time>2026-04-21T08:52:24.106Z</time></trkpt><trkpt lat="32.857395" lon="9.5698367"><ele>226.33333333333334</ele><time>2026-04-21T08:52:26.106Z</time></trkpt><trkpt lat="32.8574" lon="9.5699267"><ele>226.0</ele><time>2026-04-21T08:52:29.106Z</time></trkpt><trkpt lat="32.85735" lon="9.569985"><ele>225.66666666666669</ele><time>2026-04-21T08:52:31.106Z</time></trkpt><trkpt lat="32.85733" lon="9.5700667"><ele>225.33333333333334</ele><time>2026-04-21T08:52:33.107Z</time></trkpt><trkpt lat="32.8573383" lon="9.5701683"><ele>225.0</ele><time>2026-04-21T08:52:35.106Z</time></trkpt><trkpt lat="32.85736" lon="9.570405"><ele>225.0</ele><time>2026-04-21T08:52:41.107Z</time></trkpt><trkpt lat="32.8574233" lon="9.5704767"><ele>225.0</ele><time>2026-04-21T08:52:44.107Z</time></trkpt><trkpt lat="32.8574383" lon="9.5705667"><ele>225.0</ele><time>2026-04-21T08:52:46.106Z</time></trkpt><trkpt lat="32.8574383" lon="9.570645"><ele>225.0</ele><time>2026-04-21T08:52:48.106Z</time></trkpt><trkpt lat="32.8575233" lon="9.570725"><ele>225.0</ele><time>2026-04-21T08:52:51.107Z</time></trkpt><trkpt lat="32.8576233" lon="9.5707967"><ele>225.2</ele><time>2026-04-21T08:52:53.107Z</time></trkpt><trkpt lat="32.85769" lon="9.5708117"><ele>225.4</ele><time>2026-04-21T08:52:54.106Z</time></trkpt><trkpt lat="32.857755" lon="9.5708167"><ele>225.60000000000002</ele><time>2026-04-21T08:52:55.107Z</time></trkpt><trkpt lat="32.8578183" lon="9.5708283"><ele>225.8</ele><time>2026-04-21T08:52:56.107Z</time></trkpt><trkpt lat="32.85796" lon="9.570915"><ele>226.0</ele><time>2026-04-21T08:52:58.107Z</time></trkpt><trkpt lat="32.858095" lon="9.5710233"><ele>225.99999999999997</ele><time>2026-04-21T08:53:00.106Z</time></trkpt><trkpt lat="32.8581517" lon="9.571095"><ele>226.0</ele><time>2026-04-21T08:53:01.107Z</time></trkpt><trkpt lat="32.8581917" lon="9.5711633"><ele>226.0</ele><time>2026-04-21T08:53:02.106Z</time></trkpt><trkpt lat="32.858225" lon="9.5712333"><ele>226.0</ele><time>2026-04-21T08:53:03.106Z</time></trkpt><trkpt lat="32.8582667" lon="9.571295"><ele>225.99999999999997</ele><time>2026-04-21T08:53:04.107Z</time></trkpt><trkpt lat="32.8583183" lon="9.57134"><ele>226.0</ele><time>2026-04-21T08:53:05.106Z</time></trkpt><trkpt lat="32.8584233" lon="9.5713967"><ele>226.33333333333331</ele><time>2026-04-21T08:53:07.106Z</time></trkpt><trkpt lat="32.85852" lon="9.5714333"><ele>226.66666666666666</ele><time>2026-04-21T08:53:09.107Z</time></trkpt><trkpt lat="32.8585817" lon="9.57148"><ele>227.0</ele><time>2026-04-21T08:53:11.107Z</time></trkpt><trkpt lat="32.8586483" lon="9.5715517"><ele>227.33333333333331</ele><time>2026-04-21T08:53:13.106Z</time></trkpt><trkpt lat="32.8586817" lon="9.5716517"><ele>227.66666666666666</ele><time>2026-04-21T08:53:15.107Z</time></trkpt><trkpt lat="32.858675" lon="9.5717617"><ele>228.0</ele><time>2026-04-21T08:53:17.106Z</time></trkpt><trkpt lat="32.858655" lon="9.5719867"><ele>227.83333333333334</ele><time>2026-04-21T08:53:21.106Z</time></trkpt><trkpt lat="32.8586267" lon="9.57212"><ele>227.66666666666669</ele><time>2026-04-21T08:53:23.107Z</time></trkpt><trkpt lat="32.8586033" lon="9.572195"><ele>227.5</ele><time>2026-04-21T08:53:24.107Z</time></trkpt><trkpt lat="32.85858" lon="9.5722717"><ele>227.33333333333334</ele><time>2026-04-21T08:53:25.107Z</time></trkpt><trkpt lat="32.8585583" lon="9.57235"><ele>227.16666666666669</ele><time>2026-04-21T08:53:26.107Z</time></trkpt><trkpt lat="32.8585417" lon="9.572425"><ele>227.0</ele><time>2026-04-21T08:53:27.106Z</time></trkpt><trkpt lat="32.85852" lon="9.572505"><ele>227.00000000000003</ele><time>2026-04-21T08:53:28.106Z</time></trkpt><trkpt lat="32.8585" lon="9.5725833"><ele>227.0</ele><time>2026-04-21T08:53:29.106Z</time></trkpt><trkpt lat="32.8584767" lon="9.572665"><ele>227.0</ele><time>2026-04-21T08:53:30.107Z</time></trkpt><trkpt lat="32.8584517" lon="9.572755"><ele>227.0</ele><time>2026-04-21T08:53:31.106Z</time></trkpt><trkpt lat="32.8584317" lon="9.5728517"><ele>227.00000000000003</ele><time>2026-04-21T08:53:32.107Z</time></trkpt><trkpt lat="32.858415" lon="9.572955"><ele>227.0</ele><time>2026-04-21T08:53:33.107Z</time></trkpt><trkpt lat="32.8584" lon="9.57306"><ele>227.0</ele><time>2026-04-21T08:53:34.107Z</time></trkpt><trkpt lat="32.8583783" lon="9.5731583"><ele>227.0</ele><time>2026-04-21T08:53:35.106Z</time></trkpt><trkpt lat="32.85836" lon="9.5732517"><ele>227.0</ele><time>2026-04-21T08:53:36.107Z</time></trkpt><trkpt lat="32.85834" lon="9.57335"><ele>227.0</ele><time>2026-04-21T08:53:37.107Z</time></trkpt><trkpt lat="32.85831" lon="9.5734533"><ele>227.0</ele><time>2026-04-21T08:53:38.106Z</time></trkpt><trkpt lat="32.8582617" lon="9.5736567"><ele>227.2</ele><time>2026-04-21T08:53:40.107Z</time></trkpt><trkpt lat="32.8582433" lon="9.5737567"><ele>227.39999999999998</ele><time>2026-04-21T08:53:41.107Z</time></trkpt><trkpt lat="32.8582217" lon="9.5738617"><ele>227.60000000000002</ele><time>2026-04-21T08:53:42.107Z</time></trkpt><trkpt lat="32.8582083" lon="9.5739717"><ele>227.8</ele><time>2026-04-21T08:53:43.107Z</time></trkpt><trkpt lat="32.858195" lon="9.5740817"><ele>228.0</ele><time>2026-04-21T08:53:44.107Z</time></trkpt><trkpt lat="32.8581833" lon="9.5742"><ele>228.0</ele><time>2026-04-21T08:53:45.107Z</time></trkpt><trkpt lat="32.8581683" lon="9.5743133"><ele>228.0</ele><time>2026-04-21T08:53:46.106Z</time></trkpt><trkpt lat="32.8581533" lon="9.5744283"><ele>228.0</ele><time>2026-04-21T08:53:47.106Z</time></trkpt><trkpt lat="32.8581383" lon="9.57454"><ele>228.0</ele><time>2026-04-21T08:53:48.106Z</time></trkpt><trkpt lat="32.8581183" lon="9.5746583"><ele>228.0</ele><time>2026-04-21T08:53:49.106Z</time></trkpt><trkpt lat="32.8581033" lon="9.5747633"><ele>227.8</ele><time>2026-04-21T08:53:50.107Z</time></trkpt><trkpt lat="32.8580917" lon="9.5748667"><ele>227.60000000000002</ele><time>2026-04-21T08:53:51.107Z</time></trkpt><trkpt lat="32.8580833" lon="9.5749783"><ele>227.39999999999998</ele><time>2026-04-21T08:53:52.107Z</time></trkpt><trkpt lat="32.8580767" lon="9.575085"><ele>227.2</ele><time>2026-04-21T08:53:53.106Z</time></trkpt><trkpt lat="32.85807" lon="9.5752017"><ele>227.0</ele><time>2026-04-21T08:53:54.106Z</time></trkpt><trkpt lat="32.85806" lon="9.5753033"><ele>226.8</ele><time>2026-04-21T08:53:55.107Z</time></trkpt><trkpt lat="32.858045" lon="9.575395"><ele>226.6</ele><time>2026-04-21T08:53:56.107Z</time></trkpt><trkpt lat="32.8580217" lon="9.5754783"><ele>226.40000000000003</ele><time>2026-04-21T08:53:57.107Z</time></trkpt><trkpt lat="32.8579833" lon="9.575565"><ele>226.20000000000002</ele><time>2026-04-21T08:53:58.107Z</time></trkpt><trkpt lat="32.8579417" lon="9.575655"><ele>226.0</ele><time>2026-04-21T08:53:59.107Z</time></trkpt><trkpt lat="32.8578867" lon="9.5758483"><ele>226.0</ele><time>2026-04-21T08:54:01.107Z</time></trkpt><trkpt lat="32.8578733" lon="9.5759567"><ele>226.00000000000003</ele><time>2026-04-21T08:54:02.106Z</time></trkpt><trkpt lat="32.8578667" lon="9.5760717"><ele>226.00000000000003</ele><time>2026-04-21T08:54:03.106Z</time></trkpt><trkpt lat="32.8578617" lon="9.5761883"><ele>226.0</ele><time>2026-04-21T08:54:04.107Z</time></trkpt><trkpt lat="32.8578583" lon="9.5763083"><ele>226.0</ele><time>2026-04-21T08:54:05.107Z</time></trkpt><trkpt lat="32.857855" lon="9.5764267"><ele>225.8</ele><time>2026-04-21T08:54:06.106Z</time></trkpt><trkpt lat="32.857845" lon="9.5765467"><ele>225.60000000000002</ele><time>2026-04-21T08:54:07.106Z</time></trkpt><trkpt lat="32.8578417" lon="9.5766617"><ele>225.4</ele><time>2026-04-21T08:54:08.106Z</time></trkpt><trkpt lat="32.85784" lon="9.5767767"><ele>225.2</ele><time>2026-04-21T08:54:09.106Z</time></trkpt><trkpt lat="32.8578233" lon="9.5768833"><ele>225.0</ele><time>2026-04-21T08:54:10.106Z</time></trkpt><trkpt lat="32.8577583" lon="9.5770883"><ele>225.0</ele><time>2026-04-21T08:54:12.106Z</time></trkpt><trkpt lat="32.8577167" lon="9.5772017"><ele>225.0</ele><time>2026-04-21T08:54:13.107Z</time></trkpt><trkpt lat="32.8576767" lon="9.5773133"><ele>225.0</ele><time>2026-04-21T08:54:14.107Z</time></trkpt><trkpt lat="32.8576433" lon="9.5774167"><ele>225.0</ele><time>2026-04-21T08:54:15.107Z</time></trkpt><trkpt lat="32.8575817" lon="9.5775883"><ele>225.0</ele><time>2026-04-21T08:54:17.106Z</time></trkpt><trkpt lat="32.85755" lon="9.5777183"><ele>225.0</ele><time>2026-04-21T08:54:19.106Z</time></trkpt><trkpt lat="32.8574133" lon="9.5779533"><ele>225.0</ele><time>2026-04-21T08:54:23.107Z</time></trkpt><trkpt lat="32.8572783" lon="9.5780467"><ele>225.33333333333334</ele><time>2026-04-21T08:54:25.106Z</time></trkpt><trkpt lat="32.8572117" lon="9.5781033"><ele>225.66666666666669</ele><time>2026-04-21T08:54:26.106Z</time></trkpt><trkpt lat="32.8571567" lon="9.5781667"><ele>226.0</ele><time>2026-04-21T08:54:27.107Z</time></trkpt><trkpt lat="32.8571117" lon="9.5782317"><ele>226.33333333333334</ele><time>2026-04-21T08:54:28.106Z</time></trkpt><trkpt lat="32.8570583" lon="9.57833"><ele>226.66666666666669</ele><time>2026-04-21T08:54:30.106Z</time></trkpt><trkpt lat="32.857025" lon="9.5784033"><ele>227.0</ele><time>2026-04-21T08:54:32.107Z</time></trkpt><trkpt lat="32.8569333" lon="9.578455"><ele>227.0</ele><time>2026-04-21T08:54:34.107Z</time></trkpt><trkpt lat="32.8568167" lon="9.578525"><ele>227.0</ele><time>2026-04-21T08:54:36.106Z</time></trkpt><trkpt lat="32.8567233" lon="9.57857"><ele>227.0</ele><time>2026-04-21T08:54:38.106Z</time></trkpt><trkpt lat="32.856655" lon="9.5785917"><ele>227.0</ele><time>2026-04-21T08:54:39.107Z</time></trkpt><trkpt lat="32.8565617" lon="9.57866"><ele>227.0</ele><time>2026-04-21T08:54:41.107Z</time></trkpt><trkpt lat="32.856445" lon="9.57885"><ele>227.33333333333334</ele><time>2026-04-21T08:54:45.107Z</time></trkpt><trkpt lat="32.8563517" lon="9.57887"><ele>227.66666666666669</ele><time>2026-04-21T08:54:47.106Z</time></trkpt><trkpt lat="32.8562333" lon="9.57889"><ele>228.0</ele><time>2026-04-21T08:54:49.106Z</time></trkpt><trkpt lat="32.856165" lon="9.5789"><ele>228.33333333333331</ele><time>2026-04-21T08:54:50.106Z</time></trkpt><trkpt lat="32.856075" lon="9.57894"><ele>228.66666666666666</ele><time>2026-04-21T08:54:52.106Z</time></trkpt><trkpt lat="32.85608" lon="9.579015"><ele>229.0</ele><time>2026-04-21T08:55:31.106Z</time></trkpt><trkpt lat="32.856255" lon="9.5789883"><ele>229.0</ele><time>2026-04-21T08:55:35.104Z</time></trkpt><trkpt lat="32.856315" lon="9.5789583"><ele>228.99999999999997</ele><time>2026-04-21T08:55:36.106Z</time></trkpt><trkpt lat="32.8563817" lon="9.5789283"><ele>228.99999999999997</ele><time>2026-04-21T08:55:38.105Z</time></trkpt><trkpt lat="32.856295" lon="9.5789067"><ele>229.0</ele><time>2026-04-21T08:56:27.106Z</time></trkpt><trkpt lat="32.8560883" lon="9.5789283"><ele>229.0</ele><time>2026-04-21T08:56:31.105Z</time></trkpt><trkpt lat="32.85607" lon="9.5790483"><ele>229.0</ele><time>2026-04-21T08:56:33.105Z</time></trkpt><trkpt lat="32.8560767" lon="9.57913"><ele>228.99999999999997</ele><time>2026-04-21T08:56:34.105Z</time></trkpt><trkpt lat="32.8560733" lon="9.5792183"><ele>228.99999999999997</ele><time>2026-04-21T08:56:35.106Z</time></trkpt><trkpt lat="32.8560583" lon="9.5793583"><ele>229.0</ele><time>2026-04-21T08:56:37.106Z</time></trkpt><trkpt lat="32.85608" lon="9.57951"><ele>229.0</ele><time>2026-04-21T08:56:39.105Z</time></trkpt><trkpt lat="32.8561017" lon="9.579585"><ele>229.66666666666666</ele><time>2026-04-21T08:56:40.105Z</time></trkpt><trkpt lat="32.856115" lon="9.5796683"><ele>230.33333333333331</ele><time>2026-04-21T08:56:41.106Z</time></trkpt><trkpt lat="32.8561133" lon="9.579755"><ele>231.0</ele><time>2026-04-21T08:56:42.105Z</time></trkpt><trkpt lat="32.856095" lon="9.579855"><ele>231.66666666666669</ele><time>2026-04-21T08:56:43.106Z</time></trkpt><trkpt lat="32.8560833" lon="9.5799667"><ele>232.33333333333334</ele><time>2026-04-21T08:56:44.106Z</time></trkpt><trkpt lat="32.8560833" lon="9.580095"><ele>233.0</ele><time>2026-04-21T08:56:45.106Z</time></trkpt><trkpt lat="32.856095" lon="9.5802417"><ele>232.0</ele><time>2026-04-21T08:56:46.105Z</time></trkpt><trkpt lat="32.8561183" lon="9.580385"><ele>231.0</ele><time>2026-04-21T08:56:47.105Z</time></trkpt><trkpt lat="32.856135" lon="9.5805217"><ele>230.0</ele><time>2026-04-21T08:56:48.105Z</time></trkpt><trkpt lat="32.8561233" lon="9.5807783"><ele>230.00000000000003</ele><time>2026-04-21T08:56:50.105Z</time></trkpt><trkpt lat="32.8561017" lon="9.5809017"><ele>230.0</ele><time>2026-04-21T08:56:51.106Z</time></trkpt><trkpt lat="32.8560817" lon="9.5810167"><ele>230.0</ele><time>2026-04-21T08:56:52.106Z</time></trkpt><trkpt lat="32.85607" lon="9.5811167"><ele>230.0</ele><time>2026-04-21T08:56:53.106Z</time></trkpt><trkpt lat="32.85606" lon="9.5812117"><ele>230.00000000000003</ele><time>2026-04-21T08:56:54.105Z</time></trkpt><trkpt lat="32.85605" lon="9.5813017"><ele>230.0</ele><time>2026-04-21T08:56:55.106Z</time></trkpt><trkpt lat="32.85604" lon="9.58139"><ele>229.71428571428567</ele><time>2026-04-21T08:56:56.105Z</time></trkpt><trkpt lat="32.8560317" lon="9.5814717"><ele>229.42857142857142</ele><time>2026-04-21T08:56:57.105Z</time></trkpt><trkpt lat="32.8560283" lon="9.581555"><ele>229.1428571428571</ele><time>2026-04-21T08:56:58.106Z</time></trkpt><trkpt lat="32.8560383" lon="9.5816417"><ele>228.85714285714283</ele><time>2026-04-21T08:56:59.105Z</time></trkpt><trkpt lat="32.8560533" lon="9.5817267"><ele>228.57142857142856</ele><time>2026-04-21T08:57:00.105Z</time></trkpt><trkpt lat="32.8560667" lon="9.58181"><ele>228.28571428571428</ele><time>2026-04-21T08:57:01.105Z</time></trkpt><trkpt lat="32.856075" lon="9.581895"><ele>228.0</ele><time>2026-04-21T08:57:02.105Z</time></trkpt><trkpt lat="32.8560817" lon="9.5819817"><ele>228.42857142857142</ele><time>2026-04-21T08:57:03.105Z</time></trkpt><trkpt lat="32.8560917" lon="9.58206"><ele>228.85714285714283</ele><time>2026-04-21T08:57:04.106Z</time></trkpt><trkpt lat="32.8561033" lon="9.582145"><ele>229.28571428571428</ele><time>2026-04-21T08:57:05.106Z</time></trkpt><trkpt lat="32.8561167" lon="9.5822233"><ele>229.71428571428572</ele><time>2026-04-21T08:57:06.105Z</time></trkpt><trkpt lat="32.856135" lon="9.5823017"><ele>230.14285714285714</ele><time>2026-04-21T08:57:07.105Z</time></trkpt><trkpt lat="32.8561583" lon="9.5823817"><ele>230.57142857142856</ele><time>2026-04-21T08:57:08.105Z</time></trkpt><trkpt lat="32.85618" lon="9.58246"><ele>231.0</ele><time>2026-04-21T08:57:09.105Z</time></trkpt><trkpt lat="32.8562433" lon="9.582625"><ele>231.0</ele><time>2026-04-21T08:57:11.106Z</time></trkpt><trkpt lat="32.85629" lon="9.5827183"><ele>231.0</ele><time>2026-04-21T08:57:12.105Z</time></trkpt><trkpt lat="32.85634" lon="9.58281"><ele>231.0</ele><time>2026-04-21T08:57:13.106Z</time></trkpt><trkpt lat="32.8563983" lon="9.5828867"><ele>231.0</ele><time>2026-04-21T08:57:14.106Z</time></trkpt><trkpt lat="32.8564617" lon="9.5829583"><ele>231.0</ele><time>2026-04-21T08:57:15.106Z</time></trkpt><trkpt lat="32.8565117" lon="9.5830267"><ele>231.0</ele><time>2026-04-21T08:57:16.105Z</time></trkpt><trkpt lat="32.8565667" lon="9.5831483"><ele>230.83333333333334</ele><time>2026-04-21T08:57:18.105Z</time></trkpt><trkpt lat="32.8565717" lon="9.583225"><ele>230.66666666666669</ele><time>2026-04-21T08:57:19.106Z</time></trkpt><trkpt lat="32.85658" lon="9.5833167"><ele>230.5</ele><time>2026-04-21T08:57:20.106Z</time></trkpt><trkpt lat="32.8565917" lon="9.5834083"><ele>230.33333333333334</ele><time>2026-04-21T08:57:21.106Z</time></trkpt><trkpt lat="32.85661" lon="9.5835017"><ele>230.16666666666669</ele><time>2026-04-21T08:57:22.105Z</time></trkpt><trkpt lat="32.856625" lon="9.5836133"><ele>230.0</ele><time>2026-04-21T08:57:23.106Z</time></trkpt><trkpt lat="32.8566417" lon="9.5837367"><ele>229.8</ele><time>2026-04-21T08:57:24.105Z</time></trkpt><trkpt lat="32.8566533" lon="9.5838567"><ele>229.6</ele><time>2026-04-21T08:57:25.105Z</time></trkpt><trkpt lat="32.85666" lon="9.5839733"><ele>229.39999999999998</ele><time>2026-04-21T08:57:26.105Z</time></trkpt><trkpt lat="32.8566517" lon="9.5841017"><ele>229.2</ele><time>2026-04-21T08:57:27.106Z</time></trkpt><trkpt lat="32.8566367" lon="9.5842367"><ele>229.0</ele><time>2026-04-21T08:57:28.105Z</time></trkpt><trkpt lat="32.8566167" lon="9.5843633"><ele>229.0</ele><time>2026-04-21T08:57:29.105Z</time></trkpt><trkpt lat="32.8565917" lon="9.5845067"><ele>229.0</ele><time>2026-04-21T08:57:30.105Z</time></trkpt><trkpt lat="32.8565367" lon="9.5847883"><ele>229.0</ele><time>2026-04-21T08:57:32.105Z</time></trkpt><trkpt lat="32.856515" lon="9.5849317"><ele>229.0</ele><time>2026-04-21T08:57:33.105Z</time></trkpt><trkpt lat="32.85649" lon="9.5850733"><ele>229.0</ele><time>2026-04-21T08:57:34.105Z</time></trkpt><trkpt lat="32.85646" lon="9.58522"><ele>229.0</ele><time>2026-04-21T08:57:35.105Z</time></trkpt><trkpt lat="32.8564383" lon="9.585365"><ele>229.0</ele><time>2026-04-21T08:57:36.106Z</time></trkpt><trkpt lat="32.8564133" lon="9.5855117"><ele>229.0</ele><time>2026-04-21T08:57:37.105Z</time></trkpt><trkpt lat="32.8563967" lon="9.585655"><ele>229.0</ele><time>2026-04-21T08:57:38.105Z</time></trkpt><trkpt lat="32.8563783" lon="9.5858033"><ele>229.0</ele><time>2026-04-21T08:57:39.106Z</time></trkpt><trkpt lat="32.85636" lon="9.5859483"><ele>229.0</ele><time>2026-04-21T08:57:40.105Z</time></trkpt><trkpt lat="32.8563433" lon="9.5860933"><ele>229.25</ele><time>2026-04-21T08:57:41.106Z</time></trkpt><trkpt lat="32.8563233" lon="9.5862417"><ele>229.5</ele><time>2026-04-21T08:57:42.105Z</time></trkpt><trkpt lat="32.856305" lon="9.58638"><ele>229.75</ele><time>2026-04-21T08:57:43.105Z</time></trkpt><trkpt lat="32.8562883" lon="9.586515"><ele>230.0</ele><time>2026-04-21T08:57:44.105Z</time></trkpt><trkpt lat="32.8562733" lon="9.5866533"><ele>230.0</ele><time>2026-04-21T08:57:45.106Z</time></trkpt><trkpt lat="32.8562517" lon="9.5867917"><ele>230.0</ele><time>2026-04-21T08:57:46.105Z</time></trkpt><trkpt lat="32.8562283" lon="9.586935"><ele>230.0</ele><time>2026-04-21T08:57:47.105Z</time></trkpt><trkpt lat="32.8562067" lon="9.58708"><ele>230.0</ele><time>2026-04-21T08:57:48.105Z</time></trkpt><trkpt lat="32.8561867" lon="9.5872283"><ele>230.0</ele><time>2026-04-21T08:57:49.105Z</time></trkpt><trkpt lat="32.8561667" lon="9.587375"><ele>230.0</ele><time>2026-04-21T08:57:50.106Z</time></trkpt><trkpt lat="32.85615" lon="9.5875233"><ele>230.0</ele><time>2026-04-21T08:57:51.106Z</time></trkpt><trkpt lat="32.8561017" lon="9.587825"><ele>230.0</ele><time>2026-04-21T08:57:53.106Z</time></trkpt><trkpt lat="32.8560783" lon="9.587975"><ele>230.0</ele><time>2026-04-21T08:57:54.106Z</time></trkpt><trkpt lat="32.85606" lon="9.58812"><ele>230.0</ele><time>2026-04-21T08:57:55.106Z</time></trkpt><trkpt lat="32.85603" lon="9.5882683"><ele>230.0</ele><time>2026-04-21T08:57:56.106Z</time></trkpt><trkpt lat="32.8560017" lon="9.5884217"><ele>230.0</ele><time>2026-04-21T08:57:57.105Z</time></trkpt><trkpt lat="32.8559767" lon="9.5885683"><ele>230.0</ele><time>2026-04-21T08:57:58.106Z</time></trkpt><trkpt lat="32.85596" lon="9.5887133"><ele>230.0</ele><time>2026-04-21T08:57:59.106Z</time></trkpt><trkpt lat="32.8559467" lon="9.58886"><ele>230.0</ele><time>2026-04-21T08:58:00.105Z</time></trkpt><trkpt lat="32.8559283" lon="9.5890167"><ele>230.0</ele><time>2026-04-21T08:58:01.105Z</time></trkpt><trkpt lat="32.8559083" lon="9.5891683"><ele>230.0</ele><time>2026-04-21T08:58:02.106Z</time></trkpt><trkpt lat="32.855895" lon="9.5893117"><ele>230.0</ele><time>2026-04-21T08:58:03.105Z</time></trkpt><trkpt lat="32.8558817" lon="9.5894617"><ele>230.0</ele><time>2026-04-21T08:58:04.105Z</time></trkpt><trkpt lat="32.8558733" lon="9.5896083"><ele>230.0</ele><time>2026-04-21T08:58:05.105Z</time></trkpt><trkpt lat="32.8558667" lon="9.5897583"><ele>230.0</ele><time>2026-04-21T08:58:06.106Z</time></trkpt><trkpt lat="32.855865" lon="9.589905"><ele>230.0</ele><time>2026-04-21T08:58:07.106Z</time></trkpt><trkpt lat="32.8558733" lon="9.5900467"><ele>230.0</ele><time>2026-04-21T08:58:08.105Z</time></trkpt><trkpt lat="32.8558967" lon="9.590185"><ele>230.0</ele><time>2026-04-21T08:58:09.105Z</time></trkpt><trkpt lat="32.8559367" lon="9.5903267"><ele>230.0</ele><time>2026-04-21T08:58:10.106Z</time></trkpt><trkpt lat="32.8560033" lon="9.5904617"><ele>230.0</ele><time>2026-04-21T08:58:11.105Z</time></trkpt><trkpt lat="32.8561217" lon="9.59072"><ele>230.25</ele><time>2026-04-21T08:58:13.105Z</time></trkpt><trkpt lat="32.85617" lon="9.59086"><ele>230.5</ele><time>2026-04-21T08:58:14.106Z</time></trkpt><trkpt lat="32.8562067" lon="9.59101"><ele>230.75</ele><time>2026-04-21T08:58:15.105Z</time></trkpt><trkpt lat="32.85624" lon="9.591155"><ele>231.0</ele><time>2026-04-21T08:58:16.106Z</time></trkpt><trkpt lat="32.8562683" lon="9.5913017"><ele>231.5</ele><time>2026-04-21T08:58:17.106Z</time></trkpt><trkpt lat="32.8563233" lon="9.5914483"><ele>232.0</ele><time>2026-04-21T08:58:18.106Z</time></trkpt><trkpt lat="32.856395" lon="9.5915733"><ele>232.5</ele><time>2026-04-21T08:58:19.106Z</time></trkpt><trkpt lat="32.8564683" lon="9.5916983"><ele>233.0</ele><time>2026-04-21T08:58:20.105Z</time></trkpt><trkpt lat="32.8565383" lon="9.59183"><ele>233.0</ele><time>2026-04-21T08:58:21.105Z</time></trkpt><trkpt lat="32.8566017" lon="9.5919733"><ele>233.0</ele><time>2026-04-21T08:58:22.105Z</time></trkpt><trkpt lat="32.85666" lon="9.59211"><ele>233.0</ele><time>2026-04-21T08:58:23.105Z</time></trkpt><trkpt lat="32.8567183" lon="9.5922467"><ele>233.0</ele><time>2026-04-21T08:58:24.105Z</time></trkpt><trkpt lat="32.8567917" lon="9.59238"><ele>232.25</ele><time>2026-04-21T08:58:25.106Z</time></trkpt><trkpt lat="32.85686" lon="9.5925117"><ele>231.5</ele><time>2026-04-21T08:58:26.106Z</time></trkpt><trkpt lat="32.8569133" lon="9.5926367"><ele>230.75</ele><time>2026-04-21T08:58:27.105Z</time></trkpt><trkpt lat="32.85694" lon="9.5927667"><ele>230.0</ele><time>2026-04-21T08:58:28.106Z</time></trkpt><trkpt lat="32.8569567" lon="9.5929033"><ele>229.5</ele><time>2026-04-21T08:58:29.105Z</time></trkpt><trkpt lat="32.8569617" lon="9.5930483"><ele>229.0</ele><time>2026-04-21T08:58:30.105Z</time></trkpt><trkpt lat="32.8569567" lon="9.59321"><ele>228.5</ele><time>2026-04-21T08:58:31.105Z</time></trkpt><trkpt lat="32.8569433" lon="9.59337"><ele>228.0</ele><time>2026-04-21T08:58:32.106Z</time></trkpt><trkpt lat="32.8569267" lon="9.5936717"><ele>228.5</ele><time>2026-04-21T08:58:34.106Z</time></trkpt><trkpt lat="32.856935" lon="9.593825"><ele>229.0</ele><time>2026-04-21T08:58:35.105Z</time></trkpt><trkpt lat="32.8569583" lon="9.5939683"><ele>229.5</ele><time>2026-04-21T08:58:36.106Z</time></trkpt><trkpt lat="32.857" lon="9.5940967"><ele>230.0</ele><time>2026-04-21T08:58:37.106Z</time></trkpt><trkpt lat="32.857055" lon="9.5942"><ele>230.00000000000003</ele><time>2026-04-21T08:58:38.106Z</time></trkpt><trkpt lat="32.857105" lon="9.59429"><ele>230.0</ele><time>2026-04-21T08:58:39.106Z</time></trkpt><trkpt lat="32.8571567" lon="9.5943817"><ele>230.0</ele><time>2026-04-21T08:58:40.105Z</time></trkpt><trkpt lat="32.8572" lon="9.5944683"><ele>230.0</ele><time>2026-04-21T08:58:41.106Z</time></trkpt><trkpt lat="32.857235" lon="9.5945533"><ele>230.00000000000003</ele><time>2026-04-21T08:58:42.105Z</time></trkpt><trkpt lat="32.8572633" lon="9.5946483"><ele>230.0</ele><time>2026-04-21T08:58:43.106Z</time></trkpt><trkpt lat="32.8572967" lon="9.5947533"><ele>230.2</ele><time>2026-04-21T08:58:44.104Z</time></trkpt><trkpt lat="32.8573333" lon="9.5948633"><ele>230.4</ele><time>2026-04-21T08:58:45.105Z</time></trkpt><trkpt lat="32.8573517" lon="9.59498"><ele>230.60000000000002</ele><time>2026-04-21T08:58:46.104Z</time></trkpt><trkpt lat="32.8573683" lon="9.5951"><ele>230.8</ele><time>2026-04-21T08:58:47.105Z</time></trkpt><trkpt lat="32.85739" lon="9.5952317"><ele>231.0</ele><time>2026-04-21T08:58:48.105Z</time></trkpt><trkpt lat="32.85741" lon="9.5953717"><ele>231.0</ele><time>2026-04-21T08:58:49.105Z</time></trkpt><trkpt lat="32.8574417" lon="9.5955117"><ele>231.0</ele><time>2026-04-21T08:58:50.104Z</time></trkpt><trkpt lat="32.857495" lon="9.5956583"><ele>231.0</ele><time>2026-04-21T08:58:51.104Z</time></trkpt><trkpt lat="32.85756" lon="9.5957883"><ele>231.0</ele><time>2026-04-21T08:58:52.105Z</time></trkpt><trkpt lat="32.8576167" lon="9.5959267"><ele>231.0</ele><time>2026-04-21T08:58:53.105Z</time></trkpt><trkpt lat="32.85768" lon="9.5962233"><ele>231.0</ele><time>2026-04-21T08:58:55.105Z</time></trkpt><trkpt lat="32.8576867" lon="9.5963767"><ele>231.0</ele><time>2026-04-21T08:58:56.105Z</time></trkpt><trkpt lat="32.8576967" lon="9.5965283"><ele>231.0</ele><time>2026-04-21T08:58:57.104Z</time></trkpt><trkpt lat="32.8577067" lon="9.5966817"><ele>231.0</ele><time>2026-04-21T08:58:58.105Z</time></trkpt><trkpt lat="32.8577167" lon="9.5968467"><ele>231.0</ele><time>2026-04-21T08:58:59.105Z</time></trkpt><trkpt lat="32.8577283" lon="9.597015"><ele>231.0</ele><time>2026-04-21T08:59:00.104Z</time></trkpt><trkpt lat="32.857745" lon="9.5971933"><ele>231.66666666666669</ele><time>2026-04-21T08:59:01.104Z</time></trkpt><trkpt lat="32.8577583" lon="9.597385"><ele>232.33333333333334</ele><time>2026-04-21T08:59:02.104Z</time></trkpt><trkpt lat="32.8577733" lon="9.5975717"><ele>233.0</ele><time>2026-04-21T08:59:03.105Z</time></trkpt><trkpt lat="32.8577833" lon="9.597765"><ele>232.66666666666669</ele><time>2026-04-21T08:59:04.105Z</time></trkpt><trkpt lat="32.8577917" lon="9.597965"><ele>232.33333333333331</ele><time>2026-04-21T08:59:05.104Z</time></trkpt><trkpt lat="32.857805" lon="9.598165"><ele>232.0</ele><time>2026-04-21T08:59:06.105Z</time></trkpt><trkpt lat="32.8578183" lon="9.5983767"><ele>232.0</ele><time>2026-04-21T08:59:07.104Z</time></trkpt><trkpt lat="32.8578317" lon="9.5985733"><ele>232.0</ele><time>2026-04-21T08:59:08.105Z</time></trkpt><trkpt lat="32.8578617" lon="9.5987633"><ele>232.0</ele><time>2026-04-21T08:59:09.105Z</time></trkpt><trkpt lat="32.857885" lon="9.59896"><ele>232.0</ele><time>2026-04-21T08:59:10.105Z</time></trkpt><trkpt lat="32.8579067" lon="9.5991617"><ele>232.0</ele><time>2026-04-21T08:59:11.105Z</time></trkpt><trkpt lat="32.857935" lon="9.5993483"><ele>232.0</ele><time>2026-04-21T08:59:12.104Z</time></trkpt><trkpt lat="32.8579567" lon="9.5995433"><ele>232.0</ele><time>2026-04-21T08:59:13.104Z</time></trkpt><trkpt lat="32.857975" lon="9.59974"><ele>232.0</ele><time>2026-04-21T08:59:14.104Z</time></trkpt><trkpt lat="32.858025" lon="9.6001483"><ele>232.0</ele><time>2026-04-21T08:59:16.104Z</time></trkpt><trkpt lat="32.8580417" lon="9.6003417"><ele>232.0</ele><time>2026-04-21T08:59:17.105Z</time></trkpt><trkpt lat="32.8580667" lon="9.6005433"><ele>232.0</ele><time>2026-04-21T08:59:18.104Z</time></trkpt><trkpt lat="32.8581017" lon="9.6007283"><ele>232.0</ele><time>2026-04-21T08:59:19.105Z</time></trkpt><trkpt lat="32.8581317" lon="9.6009233"><ele>232.0</ele><time>2026-04-21T08:59:20.105Z</time></trkpt><trkpt lat="32.8581633" lon="9.6011083"><ele>232.0</ele><time>2026-04-21T08:59:21.104Z</time></trkpt><trkpt lat="32.8582183" lon="9.6012917"><ele>232.5</ele><time>2026-04-21T08:59:22.104Z</time></trkpt><trkpt lat="32.8582933" lon="9.6016717"><ele>233.0</ele><time>2026-04-21T08:59:24.104Z</time></trkpt><trkpt lat="32.858325" lon="9.6018583"><ele>232.66666666666669</ele><time>2026-04-21T08:59:25.104Z</time></trkpt><trkpt lat="32.8583567" lon="9.6020533"><ele>232.33333333333331</ele><time>2026-04-21T08:59:26.105Z</time></trkpt><trkpt lat="32.8583867" lon="9.6022383"><ele>232.0</ele><time>2026-04-21T08:59:27.105Z</time></trkpt><trkpt lat="32.8584167" lon="9.60243"><ele>232.0</ele><time>2026-04-21T08:59:28.104Z</time></trkpt><trkpt lat="32.8584333" lon="9.60262"><ele>232.0</ele><time>2026-04-21T08:59:29.105Z</time></trkpt><trkpt lat="32.8584417" lon="9.60282"><ele>232.0</ele><time>2026-04-21T08:59:30.105Z</time></trkpt><trkpt lat="32.8584467" lon="9.60302"><ele>232.0</ele><time>2026-04-21T08:59:31.105Z</time></trkpt><trkpt lat="32.8584433" lon="9.6032133"><ele>232.0</ele><time>2026-04-21T08:59:32.105Z</time></trkpt><trkpt lat="32.8584467" lon="9.603415"><ele>232.0</ele><time>2026-04-21T08:59:33.105Z</time></trkpt><trkpt lat="32.8584417" lon="9.6036117"><ele>232.5</ele><time>2026-04-21T08:59:34.104Z</time></trkpt><trkpt lat="32.85844" lon="9.6038133"><ele>233.0</ele><time>2026-04-21T08:59:35.104Z</time></trkpt><trkpt lat="32.858435" lon="9.6042033"><ele>233.0</ele><time>2026-04-21T08:59:37.105Z</time></trkpt><trkpt lat="32.858435" lon="9.6043667"><ele>233.0</ele><time>2026-04-21T08:59:38.104Z</time></trkpt><trkpt lat="32.85844" lon="9.604525"><ele>233.0</ele><time>2026-04-21T08:59:39.104Z</time></trkpt><trkpt lat="32.8584467" lon="9.6046817"><ele>233.0</ele><time>2026-04-21T08:59:40.104Z</time></trkpt><trkpt lat="32.8584417" lon="9.604815"><ele>232.8</ele><time>2026-04-21T08:59:41.104Z</time></trkpt><trkpt lat="32.858435" lon="9.6049467"><ele>232.60000000000002</ele><time>2026-04-21T08:59:42.105Z</time></trkpt><trkpt lat="32.858425" lon="9.6050667"><ele>232.39999999999998</ele><time>2026-04-21T08:59:43.105Z</time></trkpt><trkpt lat="32.8584217" lon="9.60518"><ele>232.2</ele><time>2026-04-21T08:59:44.105Z</time></trkpt><trkpt lat="32.8584183" lon="9.6052883"><ele>232.0</ele><time>2026-04-21T08:59:45.105Z</time></trkpt><trkpt lat="32.85841" lon="9.60539"><ele>231.8</ele><time>2026-04-21T08:59:46.104Z</time></trkpt><trkpt lat="32.8583883" lon="9.6055667"><ele>231.6</ele><time>2026-04-21T08:59:48.105Z</time></trkpt><trkpt lat="32.8583767" lon="9.6056417"><ele>231.40000000000003</ele><time>2026-04-21T08:59:49.104Z</time></trkpt><trkpt lat="32.8583617" lon="9.6057583"><ele>231.20000000000002</ele><time>2026-04-21T08:59:51.104Z</time></trkpt><trkpt lat="32.8584167" lon="9.6056533"><ele>231.0</ele><time>2026-04-21T09:01:39.105Z</time></trkpt><trkpt lat="32.8584117" lon="9.605395"><ele>231.16666666666666</ele><time>2026-04-21T09:01:42.105Z</time></trkpt><trkpt lat="32.8584233" lon="9.6052967"><ele>231.33333333333331</ele><time>2026-04-21T09:01:43.104Z</time></trkpt><trkpt lat="32.8584367" lon="9.6051917"><ele>231.5</ele><time>2026-04-21T09:01:44.105Z</time></trkpt><trkpt lat="32.8584517" lon="9.6050917"><ele>231.66666666666666</ele><time>2026-04-21T09:01:45.104Z</time></trkpt><trkpt lat="32.8584617" lon="9.6049933"><ele>231.83333333333331</ele><time>2026-04-21T09:01:46.105Z</time></trkpt><trkpt lat="32.858465" lon="9.6049033"><ele>232.0</ele><time>2026-04-21T09:01:47.105Z</time></trkpt><trkpt lat="32.8584683" lon="9.6048133"><ele>231.99999999999997</ele><time>2026-04-21T09:01:48.104Z</time></trkpt><trkpt lat="32.85847" lon="9.6047267"><ele>232.0</ele><time>2026-04-21T09:01:49.105Z</time></trkpt><trkpt lat="32.8584883" lon="9.6046"><ele>232.0</ele><time>2026-04-21T09:01:51.104Z</time></trkpt><trkpt lat="32.8585217" lon="9.6045217"><ele>232.0</ele><time>2026-04-21T09:01:54.105Z</time></trkpt><trkpt lat="32.8585717" lon="9.6045783"><ele>231.99999999999997</ele><time>2026-04-21T09:01:58.104Z</time></trkpt><trkpt lat="32.8586117" lon="9.6046783"><ele>232.0</ele><time>2026-04-21T09:02:02.104Z</time></trkpt><trkpt lat="32.85875" lon="9.6048683"><ele>232.0</ele><time>2026-04-21T09:02:06.105Z</time></trkpt><trkpt lat="32.8587917" lon="9.60493"><ele>232.0</ele><time>2026-04-21T09:02:07.105Z</time></trkpt><trkpt lat="32.8588533" lon="9.6050783"><ele>232.0</ele><time>2026-04-21T09:02:09.104Z</time></trkpt><trkpt lat="32.8588967" lon="9.60517"><ele>232.0</ele><time>2026-04-21T09:02:10.104Z</time></trkpt><trkpt lat="32.8589567" lon="9.6052667"><ele>232.0</ele><time>2026-04-21T09:02:11.105Z</time></trkpt><trkpt lat="32.8590167" lon="9.6053783"><ele>232.2</ele><time>2026-04-21T09:02:12.103Z</time></trkpt><trkpt lat="32.85907" lon="9.605495"><ele>232.39999999999998</ele><time>2026-04-21T09:02:13.103Z</time></trkpt><trkpt lat="32.859115" lon="9.6056117"><ele>232.60000000000002</ele><time>2026-04-21T09:02:14.103Z</time></trkpt><trkpt lat="32.85916" lon="9.6057283"><ele>232.8</ele><time>2026-04-21T09:02:15.104Z</time></trkpt><trkpt lat="32.85921" lon="9.605835"><ele>233.0</ele><time>2026-04-21T09:02:16.104Z</time></trkpt><trkpt lat="32.8592717" lon="9.605935"><ele>233.0</ele><time>2026-04-21T09:02:17.104Z</time></trkpt><trkpt lat="32.859345" lon="9.6060333"><ele>233.0</ele><time>2026-04-21T09:02:18.103Z</time></trkpt><trkpt lat="32.859415" lon="9.606135"><ele>233.0</ele><time>2026-04-21T09:02:19.103Z</time></trkpt><trkpt lat="32.85948" lon="9.6062517"><ele>233.0</ele><time>2026-04-21T09:02:20.104Z</time></trkpt><trkpt lat="32.85955" lon="9.60637"><ele>232.5</ele><time>2026-04-21T09:02:21.104Z</time></trkpt><trkpt lat="32.8596217" lon="9.6064817"><ele>232.0</ele><time>2026-04-21T09:02:22.103Z</time></trkpt><trkpt lat="32.859685" lon="9.6065883"><ele>231.5</ele><time>2026-04-21T09:02:23.104Z</time></trkpt><trkpt lat="32.8598083" lon="9.6067867"><ele>231.0</ele><time>2026-04-21T09:02:25.103Z</time></trkpt><trkpt lat="32.85988" lon="9.6068717"><ele>231.0</ele><time>2026-04-21T09:02:26.103Z</time></trkpt><trkpt lat="32.8599667" lon="9.60694"><ele>231.00000000000003</ele><time>2026-04-21T09:02:27.103Z</time></trkpt><trkpt lat="32.8600567" lon="9.607015"><ele>231.00000000000003</ele><time>2026-04-21T09:02:28.104Z</time></trkpt><trkpt lat="32.8601483" lon="9.6070883"><ele>231.0</ele><time>2026-04-21T09:02:29.103Z</time></trkpt><trkpt lat="32.8602433" lon="9.6071717"><ele>231.0</ele><time>2026-04-21T09:02:30.103Z</time></trkpt><trkpt lat="32.8603333" lon="9.6072617"><ele>231.5</ele><time>2026-04-21T09:02:31.103Z</time></trkpt><trkpt lat="32.8604233" lon="9.6073483"><ele>232.0</ele><time>2026-04-21T09:02:32.103Z</time></trkpt><trkpt lat="32.86051" lon="9.6074483"><ele>232.5</ele><time>2026-04-21T09:02:33.104Z</time></trkpt><trkpt lat="32.860585" lon="9.6075533"><ele>233.0</ele><time>2026-04-21T09:02:34.104Z</time></trkpt><trkpt lat="32.86065" lon="9.6076667"><ele>233.0</ele><time>2026-04-21T09:02:35.104Z</time></trkpt><trkpt lat="32.86072" lon="9.60778"><ele>233.0</ele><time>2026-04-21T09:02:36.104Z</time></trkpt><trkpt lat="32.8607867" lon="9.6078817"><ele>233.0</ele><time>2026-04-21T09:02:37.104Z</time></trkpt><trkpt lat="32.860855" lon="9.6079833"><ele>233.0</ele><time>2026-04-21T09:02:38.103Z</time></trkpt><trkpt lat="32.860915" lon="9.608095"><ele>233.0</ele><time>2026-04-21T09:02:39.104Z</time></trkpt><trkpt lat="32.8609683" lon="9.6082167"><ele>233.0</ele><time>2026-04-21T09:02:40.104Z</time></trkpt><trkpt lat="32.86103" lon="9.60833"><ele>233.0</ele><time>2026-04-21T09:02:41.104Z</time></trkpt><trkpt lat="32.8610817" lon="9.60846"><ele>233.0</ele><time>2026-04-21T09:02:42.103Z</time></trkpt><trkpt lat="32.8611283" lon="9.6085867"><ele>233.0</ele><time>2026-04-21T09:02:43.103Z</time></trkpt><trkpt lat="32.8611783" lon="9.6087167"><ele>233.0</ele><time>2026-04-21T09:02:44.103Z</time></trkpt><trkpt lat="32.8613017" lon="9.60898"><ele>233.0</ele><time>2026-04-21T09:02:46.104Z</time></trkpt><trkpt lat="32.8613567" lon="9.6091083"><ele>233.0</ele><time>2026-04-21T09:02:47.103Z</time></trkpt><trkpt lat="32.8614067" lon="9.6092317"><ele>233.0</ele><time>2026-04-21T09:02:48.103Z</time></trkpt><trkpt lat="32.86146" lon="9.6093683"><ele>233.0</ele><time>2026-04-21T09:02:49.103Z</time></trkpt><trkpt lat="32.8615167" lon="9.6094967"><ele>233.0</ele><time>2026-04-21T09:02:50.103Z</time></trkpt><trkpt lat="32.86159" lon="9.6096267"><ele>233.0</ele><time>2026-04-21T09:02:51.104Z</time></trkpt><trkpt lat="32.86174" lon="9.6098667"><ele>233.25</ele><time>2026-04-21T09:02:53.103Z</time></trkpt><trkpt lat="32.8618117" lon="9.60998"><ele>233.5</ele><time>2026-04-21T09:02:54.104Z</time></trkpt><trkpt lat="32.8618783" lon="9.6100983"><ele>233.75</ele><time>2026-04-21T09:02:55.104Z</time></trkpt><trkpt lat="32.861945" lon="9.6102217"><ele>234.0</ele><time>2026-04-21T09:02:56.103Z</time></trkpt><trkpt lat="32.862015" lon="9.6103483"><ele>234.0</ele><time>2026-04-21T09:02:57.103Z</time></trkpt><trkpt lat="32.862085" lon="9.6104733"><ele>234.0</ele><time>2026-04-21T09:02:58.104Z</time></trkpt><trkpt lat="32.86215" lon="9.6106083"><ele>234.0</ele><time>2026-04-21T09:02:59.104Z</time></trkpt><trkpt lat="32.8622117" lon="9.61074"><ele>234.0</ele><time>2026-04-21T09:03:00.103Z</time></trkpt><trkpt lat="32.8622667" lon="9.6108683"><ele>234.0</ele><time>2026-04-21T09:03:01.103Z</time></trkpt><trkpt lat="32.8623217" lon="9.6109967"><ele>234.0</ele><time>2026-04-21T09:03:02.104Z</time></trkpt><trkpt lat="32.8623783" lon="9.6111267"><ele>234.0</ele><time>2026-04-21T09:03:03.104Z</time></trkpt><trkpt lat="32.8624333" lon="9.61126"><ele>234.0</ele><time>2026-04-21T09:03:04.103Z</time></trkpt><trkpt lat="32.8625017" lon="9.6113783"><ele>234.0</ele><time>2026-04-21T09:03:05.104Z</time></trkpt><trkpt lat="32.8626367" lon="9.611625"><ele>234.0</ele><time>2026-04-21T09:03:07.103Z</time></trkpt><trkpt lat="32.8627133" lon="9.6117467"><ele>234.0</ele><time>2026-04-21T09:03:08.104Z</time></trkpt><trkpt lat="32.86278" lon="9.6118583"><ele>234.0</ele><time>2026-04-21T09:03:09.104Z</time></trkpt><trkpt lat="32.8628433" lon="9.61197"><ele>234.0</ele><time>2026-04-21T09:03:10.104Z</time></trkpt><trkpt lat="32.8629183" lon="9.6120733"><ele>234.0</ele><time>2026-04-21T09:03:11.103Z</time></trkpt><trkpt lat="32.8630033" lon="9.61217"><ele>234.0</ele><time>2026-04-21T09:03:12.104Z</time></trkpt><trkpt lat="32.8631" lon="9.612255"><ele>234.0</ele><time>2026-04-21T09:03:13.103Z</time></trkpt><trkpt lat="32.8632017" lon="9.6123367"><ele>234.0</ele><time>2026-04-21T09:03:14.103Z</time></trkpt><trkpt lat="32.8633167" lon="9.6124083"><ele>234.0</ele><time>2026-04-21T09:03:15.103Z</time></trkpt><trkpt lat="32.8634333" lon="9.612475"><ele>234.0</ele><time>2026-04-21T09:03:16.104Z</time></trkpt><trkpt lat="32.8635533" lon="9.612545"><ele>233.75</ele><time>2026-04-21T09:03:17.104Z</time></trkpt><trkpt lat="32.8636633" lon="9.6126317"><ele>233.5</ele><time>2026-04-21T09:03:18.104Z</time></trkpt><trkpt lat="32.8637717" lon="9.612715"><ele>233.25</ele><time>2026-04-21T09:03:19.104Z</time></trkpt><trkpt lat="32.86388" lon="9.6127983"><ele>233.0</ele><time>2026-04-21T09:03:20.104Z</time></trkpt><trkpt lat="32.8639767" lon="9.6128867"><ele>233.0</ele><time>2026-04-21T09:03:21.103Z</time></trkpt><trkpt lat="32.8640733" lon="9.612965"><ele>233.0</ele><time>2026-04-21T09:03:22.104Z</time></trkpt><trkpt lat="32.8641783" lon="9.6130333"><ele>233.0</ele><time>2026-04-21T09:03:23.103Z</time></trkpt><trkpt lat="32.864295" lon="9.6130817"><ele>233.0</ele><time>2026-04-21T09:03:24.104Z</time></trkpt><trkpt lat="32.8644217" lon="9.613135"><ele>233.0</ele><time>2026-04-21T09:03:25.103Z</time></trkpt><trkpt lat="32.8645467" lon="9.613175"><ele>233.0</ele><time>2026-04-21T09:03:26.104Z</time></trkpt><trkpt lat="32.8647867" lon="9.6133083"><ele>233.0</ele><time>2026-04-21T09:03:28.104Z</time></trkpt><trkpt lat="32.8648983" lon="9.6133983"><ele>233.0</ele><time>2026-04-21T09:03:29.103Z</time></trkpt><trkpt lat="32.8650017" lon="9.6134883"><ele>233.0</ele><time>2026-04-21T09:03:30.103Z</time></trkpt><trkpt lat="32.8651" lon="9.6135833"><ele>233.0</ele><time>2026-04-21T09:03:31.103Z</time></trkpt><trkpt lat="32.86519" lon="9.6136833"><ele>233.0</ele><time>2026-04-21T09:03:32.104Z</time></trkpt><trkpt lat="32.865285" lon="9.6137817"><ele>233.25</ele><time>2026-04-21T09:03:33.103Z</time></trkpt><trkpt lat="32.8653783" lon="9.6138767"><ele>233.5</ele><time>2026-04-21T09:03:34.103Z</time></trkpt><trkpt lat="32.8654633" lon="9.6139767"><ele>233.75</ele><time>2026-04-21T09:03:35.103Z</time></trkpt><trkpt lat="32.8655533" lon="9.6140717"><ele>234.0</ele><time>2026-04-21T09:03:36.104Z</time></trkpt><trkpt lat="32.8656517" lon="9.6141583"><ele>234.0</ele><time>2026-04-21T09:03:37.103Z</time></trkpt><trkpt lat="32.86576" lon="9.6142333"><ele>234.0</ele><time>2026-04-21T09:03:38.104Z</time></trkpt><trkpt lat="32.8658667" lon="9.61432"><ele>234.0</ele><time>2026-04-21T09:03:39.103Z</time></trkpt><trkpt lat="32.8659767" lon="9.6144033"><ele>234.0</ele><time>2026-04-21T09:03:40.103Z</time></trkpt><trkpt lat="32.8660883" lon="9.6144917"><ele>234.25</ele><time>2026-04-21T09:03:41.104Z</time></trkpt><trkpt lat="32.8661967" lon="9.6145667"><ele>234.5</ele><time>2026-04-21T09:03:42.103Z</time></trkpt><trkpt lat="32.8663" lon="9.6146333"><ele>234.75</ele><time>2026-04-21T09:03:43.104Z</time></trkpt><trkpt lat="32.8663917" lon="9.614695"><ele>235.0</ele><time>2026-04-21T09:03:44.104Z</time></trkpt><trkpt lat="32.8664883" lon="9.61476"><ele>235.0</ele><time>2026-04-21T09:03:45.103Z</time></trkpt><trkpt lat="32.8665817" lon="9.6148367"><ele>235.0</ele><time>2026-04-21T09:03:46.104Z</time></trkpt><trkpt lat="32.8666733" lon="9.6149233"><ele>235.0</ele><time>2026-04-21T09:03:47.103Z</time></trkpt><trkpt lat="32.8668667" lon="9.6150933"><ele>235.0</ele><time>2026-04-21T09:03:49.104Z</time></trkpt><trkpt lat="32.8669567" lon="9.615195"><ele>235.0</ele><time>2026-04-21T09:03:50.104Z</time></trkpt><trkpt lat="32.8670633" lon="9.6152833"><ele>235.0</ele><time>2026-04-21T09:03:51.103Z</time></trkpt><trkpt lat="32.8671617" lon="9.61538"><ele>235.0</ele><time>2026-04-21T09:03:52.103Z</time></trkpt><trkpt lat="32.8672617" lon="9.615475"><ele>235.0</ele><time>2026-04-21T09:03:53.103Z</time></trkpt><trkpt lat="32.8673633" lon="9.6155667"><ele>235.0</ele><time>2026-04-21T09:03:54.103Z</time></trkpt><trkpt lat="32.867465" lon="9.6156467"><ele>235.0</ele><time>2026-04-21T09:03:55.103Z</time></trkpt><trkpt lat="32.867585" lon="9.6157183"><ele>235.0</ele><time>2026-04-21T09:03:56.104Z</time></trkpt><trkpt lat="32.8677167" lon="9.615775"><ele>234.25</ele><time>2026-04-21T09:03:57.103Z</time></trkpt><trkpt lat="32.8678433" lon="9.6158383"><ele>233.5</ele><time>2026-04-21T09:03:58.104Z</time></trkpt><trkpt lat="32.8679633" lon="9.6159117"><ele>232.75</ele><time>2026-04-21T09:03:59.104Z</time></trkpt><trkpt lat="32.8680617" lon="9.6159967"><ele>232.0</ele><time>2026-04-21T09:04:00.104Z</time></trkpt><trkpt lat="32.8681567" lon="9.61608"><ele>232.25</ele><time>2026-04-21T09:04:01.103Z</time></trkpt><trkpt lat="32.8682667" lon="9.6161583"><ele>232.5</ele><time>2026-04-21T09:04:02.103Z</time></trkpt><trkpt lat="32.86838" lon="9.61622"><ele>232.75</ele><time>2026-04-21T09:04:03.104Z</time></trkpt><trkpt lat="32.8685017" lon="9.6162667"><ele>233.0</ele><time>2026-04-21T09:04:04.103Z</time></trkpt><trkpt lat="32.8686267" lon="9.61633"><ele>233.25</ele><time>2026-04-21T09:04:05.104Z</time></trkpt><trkpt lat="32.8687367" lon="9.616395"><ele>233.5</ele><time>2026-04-21T09:04:06.103Z</time></trkpt><trkpt lat="32.8688517" lon="9.616455"><ele>233.75</ele><time>2026-04-21T09:04:07.104Z</time></trkpt><trkpt lat="32.86897" lon="9.616515"><ele>234.0</ele><time>2026-04-21T09:04:08.103Z</time></trkpt><trkpt lat="32.8692217" lon="9.616605"><ele>234.0</ele><time>2026-04-21T09:04:10.103Z</time></trkpt><trkpt lat="32.8693433" lon="9.6166383"><ele>234.0</ele><time>2026-04-21T09:04:11.104Z</time></trkpt><trkpt lat="32.869465" lon="9.616665"><ele>234.0</ele><time>2026-04-21T09:04:12.104Z</time></trkpt><trkpt lat="32.86958" lon="9.6166767"><ele>234.0</ele><time>2026-04-21T09:04:13.103Z</time></trkpt><trkpt lat="32.8697" lon="9.6166783"><ele>234.0</ele><time>2026-04-21T09:04:14.103Z</time></trkpt><trkpt lat="32.8698217" lon="9.6166767"><ele>234.0</ele><time>2026-04-21T09:04:15.103Z</time></trkpt><trkpt lat="32.8699533" lon="9.6166883"><ele>234.0</ele><time>2026-04-21T09:04:16.104Z</time></trkpt><trkpt lat="32.8700767" lon="9.6167217"><ele>234.0</ele><time>2026-04-21T09:04:17.104Z</time></trkpt><trkpt lat="32.87019" lon="9.6167767"><ele>233.75</ele><time>2026-04-21T09:04:18.103Z</time></trkpt><trkpt lat="32.87031" lon="9.616825"><ele>233.5</ele><time>2026-04-21T09:04:19.103Z</time></trkpt><trkpt lat="32.8704367" lon="9.6168667"><ele>233.25</ele><time>2026-04-21T09:04:20.104Z</time></trkpt><trkpt lat="32.8705633" lon="9.61691"><ele>233.0</ele><time>2026-04-21T09:04:21.104Z</time></trkpt><trkpt lat="32.87069" lon="9.6169383"><ele>233.0</ele><time>2026-04-21T09:04:22.104Z</time></trkpt><trkpt lat="32.870825" lon="9.6169533"><ele>233.0</ele><time>2026-04-21T09:04:23.104Z</time></trkpt><trkpt lat="32.8709617" lon="9.6169633"><ele>233.0</ele><time>2026-04-21T09:04:24.103Z</time></trkpt><trkpt lat="32.8711017" lon="9.61696"><ele>233.0</ele><time>2026-04-21T09:04:25.104Z</time></trkpt><trkpt lat="32.871235" lon="9.616955"><ele>233.25</ele><time>2026-04-21T09:04:26.104Z</time></trkpt><trkpt lat="32.8713733" lon="9.616945"><ele>233.5</ele><time>2026-04-21T09:04:27.104Z</time></trkpt><trkpt lat="32.8715133" lon="9.6169317"><ele>233.75</ele><time>2026-04-21T09:04:28.104Z</time></trkpt><trkpt lat="32.8716633" lon="9.6169183"><ele>234.0</ele><time>2026-04-21T09:04:29.104Z</time></trkpt><trkpt lat="32.87198" lon="9.6168833"><ele>234.33333333333331</ele><time>2026-04-21T09:04:31.104Z</time></trkpt><trkpt lat="32.8721283" lon="9.616875"><ele>234.66666666666666</ele><time>2026-04-21T09:04:32.104Z</time></trkpt><trkpt lat="32.8722883" lon="9.6168667"><ele>235.0</ele><time>2026-04-21T09:04:33.104Z</time></trkpt><trkpt lat="32.87245" lon="9.6168517"><ele>234.66666666666666</ele><time>2026-04-21T09:04:34.104Z</time></trkpt><trkpt lat="32.87261" lon="9.6168283"><ele>234.33333333333331</ele><time>2026-04-21T09:04:35.103Z</time></trkpt><trkpt lat="32.8727733" lon="9.6168067"><ele>234.0</ele><time>2026-04-21T09:04:36.103Z</time></trkpt><trkpt lat="32.8729433" lon="9.61679"><ele>234.0</ele><time>2026-04-21T09:04:37.104Z</time></trkpt><trkpt lat="32.8731133" lon="9.6167683"><ele>234.0</ele><time>2026-04-21T09:04:38.103Z</time></trkpt><trkpt lat="32.8732733" lon="9.6167533"><ele>234.0</ele><time>2026-04-21T09:04:39.104Z</time></trkpt><trkpt lat="32.8734383" lon="9.6167267"><ele>234.0</ele><time>2026-04-21T09:04:40.103Z</time></trkpt><trkpt lat="32.8736067" lon="9.6167133"><ele>234.0</ele><time>2026-04-21T09:04:41.103Z</time></trkpt><trkpt lat="32.8737717" lon="9.6166883"><ele>234.0</ele><time>2026-04-21T09:04:42.103Z</time></trkpt><trkpt lat="32.873935" lon="9.616665"><ele>234.0</ele><time>2026-04-21T09:04:43.103Z</time></trkpt><trkpt lat="32.87408" lon="9.6166517"><ele>234.0</ele><time>2026-04-21T09:04:44.103Z</time></trkpt><trkpt lat="32.87422" lon="9.61664"><ele>234.0</ele><time>2026-04-21T09:04:45.103Z</time></trkpt><trkpt lat="32.87436" lon="9.616655"><ele>234.0</ele><time>2026-04-21T09:04:46.103Z</time></trkpt><trkpt lat="32.8745" lon="9.6166733"><ele>233.75</ele><time>2026-04-21T09:04:47.104Z</time></trkpt><trkpt lat="32.87462" lon="9.61671"><ele>233.5</ele><time>2026-04-21T09:04:48.104Z</time></trkpt><trkpt lat="32.87474" lon="9.61676"><ele>233.25</ele><time>2026-04-21T09:04:49.103Z</time></trkpt><trkpt lat="32.8748567" lon="9.6168317"><ele>233.0</ele><time>2026-04-21T09:04:50.104Z</time></trkpt><trkpt lat="32.8750567" lon="9.6170233"><ele>232.75</ele><time>2026-04-21T09:04:52.103Z</time></trkpt><trkpt lat="32.87516" lon="9.6171133"><ele>232.5</ele><time>2026-04-21T09:04:53.104Z</time></trkpt><trkpt lat="32.87526" lon="9.6172167"><ele>232.25</ele><time>2026-04-21T09:04:54.104Z</time></trkpt><trkpt lat="32.8753583" lon="9.6173133"><ele>232.0</ele><time>2026-04-21T09:04:55.104Z</time></trkpt><trkpt lat="32.8754633" lon="9.6174033"><ele>232.0</ele><time>2026-04-21T09:04:56.103Z</time></trkpt><trkpt lat="32.875585" lon="9.6174933"><ele>232.0</ele><time>2026-04-21T09:04:57.104Z</time></trkpt><trkpt lat="32.8757067" lon="9.6175733"><ele>232.0</ele><time>2026-04-21T09:04:58.104Z</time></trkpt><trkpt lat="32.875825" lon="9.6176483"><ele>232.0</ele><time>2026-04-21T09:04:59.104Z</time></trkpt><trkpt lat="32.8759483" lon="9.6177133"><ele>232.25</ele><time>2026-04-21T09:05:00.104Z</time></trkpt><trkpt lat="32.8760717" lon="9.6177533"><ele>232.5</ele><time>2026-04-21T09:05:01.103Z</time></trkpt><trkpt lat="32.8761833" lon="9.6177867"><ele>232.75</ele><time>2026-04-21T09:05:02.103Z</time></trkpt><trkpt lat="32.8762917" lon="9.6178"><ele>233.0</ele><time>2026-04-21T09:05:03.104Z</time></trkpt><trkpt lat="32.876415" lon="9.6178083"><ele>233.0</ele><time>2026-04-21T09:05:04.103Z</time></trkpt><trkpt lat="32.87654" lon="9.6178083"><ele>233.0</ele><time>2026-04-21T09:05:05.103Z</time></trkpt><trkpt lat="32.8766633" lon="9.6177933"><ele>233.0</ele><time>2026-04-21T09:05:06.104Z</time></trkpt><trkpt lat="32.8767933" lon="9.617775"><ele>233.0</ele><time>2026-04-21T09:05:07.103Z</time></trkpt><trkpt lat="32.8769267" lon="9.6177567"><ele>232.75</ele><time>2026-04-21T09:05:08.103Z</time></trkpt><trkpt lat="32.87706" lon="9.61775"><ele>232.5</ele><time>2026-04-21T09:05:09.104Z</time></trkpt><trkpt lat="32.87719" lon="9.6177667"><ele>232.25</ele><time>2026-04-21T09:05:10.104Z</time></trkpt><trkpt lat="32.8773267" lon="9.617815"><ele>232.0</ele><time>2026-04-21T09:05:11.103Z</time></trkpt><trkpt lat="32.877565" lon="9.6179117"><ele>232.2</ele><time>2026-04-21T09:05:13.104Z</time></trkpt><trkpt lat="32.8776683" lon="9.6179533"><ele>232.39999999999998</ele><time>2026-04-21T09:05:14.103Z</time></trkpt><trkpt lat="32.8777683" lon="9.618"><ele>232.60000000000002</ele><time>2026-04-21T09:05:15.104Z</time></trkpt><trkpt lat="32.8778667" lon="9.61805"><ele>232.8</ele><time>2026-04-21T09:05:16.103Z</time></trkpt><trkpt lat="32.8779467" lon="9.618125"><ele>233.0</ele><time>2026-04-21T09:05:17.104Z</time></trkpt><trkpt lat="32.87803" lon="9.618215"><ele>233.0</ele><time>2026-04-21T09:05:18.103Z</time></trkpt><trkpt lat="32.8781067" lon="9.6183167"><ele>233.0</ele><time>2026-04-21T09:05:19.103Z</time></trkpt><trkpt lat="32.87817" lon="9.61843"><ele>233.0</ele><time>2026-04-21T09:05:20.103Z</time></trkpt><trkpt lat="32.8782333" lon="9.6185467"><ele>233.0</ele><time>2026-04-21T09:05:21.104Z</time></trkpt><trkpt lat="32.8783083" lon="9.61866"><ele>233.0</ele><time>2026-04-21T09:05:22.103Z</time></trkpt><trkpt lat="32.8783983" lon="9.6187733"><ele>233.0</ele><time>2026-04-21T09:05:23.104Z</time></trkpt><trkpt lat="32.8784867" lon="9.6188833"><ele>233.0</ele><time>2026-04-21T09:05:24.104Z</time></trkpt><trkpt lat="32.8785733" lon="9.619005"><ele>233.0</ele><time>2026-04-21T09:05:25.103Z</time></trkpt><trkpt lat="32.8786683" lon="9.6191183"><ele>233.0</ele><time>2026-04-21T09:05:26.104Z</time></trkpt><trkpt lat="32.8787767" lon="9.61923"><ele>233.0</ele><time>2026-04-21T09:05:27.104Z</time></trkpt><trkpt lat="32.8788833" lon="9.6193317"><ele>233.0</ele><time>2026-04-21T09:05:28.104Z</time></trkpt><trkpt lat="32.8789867" lon="9.619435"><ele>233.0</ele><time>2026-04-21T09:05:29.104Z</time></trkpt><trkpt lat="32.87908" lon="9.619555"><ele>233.0</ele><time>2026-04-21T09:05:30.103Z</time></trkpt><trkpt lat="32.879155" lon="9.6196833"><ele>233.0</ele><time>2026-04-21T09:05:31.103Z</time></trkpt><trkpt lat="32.8792183" lon="9.619825"><ele>233.0</ele><time>2026-04-21T09:05:32.103Z</time></trkpt><trkpt lat="32.8793433" lon="9.62012"><ele>233.0</ele><time>2026-04-21T09:05:34.104Z</time></trkpt><trkpt lat="32.87941" lon="9.62027"><ele>233.0</ele><time>2026-04-21T09:05:35.103Z</time></trkpt><trkpt lat="32.8794767" lon="9.6204183"><ele>233.0</ele><time>2026-04-21T09:05:36.104Z</time></trkpt><trkpt lat="32.8795483" lon="9.620555"><ele>233.0</ele><time>2026-04-21T09:05:37.103Z</time></trkpt><trkpt lat="32.8796267" lon="9.6206917"><ele>233.0</ele><time>2026-04-21T09:05:38.104Z</time></trkpt><trkpt lat="32.879715" lon="9.6208133"><ele>233.0</ele><time>2026-04-21T09:05:39.104Z</time></trkpt><trkpt lat="32.8798067" lon="9.62093"><ele>233.0</ele><time>2026-04-21T09:05:40.103Z</time></trkpt><trkpt lat="32.8798883" lon="9.6210467"><ele>233.0</ele><time>2026-04-21T09:05:41.104Z</time></trkpt><trkpt lat="32.87996" lon="9.6211417"><ele>232.8</ele><time>2026-04-21T09:05:42.103Z</time></trkpt><trkpt lat="32.8800233" lon="9.62125"><ele>232.60000000000002</ele><time>2026-04-21T09:05:43.102Z</time></trkpt><trkpt lat="32.88008" lon="9.6213517"><ele>232.39999999999998</ele><time>2026-04-21T09:05:44.102Z</time></trkpt><trkpt lat="32.88015" lon="9.6214383"><ele>232.2</ele><time>2026-04-21T09:05:45.103Z</time></trkpt><trkpt lat="32.880205" lon="9.621515"><ele>232.0</ele><time>2026-04-21T09:05:46.103Z</time></trkpt><trkpt lat="32.88027" lon="9.6215567"><ele>232.0</ele><time>2026-04-21T09:05:47.102Z</time></trkpt><trkpt lat="32.88033" lon="9.6215883"><ele>232.0</ele><time>2026-04-21T09:05:48.102Z</time></trkpt><trkpt lat="32.8804467" lon="9.6215967"><ele>232.0</ele><time>2026-04-21T09:05:50.102Z</time></trkpt><trkpt lat="32.8805467" lon="9.6215733"><ele>232.0</ele><time>2026-04-21T09:05:52.102Z</time></trkpt><trkpt lat="32.8806533" lon="9.621555"><ele>232.0</ele><time>2026-04-21T09:05:54.102Z</time></trkpt><trkpt lat="32.880795" lon="9.621565"><ele>232.0</ele><time>2026-04-21T09:05:56.103Z</time></trkpt><trkpt lat="32.8808917" lon="9.6215867"><ele>232.0</ele><time>2026-04-21T09:05:57.102Z</time></trkpt><trkpt lat="32.880995" lon="9.6216133"><ele>232.0</ele><time>2026-04-21T09:05:58.103Z</time></trkpt><trkpt lat="32.88111" lon="9.62164"><ele>232.0</ele><time>2026-04-21T09:05:59.103Z</time></trkpt><trkpt lat="32.8812317" lon="9.6216567"><ele>232.0</ele><time>2026-04-21T09:06:00.102Z</time></trkpt><trkpt lat="32.8813617" lon="9.6216567"><ele>232.0</ele><time>2026-04-21T09:06:01.102Z</time></trkpt><trkpt lat="32.881495" lon="9.621655"><ele>232.0</ele><time>2026-04-21T09:06:02.102Z</time></trkpt><trkpt lat="32.8816317" lon="9.6216617"><ele>232.0</ele><time>2026-04-21T09:06:03.103Z</time></trkpt><trkpt lat="32.8817833" lon="9.6216533"><ele>232.0</ele><time>2026-04-21T09:06:04.103Z</time></trkpt><trkpt lat="32.8819483" lon="9.621645"><ele>231.66666666666666</ele><time>2026-04-21T09:06:05.102Z</time></trkpt><trkpt lat="32.8820983" lon="9.62165"><ele>231.33333333333331</ele><time>2026-04-21T09:06:06.102Z</time></trkpt><trkpt lat="32.8822533" lon="9.62166"><ele>231.0</ele><time>2026-04-21T09:06:07.103Z</time></trkpt><trkpt lat="32.8824033" lon="9.6216717"><ele>231.0</ele><time>2026-04-21T09:06:08.102Z</time></trkpt><trkpt lat="32.8825583" lon="9.6216683"><ele>231.0</ele><time>2026-04-21T09:06:09.102Z</time></trkpt><trkpt lat="32.8827133" lon="9.621675"><ele>231.0</ele><time>2026-04-21T09:06:10.103Z</time></trkpt><trkpt lat="32.8828767" lon="9.6216733"><ele>230.66666666666669</ele><time>2026-04-21T09:06:11.102Z</time></trkpt><trkpt lat="32.8830367" lon="9.62167"><ele>230.33333333333334</ele><time>2026-04-21T09:06:12.102Z</time></trkpt><trkpt lat="32.8831983" lon="9.621665"><ele>230.0</ele><time>2026-04-21T09:06:13.103Z</time></trkpt><trkpt lat="32.883355" lon="9.6216667"><ele>231.5</ele><time>2026-04-21T09:06:14.103Z</time></trkpt><trkpt lat="32.88352" lon="9.6216683"><ele>233.0</ele><time>2026-04-21T09:06:15.103Z</time></trkpt><trkpt lat="32.8838367" lon="9.6216733"><ele>233.0</ele><time>2026-04-21T09:06:17.102Z</time></trkpt><trkpt lat="32.8839983" lon="9.6216767"><ele>233.0</ele><time>2026-04-21T09:06:18.103Z</time></trkpt><trkpt lat="32.8841533" lon="9.6216833"><ele>233.0</ele><time>2026-04-21T09:06:19.102Z</time></trkpt><trkpt lat="32.8843183" lon="9.62169"><ele>232.33333333333334</ele><time>2026-04-21T09:06:20.102Z</time></trkpt><trkpt lat="32.884485" lon="9.62169"><ele>231.66666666666669</ele><time>2026-04-21T09:06:21.102Z</time></trkpt><trkpt lat="32.8846583" lon="9.6216833"><ele>231.0</ele><time>2026-04-21T09:06:22.102Z</time></trkpt><trkpt lat="32.8848183" lon="9.6216833"><ele>231.0</ele><time>2026-04-21T09:06:23.103Z</time></trkpt><trkpt lat="32.8849783" lon="9.621675"><ele>231.0</ele><time>2026-04-21T09:06:24.103Z</time></trkpt><trkpt lat="32.88514" lon="9.6216717"><ele>231.0</ele><time>2026-04-21T09:06:25.102Z</time></trkpt><trkpt lat="32.885295" lon="9.6216717"><ele>231.33333333333331</ele><time>2026-04-21T09:06:26.102Z</time></trkpt><trkpt lat="32.8854533" lon="9.6216767"><ele>231.66666666666666</ele><time>2026-04-21T09:06:27.103Z</time></trkpt><trkpt lat="32.88561" lon="9.62168"><ele>232.0</ele><time>2026-04-21T09:06:28.103Z</time></trkpt><trkpt lat="32.8857667" lon="9.62168"><ele>232.0</ele><time>2026-04-21T09:06:29.102Z</time></trkpt><trkpt lat="32.8859133" lon="9.6216817"><ele>232.0</ele><time>2026-04-21T09:06:30.102Z</time></trkpt><trkpt lat="32.8860517" lon="9.6216767"><ele>232.0</ele><time>2026-04-21T09:06:31.103Z</time></trkpt><trkpt lat="32.8861667" lon="9.6216733"><ele>232.0</ele><time>2026-04-21T09:06:32.103Z</time></trkpt><trkpt lat="32.886275" lon="9.6216733"><ele>232.0</ele><time>2026-04-21T09:06:33.102Z</time></trkpt><trkpt lat="32.88639" lon="9.6216683"><ele>232.0</ele><time>2026-04-21T09:06:34.103Z</time></trkpt><trkpt lat="32.8864967" lon="9.6216667"><ele>232.0</ele><time>2026-04-21T09:06:35.103Z</time></trkpt><trkpt lat="32.8866083" lon="9.62167"><ele>232.0</ele><time>2026-04-21T09:06:36.103Z</time></trkpt><trkpt lat="32.8868167" lon="9.6216817"><ele>231.6</ele><time>2026-04-21T09:06:38.102Z</time></trkpt><trkpt lat="32.8869217" lon="9.6216867"><ele>231.2</ele><time>2026-04-21T09:06:39.103Z</time></trkpt><trkpt lat="32.88702" lon="9.62169"><ele>230.8</ele><time>2026-04-21T09:06:40.102Z</time></trkpt><trkpt lat="32.8871133" lon="9.62169"><ele>230.4</ele><time>2026-04-21T09:06:41.102Z</time></trkpt><trkpt lat="32.8871967" lon="9.621685"><ele>230.0</ele><time>2026-04-21T09:06:42.103Z</time></trkpt><trkpt lat="32.88728" lon="9.6216833"><ele>230.00000000000003</ele><time>2026-04-21T09:06:43.103Z</time></trkpt><trkpt lat="32.8873483" lon="9.62169"><ele>230.0</ele><time>2026-04-21T09:06:44.103Z</time></trkpt><trkpt lat="32.8874183" lon="9.6216917"><ele>230.0</ele><time>2026-04-21T09:06:45.103Z</time></trkpt><trkpt lat="32.88749" lon="9.6216917"><ele>230.0</ele><time>2026-04-21T09:06:46.103Z</time></trkpt><trkpt lat="32.8875733" lon="9.6216933"><ele>230.00000000000003</ele><time>2026-04-21T09:06:47.102Z</time></trkpt><trkpt lat="32.887645" lon="9.62169"><ele>230.0</ele><time>2026-04-21T09:06:48.102Z</time></trkpt><trkpt lat="32.8877633" lon="9.6217017"><ele>230.4285714285714</ele><time>2026-04-21T09:06:50.102Z</time></trkpt><trkpt lat="32.8878267" lon="9.6217017"><ele>230.85714285714283</ele><time>2026-04-21T09:06:51.103Z</time></trkpt><trkpt lat="32.887895" lon="9.6216933"><ele>231.28571428571428</ele><time>2026-04-21T09:06:52.103Z</time></trkpt><trkpt lat="32.8879717" lon="9.6216933"><ele>231.7142857142857</ele><time>2026-04-21T09:06:53.102Z</time></trkpt><trkpt lat="32.888045" lon="9.6216933"><ele>232.1428571428571</ele><time>2026-04-21T09:06:54.102Z</time></trkpt><trkpt lat="32.8881233" lon="9.621695"><ele>232.57142857142858</ele><time>2026-04-21T09:06:55.102Z</time></trkpt><trkpt lat="32.8882017" lon="9.6216917"><ele>233.0</ele><time>2026-04-21T09:06:56.102Z</time></trkpt><trkpt lat="32.88829" lon="9.6216917"><ele>232.2</ele><time>2026-04-21T09:06:57.102Z</time></trkpt><trkpt lat="32.888445" lon="9.62168"><ele>231.4</ele><time>2026-04-21T09:06:59.103Z</time></trkpt><trkpt lat="32.88852" lon="9.6216767"><ele>230.59999999999997</ele><time>2026-04-21T09:07:00.103Z</time></trkpt><trkpt lat="32.8886067" lon="9.62168"><ele>229.79999999999998</ele><time>2026-04-21T09:07:01.102Z</time></trkpt><trkpt lat="32.8886933" lon="9.62168"><ele>229.0</ele><time>2026-04-21T09:07:02.102Z</time></trkpt><trkpt lat="32.88878" lon="9.621685"><ele>228.99999999999997</ele><time>2026-04-21T09:07:03.102Z</time></trkpt><trkpt lat="32.8888617" lon="9.6216883"><ele>229.0</ele><time>2026-04-21T09:07:04.102Z</time></trkpt><trkpt lat="32.8889533" lon="9.6216833"><ele>229.0</ele><time>2026-04-21T09:07:05.103Z</time></trkpt><trkpt lat="32.889035" lon="9.6216833"><ele>229.0</ele><time>2026-04-21T09:07:06.102Z</time></trkpt><trkpt lat="32.8891067" lon="9.62168"><ele>228.99999999999997</ele><time>2026-04-21T09:07:07.103Z</time></trkpt><trkpt lat="32.8891817" lon="9.62167"><ele>229.0</ele><time>2026-04-21T09:07:08.102Z</time></trkpt><trkpt lat="32.8892483" lon="9.6216533"><ele>228.85714285714283</ele><time>2026-04-21T09:07:09.102Z</time></trkpt><trkpt lat="32.8893233" lon="9.6216317"><ele>228.71428571428572</ele><time>2026-04-21T09:07:10.103Z</time></trkpt><trkpt lat="32.8893967" lon="9.6216117"><ele>228.57142857142856</ele><time>2026-04-21T09:07:11.102Z</time></trkpt><trkpt lat="32.889465" lon="9.6216"><ele>228.42857142857142</ele><time>2026-04-21T09:07:12.103Z</time></trkpt><trkpt lat="32.8895383" lon="9.6215983"><ele>228.28571428571428</ele><time>2026-04-21T09:07:13.102Z</time></trkpt><trkpt lat="32.8896017" lon="9.6215967"><ele>228.14285714285714</ele><time>2026-04-21T09:07:14.102Z</time></trkpt><trkpt lat="32.8896683" lon="9.6215767"><ele>228.0</ele><time>2026-04-21T09:07:15.103Z</time></trkpt><trkpt lat="32.8897333" lon="9.6215567"><ele>228.0</ele><time>2026-04-21T09:07:16.103Z</time></trkpt><trkpt lat="32.8898033" lon="9.621535"><ele>228.0</ele><time>2026-04-21T09:07:17.102Z</time></trkpt><trkpt lat="32.8898817" lon="9.6215133"><ele>228.0</ele><time>2026-04-21T09:07:18.102Z</time></trkpt><trkpt lat="32.8900167" lon="9.6214933"><ele>228.0</ele><time>2026-04-21T09:07:20.103Z</time></trkpt><trkpt lat="32.8900817" lon="9.621495"><ele>228.0</ele><time>2026-04-21T09:07:21.103Z</time></trkpt><trkpt lat="32.8901467" lon="9.62151"><ele>228.0</ele><time>2026-04-21T09:07:22.103Z</time></trkpt><trkpt lat="32.8902633" lon="9.6215517"><ele>228.0</ele><time>2026-04-21T09:07:24.103Z</time></trkpt><trkpt lat="32.890365" lon="9.621595"><ele>228.0</ele><time>2026-04-21T09:07:26.102Z</time></trkpt><trkpt lat="32.8904267" lon="9.6216367"><ele>228.0</ele><time>2026-04-21T09:07:27.102Z</time></trkpt><trkpt lat="32.8904933" lon="9.6216733"><ele>228.0</ele><time>2026-04-21T09:07:28.102Z</time></trkpt><trkpt lat="32.890555" lon="9.62171"><ele>228.0</ele><time>2026-04-21T09:07:29.102Z</time></trkpt><trkpt lat="32.890615" lon="9.6217433"><ele>228.0</ele><time>2026-04-21T09:07:30.102Z</time></trkpt><trkpt lat="32.89068" lon="9.6217533"><ele>228.0</ele><time>2026-04-21T09:07:31.102Z</time></trkpt><trkpt lat="32.89077" lon="9.62174"><ele>228.0</ele><time>2026-04-21T09:07:33.102Z</time></trkpt><trkpt lat="32.890835" lon="9.62172"><ele>228.0</ele><time>2026-04-21T09:07:35.102Z</time></trkpt><trkpt lat="32.8909133" lon="9.6217033"><ele>228.0</ele><time>2026-04-21T09:08:10.102Z</time></trkpt><trkpt lat="32.8910483" lon="9.6216367"><ele>228.0</ele><time>2026-04-21T09:08:12.103Z</time></trkpt><trkpt lat="32.89112" lon="9.6215933"><ele>227.8</ele><time>2026-04-21T09:08:13.102Z</time></trkpt><trkpt lat="32.8911967" lon="9.62155"><ele>227.60000000000002</ele><time>2026-04-21T09:08:14.103Z</time></trkpt><trkpt lat="32.8912833" lon="9.6215017"><ele>227.39999999999998</ele><time>2026-04-21T09:08:15.102Z</time></trkpt><trkpt lat="32.8913583" lon="9.6214483"><ele>227.2</ele><time>2026-04-21T09:08:16.103Z</time></trkpt><trkpt lat="32.8914433" lon="9.6213867"><ele>227.0</ele><time>2026-04-21T09:08:17.102Z</time></trkpt><trkpt lat="32.89152" lon="9.62133"><ele>227.00000000000003</ele><time>2026-04-21T09:08:18.102Z</time></trkpt><trkpt lat="32.8915967" lon="9.6212833"><ele>227.0</ele><time>2026-04-21T09:08:19.103Z</time></trkpt><trkpt lat="32.89167" lon="9.62125"><ele>227.0</ele><time>2026-04-21T09:08:20.103Z</time></trkpt><trkpt lat="32.8917517" lon="9.6212233"><ele>227.0</ele><time>2026-04-21T09:08:21.103Z</time></trkpt><trkpt lat="32.8918433" lon="9.6212083"><ele>227.00000000000003</ele><time>2026-04-21T09:08:22.103Z</time></trkpt><trkpt lat="32.891935" lon="9.621195"><ele>227.0</ele><time>2026-04-21T09:08:23.102Z</time></trkpt><trkpt lat="32.8920183" lon="9.6211833"><ele>226.85714285714286</ele><time>2026-04-21T09:08:24.102Z</time></trkpt><trkpt lat="32.89209" lon="9.621165"><ele>226.71428571428572</ele><time>2026-04-21T09:08:25.103Z</time></trkpt><trkpt lat="32.8921517" lon="9.6211383"><ele>226.57142857142858</ele><time>2026-04-21T09:08:26.102Z</time></trkpt><trkpt lat="32.8922117" lon="9.6211133"><ele>226.42857142857144</ele><time>2026-04-21T09:08:27.103Z</time></trkpt><trkpt lat="32.8922833" lon="9.6210833"><ele>226.28571428571428</ele><time>2026-04-21T09:08:28.103Z</time></trkpt><trkpt lat="32.8923533" lon="9.6210567"><ele>226.14285714285717</ele><time>2026-04-21T09:08:29.103Z</time></trkpt><trkpt lat="32.89243" lon="9.6210383"><ele>226.0</ele><time>2026-04-21T09:08:30.102Z</time></trkpt><trkpt lat="32.8925067" lon="9.621025"><ele>225.5</ele><time>2026-04-21T09:08:31.103Z</time></trkpt><trkpt lat="32.8927067" lon="9.6210983"><ele>225.0</ele><time>2026-04-21T09:08:34.103Z</time></trkpt><trkpt lat="32.8927867" lon="9.6211533"><ele>224.5</ele><time>2026-04-21T09:08:35.102Z</time></trkpt><trkpt lat="32.8928633" lon="9.6212017"><ele>224.0</ele><time>2026-04-21T09:08:36.103Z</time></trkpt><trkpt lat="32.89294" lon="9.6212483"><ele>224.0</ele><time>2026-04-21T09:08:37.103Z</time></trkpt><trkpt lat="32.8930233" lon="9.6212867"><ele>223.99999999999997</ele><time>2026-04-21T09:08:38.103Z</time></trkpt><trkpt lat="32.89311" lon="9.6213233"><ele>223.99999999999997</ele><time>2026-04-21T09:08:39.102Z</time></trkpt><trkpt lat="32.893205" lon="9.6213367"><ele>224.0</ele><time>2026-04-21T09:08:40.103Z</time></trkpt><trkpt lat="32.8932983" lon="9.6213283"><ele>224.0</ele><time>2026-04-21T09:08:41.103Z</time></trkpt><trkpt lat="32.8933917" lon="9.6213117"><ele>224.00000000000003</ele><time>2026-04-21T09:08:42.103Z</time></trkpt><trkpt lat="32.8934733" lon="9.6213017"><ele>224.0</ele><time>2026-04-21T09:08:43.103Z</time></trkpt><trkpt lat="32.893555" lon="9.6213"><ele>224.0</ele><time>2026-04-21T09:08:44.102Z</time></trkpt><trkpt lat="32.8936333" lon="9.6212967"><ele>224.0</ele><time>2026-04-21T09:08:45.102Z</time></trkpt><trkpt lat="32.8937167" lon="9.6212917"><ele>224.00000000000003</ele><time>2026-04-21T09:08:46.103Z</time></trkpt><trkpt lat="32.8937967" lon="9.6212767"><ele>224.0</ele><time>2026-04-21T09:08:47.102Z</time></trkpt><trkpt lat="32.8938617" lon="9.6212617"><ele>224.0</ele><time>2026-04-21T09:08:48.103Z</time></trkpt><trkpt lat="32.8939917" lon="9.6212433"><ele>224.0</ele><time>2026-04-21T09:08:50.102Z</time></trkpt><trkpt lat="32.8940717" lon="9.62126"><ele>224.0</ele><time>2026-04-21T09:08:51.103Z</time></trkpt><trkpt lat="32.894155" lon="9.6213"><ele>224.0</ele><time>2026-04-21T09:08:52.102Z</time></trkpt><trkpt lat="32.8943533" lon="9.621375"><ele>223.5</ele><time>2026-04-21T09:08:54.102Z</time></trkpt><trkpt lat="32.8944633" lon="9.6214083"><ele>223.0</ele><time>2026-04-21T09:08:55.103Z</time></trkpt><trkpt lat="32.8945833" lon="9.62144"><ele>222.5</ele><time>2026-04-21T09:08:56.102Z</time></trkpt><trkpt lat="32.8947033" lon="9.6214617"><ele>222.0</ele><time>2026-04-21T09:08:57.102Z</time></trkpt><trkpt lat="32.8948233" lon="9.62147"><ele>222.0</ele><time>2026-04-21T09:08:58.102Z</time></trkpt><trkpt lat="32.8949383" lon="9.6214683"><ele>222.0</ele><time>2026-04-21T09:08:59.103Z</time></trkpt><trkpt lat="32.8950433" lon="9.6214683"><ele>222.0</ele><time>2026-04-21T09:09:00.103Z</time></trkpt><trkpt lat="32.8951517" lon="9.621475"><ele>222.0</ele><time>2026-04-21T09:09:01.103Z</time></trkpt><trkpt lat="32.8952583" lon="9.6214967"><ele>222.0</ele><time>2026-04-21T09:09:02.103Z</time></trkpt><trkpt lat="32.89536" lon="9.6215167"><ele>222.2</ele><time>2026-04-21T09:09:03.101Z</time></trkpt><trkpt lat="32.89546" lon="9.621525"><ele>222.39999999999998</ele><time>2026-04-21T09:09:04.102Z</time></trkpt><trkpt lat="32.8955433" lon="9.62154"><ele>222.60000000000002</ele><time>2026-04-21T09:09:05.101Z</time></trkpt><trkpt lat="32.8956383" lon="9.6215583"><ele>222.8</ele><time>2026-04-21T09:09:06.102Z</time></trkpt><trkpt lat="32.895735" lon="9.6215583"><ele>223.0</ele><time>2026-04-21T09:09:07.102Z</time></trkpt><trkpt lat="32.8958367" lon="9.6215517"><ele>222.25</ele><time>2026-04-21T09:09:08.101Z</time></trkpt><trkpt lat="32.8959367" lon="9.62154"><ele>221.5</ele><time>2026-04-21T09:09:09.101Z</time></trkpt><trkpt lat="32.8960383" lon="9.621525"><ele>220.75</ele><time>2026-04-21T09:09:10.101Z</time></trkpt><trkpt lat="32.8961467" lon="9.6215017"><ele>220.0</ele><time>2026-04-21T09:09:11.101Z</time></trkpt><trkpt lat="32.8963467" lon="9.621465"><ele>220.0</ele><time>2026-04-21T09:09:13.101Z</time></trkpt><trkpt lat="32.8965067" lon="9.6214133"><ele>220.0</ele><time>2026-04-21T09:09:15.101Z</time></trkpt><trkpt lat="32.8965667" lon="9.6213683"><ele>220.0</ele><time>2026-04-21T09:09:16.101Z</time></trkpt><trkpt lat="32.8966583" lon="9.6212817"><ele>220.0</ele><time>2026-04-21T09:09:18.101Z</time></trkpt><trkpt lat="32.8967417" lon="9.6212417"><ele>220.0</ele><time>2026-04-21T09:09:20.102Z</time></trkpt><trkpt lat="32.896805" lon="9.621285"><ele>220.66666666666666</ele><time>2026-04-21T09:09:22.101Z</time></trkpt><trkpt lat="32.8968967" lon="9.62136"><ele>221.33333333333331</ele><time>2026-04-21T09:09:24.102Z</time></trkpt><trkpt lat="32.8969567" lon="9.6214033"><ele>222.0</ele><time>2026-04-21T09:09:25.102Z</time></trkpt><trkpt lat="32.8970233" lon="9.621445"><ele>222.66666666666669</ele><time>2026-04-21T09:09:26.102Z</time></trkpt><trkpt lat="32.8970767" lon="9.6215"><ele>223.33333333333334</ele><time>2026-04-21T09:09:27.102Z</time></trkpt><trkpt lat="32.8971717" lon="9.621575"><ele>224.0</ele><time>2026-04-21T09:09:29.102Z</time></trkpt><trkpt lat="32.8972683" lon="9.6215883"><ele>224.00000000000003</ele><time>2026-04-21T09:09:31.102Z</time></trkpt><trkpt lat="32.897335" lon="9.6215833"><ele>224.0</ele><time>2026-04-21T09:09:32.102Z</time></trkpt><trkpt lat="32.8974" lon="9.62159"><ele>224.0</ele><time>2026-04-21T09:09:33.101Z</time></trkpt><trkpt lat="32.8974733" lon="9.6215967"><ele>224.0</ele><time>2026-04-21T09:09:34.101Z</time></trkpt><trkpt lat="32.8976167" lon="9.6216367"><ele>224.00000000000003</ele><time>2026-04-21T09:09:36.102Z</time></trkpt><trkpt lat="32.8976867" lon="9.62166"><ele>224.0</ele><time>2026-04-21T09:09:37.102Z</time></trkpt><trkpt lat="32.8977617" lon="9.621685"><ele>224.16666666666669</ele><time>2026-04-21T09:09:38.101Z</time></trkpt><trkpt lat="32.8978367" lon="9.621705"><ele>224.33333333333334</ele><time>2026-04-21T09:09:39.101Z</time></trkpt><trkpt lat="32.8979117" lon="9.62172"><ele>224.5</ele><time>2026-04-21T09:09:40.101Z</time></trkpt><trkpt lat="32.897985" lon="9.6217283"><ele>224.66666666666669</ele><time>2026-04-21T09:09:41.101Z</time></trkpt><trkpt lat="32.8980567" lon="9.6217267"><ele>224.83333333333334</ele><time>2026-04-21T09:09:42.102Z</time></trkpt><trkpt lat="32.8981667" lon="9.6217067"><ele>225.0</ele><time>2026-04-21T09:09:44.101Z</time></trkpt><trkpt lat="32.8982283" lon="9.6216883"><ele>225.0</ele><time>2026-04-21T09:09:46.102Z</time></trkpt><trkpt lat="32.8981417" lon="9.6217267"><ele>225.0</ele><time>2026-04-21T09:10:26.102Z</time></trkpt><trkpt lat="32.8979517" lon="9.6217083"><ele>225.0</ele><time>2026-04-21T09:10:29.101Z</time></trkpt><trkpt lat="32.89783" lon="9.621705"><ele>225.0</ele><time>2026-04-21T09:10:31.102Z</time></trkpt><trkpt lat="32.8977667" lon="9.6216867"><ele>225.0</ele><time>2026-04-21T09:10:32.101Z</time></trkpt><trkpt lat="32.897705" lon="9.6216717"><ele>225.0</ele><time>2026-04-21T09:10:33.101Z</time></trkpt><trkpt lat="32.89758" lon="9.621645"><ele>225.0</ele><time>2026-04-21T09:10:35.101Z</time></trkpt><trkpt lat="32.8975167" lon="9.6216433"><ele>225.0</ele><time>2026-04-21T09:10:36.102Z</time></trkpt><trkpt lat="32.8974517" lon="9.621645"><ele>225.0</ele><time>2026-04-21T09:10:37.102Z</time></trkpt><trkpt lat="32.89738" lon="9.621645"><ele>225.0</ele><time>2026-04-21T09:10:38.101Z</time></trkpt><trkpt lat="32.8973117" lon="9.62164"><ele>224.8</ele><time>2026-04-21T09:10:39.102Z</time></trkpt><trkpt lat="32.8972" lon="9.6215917"><ele>224.6</ele><time>2026-04-21T09:10:41.101Z</time></trkpt><trkpt lat="32.8970817" lon="9.6215317"><ele>224.39999999999998</ele><time>2026-04-21T09:10:43.101Z</time></trkpt><trkpt lat="32.89702" lon="9.6215133"><ele>224.2</ele><time>2026-04-21T09:10:44.101Z</time></trkpt><trkpt lat="32.8969167" lon="9.621465"><ele>224.0</ele><time>2026-04-21T09:10:46.101Z</time></trkpt><trkpt lat="32.89681" lon="9.62141"><ele>224.0</ele><time>2026-04-21T09:10:48.102Z</time></trkpt><trkpt lat="32.8967183" lon="9.6214767"><ele>223.99999999999997</ele><time>2026-04-21T09:10:53.101Z</time></trkpt><trkpt lat="32.8967883" lon="9.6215233"><ele>223.99999999999997</ele><time>2026-04-21T09:15:01.101Z</time></trkpt><trkpt lat="32.8969167" lon="9.621565"><ele>224.0</ele><time>2026-04-21T09:15:09.101Z</time></trkpt><trkpt lat="32.8970017" lon="9.6215933"><ele>224.0</ele><time>2026-04-21T09:15:12.101Z</time></trkpt><trkpt lat="32.89711" lon="9.6215783"><ele>224.0</ele><time>2026-04-21T09:15:14.1Z</time></trkpt><trkpt lat="32.89723" lon="9.6215717"><ele>223.99999999999997</ele><time>2026-04-21T09:15:16.101Z</time></trkpt><trkpt lat="32.89735" lon="9.6215883"><ele>223.99999999999997</ele><time>2026-04-21T09:15:18.1Z</time></trkpt><trkpt lat="32.897475" lon="9.6216133"><ele>224.0</ele><time>2026-04-21T09:15:20.1Z</time></trkpt><trkpt lat="32.897545" lon="9.6216283"><ele>224.0</ele><time>2026-04-21T09:15:21.101Z</time></trkpt><trkpt lat="32.8976217" lon="9.6216467"><ele>224.2</ele><time>2026-04-21T09:15:22.1Z</time></trkpt><trkpt lat="32.8977583" lon="9.62169"><ele>224.39999999999998</ele><time>2026-04-21T09:15:24.1Z</time></trkpt><trkpt lat="32.89788" lon="9.6217167"><ele>224.6</ele><time>2026-04-21T09:15:26.1Z</time></trkpt><trkpt lat="32.8979467" lon="9.6217233"><ele>224.8</ele><time>2026-04-21T09:15:27.101Z</time></trkpt><trkpt lat="32.89802" lon="9.6217233"><ele>225.0</ele><time>2026-04-21T09:15:28.1Z</time></trkpt><trkpt lat="32.8980917" lon="9.6217167"><ele>225.0</ele><time>2026-04-21T09:15:29.1Z</time></trkpt><trkpt lat="32.8981767" lon="9.6216867"><ele>225.0</ele><time>2026-04-21T09:15:31.1Z</time></trkpt><trkpt lat="32.8982367" lon="9.621655"><ele>225.0</ele><time>2026-04-21T09:15:52.099Z</time></trkpt><trkpt lat="32.8984617" lon="9.621645"><ele>225.0</ele><time>2026-04-21T09:15:56.1Z</time></trkpt><trkpt lat="32.8985283" lon="9.6216333"><ele>225.0</ele><time>2026-04-21T09:15:57.099Z</time></trkpt><trkpt lat="32.898595" lon="9.6216183"><ele>225.0</ele><time>2026-04-21T09:15:58.099Z</time></trkpt><trkpt lat="32.8987033" lon="9.6215883"><ele>225.0</ele><time>2026-04-21T09:16:00.099Z</time></trkpt><trkpt lat="32.8987933" lon="9.6215133"><ele>225.0</ele><time>2026-04-21T09:16:02.1Z</time></trkpt><trkpt lat="32.8988717" lon="9.6214583"><ele>225.0</ele><time>2026-04-21T09:16:04.099Z</time></trkpt><trkpt lat="32.8989667" lon="9.6214483"><ele>225.0</ele><time>2026-04-21T09:16:06.099Z</time></trkpt><trkpt lat="32.8990283" lon="9.6214667"><ele>225.0</ele><time>2026-04-21T09:16:07.1Z</time></trkpt><trkpt lat="32.8990933" lon="9.621465"><ele>225.0</ele><time>2026-04-21T09:16:08.1Z</time></trkpt><trkpt lat="32.899215" lon="9.6214333"><ele>225.0</ele><time>2026-04-21T09:16:10.1Z</time></trkpt><trkpt lat="32.8993183" lon="9.621415"><ele>225.0</ele><time>2026-04-21T09:16:12.099Z</time></trkpt><trkpt lat="32.899425" lon="9.6214583"><ele>225.0</ele><time>2026-04-21T09:16:14.099Z</time></trkpt><trkpt lat="32.8995783" lon="9.6215967"><ele>224.6</ele><time>2026-04-21T09:16:17.1Z</time></trkpt><trkpt lat="32.89964" lon="9.621635"><ele>224.2</ele><time>2026-04-21T09:16:18.1Z</time></trkpt><trkpt lat="32.8997033" lon="9.621665"><ele>223.8</ele><time>2026-04-21T09:16:19.1Z</time></trkpt><trkpt lat="32.8998233" lon="9.6217183"><ele>223.4</ele><time>2026-04-21T09:16:21.099Z</time></trkpt><trkpt lat="32.8999333" lon="9.6217733"><ele>223.0</ele><time>2026-04-21T09:16:23.099Z</time></trkpt><trkpt lat="32.90005" lon="9.6217967"><ele>223.14285714285714</ele><time>2026-04-21T09:16:25.099Z</time></trkpt><trkpt lat="32.900115" lon="9.6218017"><ele>223.28571428571428</ele><time>2026-04-21T09:16:26.1Z</time></trkpt><trkpt lat="32.900185" lon="9.6218017"><ele>223.42857142857144</ele><time>2026-04-21T09:16:27.099Z</time></trkpt><trkpt lat="32.9002533" lon="9.6218017"><ele>223.57142857142856</ele><time>2026-04-21T09:16:28.099Z</time></trkpt><trkpt lat="32.900325" lon="9.621795"><ele>223.71428571428572</ele><time>2026-04-21T09:16:29.099Z</time></trkpt><trkpt lat="32.9003983" lon="9.6217817"><ele>223.85714285714286</ele><time>2026-04-21T09:16:30.099Z</time></trkpt><trkpt lat="32.9004667" lon="9.62177"><ele>224.0</ele><time>2026-04-21T09:16:31.1Z</time></trkpt><trkpt lat="32.9005333" lon="9.6217583"><ele>224.0</ele><time>2026-04-21T09:16:32.1Z</time></trkpt><trkpt lat="32.9006367" lon="9.6217417"><ele>223.99999999999997</ele><time>2026-04-21T09:16:34.099Z</time></trkpt><trkpt lat="32.9007067" lon="9.6217367"><ele>223.99999999999997</ele><time>2026-04-21T09:16:36.099Z</time></trkpt><trkpt lat="32.9009067" lon="9.6217283"><ele>224.0</ele><time>2026-04-21T09:16:48.1Z</time></trkpt><trkpt lat="32.90098" lon="9.6217167"><ele>224.0</ele><time>2026-04-21T09:16:49.099Z</time></trkpt><trkpt lat="32.9010533" lon="9.6217133"><ele>224.50000000000003</ele><time>2026-04-21T09:16:50.1Z</time></trkpt><trkpt lat="32.90113" lon="9.621715"><ele>225.0</ele><time>2026-04-21T09:16:51.1Z</time></trkpt><trkpt lat="32.901205" lon="9.6217133"><ele>225.5</ele><time>2026-04-21T09:16:52.099Z</time></trkpt><trkpt lat="32.901275" lon="9.6217083"><ele>226.0</ele><time>2026-04-21T09:16:53.1Z</time></trkpt><trkpt lat="32.9013467" lon="9.6216967"><ele>226.50000000000003</ele><time>2026-04-21T09:16:54.1Z</time></trkpt><trkpt lat="32.9014167" lon="9.62169"><ele>227.0</ele><time>2026-04-21T09:16:55.1Z</time></trkpt><trkpt lat="32.9015" lon="9.6216683"><ele>227.0</ele><time>2026-04-21T09:16:56.1Z</time></trkpt><trkpt lat="32.9015633" lon="9.62165"><ele>227.0</ele><time>2026-04-21T09:16:57.1Z</time></trkpt><trkpt lat="32.9016917" lon="9.62173"><ele>227.0</ele><time>2026-04-21T09:17:01.1Z</time></trkpt><trkpt lat="32.9017933" lon="9.6217417"><ele>227.0</ele><time>2026-04-21T09:17:03.1Z</time></trkpt><trkpt lat="32.9018717" lon="9.6217483"><ele>227.0</ele><time>2026-04-21T09:17:04.099Z</time></trkpt><trkpt lat="32.9019583" lon="9.6217517"><ele>226.8</ele><time>2026-04-21T09:17:05.1Z</time></trkpt><trkpt lat="32.90205" lon="9.6217583"><ele>226.6</ele><time>2026-04-21T09:17:06.1Z</time></trkpt><trkpt lat="32.9021433" lon="9.6217633"><ele>226.40000000000003</ele><time>2026-04-21T09:17:07.099Z</time></trkpt><trkpt lat="32.9022283" lon="9.6217633"><ele>226.20000000000002</ele><time>2026-04-21T09:17:08.1Z</time></trkpt><trkpt lat="32.9023167" lon="9.6217733"><ele>226.0</ele><time>2026-04-21T09:17:09.1Z</time></trkpt><trkpt lat="32.9024083" lon="9.62178"><ele>225.99999999999997</ele><time>2026-04-21T09:17:10.099Z</time></trkpt><trkpt lat="32.9025" lon="9.6217717"><ele>226.0</ele><time>2026-04-21T09:17:11.1Z</time></trkpt><trkpt lat="32.9025817" lon="9.621765"><ele>226.0</ele><time>2026-04-21T09:17:12.099Z</time></trkpt><trkpt lat="32.9026667" lon="9.6217583"><ele>226.0</ele><time>2026-04-21T09:17:13.1Z</time></trkpt><trkpt lat="32.9027483" lon="9.6217483"><ele>225.99999999999997</ele><time>2026-04-21T09:17:14.099Z</time></trkpt><trkpt lat="32.9028217" lon="9.6217433"><ele>226.0</ele><time>2026-04-21T09:17:15.1Z</time></trkpt><trkpt lat="32.9029" lon="9.6217533"><ele>225.4</ele><time>2026-04-21T09:17:16.1Z</time></trkpt><trkpt lat="32.9029833" lon="9.62176"><ele>224.8</ele><time>2026-04-21T09:17:17.1Z</time></trkpt><trkpt lat="32.9031417" lon="9.6217583"><ele>224.20000000000002</ele><time>2026-04-21T09:17:19.1Z</time></trkpt><trkpt lat="32.90323" lon="9.62175"><ele>223.60000000000002</ele><time>2026-04-21T09:17:20.1Z</time></trkpt><trkpt lat="32.9033183" lon="9.621745"><ele>223.0</ele><time>2026-04-21T09:17:21.1Z</time></trkpt><trkpt lat="32.9034067" lon="9.62174"><ele>223.33333333333331</ele><time>2026-04-21T09:17:22.099Z</time></trkpt><trkpt lat="32.9034783" lon="9.6217467"><ele>223.66666666666666</ele><time>2026-04-21T09:17:23.099Z</time></trkpt><trkpt lat="32.9035867" lon="9.621755"><ele>224.0</ele><time>2026-04-21T09:17:25.1Z</time></trkpt><trkpt lat="32.9036567" lon="9.62176"><ele>224.33333333333331</ele><time>2026-04-21T09:17:28.1Z</time></trkpt><trkpt lat="32.9037333" lon="9.6217467"><ele>224.66666666666666</ele><time>2026-04-21T09:17:33.1Z</time></trkpt><trkpt lat="32.9038183" lon="9.621745"><ele>225.0</ele><time>2026-04-21T09:17:34.099Z</time></trkpt><trkpt lat="32.9039117" lon="9.6217433"><ele>225.0</ele><time>2026-04-21T09:17:35.1Z</time></trkpt><trkpt lat="32.9040083" lon="9.6217467"><ele>225.0</ele><time>2026-04-21T09:17:36.099Z</time></trkpt><trkpt lat="32.9041083" lon="9.6217517"><ele>225.0</ele><time>2026-04-21T09:17:37.099Z</time></trkpt><trkpt lat="32.9042033" lon="9.621765"><ele>225.0</ele><time>2026-04-21T09:17:38.1Z</time></trkpt><trkpt lat="32.9043667" lon="9.62177"><ele>225.16666666666666</ele><time>2026-04-21T09:17:40.099Z</time></trkpt><trkpt lat="32.9044517" lon="9.6217583"><ele>225.33333333333331</ele><time>2026-04-21T09:17:41.099Z</time></trkpt><trkpt lat="32.9045317" lon="9.62175"><ele>225.5</ele><time>2026-04-21T09:17:42.1Z</time></trkpt><trkpt lat="32.9046167" lon="9.6217417"><ele>225.66666666666666</ele><time>2026-04-21T09:17:43.1Z</time></trkpt><trkpt lat="32.9047033" lon="9.621745"><ele>225.83333333333331</ele><time>2026-04-21T09:17:44.1Z</time></trkpt><trkpt lat="32.9047817" lon="9.6217483"><ele>226.0</ele><time>2026-04-21T09:17:45.1Z</time></trkpt><trkpt lat="32.9048617" lon="9.6217483"><ele>225.99999999999997</ele><time>2026-04-21T09:17:46.099Z</time></trkpt><trkpt lat="32.9049417" lon="9.6217533"><ele>226.0</ele><time>2026-04-21T09:17:47.1Z</time></trkpt><trkpt lat="32.9050167" lon="9.6217517"><ele>226.0</ele><time>2026-04-21T09:17:48.099Z</time></trkpt><trkpt lat="32.905085" lon="9.6217483"><ele>226.0</ele><time>2026-04-21T09:17:49.1Z</time></trkpt><trkpt lat="32.905165" lon="9.6217467"><ele>225.99999999999997</ele><time>2026-04-21T09:17:50.099Z</time></trkpt><trkpt lat="32.9052433" lon="9.62174"><ele>226.0</ele><time>2026-04-21T09:17:51.099Z</time></trkpt><trkpt lat="32.9053267" lon="9.62174"><ele>225.83333333333331</ele><time>2026-04-21T09:17:52.1Z</time></trkpt><trkpt lat="32.9054033" lon="9.6217467"><ele>225.66666666666666</ele><time>2026-04-21T09:17:53.099Z</time></trkpt><trkpt lat="32.905485" lon="9.6217517"><ele>225.5</ele><time>2026-04-21T09:17:54.1Z</time></trkpt><trkpt lat="32.9055667" lon="9.621755"><ele>225.33333333333331</ele><time>2026-04-21T09:17:55.1Z</time></trkpt><trkpt lat="32.9056517" lon="9.6217583"><ele>225.16666666666666</ele><time>2026-04-21T09:17:56.1Z</time></trkpt><trkpt lat="32.90573" lon="9.6217583"><ele>225.0</ele><time>2026-04-21T09:17:57.099Z</time></trkpt><trkpt lat="32.9058033" lon="9.6217567"><ele>225.0</ele><time>2026-04-21T09:17:58.1Z</time></trkpt><trkpt lat="32.9058783" lon="9.6217567"><ele>225.0</ele><time>2026-04-21T09:17:59.1Z</time></trkpt><trkpt lat="32.9060233" lon="9.6217583"><ele>225.0</ele><time>2026-04-21T09:18:01.1Z</time></trkpt><trkpt lat="32.9061017" lon="9.6217567"><ele>225.0</ele><time>2026-04-21T09:18:02.1Z</time></trkpt><trkpt lat="32.9061833" lon="9.6217567"><ele>225.0</ele><time>2026-04-21T09:18:03.1Z</time></trkpt><trkpt lat="32.90626" lon="9.6217533"><ele>224.66666666666666</ele><time>2026-04-21T09:18:04.1Z</time></trkpt><trkpt lat="32.9063417" lon="9.6217517"><ele>224.33333333333331</ele><time>2026-04-21T09:18:05.099Z</time></trkpt><trkpt lat="32.9064283" lon="9.621755"><ele>224.0</ele><time>2026-04-21T09:18:06.099Z</time></trkpt><trkpt lat="32.90652" lon="9.621755"><ele>223.66666666666666</ele><time>2026-04-21T09:18:07.1Z</time></trkpt><trkpt lat="32.9066083" lon="9.6217533"><ele>223.33333333333331</ele><time>2026-04-21T09:18:08.1Z</time></trkpt><trkpt lat="32.9066983" lon="9.6217567"><ele>223.0</ele><time>2026-04-21T09:18:09.1Z</time></trkpt><trkpt lat="32.9067867" lon="9.621755"><ele>222.60000000000002</ele><time>2026-04-21T09:18:10.099Z</time></trkpt><trkpt lat="32.906885" lon="9.6217483"><ele>222.20000000000002</ele><time>2026-04-21T09:18:11.099Z</time></trkpt><trkpt lat="32.906985" lon="9.62175"><ele>221.8</ele><time>2026-04-21T09:18:12.099Z</time></trkpt><trkpt lat="32.9070817" lon="9.621755"><ele>221.4</ele><time>2026-04-21T09:18:13.099Z</time></trkpt><trkpt lat="32.9071833" lon="9.6217517"><ele>221.0</ele><time>2026-04-21T09:18:14.1Z</time></trkpt><trkpt lat="32.907285" lon="9.6217517"><ele>221.0</ele><time>2026-04-21T09:18:15.1Z</time></trkpt><trkpt lat="32.9073817" lon="9.6217483"><ele>221.00000000000003</ele><time>2026-04-21T09:18:16.1Z</time></trkpt><trkpt lat="32.907475" lon="9.6217483"><ele>221.00000000000003</ele><time>2026-04-21T09:18:17.1Z</time></trkpt><trkpt lat="32.90757" lon="9.6217533"><ele>221.0</ele><time>2026-04-21T09:18:18.1Z</time></trkpt><trkpt lat="32.90766" lon="9.621765"><ele>221.0</ele><time>2026-04-21T09:18:19.099Z</time></trkpt><trkpt lat="32.9077583" lon="9.6217667"><ele>221.0</ele><time>2026-04-21T09:18:20.1Z</time></trkpt><trkpt lat="32.9079467" lon="9.62176"><ele>221.0</ele><time>2026-04-21T09:18:22.1Z</time></trkpt><trkpt lat="32.9080367" lon="9.6217517"><ele>221.0</ele><time>2026-04-21T09:18:23.1Z</time></trkpt><trkpt lat="32.9081367" lon="9.6217567"><ele>221.0</ele><time>2026-04-21T09:18:24.1Z</time></trkpt><trkpt lat="32.90823" lon="9.6217567"><ele>221.0</ele><time>2026-04-21T09:18:25.099Z</time></trkpt><trkpt lat="32.9083283" lon="9.6217583"><ele>221.00000000000003</ele><time>2026-04-21T09:18:26.099Z</time></trkpt><trkpt lat="32.908425" lon="9.621765"><ele>221.00000000000003</ele><time>2026-04-21T09:18:27.099Z</time></trkpt><trkpt lat="32.9085217" lon="9.621755"><ele>221.0</ele><time>2026-04-21T09:18:28.1Z</time></trkpt><trkpt lat="32.9086167" lon="9.6217583"><ele>221.0</ele><time>2026-04-21T09:18:29.099Z</time></trkpt><trkpt lat="32.9087117" lon="9.6217583"><ele>220.8</ele><time>2026-04-21T09:18:30.1Z</time></trkpt><trkpt lat="32.9088067" lon="9.62177"><ele>220.60000000000002</ele><time>2026-04-21T09:18:31.1Z</time></trkpt><trkpt lat="32.9088983" lon="9.6217833"><ele>220.4</ele><time>2026-04-21T09:18:32.099Z</time></trkpt><trkpt lat="32.9089917" lon="9.621785"><ele>220.2</ele><time>2026-04-21T09:18:33.099Z</time></trkpt><trkpt lat="32.9090917" lon="9.6217783"><ele>220.0</ele><time>2026-04-21T09:18:34.1Z</time></trkpt><trkpt lat="32.9092017" lon="9.621775"><ele>219.6</ele><time>2026-04-21T09:18:35.1Z</time></trkpt><trkpt lat="32.9093067" lon="9.6217733"><ele>219.2</ele><time>2026-04-21T09:18:36.1Z</time></trkpt><trkpt lat="32.9094117" lon="9.6217683"><ele>218.8</ele><time>2026-04-21T09:18:37.099Z</time></trkpt><trkpt lat="32.9095067" lon="9.6217633"><ele>218.4</ele><time>2026-04-21T09:18:38.1Z</time></trkpt><trkpt lat="32.9095983" lon="9.6217617"><ele>218.0</ele><time>2026-04-21T09:18:39.1Z</time></trkpt><trkpt lat="32.9096867" lon="9.6217633"><ele>218.0</ele><time>2026-04-21T09:18:40.1Z</time></trkpt><trkpt lat="32.9097717" lon="9.6217617"><ele>218.0</ele><time>2026-04-21T09:18:41.1Z</time></trkpt><trkpt lat="32.9099433" lon="9.6217633"><ele>218.0</ele><time>2026-04-21T09:18:43.1Z</time></trkpt><trkpt lat="32.91004" lon="9.6217667"><ele>218.0</ele><time>2026-04-21T09:18:44.099Z</time></trkpt><trkpt lat="32.9101367" lon="9.6217733"><ele>218.5</ele><time>2026-04-21T09:18:45.1Z</time></trkpt><trkpt lat="32.9103183" lon="9.6217667"><ele>219.0</ele><time>2026-04-21T09:18:47.099Z</time></trkpt><trkpt lat="32.910415" lon="9.6217567"><ele>219.5</ele><time>2026-04-21T09:18:48.098Z</time></trkpt><trkpt lat="32.9105083" lon="9.6217583"><ele>220.0</ele><time>2026-04-21T09:18:49.099Z</time></trkpt><trkpt lat="32.9106033" lon="9.6217567"><ele>220.0</ele><time>2026-04-21T09:18:50.099Z</time></trkpt><trkpt lat="32.910705" lon="9.6217567"><ele>220.0</ele><time>2026-04-21T09:18:51.099Z</time></trkpt><trkpt lat="32.9107983" lon="9.6217483"><ele>220.0</ele><time>2026-04-21T09:18:52.099Z</time></trkpt><trkpt lat="32.910895" lon="9.6217433"><ele>220.0</ele><time>2026-04-21T09:18:53.099Z</time></trkpt><trkpt lat="32.910995" lon="9.6217383"><ele>220.0</ele><time>2026-04-21T09:18:54.099Z</time></trkpt><trkpt lat="32.91109" lon="9.6217433"><ele>220.4</ele><time>2026-04-21T09:18:55.098Z</time></trkpt><trkpt lat="32.9111717" lon="9.6217483"><ele>220.8</ele><time>2026-04-21T09:18:56.099Z</time></trkpt><trkpt lat="32.9112533" lon="9.6217483"><ele>221.2</ele><time>2026-04-21T09:18:57.099Z</time></trkpt><trkpt lat="32.91134" lon="9.6217517"><ele>221.6</ele><time>2026-04-21T09:18:58.098Z</time></trkpt><trkpt lat="32.9114317" lon="9.6217533"><ele>222.0</ele><time>2026-04-21T09:18:59.099Z</time></trkpt><trkpt lat="32.9116083" lon="9.62175"><ele>222.0</ele><time>2026-04-21T09:19:01.099Z</time></trkpt><trkpt lat="32.9116883" lon="9.62175"><ele>222.0</ele><time>2026-04-21T09:19:02.098Z</time></trkpt><trkpt lat="32.91186" lon="9.6217483"><ele>222.0</ele><time>2026-04-21T09:19:05.099Z</time></trkpt><trkpt lat="32.9119433" lon="9.6217567"><ele>222.0</ele><time>2026-04-21T09:19:07.099Z</time></trkpt><trkpt lat="32.9120133" lon="9.62177"><ele>222.0</ele><time>2026-04-21T09:19:09.099Z</time></trkpt><trkpt lat="32.91208" lon="9.62177"><ele>222.0</ele><time>2026-04-21T09:19:12.099Z</time></trkpt><trkpt lat="32.9121533" lon="9.621775"><ele>222.0</ele><time>2026-04-21T09:19:21.098Z</time></trkpt><trkpt lat="32.9122167" lon="9.6217733"><ele>222.0</ele><time>2026-04-21T09:19:22.099Z</time></trkpt><trkpt lat="32.912295" lon="9.6217683"><ele>222.0</ele><time>2026-04-21T09:19:23.099Z</time></trkpt><trkpt lat="32.9125633" lon="9.621775"><ele>222.0</ele><time>2026-04-21T09:19:26.098Z</time></trkpt><trkpt lat="32.9126633" lon="9.62178"><ele>222.0</ele><time>2026-04-21T09:19:27.098Z</time></trkpt><trkpt lat="32.9127667" lon="9.6217817"><ele>222.0</ele><time>2026-04-21T09:19:28.099Z</time></trkpt><trkpt lat="32.9128767" lon="9.621785"><ele>222.0</ele><time>2026-04-21T09:19:29.098Z</time></trkpt><trkpt lat="32.91299" lon="9.621785"><ele>222.0</ele><time>2026-04-21T09:19:30.098Z</time></trkpt><trkpt lat="32.9131117" lon="9.6217867"><ele>222.0</ele><time>2026-04-21T09:19:31.099Z</time></trkpt><trkpt lat="32.913235" lon="9.6217883"><ele>222.0</ele><time>2026-04-21T09:19:32.099Z</time></trkpt><trkpt lat="32.91336" lon="9.6217783"><ele>222.0</ele><time>2026-04-21T09:19:33.098Z</time></trkpt><trkpt lat="32.9134817" lon="9.62177"><ele>222.0</ele><time>2026-04-21T09:19:34.098Z</time></trkpt><trkpt lat="32.9136067" lon="9.6217617"><ele>221.75</ele><time>2026-04-21T09:19:35.099Z</time></trkpt><trkpt lat="32.9137383" lon="9.621775"><ele>221.5</ele><time>2026-04-21T09:19:36.099Z</time></trkpt><trkpt lat="32.9138583" lon="9.6218"><ele>221.25</ele><time>2026-04-21T09:19:37.099Z</time></trkpt><trkpt lat="32.91398" lon="9.6218083"><ele>221.0</ele><time>2026-04-21T09:19:38.098Z</time></trkpt><trkpt lat="32.914105" lon="9.62181"><ele>221.0</ele><time>2026-04-21T09:19:39.098Z</time></trkpt><trkpt lat="32.9142267" lon="9.6218067"><ele>221.0</ele><time>2026-04-21T09:19:40.099Z</time></trkpt><trkpt lat="32.9143483" lon="9.6218017"><ele>221.0</ele><time>2026-04-21T09:19:41.098Z</time></trkpt><trkpt lat="32.9144683" lon="9.6217883"><ele>221.0</ele><time>2026-04-21T09:19:42.099Z</time></trkpt><trkpt lat="32.9145883" lon="9.6217883"><ele>221.0</ele><time>2026-04-21T09:19:43.098Z</time></trkpt><trkpt lat="32.9148283" lon="9.62178"><ele>221.0</ele><time>2026-04-21T09:19:45.098Z</time></trkpt><trkpt lat="32.91509" lon="9.6217733"><ele>221.0</ele><time>2026-04-21T09:19:47.099Z</time></trkpt><trkpt lat="32.915215" lon="9.621775"><ele>221.0</ele><time>2026-04-21T09:19:48.099Z</time></trkpt><trkpt lat="32.91534" lon="9.6217733"><ele>221.0</ele><time>2026-04-21T09:19:49.099Z</time></trkpt><trkpt lat="32.915465" lon="9.6217767"><ele>221.0</ele><time>2026-04-21T09:19:50.099Z</time></trkpt><trkpt lat="32.9155867" lon="9.6217783"><ele>221.0</ele><time>2026-04-21T09:19:51.098Z</time></trkpt><trkpt lat="32.9157033" lon="9.6217717"><ele>221.0</ele><time>2026-04-21T09:19:52.099Z</time></trkpt><trkpt lat="32.915825" lon="9.62177"><ele>221.0</ele><time>2026-04-21T09:19:53.098Z</time></trkpt><trkpt lat="32.9159533" lon="9.6217717"><ele>221.0</ele><time>2026-04-21T09:19:54.098Z</time></trkpt><trkpt lat="32.91608" lon="9.6217717"><ele>220.75</ele><time>2026-04-21T09:19:55.098Z</time></trkpt><trkpt lat="32.9162133" lon="9.6217717"><ele>220.5</ele><time>2026-04-21T09:19:56.099Z</time></trkpt><trkpt lat="32.916345" lon="9.6217683"><ele>220.25</ele><time>2026-04-21T09:19:57.098Z</time></trkpt><trkpt lat="32.9164817" lon="9.621765"><ele>220.0</ele><time>2026-04-21T09:19:58.099Z</time></trkpt><trkpt lat="32.9166117" lon="9.6217683"><ele>220.25</ele><time>2026-04-21T09:19:59.098Z</time></trkpt><trkpt lat="32.91674" lon="9.6217633"><ele>220.5</ele><time>2026-04-21T09:20:00.099Z</time></trkpt><trkpt lat="32.9168633" lon="9.62176"><ele>220.75</ele><time>2026-04-21T09:20:01.098Z</time></trkpt><trkpt lat="32.916985" lon="9.621765"><ele>221.0</ele><time>2026-04-21T09:20:02.098Z</time></trkpt><trkpt lat="32.917105" lon="9.6217683"><ele>221.0</ele><time>2026-04-21T09:20:03.098Z</time></trkpt><trkpt lat="32.9172333" lon="9.6217733"><ele>221.0</ele><time>2026-04-21T09:20:04.098Z</time></trkpt><trkpt lat="32.917355" lon="9.621775"><ele>221.0</ele><time>2026-04-21T09:20:05.098Z</time></trkpt><trkpt lat="32.9174767" lon="9.621765"><ele>221.0</ele><time>2026-04-21T09:20:06.098Z</time></trkpt><trkpt lat="32.9177317" lon="9.6217717"><ele>220.75</ele><time>2026-04-21T09:20:08.099Z</time></trkpt><trkpt lat="32.9178633" lon="9.62177"><ele>220.5</ele><time>2026-04-21T09:20:09.098Z</time></trkpt><trkpt lat="32.9179883" lon="9.6217667"><ele>220.25</ele><time>2026-04-21T09:20:10.098Z</time></trkpt><trkpt lat="32.9181117" lon="9.6217667"><ele>220.0</ele><time>2026-04-21T09:20:11.099Z</time></trkpt><trkpt lat="32.9182333" lon="9.6217683"><ele>220.0</ele><time>2026-04-21T09:20:12.099Z</time></trkpt><trkpt lat="32.9183483" lon="9.6217683"><ele>220.0</ele><time>2026-04-21T09:20:13.099Z</time></trkpt><trkpt lat="32.9184583" lon="9.621755"><ele>220.0</ele><time>2026-04-21T09:20:14.099Z</time></trkpt><trkpt lat="32.918545" lon="9.62174"><ele>220.0</ele><time>2026-04-21T09:20:15.098Z</time></trkpt><trkpt lat="32.91862" lon="9.6217167"><ele>220.0</ele><time>2026-04-21T09:20:16.099Z</time></trkpt><trkpt lat="32.9186933" lon="9.6216917"><ele>219.8</ele><time>2026-04-21T09:20:17.098Z</time></trkpt><trkpt lat="32.9187783" lon="9.62167"><ele>219.6</ele><time>2026-04-21T09:20:18.098Z</time></trkpt><trkpt lat="32.91887" lon="9.6216617"><ele>219.39999999999998</ele><time>2026-04-21T09:20:19.098Z</time></trkpt><trkpt lat="32.91897" lon="9.621675"><ele>219.2</ele><time>2026-04-21T09:20:20.098Z</time></trkpt><trkpt lat="32.9190817" lon="9.6216933"><ele>219.0</ele><time>2026-04-21T09:20:21.099Z</time></trkpt><trkpt lat="32.9191983" lon="9.6217083"><ele>219.5</ele><time>2026-04-21T09:20:22.098Z</time></trkpt><trkpt lat="32.9193217" lon="9.6217183"><ele>220.0</ele><time>2026-04-21T09:20:23.099Z</time></trkpt><trkpt lat="32.9194417" lon="9.62174"><ele>220.5</ele><time>2026-04-21T09:20:24.099Z</time></trkpt><trkpt lat="32.9195617" lon="9.62174"><ele>221.0</ele><time>2026-04-21T09:20:25.099Z</time></trkpt><trkpt lat="32.9196833" lon="9.62174"><ele>221.0</ele><time>2026-04-21T09:20:26.099Z</time></trkpt><trkpt lat="32.9198067" lon="9.6217383"><ele>221.0</ele><time>2026-04-21T09:20:27.099Z</time></trkpt><trkpt lat="32.9200717" lon="9.6217317"><ele>221.0</ele><time>2026-04-21T09:20:29.099Z</time></trkpt><trkpt lat="32.9203383" lon="9.6217333"><ele>221.0</ele><time>2026-04-21T09:20:31.098Z</time></trkpt><trkpt lat="32.9204667" lon="9.621735"><ele>221.0</ele><time>2026-04-21T09:20:32.099Z</time></trkpt><trkpt lat="32.9205933" lon="9.6217417"><ele>221.0</ele><time>2026-04-21T09:20:33.098Z</time></trkpt><trkpt lat="32.9207183" lon="9.62174"><ele>221.0</ele><time>2026-04-21T09:20:34.099Z</time></trkpt><trkpt lat="32.9208483" lon="9.6217367"><ele>220.5</ele><time>2026-04-21T09:20:35.099Z</time></trkpt><trkpt lat="32.9209817" lon="9.6217333"><ele>220.0</ele><time>2026-04-21T09:20:36.098Z</time></trkpt><trkpt lat="32.921115" lon="9.6217333"><ele>219.5</ele><time>2026-04-21T09:20:37.099Z</time></trkpt><trkpt lat="32.9212483" lon="9.6217333"><ele>219.0</ele><time>2026-04-21T09:20:38.098Z</time></trkpt><trkpt lat="32.9213783" lon="9.621735"><ele>219.0</ele><time>2026-04-21T09:20:39.098Z</time></trkpt><trkpt lat="32.9216317" lon="9.6217333"><ele>219.0</ele><time>2026-04-21T09:20:41.099Z</time></trkpt><trkpt lat="32.9218717" lon="9.6217567"><ele>219.25</ele><time>2026-04-21T09:20:43.099Z</time></trkpt><trkpt lat="32.9219917" lon="9.621765"><ele>219.5</ele><time>2026-04-21T09:20:44.098Z</time></trkpt><trkpt lat="32.922115" lon="9.6217717"><ele>219.75</ele><time>2026-04-21T09:20:45.099Z</time></trkpt><trkpt lat="32.9222383" lon="9.6217817"><ele>220.0</ele><time>2026-04-21T09:20:46.099Z</time></trkpt><trkpt lat="32.9223617" lon="9.621785"><ele>220.0</ele><time>2026-04-21T09:20:47.099Z</time></trkpt><trkpt lat="32.9224883" lon="9.62179"><ele>220.0</ele><time>2026-04-21T09:20:48.099Z</time></trkpt><trkpt lat="32.92274" lon="9.6217933"><ele>220.0</ele><time>2026-04-21T09:20:50.098Z</time></trkpt><trkpt lat="32.922995" lon="9.6217933"><ele>219.75</ele><time>2026-04-21T09:20:52.098Z</time></trkpt><trkpt lat="32.9231233" lon="9.6217883"><ele>219.5</ele><time>2026-04-21T09:20:53.098Z</time></trkpt><trkpt lat="32.9232483" lon="9.6217883"><ele>219.25</ele><time>2026-04-21T09:20:54.099Z</time></trkpt><trkpt lat="32.9233717" lon="9.6217867"><ele>219.0</ele><time>2026-04-21T09:20:55.098Z</time></trkpt><trkpt lat="32.9235067" lon="9.62179"><ele>218.75</ele><time>2026-04-21T09:20:56.098Z</time></trkpt><trkpt lat="32.9236317" lon="9.6217967"><ele>218.5</ele><time>2026-04-21T09:20:57.099Z</time></trkpt><trkpt lat="32.92375" lon="9.6218083"><ele>218.25</ele><time>2026-04-21T09:20:58.099Z</time></trkpt><trkpt lat="32.9238667" lon="9.62181"><ele>218.0</ele><time>2026-04-21T09:20:59.098Z</time></trkpt><trkpt lat="32.9239817" lon="9.6218233"><ele>218.0</ele><time>2026-04-21T09:21:00.098Z</time></trkpt><trkpt lat="32.9242133" lon="9.6218367"><ele>218.0</ele><time>2026-04-21T09:21:02.098Z</time></trkpt><trkpt lat="32.9243367" lon="9.621825"><ele>218.0</ele><time>2026-04-21T09:21:03.099Z</time></trkpt><trkpt lat="32.9244667" lon="9.621805"><ele>217.75</ele><time>2026-04-21T09:21:04.098Z</time></trkpt><trkpt lat="32.9245883" lon="9.62179"><ele>217.5</ele><time>2026-04-21T09:21:05.098Z</time></trkpt><trkpt lat="32.9247133" lon="9.6217733"><ele>217.25</ele><time>2026-04-21T09:21:06.099Z</time></trkpt><trkpt lat="32.9248283" lon="9.6217567"><ele>217.0</ele><time>2026-04-21T09:21:07.098Z</time></trkpt><trkpt lat="32.924945" lon="9.6217467"><ele>217.0</ele><time>2026-04-21T09:21:08.098Z</time></trkpt><trkpt lat="32.92506" lon="9.6217633"><ele>217.0</ele><time>2026-04-21T09:21:09.098Z</time></trkpt><trkpt lat="32.925295" lon="9.62183"><ele>217.0</ele><time>2026-04-21T09:21:11.099Z</time></trkpt><trkpt lat="32.9254117" lon="9.6218683"><ele>217.25</ele><time>2026-04-21T09:21:12.099Z</time></trkpt><trkpt lat="32.9255333" lon="9.6218967"><ele>217.5</ele><time>2026-04-21T09:21:13.098Z</time></trkpt><trkpt lat="32.9256567" lon="9.6219217"><ele>217.75</ele><time>2026-04-21T09:21:14.098Z</time></trkpt><trkpt lat="32.9257717" lon="9.6219467"><ele>218.0</ele><time>2026-04-21T09:21:15.098Z</time></trkpt><trkpt lat="32.925885" lon="9.621975"><ele>217.5</ele><time>2026-04-21T09:21:16.099Z</time></trkpt><trkpt lat="32.9260033" lon="9.622"><ele>217.0</ele><time>2026-04-21T09:21:17.099Z</time></trkpt><trkpt lat="32.926125" lon="9.6220133"><ele>216.5</ele><time>2026-04-21T09:21:18.099Z</time></trkpt><trkpt lat="32.9262533" lon="9.622025"><ele>216.0</ele><time>2026-04-21T09:21:19.098Z</time></trkpt><trkpt lat="32.9265117" lon="9.622045"><ele>215.66666666666669</ele><time>2026-04-21T09:21:21.098Z</time></trkpt><trkpt lat="32.9267717" lon="9.62206"><ele>215.33333333333334</ele><time>2026-04-21T09:21:23.098Z</time></trkpt><trkpt lat="32.9269033" lon="9.6220683"><ele>215.0</ele><time>2026-04-21T09:21:24.099Z</time></trkpt><trkpt lat="32.92717" lon="9.62208"><ele>215.0</ele><time>2026-04-21T09:21:26.099Z</time></trkpt><trkpt lat="32.9272967" lon="9.6220933"><ele>215.0</ele><time>2026-04-21T09:21:27.098Z</time></trkpt><trkpt lat="32.9274233" lon="9.6220933"><ele>215.0</ele><time>2026-04-21T09:21:28.099Z</time></trkpt><trkpt lat="32.9275483" lon="9.62209"><ele>215.0</ele><time>2026-04-21T09:21:29.099Z</time></trkpt><trkpt lat="32.9276867" lon="9.6220867"><ele>216.0</ele><time>2026-04-21T09:21:30.098Z</time></trkpt><trkpt lat="32.9282117" lon="9.6221117"><ele>216.0</ele><time>2026-04-21T09:21:34.098Z</time></trkpt><trkpt lat="32.9283433" lon="9.6221183"><ele>216.0</ele><time>2026-04-21T09:21:35.098Z</time></trkpt><trkpt lat="32.92847" lon="9.6221317"><ele>216.0</ele><time>2026-04-21T09:21:36.098Z</time></trkpt><trkpt lat="32.928595" lon="9.62215"><ele>216.0</ele><time>2026-04-21T09:21:37.098Z</time></trkpt><trkpt lat="32.928715" lon="9.622155"><ele>216.0</ele><time>2026-04-21T09:21:38.098Z</time></trkpt><trkpt lat="32.9288367" lon="9.6221533"><ele>216.0</ele><time>2026-04-21T09:21:39.098Z</time></trkpt><trkpt lat="32.92896" lon="9.6221517"><ele>216.0</ele><time>2026-04-21T09:21:40.098Z</time></trkpt><trkpt lat="32.9290867" lon="9.622135"><ele>216.0</ele><time>2026-04-21T09:21:41.099Z</time></trkpt><trkpt lat="32.9292117" lon="9.62211"><ele>216.0</ele><time>2026-04-21T09:21:42.098Z</time></trkpt><trkpt lat="32.9293317" lon="9.6220717"><ele>216.0</ele><time>2026-04-21T09:21:43.098Z</time></trkpt><trkpt lat="32.9295867" lon="9.6220183"><ele>216.0</ele><time>2026-04-21T09:21:45.098Z</time></trkpt><trkpt lat="32.9297183" lon="9.6219917"><ele>215.75</ele><time>2026-04-21T09:21:46.098Z</time></trkpt><trkpt lat="32.92985" lon="9.6219717"><ele>215.5</ele><time>2026-04-21T09:21:47.099Z</time></trkpt><trkpt lat="32.9299917" lon="9.621945"><ele>215.25</ele><time>2026-04-21T09:21:48.099Z</time></trkpt><trkpt lat="32.9301383" lon="9.6219283"><ele>215.0</ele><time>2026-04-21T09:21:49.099Z</time></trkpt><trkpt lat="32.9302917" lon="9.6219167"><ele>215.66666666666669</ele><time>2026-04-21T09:21:50.098Z</time></trkpt><trkpt lat="32.9304433" lon="9.6218917"><ele>216.33333333333331</ele><time>2026-04-21T09:21:51.097Z</time></trkpt><trkpt lat="32.9305867" lon="9.6218617"><ele>217.0</ele><time>2026-04-21T09:21:52.098Z</time></trkpt><trkpt lat="32.9308617" lon="9.621795"><ele>217.0</ele><time>2026-04-21T09:21:54.097Z</time></trkpt><trkpt lat="32.9309783" lon="9.6217617"><ele>217.0</ele><time>2026-04-21T09:21:55.097Z</time></trkpt><trkpt lat="32.9310833" lon="9.62171"><ele>217.0</ele><time>2026-04-21T09:21:56.098Z</time></trkpt><trkpt lat="32.9311817" lon="9.6216417"><ele>217.0</ele><time>2026-04-21T09:21:57.097Z</time></trkpt><trkpt lat="32.9312733" lon="9.6215717"><ele>217.0</ele><time>2026-04-21T09:21:58.097Z</time></trkpt><trkpt lat="32.93136" lon="9.6215233"><ele>217.0</ele><time>2026-04-21T09:21:59.098Z</time></trkpt><trkpt lat="32.93145" lon="9.621495"><ele>217.0</ele><time>2026-04-21T09:22:00.098Z</time></trkpt><trkpt lat="32.9315383" lon="9.6214917"><ele>217.0</ele><time>2026-04-21T09:22:01.098Z</time></trkpt><trkpt lat="32.931635" lon="9.6214933"><ele>217.0</ele><time>2026-04-21T09:22:02.097Z</time></trkpt><trkpt lat="32.9317433" lon="9.6214983"><ele>216.75</ele><time>2026-04-21T09:22:03.098Z</time></trkpt><trkpt lat="32.9318617" lon="9.6214983"><ele>216.5</ele><time>2026-04-21T09:22:04.098Z</time></trkpt><trkpt lat="32.9319733" lon="9.621495"><ele>216.25</ele><time>2026-04-21T09:22:05.098Z</time></trkpt><trkpt lat="32.93209" lon="9.6214883"><ele>216.0</ele><time>2026-04-21T09:22:06.097Z</time></trkpt><trkpt lat="32.9322133" lon="9.6214867"><ele>216.0</ele><time>2026-04-21T09:22:07.098Z</time></trkpt><trkpt lat="32.9323383" lon="9.6214833"><ele>216.0</ele><time>2026-04-21T09:22:08.098Z</time></trkpt><trkpt lat="32.9324533" lon="9.6214833"><ele>216.0</ele><time>2026-04-21T09:22:09.097Z</time></trkpt><trkpt lat="32.932575" lon="9.62148"><ele>216.0</ele><time>2026-04-21T09:22:10.098Z</time></trkpt><trkpt lat="32.9326933" lon="9.6214733"><ele>215.33333333333331</ele><time>2026-04-21T09:22:11.097Z</time></trkpt><trkpt lat="32.9328183" lon="9.62147"><ele>214.66666666666666</ele><time>2026-04-21T09:22:12.098Z</time></trkpt><trkpt lat="32.9329367" lon="9.6214717"><ele>214.0</ele><time>2026-04-21T09:22:13.097Z</time></trkpt><trkpt lat="32.9331917" lon="9.621465"><ele>214.0</ele><time>2026-04-21T09:22:15.098Z</time></trkpt><trkpt lat="32.9333183" lon="9.621455"><ele>214.0</ele><time>2026-04-21T09:22:16.097Z</time></trkpt><trkpt lat="32.933435" lon="9.6214467"><ele>214.0</ele><time>2026-04-21T09:22:17.098Z</time></trkpt><trkpt lat="32.933555" lon="9.62144"><ele>214.0</ele><time>2026-04-21T09:22:18.098Z</time></trkpt><trkpt lat="32.9336783" lon="9.6214333"><ele>214.25</ele><time>2026-04-21T09:22:19.097Z</time></trkpt><trkpt lat="32.9337983" lon="9.6214333"><ele>214.5</ele><time>2026-04-21T09:22:20.098Z</time></trkpt><trkpt lat="32.9339267" lon="9.6214267"><ele>214.75</ele><time>2026-04-21T09:22:21.097Z</time></trkpt><trkpt lat="32.934055" lon="9.6214183"><ele>215.0</ele><time>2026-04-21T09:22:22.098Z</time></trkpt><trkpt lat="32.93418" lon="9.6214133"><ele>214.75</ele><time>2026-04-21T09:22:23.097Z</time></trkpt><trkpt lat="32.9343" lon="9.621415"><ele>214.5</ele><time>2026-04-21T09:22:24.098Z</time></trkpt><trkpt lat="32.934425" lon="9.6214167"><ele>214.25</ele><time>2026-04-21T09:22:25.098Z</time></trkpt><trkpt lat="32.9345467" lon="9.6214117"><ele>214.0</ele><time>2026-04-21T09:22:26.098Z</time></trkpt><trkpt lat="32.9346633" lon="9.6214033"><ele>214.0</ele><time>2026-04-21T09:22:27.098Z</time></trkpt><trkpt lat="32.93491" lon="9.6213967"><ele>214.0</ele><time>2026-04-21T09:22:29.097Z</time></trkpt><trkpt lat="32.9350433" lon="9.6213933"><ele>214.0</ele><time>2026-04-21T09:22:30.097Z</time></trkpt><trkpt lat="32.93517" lon="9.6213833"><ele>214.0</ele><time>2026-04-21T09:22:31.097Z</time></trkpt><trkpt lat="32.935295" lon="9.6213883"><ele>214.0</ele><time>2026-04-21T09:22:32.097Z</time></trkpt><trkpt lat="32.93542" lon="9.6213817"><ele>214.0</ele><time>2026-04-21T09:22:33.097Z</time></trkpt><trkpt lat="32.9358117" lon="9.6213683"><ele>213.33333333333331</ele><time>2026-04-21T09:22:36.097Z</time></trkpt><trkpt lat="32.936075" lon="9.6213483"><ele>212.66666666666669</ele><time>2026-04-21T09:22:38.098Z</time></trkpt><trkpt lat="32.9362117" lon="9.6213533"><ele>212.0</ele><time>2026-04-21T09:22:39.098Z</time></trkpt><trkpt lat="32.9363417" lon="9.6213483"><ele>212.0</ele><time>2026-04-21T09:22:40.098Z</time></trkpt><trkpt lat="32.93647" lon="9.62134"><ele>212.0</ele><time>2026-04-21T09:22:41.097Z</time></trkpt><trkpt lat="32.936605" lon="9.621335"><ele>212.0</ele><time>2026-04-21T09:22:42.098Z</time></trkpt><trkpt lat="32.9367367" lon="9.621325"><ele>212.0</ele><time>2026-04-21T09:22:43.098Z</time></trkpt><trkpt lat="32.9368683" lon="9.6213217"><ele>212.25</ele><time>2026-04-21T09:22:44.098Z</time></trkpt><trkpt lat="32.936995" lon="9.62132"><ele>212.5</ele><time>2026-04-21T09:22:45.098Z</time></trkpt><trkpt lat="32.9371217" lon="9.6213133"><ele>212.75</ele><time>2026-04-21T09:22:46.097Z</time></trkpt><trkpt lat="32.9372467" lon="9.62131"><ele>213.0</ele><time>2026-04-21T09:22:47.097Z</time></trkpt><trkpt lat="32.9373533" lon="9.621305"><ele>213.0</ele><time>2026-04-21T09:22:48.098Z</time></trkpt><trkpt lat="32.937445" lon="9.6212967"><ele>213.0</ele><time>2026-04-21T09:22:49.097Z</time></trkpt><trkpt lat="32.9375383" lon="9.6212967"><ele>213.0</ele><time>2026-04-21T09:22:50.097Z</time></trkpt><trkpt lat="32.9376383" lon="9.62129"><ele>213.0</ele><time>2026-04-21T09:22:51.097Z</time></trkpt><trkpt lat="32.9377483" lon="9.6212783"><ele>213.0</ele><time>2026-04-21T09:22:52.097Z</time></trkpt><trkpt lat="32.9378667" lon="9.6212717"><ele>213.0</ele><time>2026-04-21T09:22:53.097Z</time></trkpt><trkpt lat="32.937995" lon="9.62126"><ele>213.0</ele><time>2026-04-21T09:22:54.097Z</time></trkpt><trkpt lat="32.9381217" lon="9.62126"><ele>213.0</ele><time>2026-04-21T09:22:55.098Z</time></trkpt><trkpt lat="32.93834" lon="9.6212517"><ele>213.0</ele><time>2026-04-21T09:22:57.098Z</time></trkpt><trkpt lat="32.9385133" lon="9.6212417"><ele>213.0</ele><time>2026-04-21T09:22:59.098Z</time></trkpt><trkpt lat="32.93859" lon="9.6212433"><ele>213.0</ele><time>2026-04-21T09:23:00.098Z</time></trkpt><trkpt lat="32.9386683" lon="9.6212417"><ele>213.0</ele><time>2026-04-21T09:23:01.097Z</time></trkpt><trkpt lat="32.9387517" lon="9.6212417"><ele>213.0</ele><time>2026-04-21T09:23:02.098Z</time></trkpt><trkpt lat="32.9388283" lon="9.6212433"><ele>213.0</ele><time>2026-04-21T09:23:03.098Z</time></trkpt><trkpt lat="32.9389183" lon="9.621235"><ele>213.0</ele><time>2026-04-21T09:23:04.098Z</time></trkpt><trkpt lat="32.93902" lon="9.621235"><ele>213.0</ele><time>2026-04-21T09:23:05.097Z</time></trkpt><trkpt lat="32.9391283" lon="9.6212383"><ele>213.0</ele><time>2026-04-21T09:23:06.098Z</time></trkpt><trkpt lat="32.93923" lon="9.621235"><ele>213.0</ele><time>2026-04-21T09:23:07.098Z</time></trkpt><trkpt lat="32.93932" lon="9.6212317"><ele>213.0</ele><time>2026-04-21T09:23:08.098Z</time></trkpt><trkpt lat="32.9394083" lon="9.62123"><ele>213.0</ele><time>2026-04-21T09:23:09.098Z</time></trkpt><trkpt lat="32.939585" lon="9.621215"><ele>213.0</ele><time>2026-04-21T09:23:11.098Z</time></trkpt><trkpt lat="32.93968" lon="9.6212033"><ele>213.0</ele><time>2026-04-21T09:23:12.098Z</time></trkpt><trkpt lat="32.93977" lon="9.621205"><ele>213.0</ele><time>2026-04-21T09:23:13.097Z</time></trkpt><trkpt lat="32.9398667" lon="9.6211983"><ele>213.0</ele><time>2026-04-21T09:23:14.098Z</time></trkpt><trkpt lat="32.93997" lon="9.6211917"><ele>213.0</ele><time>2026-04-21T09:23:15.098Z</time></trkpt><trkpt lat="32.940075" lon="9.6211817"><ele>213.0</ele><time>2026-04-21T09:23:16.097Z</time></trkpt><trkpt lat="32.940305" lon="9.6211667"><ele>212.75</ele><time>2026-04-21T09:23:18.098Z</time></trkpt><trkpt lat="32.9404317" lon="9.62116"><ele>212.5</ele><time>2026-04-21T09:23:19.098Z</time></trkpt><trkpt lat="32.9405583" lon="9.6211633"><ele>212.25</ele><time>2026-04-21T09:23:20.097Z</time></trkpt><trkpt lat="32.9406783" lon="9.6211633"><ele>212.0</ele><time>2026-04-21T09:23:21.097Z</time></trkpt><trkpt lat="32.940795" lon="9.6211583"><ele>212.0</ele><time>2026-04-21T09:23:22.097Z</time></trkpt><trkpt lat="32.9410067" lon="9.6211517"><ele>212.0</ele><time>2026-04-21T09:23:24.097Z</time></trkpt><trkpt lat="32.94109" lon="9.6211483"><ele>212.0</ele><time>2026-04-21T09:23:25.097Z</time></trkpt><trkpt lat="32.9411717" lon="9.6211467"><ele>212.0</ele><time>2026-04-21T09:23:26.098Z</time></trkpt><trkpt lat="32.9412533" lon="9.62115"><ele>212.16666666666669</ele><time>2026-04-21T09:23:27.098Z</time></trkpt><trkpt lat="32.9413383" lon="9.62115"><ele>212.33333333333334</ele><time>2026-04-21T09:23:28.097Z</time></trkpt><trkpt lat="32.9414183" lon="9.62115"><ele>212.5</ele><time>2026-04-21T09:23:29.098Z</time></trkpt><trkpt lat="32.9414967" lon="9.62115"><ele>212.66666666666669</ele><time>2026-04-21T09:23:30.097Z</time></trkpt><trkpt lat="32.9415683" lon="9.621155"><ele>212.83333333333334</ele><time>2026-04-21T09:23:31.097Z</time></trkpt><trkpt lat="32.9416467" lon="9.6211517"><ele>213.0</ele><time>2026-04-21T09:23:32.097Z</time></trkpt><trkpt lat="32.9417967" lon="9.62114"><ele>213.0</ele><time>2026-04-21T09:23:34.097Z</time></trkpt><trkpt lat="32.9418817" lon="9.621135"><ele>213.0</ele><time>2026-04-21T09:23:35.098Z</time></trkpt><trkpt lat="32.94198" lon="9.62113"><ele>213.0</ele><time>2026-04-21T09:23:36.098Z</time></trkpt><trkpt lat="32.9420733" lon="9.621125"><ele>213.0</ele><time>2026-04-21T09:23:37.098Z</time></trkpt><trkpt lat="32.942255" lon="9.621125"><ele>213.0</ele><time>2026-04-21T09:23:39.097Z</time></trkpt><trkpt lat="32.942335" lon="9.6211233"><ele>213.0</ele><time>2026-04-21T09:23:40.097Z</time></trkpt><trkpt lat="32.9424217" lon="9.6211183"><ele>213.0</ele><time>2026-04-21T09:23:41.098Z</time></trkpt><trkpt lat="32.9425083" lon="9.6211067"><ele>213.0</ele><time>2026-04-21T09:23:42.097Z</time></trkpt><trkpt lat="32.9427117" lon="9.6210767"><ele>212.60000000000002</ele><time>2026-04-21T09:23:44.097Z</time></trkpt><trkpt lat="32.9428183" lon="9.62107"><ele>212.20000000000002</ele><time>2026-04-21T09:23:45.098Z</time></trkpt><trkpt lat="32.942925" lon="9.6210667"><ele>211.8</ele><time>2026-04-21T09:23:46.098Z</time></trkpt><trkpt lat="32.94303" lon="9.62106"><ele>211.4</ele><time>2026-04-21T09:23:47.097Z</time></trkpt><trkpt lat="32.94314" lon="9.6210633"><ele>211.0</ele><time>2026-04-21T09:23:48.097Z</time></trkpt><trkpt lat="32.9432517" lon="9.6210667"><ele>211.0</ele><time>2026-04-21T09:23:49.097Z</time></trkpt><trkpt lat="32.9433617" lon="9.6210633"><ele>211.0</ele><time>2026-04-21T09:23:50.098Z</time></trkpt><trkpt lat="32.943475" lon="9.6210617"><ele>211.0</ele><time>2026-04-21T09:23:51.097Z</time></trkpt><trkpt lat="32.9435867" lon="9.6210617"><ele>211.0</ele><time>2026-04-21T09:23:52.098Z</time></trkpt><trkpt lat="32.94369" lon="9.6210517"><ele>211.0</ele><time>2026-04-21T09:23:53.097Z</time></trkpt><trkpt lat="32.943905" lon="9.6209933"><ele>210.8</ele><time>2026-04-21T09:23:55.097Z</time></trkpt><trkpt lat="32.94399" lon="9.6209683"><ele>210.60000000000002</ele><time>2026-04-21T09:23:56.098Z</time></trkpt><trkpt lat="32.9440583" lon="9.620945"><ele>210.4</ele><time>2026-04-21T09:23:57.098Z</time></trkpt><trkpt lat="32.9441283" lon="9.6209367"><ele>210.2</ele><time>2026-04-21T09:23:58.097Z</time></trkpt><trkpt lat="32.944315" lon="9.6210183"><ele>210.0</ele><time>2026-04-21T09:24:02.097Z</time></trkpt><trkpt lat="32.94453" lon="9.6210467"><ele>210.33333333333334</ele><time>2026-04-21T09:24:05.098Z</time></trkpt><trkpt lat="32.9446267" lon="9.621045"><ele>210.66666666666669</ele><time>2026-04-21T09:24:06.098Z</time></trkpt><trkpt lat="32.9447133" lon="9.6210417"><ele>211.0</ele><time>2026-04-21T09:24:07.098Z</time></trkpt><trkpt lat="32.9447867" lon="9.6210333"><ele>211.33333333333334</ele><time>2026-04-21T09:24:08.097Z</time></trkpt><trkpt lat="32.944855" lon="9.6210183"><ele>211.66666666666669</ele><time>2026-04-21T09:24:09.098Z</time></trkpt><trkpt lat="32.9449167" lon="9.621"><ele>212.0</ele><time>2026-04-21T09:24:10.098Z</time></trkpt><trkpt lat="32.94498" lon="9.6209933"><ele>211.8</ele><time>2026-04-21T09:24:11.098Z</time></trkpt><trkpt lat="32.945055" lon="9.6209833"><ele>211.6</ele><time>2026-04-21T09:24:12.098Z</time></trkpt><trkpt lat="32.945195" lon="9.6209883"><ele>211.4</ele><time>2026-04-21T09:24:15.097Z</time></trkpt><trkpt lat="32.9452583" lon="9.6209817"><ele>211.20000000000002</ele><time>2026-04-21T09:24:17.097Z</time></trkpt><trkpt lat="32.9453283" lon="9.620995"><ele>211.0</ele><time>2026-04-21T09:24:20.098Z</time></trkpt><trkpt lat="32.945505" lon="9.6210083"><ele>211.0</ele><time>2026-04-21T09:24:27.098Z</time></trkpt><trkpt lat="32.9456467" lon="9.6210417"><ele>211.0</ele><time>2026-04-21T09:24:29.097Z</time></trkpt><trkpt lat="32.94571" lon="9.6210433"><ele>211.0</ele><time>2026-04-21T09:24:30.098Z</time></trkpt><trkpt lat="32.945805" lon="9.6210517"><ele>211.0</ele><time>2026-04-21T09:24:32.097Z</time></trkpt><trkpt lat="32.945955" lon="9.6210833"><ele>211.25</ele><time>2026-04-21T09:24:35.098Z</time></trkpt><trkpt lat="32.9460467" lon="9.6210617"><ele>211.5</ele><time>2026-04-21T09:24:37.098Z</time></trkpt><trkpt lat="32.94622" lon="9.6210367"><ele>211.75</ele><time>2026-04-21T09:24:40.098Z</time></trkpt><trkpt lat="32.9463417" lon="9.6210267"><ele>212.0</ele><time>2026-04-21T09:24:42.098Z</time></trkpt><trkpt lat="32.9464867" lon="9.6209767"><ele>212.0</ele><time>2026-04-21T09:24:44.098Z</time></trkpt><trkpt lat="32.9465483" lon="9.6209567"><ele>212.0</ele><time>2026-04-21T09:24:45.097Z</time></trkpt><trkpt lat="32.9466117" lon="9.62095"><ele>212.0</ele><time>2026-04-21T09:24:46.097Z</time></trkpt><trkpt lat="32.9468067" lon="9.6209817"><ele>212.0</ele><time>2026-04-21T09:24:49.097Z</time></trkpt><trkpt lat="32.9468717" lon="9.621005"><ele>212.0</ele><time>2026-04-21T09:24:50.098Z</time></trkpt><trkpt lat="32.9469983" lon="9.6209817"><ele>211.6</ele><time>2026-04-21T09:24:52.096Z</time></trkpt><trkpt lat="32.9470783" lon="9.6209517"><ele>211.2</ele><time>2026-04-21T09:24:53.096Z</time></trkpt><trkpt lat="32.9471617" lon="9.6209217"><ele>210.8</ele><time>2026-04-21T09:24:54.097Z</time></trkpt><trkpt lat="32.947245" lon="9.620905"><ele>210.4</ele><time>2026-04-21T09:24:55.096Z</time></trkpt><trkpt lat="32.9473417" lon="9.6209"><ele>210.0</ele><time>2026-04-21T09:24:56.097Z</time></trkpt><trkpt lat="32.9474433" lon="9.6208983"><ele>209.75</ele><time>2026-04-21T09:24:57.097Z</time></trkpt><trkpt lat="32.94755" lon="9.620895"><ele>209.5</ele><time>2026-04-21T09:24:58.097Z</time></trkpt><trkpt lat="32.9476517" lon="9.6208917"><ele>209.25</ele><time>2026-04-21T09:24:59.096Z</time></trkpt><trkpt lat="32.9478267" lon="9.6209033"><ele>209.0</ele><time>2026-04-21T09:25:01.096Z</time></trkpt><trkpt lat="32.9478983" lon="9.6208967"><ele>209.0</ele><time>2026-04-21T09:25:02.096Z</time></trkpt><trkpt lat="32.947985" lon="9.6208933"><ele>209.0</ele><time>2026-04-21T09:25:03.096Z</time></trkpt><trkpt lat="32.9481517" lon="9.6208933"><ele>209.0</ele><time>2026-04-21T09:25:05.097Z</time></trkpt><trkpt lat="32.9482267" lon="9.6208917"><ele>209.0</ele><time>2026-04-21T09:25:06.097Z</time></trkpt><trkpt lat="32.9483717" lon="9.6208867"><ele>209.00000000000003</ele><time>2026-04-21T09:25:08.097Z</time></trkpt><trkpt lat="32.9484517" lon="9.6208817"><ele>209.0</ele><time>2026-04-21T09:25:09.097Z</time></trkpt><trkpt lat="32.9485267" lon="9.6208683"><ele>209.0</ele><time>2026-04-21T09:25:10.097Z</time></trkpt><trkpt lat="32.9486583" lon="9.6208233"><ele>209.0</ele><time>2026-04-21T09:25:12.096Z</time></trkpt><trkpt lat="32.94872" lon="9.6208067"><ele>209.00000000000003</ele><time>2026-04-21T09:25:13.097Z</time></trkpt><trkpt lat="32.9487883" lon="9.620815"><ele>209.0</ele><time>2026-04-21T09:25:14.096Z</time></trkpt><trkpt lat="32.948865" lon="9.6208383"><ele>209.00000000000003</ele><time>2026-04-21T09:25:15.096Z</time></trkpt><trkpt lat="32.9489517" lon="9.6208483"><ele>209.0</ele><time>2026-04-21T09:25:16.097Z</time></trkpt><trkpt lat="32.9490383" lon="9.6208483"><ele>209.0</ele><time>2026-04-21T09:25:17.096Z</time></trkpt><trkpt lat="32.9491267" lon="9.62085"><ele>209.0</ele><time>2026-04-21T09:25:18.096Z</time></trkpt><trkpt lat="32.9492167" lon="9.6208433"><ele>209.00000000000003</ele><time>2026-04-21T09:25:19.096Z</time></trkpt><trkpt lat="32.9493067" lon="9.620825"><ele>209.0</ele><time>2026-04-21T09:25:20.097Z</time></trkpt><trkpt lat="32.949475" lon="9.62082"><ele>209.0</ele><time>2026-04-21T09:25:22.097Z</time></trkpt><trkpt lat="32.9496467" lon="9.6208117"><ele>209.0</ele><time>2026-04-21T09:25:24.097Z</time></trkpt><trkpt lat="32.94982" lon="9.6208117"><ele>209.0</ele><time>2026-04-21T09:25:26.097Z</time></trkpt><trkpt lat="32.9499067" lon="9.62082"><ele>209.0</ele><time>2026-04-21T09:25:27.096Z</time></trkpt><trkpt lat="32.9499917" lon="9.6208217"><ele>209.2</ele><time>2026-04-21T09:25:28.097Z</time></trkpt><trkpt lat="32.9500717" lon="9.6208217"><ele>209.39999999999998</ele><time>2026-04-21T09:25:29.097Z</time></trkpt><trkpt lat="32.9501583" lon="9.62082"><ele>209.6</ele><time>2026-04-21T09:25:30.097Z</time></trkpt><trkpt lat="32.9502517" lon="9.620815"><ele>209.8</ele><time>2026-04-21T09:25:31.097Z</time></trkpt><trkpt lat="32.9504367" lon="9.620815"><ele>210.0</ele><time>2026-04-21T09:25:33.096Z</time></trkpt><trkpt lat="32.950515" lon="9.62081"><ele>210.0</ele><time>2026-04-21T09:25:34.096Z</time></trkpt><trkpt lat="32.9505933" lon="9.6208067"><ele>210.0</ele><time>2026-04-21T09:25:35.096Z</time></trkpt><trkpt lat="32.9506733" lon="9.6208"><ele>210.0</ele><time>2026-04-21T09:25:36.097Z</time></trkpt><trkpt lat="32.9507517" lon="9.6207867"><ele>210.0</ele><time>2026-04-21T09:25:37.096Z</time></trkpt><trkpt lat="32.9508217" lon="9.620775"><ele>210.0</ele><time>2026-04-21T09:25:38.097Z</time></trkpt><trkpt lat="32.9508867" lon="9.6207617"><ele>210.0</ele><time>2026-04-21T09:25:39.096Z</time></trkpt><trkpt lat="32.9510067" lon="9.6207117"><ele>208.33333333333331</ele><time>2026-04-21T09:25:41.097Z</time></trkpt><trkpt lat="32.951155" lon="9.6207117"><ele>206.66666666666666</ele><time>2026-04-21T09:25:43.097Z</time></trkpt><trkpt lat="32.9513233" lon="9.6207417"><ele>205.0</ele><time>2026-04-21T09:25:45.096Z</time></trkpt><trkpt lat="32.9514933" lon="9.62077"><ele>205.0</ele><time>2026-04-21T09:25:47.097Z</time></trkpt><trkpt lat="32.9515883" lon="9.6207717"><ele>205.0</ele><time>2026-04-21T09:25:48.096Z</time></trkpt><trkpt lat="32.9516783" lon="9.6207583"><ele>205.0</ele><time>2026-04-21T09:25:49.096Z</time></trkpt><trkpt lat="32.95178" lon="9.6207433"><ele>205.0</ele><time>2026-04-21T09:25:50.097Z</time></trkpt><trkpt lat="32.9518817" lon="9.620735"><ele>205.0</ele><time>2026-04-21T09:25:51.097Z</time></trkpt><trkpt lat="32.9519833" lon="9.62073"><ele>205.0</ele><time>2026-04-21T09:25:52.096Z</time></trkpt><trkpt lat="32.9521883" lon="9.62071"><ele>205.0</ele><time>2026-04-21T09:25:54.096Z</time></trkpt><trkpt lat="32.9523967" lon="9.6206917"><ele>205.0</ele><time>2026-04-21T09:25:56.097Z</time></trkpt><trkpt lat="32.952515" lon="9.6206833"><ele>206.75</ele><time>2026-04-21T09:25:57.096Z</time></trkpt><trkpt lat="32.95263" lon="9.6206733"><ele>208.5</ele><time>2026-04-21T09:25:58.097Z</time></trkpt><trkpt lat="32.952745" lon="9.62066"><ele>210.25</ele><time>2026-04-21T09:25:59.097Z</time></trkpt><trkpt lat="32.95286" lon="9.6206483"><ele>212.0</ele><time>2026-04-21T09:26:00.096Z</time></trkpt><trkpt lat="32.9529733" lon="9.6206433"><ele>212.0</ele><time>2026-04-21T09:26:01.096Z</time></trkpt><trkpt lat="32.9530883" lon="9.620645"><ele>212.0</ele><time>2026-04-21T09:26:02.097Z</time></trkpt><trkpt lat="32.9531983" lon="9.620655"><ele>212.0</ele><time>2026-04-21T09:26:03.096Z</time></trkpt><trkpt lat="32.9534167" lon="9.620665"><ele>212.0</ele><time>2026-04-21T09:26:05.096Z</time></trkpt><trkpt lat="32.9535083" lon="9.6206683"><ele>211.6</ele><time>2026-04-21T09:26:06.096Z</time></trkpt><trkpt lat="32.9536533" lon="9.6206667"><ele>211.2</ele><time>2026-04-21T09:26:08.096Z</time></trkpt><trkpt lat="32.9537633" lon="9.620665"><ele>210.8</ele><time>2026-04-21T09:26:10.096Z</time></trkpt><trkpt lat="32.95385" lon="9.62066"><ele>210.4</ele><time>2026-04-21T09:26:12.096Z</time></trkpt><trkpt lat="32.953925" lon="9.62066"><ele>210.0</ele><time>2026-04-21T09:26:14.096Z</time></trkpt><trkpt lat="32.9540217" lon="9.6206517"><ele>210.0</ele><time>2026-04-21T09:26:16.096Z</time></trkpt><trkpt lat="32.9540967" lon="9.6206517"><ele>210.0</ele><time>2026-04-21T09:26:17.096Z</time></trkpt><trkpt lat="32.9541867" lon="9.62065"><ele>210.0</ele><time>2026-04-21T09:26:18.096Z</time></trkpt><trkpt lat="32.954285" lon="9.6206517"><ele>210.0</ele><time>2026-04-21T09:26:19.097Z</time></trkpt><trkpt lat="32.9543933" lon="9.62065"><ele>210.0</ele><time>2026-04-21T09:26:20.096Z</time></trkpt><trkpt lat="32.95451" lon="9.620645"><ele>210.0</ele><time>2026-04-21T09:26:21.096Z</time></trkpt><trkpt lat="32.95463" lon="9.620635"><ele>210.0</ele><time>2026-04-21T09:26:22.096Z</time></trkpt><trkpt lat="32.9548583" lon="9.62063"><ele>210.0</ele><time>2026-04-21T09:26:24.096Z</time></trkpt><trkpt lat="32.9549717" lon="9.62063"><ele>209.75</ele><time>2026-04-21T09:26:25.096Z</time></trkpt><trkpt lat="32.9550883" lon="9.620635"><ele>209.5</ele><time>2026-04-21T09:26:26.096Z</time></trkpt><trkpt lat="32.955195" lon="9.6206383"><ele>209.25</ele><time>2026-04-21T09:26:27.097Z</time></trkpt><trkpt lat="32.9554067" lon="9.6206367"><ele>209.0</ele><time>2026-04-21T09:26:29.096Z</time></trkpt><trkpt lat="32.95551" lon="9.62064"><ele>209.0</ele><time>2026-04-21T09:26:30.096Z</time></trkpt><trkpt lat="32.9556067" lon="9.6206583"><ele>209.0</ele><time>2026-04-21T09:26:31.096Z</time></trkpt><trkpt lat="32.955705" lon="9.620685"><ele>209.0</ele><time>2026-04-21T09:26:32.096Z</time></trkpt><trkpt lat="32.9558017" lon="9.6207267"><ele>209.0</ele><time>2026-04-21T09:26:33.097Z</time></trkpt><trkpt lat="32.9559" lon="9.6207767"><ele>209.0</ele><time>2026-04-21T09:26:34.096Z</time></trkpt><trkpt lat="32.9560033" lon="9.6208367"><ele>209.0</ele><time>2026-04-21T09:26:35.096Z</time></trkpt><trkpt lat="32.9562" lon="9.6209333"><ele>209.0</ele><time>2026-04-21T09:26:37.097Z</time></trkpt><trkpt lat="32.956295" lon="9.6209733"><ele>209.0</ele><time>2026-04-21T09:26:38.097Z</time></trkpt><trkpt lat="32.9563833" lon="9.6210133"><ele>209.0</ele><time>2026-04-21T09:26:39.096Z</time></trkpt><trkpt lat="32.95647" lon="9.6210567"><ele>209.0</ele><time>2026-04-21T09:26:40.096Z</time></trkpt><trkpt lat="32.9565583" lon="9.6211217"><ele>209.0</ele><time>2026-04-21T09:26:41.096Z</time></trkpt><trkpt lat="32.9566367" lon="9.6211883"><ele>209.0</ele><time>2026-04-21T09:26:42.096Z</time></trkpt><trkpt lat="32.9567133" lon="9.6212667"><ele>209.0</ele><time>2026-04-21T09:26:43.097Z</time></trkpt><trkpt lat="32.95678" lon="9.6213517"><ele>209.0</ele><time>2026-04-21T09:26:44.096Z</time></trkpt><trkpt lat="32.9568467" lon="9.6214367"><ele>209.25</ele><time>2026-04-21T09:26:45.096Z</time></trkpt><trkpt lat="32.9569117" lon="9.6215283"><ele>209.5</ele><time>2026-04-21T09:26:46.097Z</time></trkpt><trkpt lat="32.9569767" lon="9.6216217"><ele>209.75</ele><time>2026-04-21T09:26:47.097Z</time></trkpt><trkpt lat="32.9570483" lon="9.621715"><ele>210.0</ele><time>2026-04-21T09:26:48.097Z</time></trkpt><trkpt lat="32.9571783" lon="9.6219017"><ele>210.0</ele><time>2026-04-21T09:26:50.097Z</time></trkpt><trkpt lat="32.9572433" lon="9.6219717"><ele>210.0</ele><time>2026-04-21T09:26:51.096Z</time></trkpt><trkpt lat="32.9573017" lon="9.622035"><ele>210.0</ele><time>2026-04-21T09:26:52.096Z</time></trkpt><trkpt lat="32.9573517" lon="9.6221017"><ele>210.0</ele><time>2026-04-21T09:26:53.097Z</time></trkpt><trkpt lat="32.9573883" lon="9.622175"><ele>210.0</ele><time>2026-04-21T09:26:54.097Z</time></trkpt><trkpt lat="32.9574233" lon="9.6222667"><ele>210.0</ele><time>2026-04-21T09:26:55.097Z</time></trkpt><trkpt lat="32.957475" lon="9.62237"><ele>210.0</ele><time>2026-04-21T09:26:56.097Z</time></trkpt><trkpt lat="32.9575333" lon="9.622465"><ele>210.0</ele><time>2026-04-21T09:26:57.096Z</time></trkpt><trkpt lat="32.9575917" lon="9.6225333"><ele>210.0</ele><time>2026-04-21T09:26:58.097Z</time></trkpt><trkpt lat="32.9576417" lon="9.6225983"><ele>210.0</ele><time>2026-04-21T09:26:59.097Z</time></trkpt><trkpt lat="32.9576817" lon="9.6226833"><ele>210.0</ele><time>2026-04-21T09:27:00.097Z</time></trkpt><trkpt lat="32.95772" lon="9.622775"><ele>210.0</ele><time>2026-04-21T09:27:01.096Z</time></trkpt><trkpt lat="32.9577517" lon="9.6228783"><ele>210.0</ele><time>2026-04-21T09:27:02.096Z</time></trkpt><trkpt lat="32.9577867" lon="9.6229833"><ele>210.0</ele><time>2026-04-21T09:27:03.096Z</time></trkpt><trkpt lat="32.9578167" lon="9.62309"><ele>210.0</ele><time>2026-04-21T09:27:04.097Z</time></trkpt><trkpt lat="32.957845" lon="9.6231933"><ele>210.0</ele><time>2026-04-21T09:27:05.096Z</time></trkpt><trkpt lat="32.95788" lon="9.6233"><ele>210.0</ele><time>2026-04-21T09:27:06.096Z</time></trkpt><trkpt lat="32.9579067" lon="9.62342"><ele>210.0</ele><time>2026-04-21T09:27:07.096Z</time></trkpt><trkpt lat="32.9579333" lon="9.623535"><ele>210.0</ele><time>2026-04-21T09:27:08.097Z</time></trkpt><trkpt lat="32.95796" lon="9.6236467"><ele>210.0</ele><time>2026-04-21T09:27:09.097Z</time></trkpt><trkpt lat="32.9580117" lon="9.6238367"><ele>210.0</ele><time>2026-04-21T09:27:11.096Z</time></trkpt><trkpt lat="32.9580417" lon="9.6239217"><ele>210.0</ele><time>2026-04-21T09:27:12.096Z</time></trkpt><trkpt lat="32.9580733" lon="9.62401"><ele>209.2</ele><time>2026-04-21T09:27:13.097Z</time></trkpt><trkpt lat="32.95811" lon="9.6241067"><ele>208.4</ele><time>2026-04-21T09:27:14.097Z</time></trkpt><trkpt lat="32.95816" lon="9.62419"><ele>207.60000000000002</ele><time>2026-04-21T09:27:15.096Z</time></trkpt><trkpt lat="32.9582217" lon="9.6242767"><ele>206.8</ele><time>2026-04-21T09:27:16.096Z</time></trkpt><trkpt lat="32.9582867" lon="9.6243583"><ele>206.0</ele><time>2026-04-21T09:27:17.097Z</time></trkpt><trkpt lat="32.9583467" lon="9.6244433"><ele>206.60000000000002</ele><time>2026-04-21T09:27:18.097Z</time></trkpt><trkpt lat="32.958415" lon="9.6245267"><ele>207.2</ele><time>2026-04-21T09:27:19.097Z</time></trkpt><trkpt lat="32.9584867" lon="9.6246117"><ele>207.8</ele><time>2026-04-21T09:27:20.097Z</time></trkpt><trkpt lat="32.9585683" lon="9.62469"><ele>208.39999999999998</ele><time>2026-04-21T09:27:21.096Z</time></trkpt><trkpt lat="32.95865" lon="9.62477"><ele>209.0</ele><time>2026-04-21T09:27:22.096Z</time></trkpt><trkpt lat="32.9587267" lon="9.62486"><ele>209.0</ele><time>2026-04-21T09:27:23.096Z</time></trkpt><trkpt lat="32.9588083" lon="9.6249533"><ele>209.0</ele><time>2026-04-21T09:27:24.097Z</time></trkpt><trkpt lat="32.9588767" lon="9.6250533"><ele>209.0</ele><time>2026-04-21T09:27:25.097Z</time></trkpt><trkpt lat="32.958945" lon="9.6251533"><ele>209.0</ele><time>2026-04-21T09:27:26.097Z</time></trkpt><trkpt lat="32.9590067" lon="9.625265"><ele>209.0</ele><time>2026-04-21T09:27:27.097Z</time></trkpt><trkpt lat="32.9590717" lon="9.6253783"><ele>209.33333333333334</ele><time>2026-04-21T09:27:28.097Z</time></trkpt><trkpt lat="32.9591367" lon="9.62549"><ele>209.66666666666669</ele><time>2026-04-21T09:27:29.097Z</time></trkpt><trkpt lat="32.95921" lon="9.6256033"><ele>210.0</ele><time>2026-04-21T09:27:30.097Z</time></trkpt><trkpt lat="32.9593433" lon="9.6258283"><ele>210.0</ele><time>2026-04-21T09:27:32.097Z</time></trkpt><trkpt lat="32.95941" lon="9.6259533"><ele>210.0</ele><time>2026-04-21T09:27:33.097Z</time></trkpt><trkpt lat="32.95948" lon="9.6260683"><ele>210.0</ele><time>2026-04-21T09:27:34.097Z</time></trkpt><trkpt lat="32.9595517" lon="9.62619"><ele>210.0</ele><time>2026-04-21T09:27:35.096Z</time></trkpt><trkpt lat="32.9596167" lon="9.6263067"><ele>209.33333333333331</ele><time>2026-04-21T09:27:36.096Z</time></trkpt><trkpt lat="32.959685" lon="9.6264267"><ele>208.66666666666666</ele><time>2026-04-21T09:27:37.096Z</time></trkpt><trkpt lat="32.9598267" lon="9.6266733"><ele>208.0</ele><time>2026-04-21T09:27:39.097Z</time></trkpt><trkpt lat="32.9599633" lon="9.6269083"><ele>208.0</ele><time>2026-04-21T09:27:41.096Z</time></trkpt><trkpt lat="32.96003" lon="9.6270233"><ele>208.0</ele><time>2026-04-21T09:27:42.096Z</time></trkpt><trkpt lat="32.960105" lon="9.6271317"><ele>208.0</ele><time>2026-04-21T09:27:43.096Z</time></trkpt><trkpt lat="32.9601817" lon="9.627245"><ele>208.0</ele><time>2026-04-21T09:27:44.096Z</time></trkpt><trkpt lat="32.9602617" lon="9.62735"><ele>208.25</ele><time>2026-04-21T09:27:45.096Z</time></trkpt><trkpt lat="32.96035" lon="9.62746"><ele>208.5</ele><time>2026-04-21T09:27:46.097Z</time></trkpt><trkpt lat="32.960435" lon="9.6275617"><ele>208.75</ele><time>2026-04-21T09:27:47.096Z</time></trkpt><trkpt lat="32.9605217" lon="9.627655"><ele>209.0</ele><time>2026-04-21T09:27:48.096Z</time></trkpt><trkpt lat="32.9606267" lon="9.6277417"><ele>209.0</ele><time>2026-04-21T09:27:49.095Z</time></trkpt><trkpt lat="32.96083" lon="9.6279083"><ele>209.0</ele><time>2026-04-21T09:27:51.096Z</time></trkpt><trkpt lat="32.9610317" lon="9.62809"><ele>209.0</ele><time>2026-04-21T09:27:53.095Z</time></trkpt><trkpt lat="32.9611283" lon="9.628185"><ele>209.0</ele><time>2026-04-21T09:27:54.096Z</time></trkpt><trkpt lat="32.9612233" lon="9.6282833"><ele>209.0</ele><time>2026-04-21T09:27:55.095Z</time></trkpt><trkpt lat="32.96131" lon="9.628375"><ele>209.0</ele><time>2026-04-21T09:27:56.096Z</time></trkpt><trkpt lat="32.961395" lon="9.628465"><ele>209.0</ele><time>2026-04-21T09:27:57.096Z</time></trkpt><trkpt lat="32.96148" lon="9.6285567"><ele>209.0</ele><time>2026-04-21T09:27:58.096Z</time></trkpt><trkpt lat="32.9615783" lon="9.6286433"><ele>209.0</ele><time>2026-04-21T09:27:59.095Z</time></trkpt><trkpt lat="32.9616667" lon="9.6287167"><ele>209.0</ele><time>2026-04-21T09:28:00.096Z</time></trkpt><trkpt lat="32.9618533" lon="9.6288217"><ele>209.66666666666669</ele><time>2026-04-21T09:28:02.095Z</time></trkpt><trkpt lat="32.9620617" lon="9.6289683"><ele>210.33333333333331</ele><time>2026-04-21T09:28:04.095Z</time></trkpt><trkpt lat="32.9621533" lon="9.6290533"><ele>211.0</ele><time>2026-04-21T09:28:05.096Z</time></trkpt><trkpt lat="32.9622417" lon="9.6291233"><ele>210.99999999999997</ele><time>2026-04-21T09:28:06.095Z</time></trkpt><trkpt lat="32.9623283" lon="9.6291867"><ele>211.0</ele><time>2026-04-21T09:28:07.096Z</time></trkpt><trkpt lat="32.9624033" lon="9.6292433"><ele>211.0</ele><time>2026-04-21T09:28:08.096Z</time></trkpt><trkpt lat="32.9624883" lon="9.6292783"><ele>211.0</ele><time>2026-04-21T09:28:09.095Z</time></trkpt><trkpt lat="32.9625617" lon="9.629295"><ele>210.99999999999997</ele><time>2026-04-21T09:28:10.096Z</time></trkpt><trkpt lat="32.9626267" lon="9.6292933"><ele>211.0</ele><time>2026-04-21T09:28:11.095Z</time></trkpt><trkpt lat="32.9627617" lon="9.6292867"><ele>211.66666666666666</ele><time>2026-04-21T09:28:13.095Z</time></trkpt><trkpt lat="32.9630183" lon="9.62927"><ele>212.33333333333331</ele><time>2026-04-21T09:28:16.095Z</time></trkpt><trkpt lat="32.9631183" lon="9.6292717"><ele>213.0</ele><time>2026-04-21T09:28:17.095Z</time></trkpt><trkpt lat="32.96322" lon="9.6292783"><ele>213.0</ele><time>2026-04-21T09:28:18.096Z</time></trkpt><trkpt lat="32.9633167" lon="9.6292817"><ele>213.0</ele><time>2026-04-21T09:28:19.095Z</time></trkpt><trkpt lat="32.9634117" lon="9.6292883"><ele>213.0</ele><time>2026-04-21T09:28:20.095Z</time></trkpt><trkpt lat="32.9635067" lon="9.6292917"><ele>213.0</ele><time>2026-04-21T09:28:21.095Z</time></trkpt><trkpt lat="32.9636" lon="9.6292933"><ele>213.0</ele><time>2026-04-21T09:28:22.095Z</time></trkpt><trkpt lat="32.9636933" lon="9.6293067"><ele>212.4</ele><time>2026-04-21T09:28:23.096Z</time></trkpt><trkpt lat="32.9637833" lon="9.6293367"><ele>211.8</ele><time>2026-04-21T09:28:24.096Z</time></trkpt><trkpt lat="32.9638767" lon="9.6293667"><ele>211.2</ele><time>2026-04-21T09:28:25.096Z</time></trkpt><trkpt lat="32.9639767" lon="9.6293917"><ele>210.6</ele><time>2026-04-21T09:28:26.095Z</time></trkpt><trkpt lat="32.9640817" lon="9.6294183"><ele>210.0</ele><time>2026-04-21T09:28:27.096Z</time></trkpt><trkpt lat="32.96419" lon="9.629445"><ele>210.0</ele><time>2026-04-21T09:28:28.095Z</time></trkpt><trkpt lat="32.9643083" lon="9.6294667"><ele>210.0</ele><time>2026-04-21T09:28:29.096Z</time></trkpt><trkpt lat="32.9644283" lon="9.6294783"><ele>210.0</ele><time>2026-04-21T09:28:30.096Z</time></trkpt><trkpt lat="32.964555" lon="9.6294933"><ele>210.0</ele><time>2026-04-21T09:28:31.095Z</time></trkpt><trkpt lat="32.9646833" lon="9.6295117"><ele>210.66666666666669</ele><time>2026-04-21T09:28:32.096Z</time></trkpt><trkpt lat="32.9648033" lon="9.6295367"><ele>211.33333333333334</ele><time>2026-04-21T09:28:33.096Z</time></trkpt><trkpt lat="32.9650533" lon="9.6295767"><ele>212.0</ele><time>2026-04-21T09:28:35.095Z</time></trkpt><trkpt lat="32.9654433" lon="9.6296467"><ele>212.0</ele><time>2026-04-21T09:28:38.096Z</time></trkpt><trkpt lat="32.9655733" lon="9.629675"><ele>212.0</ele><time>2026-04-21T09:28:39.095Z</time></trkpt><trkpt lat="32.965715" lon="9.6297033"><ele>212.0</ele><time>2026-04-21T09:28:40.095Z</time></trkpt><trkpt lat="32.965855" lon="9.62973"><ele>212.0</ele><time>2026-04-21T09:28:41.096Z</time></trkpt><trkpt lat="32.966005" lon="9.62975"><ele>211.66666666666669</ele><time>2026-04-21T09:28:42.096Z</time></trkpt><trkpt lat="32.9661567" lon="9.6297733"><ele>211.33333333333331</ele><time>2026-04-21T09:28:43.095Z</time></trkpt><trkpt lat="32.9663117" lon="9.6297983"><ele>211.0</ele><time>2026-04-21T09:28:44.095Z</time></trkpt><trkpt lat="32.9664717" lon="9.6298333"><ele>211.0</ele><time>2026-04-21T09:28:45.095Z</time></trkpt><trkpt lat="32.9666317" lon="9.6298633"><ele>211.0</ele><time>2026-04-21T09:28:46.095Z</time></trkpt><trkpt lat="32.9667917" lon="9.6298917"><ele>211.0</ele><time>2026-04-21T09:28:47.096Z</time></trkpt><trkpt lat="32.96694" lon="9.6299217"><ele>209.5</ele><time>2026-04-21T09:28:48.096Z</time></trkpt><trkpt lat="32.9670733" lon="9.6299517"><ele>208.0</ele><time>2026-04-21T09:28:49.096Z</time></trkpt><trkpt lat="32.9671933" lon="9.6299817"><ele>206.5</ele><time>2026-04-21T09:28:50.096Z</time></trkpt><trkpt lat="32.967305" lon="9.6300117"><ele>205.0</ele><time>2026-04-21T09:28:51.096Z</time></trkpt><trkpt lat="32.96742" lon="9.63003"><ele>205.25</ele><time>2026-04-21T09:28:52.096Z</time></trkpt><trkpt lat="32.9675367" lon="9.630045"><ele>205.5</ele><time>2026-04-21T09:28:53.095Z</time></trkpt><trkpt lat="32.9676633" lon="9.630065"><ele>205.75</ele><time>2026-04-21T09:28:54.096Z</time></trkpt><trkpt lat="32.96778" lon="9.6300783"><ele>206.0</ele><time>2026-04-21T09:28:55.095Z</time></trkpt><trkpt lat="32.9679067" lon="9.6300933"><ele>206.0</ele><time>2026-04-21T09:28:56.096Z</time></trkpt><trkpt lat="32.9682983" lon="9.630155"><ele>206.0</ele><time>2026-04-21T09:28:59.096Z</time></trkpt><trkpt lat="32.9684167" lon="9.6301717"><ele>207.5</ele><time>2026-04-21T09:29:00.095Z</time></trkpt><trkpt lat="32.9685333" lon="9.6301917"><ele>209.0</ele><time>2026-04-21T09:29:01.095Z</time></trkpt><trkpt lat="32.9686533" lon="9.6302033"><ele>210.5</ele><time>2026-04-21T09:29:02.096Z</time></trkpt><trkpt lat="32.9687633" lon="9.63021"><ele>212.0</ele><time>2026-04-21T09:29:03.095Z</time></trkpt><trkpt lat="32.9688667" lon="9.630215"><ele>212.0</ele><time>2026-04-21T09:29:04.095Z</time></trkpt><trkpt lat="32.9689767" lon="9.63022"><ele>212.0</ele><time>2026-04-21T09:29:05.096Z</time></trkpt><trkpt lat="32.9690867" lon="9.63023"><ele>212.0</ele><time>2026-04-21T09:29:06.095Z</time></trkpt><trkpt lat="32.9693083" lon="9.630265"><ele>212.0</ele><time>2026-04-21T09:29:08.096Z</time></trkpt><trkpt lat="32.96942" lon="9.63029"><ele>212.6</ele><time>2026-04-21T09:29:09.095Z</time></trkpt><trkpt lat="32.9695217" lon="9.6303117"><ele>213.2</ele><time>2026-04-21T09:29:10.096Z</time></trkpt><trkpt lat="32.96963" lon="9.63032"><ele>213.8</ele><time>2026-04-21T09:29:11.095Z</time></trkpt><trkpt lat="32.9697467" lon="9.630335"><ele>214.4</ele><time>2026-04-21T09:29:12.095Z</time></trkpt><trkpt lat="32.9698533" lon="9.6303567"><ele>215.0</ele><time>2026-04-21T09:29:13.095Z</time></trkpt><trkpt lat="32.9699467" lon="9.630375"><ele>214.5</ele><time>2026-04-21T09:29:14.095Z</time></trkpt><trkpt lat="32.97005" lon="9.6303917"><ele>214.0</ele><time>2026-04-21T09:29:15.096Z</time></trkpt><trkpt lat="32.9701617" lon="9.6304"><ele>213.5</ele><time>2026-04-21T09:29:16.095Z</time></trkpt><trkpt lat="32.9702717" lon="9.6303917"><ele>213.0</ele><time>2026-04-21T09:29:17.095Z</time></trkpt><trkpt lat="32.9705917" lon="9.630395"><ele>213.0</ele><time>2026-04-21T09:29:20.095Z</time></trkpt><trkpt lat="32.9707017" lon="9.630415"><ele>213.0</ele><time>2026-04-21T09:29:21.095Z</time></trkpt><trkpt lat="32.97081" lon="9.6304383"><ele>213.0</ele><time>2026-04-21T09:29:22.095Z</time></trkpt><trkpt lat="32.9709283" lon="9.6304633"><ele>213.0</ele><time>2026-04-21T09:29:23.096Z</time></trkpt><trkpt lat="32.9710367" lon="9.63049"><ele>212.25</ele><time>2026-04-21T09:29:24.095Z</time></trkpt><trkpt lat="32.9711433" lon="9.6305133"><ele>211.5</ele><time>2026-04-21T09:29:25.095Z</time></trkpt><trkpt lat="32.9712533" lon="9.63054"><ele>210.75</ele><time>2026-04-21T09:29:26.096Z</time></trkpt><trkpt lat="32.9713667" lon="9.63056"><ele>210.0</ele><time>2026-04-21T09:29:27.095Z</time></trkpt><trkpt lat="32.97155" lon="9.6306"><ele>210.0</ele><time>2026-04-21T09:29:29.096Z</time></trkpt><trkpt lat="32.9716417" lon="9.63062"><ele>210.0</ele><time>2026-04-21T09:29:30.096Z</time></trkpt><trkpt lat="32.971735" lon="9.6306467"><ele>210.0</ele><time>2026-04-21T09:29:31.096Z</time></trkpt><trkpt lat="32.9718317" lon="9.6306683"><ele>210.0</ele><time>2026-04-21T09:29:32.095Z</time></trkpt><trkpt lat="32.97193" lon="9.6306917"><ele>210.0</ele><time>2026-04-21T09:29:33.096Z</time></trkpt><trkpt lat="32.97202" lon="9.6307217"><ele>209.75</ele><time>2026-04-21T09:29:34.096Z</time></trkpt><trkpt lat="32.972115" lon="9.630745"><ele>209.5</ele><time>2026-04-21T09:29:35.095Z</time></trkpt><trkpt lat="32.9722133" lon="9.6307717"><ele>209.25</ele><time>2026-04-21T09:29:36.096Z</time></trkpt><trkpt lat="32.9723133" lon="9.6308"><ele>209.0</ele><time>2026-04-21T09:29:37.095Z</time></trkpt><trkpt lat="32.9725333" lon="9.630845"><ele>209.0</ele><time>2026-04-21T09:29:39.096Z</time></trkpt><trkpt lat="32.9728767" lon="9.630925"><ele>209.0</ele><time>2026-04-21T09:29:42.096Z</time></trkpt><trkpt lat="32.9729817" lon="9.6309533"><ele>209.0</ele><time>2026-04-21T09:29:43.095Z</time></trkpt><trkpt lat="32.9730917" lon="9.63099"><ele>209.0</ele><time>2026-04-21T09:29:44.096Z</time></trkpt><trkpt lat="32.9731967" lon="9.6310217"><ele>209.0</ele><time>2026-04-21T09:29:45.095Z</time></trkpt><trkpt lat="32.97331" lon="9.6310567"><ele>209.0</ele><time>2026-04-21T09:29:46.096Z</time></trkpt><trkpt lat="32.9734267" lon="9.631085"><ele>209.6</ele><time>2026-04-21T09:29:47.096Z</time></trkpt><trkpt lat="32.97354" lon="9.6311117"><ele>210.2</ele><time>2026-04-21T09:29:48.096Z</time></trkpt><trkpt lat="32.9736467" lon="9.6311283"><ele>210.79999999999998</ele><time>2026-04-21T09:29:49.096Z</time></trkpt><trkpt lat="32.973755" lon="9.6311433"><ele>211.39999999999998</ele><time>2026-04-21T09:29:50.095Z</time></trkpt><trkpt lat="32.9738683" lon="9.6311633"><ele>212.0</ele><time>2026-04-21T09:29:51.096Z</time></trkpt><trkpt lat="32.9740933" lon="9.6312267"><ele>213.25</ele><time>2026-04-21T09:29:53.095Z</time></trkpt><trkpt lat="32.9742133" lon="9.63126"><ele>214.5</ele><time>2026-04-21T09:29:54.095Z</time></trkpt><trkpt lat="32.9743267" lon="9.6312933"><ele>215.75</ele><time>2026-04-21T09:29:55.096Z</time></trkpt><trkpt lat="32.9744417" lon="9.63132"><ele>217.0</ele><time>2026-04-21T09:29:56.095Z</time></trkpt><trkpt lat="32.9745533" lon="9.6313417"><ele>217.0</ele><time>2026-04-21T09:29:57.095Z</time></trkpt><trkpt lat="32.9746483" lon="9.6313583"><ele>217.0</ele><time>2026-04-21T09:29:58.096Z</time></trkpt><trkpt lat="32.9747417" lon="9.6313733"><ele>217.0</ele><time>2026-04-21T09:29:59.095Z</time></trkpt><trkpt lat="32.9748267" lon="9.6313867"><ele>217.0</ele><time>2026-04-21T09:30:00.096Z</time></trkpt><trkpt lat="32.9750183" lon="9.6314383"><ele>215.99999999999997</ele><time>2026-04-21T09:30:03.095Z</time></trkpt><trkpt lat="32.97509" lon="9.631485"><ele>215.0</ele><time>2026-04-21T09:30:04.096Z</time></trkpt><trkpt lat="32.9751617" lon="9.6315233"><ele>214.0</ele><time>2026-04-21T09:30:05.096Z</time></trkpt><trkpt lat="32.9752333" lon="9.6315633"><ele>213.0</ele><time>2026-04-21T09:30:06.096Z</time></trkpt><trkpt lat="32.9753167" lon="9.6316"><ele>211.99999999999997</ele><time>2026-04-21T09:30:07.096Z</time></trkpt><trkpt lat="32.9753983" lon="9.6316467"><ele>211.0</ele><time>2026-04-21T09:30:08.096Z</time></trkpt><trkpt lat="32.9754867" lon="9.631685"><ele>211.0</ele><time>2026-04-21T09:30:09.095Z</time></trkpt><trkpt lat="32.9755633" lon="9.631725"><ele>211.0</ele><time>2026-04-21T09:30:10.096Z</time></trkpt><trkpt lat="32.9756417" lon="9.63177"><ele>211.0</ele><time>2026-04-21T09:30:11.095Z</time></trkpt><trkpt lat="32.9758183" lon="9.6318517"><ele>211.0</ele><time>2026-04-21T09:30:13.095Z</time></trkpt><trkpt lat="32.9759033" lon="9.63189"><ele>210.83333333333331</ele><time>2026-04-21T09:30:14.096Z</time></trkpt><trkpt lat="32.9759783" lon="9.631915"><ele>210.66666666666666</ele><time>2026-04-21T09:30:15.095Z</time></trkpt><trkpt lat="32.97604" lon="9.6319417"><ele>210.5</ele><time>2026-04-21T09:30:16.095Z</time></trkpt><trkpt lat="32.9761233" lon="9.6320083"><ele>210.33333333333331</ele><time>2026-04-21T09:30:18.095Z</time></trkpt><trkpt lat="32.976185" lon="9.6320583"><ele>210.16666666666666</ele><time>2026-04-21T09:30:20.096Z</time></trkpt><trkpt lat="32.9762567" lon="9.6321067"><ele>210.0</ele><time>2026-04-21T09:30:33.095Z</time></trkpt><trkpt lat="32.9764467" lon="9.6322267"><ele>210.0</ele><time>2026-04-21T09:30:36.095Z</time></trkpt><trkpt lat="32.9765333" lon="9.632275"><ele>210.0</ele><time>2026-04-21T09:30:37.096Z</time></trkpt><trkpt lat="32.9767433" lon="9.632385"><ele>210.0</ele><time>2026-04-21T09:30:39.096Z</time></trkpt><trkpt lat="32.9769633" lon="9.63251"><ele>210.0</ele><time>2026-04-21T09:30:41.096Z</time></trkpt><trkpt lat="32.9770883" lon="9.6325733"><ele>210.0</ele><time>2026-04-21T09:30:42.096Z</time></trkpt><trkpt lat="32.9772067" lon="9.63265"><ele>210.0</ele><time>2026-04-21T09:30:43.094Z</time></trkpt><trkpt lat="32.9774267" lon="9.6327817"><ele>210.4</ele><time>2026-04-21T09:30:45.095Z</time></trkpt><trkpt lat="32.9775217" lon="9.6328367"><ele>210.8</ele><time>2026-04-21T09:30:46.095Z</time></trkpt><trkpt lat="32.9775933" lon="9.63288"><ele>211.2</ele><time>2026-04-21T09:30:47.095Z</time></trkpt><trkpt lat="32.9776517" lon="9.6329133"><ele>211.6</ele><time>2026-04-21T09:30:48.095Z</time></trkpt><trkpt lat="32.977765" lon="9.6329683"><ele>212.0</ele><time>2026-04-21T09:30:51.094Z</time></trkpt><trkpt lat="32.9778733" lon="9.6330433"><ele>212.0</ele><time>2026-04-21T09:31:09.094Z</time></trkpt><trkpt lat="32.9781683" lon="9.633205"><ele>212.0</ele><time>2026-04-21T09:31:12.095Z</time></trkpt><trkpt lat="32.97829" lon="9.6332767"><ele>211.66666666666669</ele><time>2026-04-21T09:31:13.094Z</time></trkpt><trkpt lat="32.9784167" lon="9.6333483"><ele>211.33333333333331</ele><time>2026-04-21T09:31:14.094Z</time></trkpt><trkpt lat="32.9786883" lon="9.6334967"><ele>211.0</ele><time>2026-04-21T09:31:16.095Z</time></trkpt><trkpt lat="32.9789617" lon="9.6336467"><ele>211.0</ele><time>2026-04-21T09:31:18.095Z</time></trkpt><trkpt lat="32.9791167" lon="9.6337283"><ele>211.0</ele><time>2026-04-21T09:31:19.095Z</time></trkpt><trkpt lat="32.97926" lon="9.6338083"><ele>211.0</ele><time>2026-04-21T09:31:20.095Z</time></trkpt><trkpt lat="32.9794" lon="9.6338967"><ele>211.25</ele><time>2026-04-21T09:31:21.095Z</time></trkpt><trkpt lat="32.9795367" lon="9.633975"><ele>211.5</ele><time>2026-04-21T09:31:22.095Z</time></trkpt><trkpt lat="32.979665" lon="9.6340583"><ele>211.75</ele><time>2026-04-21T09:31:23.094Z</time></trkpt><trkpt lat="32.9797917" lon="9.6341417"><ele>212.0</ele><time>2026-04-21T09:31:24.094Z</time></trkpt><trkpt lat="32.9799317" lon="9.6342217"><ele>212.0</ele><time>2026-04-21T09:31:25.094Z</time></trkpt><trkpt lat="32.9802267" lon="9.6343817"><ele>212.0</ele><time>2026-04-21T09:31:27.094Z</time></trkpt><trkpt lat="32.9803683" lon="9.63446"><ele>212.0</ele><time>2026-04-21T09:31:28.095Z</time></trkpt><trkpt lat="32.9805183" lon="9.63454"><ele>212.0</ele><time>2026-04-21T09:31:29.095Z</time></trkpt><trkpt lat="32.980665" lon="9.634615"><ele>212.0</ele><time>2026-04-21T09:31:30.094Z</time></trkpt><trkpt lat="32.9809417" lon="9.6347783"><ele>211.66666666666669</ele><time>2026-04-21T09:31:32.094Z</time></trkpt><trkpt lat="32.981085" lon="9.634855"><ele>211.33333333333331</ele><time>2026-04-21T09:31:33.094Z</time></trkpt><trkpt lat="32.98122" lon="9.63493"><ele>211.0</ele><time>2026-04-21T09:31:34.094Z</time></trkpt><trkpt lat="32.9813683" lon="9.635015"><ele>211.0</ele><time>2026-04-21T09:31:35.095Z</time></trkpt><trkpt lat="32.9816367" lon="9.6351633"><ele>211.0</ele><time>2026-04-21T09:31:37.095Z</time></trkpt><trkpt lat="32.9819233" lon="9.6353233"><ele>211.33333333333331</ele><time>2026-04-21T09:31:39.094Z</time></trkpt><trkpt lat="32.9820733" lon="9.635405"><ele>211.66666666666669</ele><time>2026-04-21T09:31:40.095Z</time></trkpt><trkpt lat="32.9822217" lon="9.63549"><ele>212.0</ele><time>2026-04-21T09:31:41.095Z</time></trkpt><trkpt lat="32.98236" lon="9.6355817"><ele>212.0</ele><time>2026-04-21T09:31:42.095Z</time></trkpt><trkpt lat="32.9825017" lon="9.635665"><ele>212.0</ele><time>2026-04-21T09:31:43.094Z</time></trkpt><trkpt lat="32.98265" lon="9.6357467"><ele>212.0</ele><time>2026-04-21T09:31:44.095Z</time></trkpt><trkpt lat="32.9827917" lon="9.6358233"><ele>212.66666666666669</ele><time>2026-04-21T09:31:45.094Z</time></trkpt><trkpt lat="32.98292" lon="9.635895"><ele>213.33333333333331</ele><time>2026-04-21T09:31:46.094Z</time></trkpt><trkpt lat="32.9831533" lon="9.636025"><ele>214.0</ele><time>2026-04-21T09:31:48.095Z</time></trkpt><trkpt lat="32.9832733" lon="9.636075"><ele>214.0</ele><time>2026-04-21T09:31:49.095Z</time></trkpt><trkpt lat="32.9833933" lon="9.636135"><ele>214.0</ele><time>2026-04-21T09:31:50.094Z</time></trkpt><trkpt lat="32.9835233" lon="9.6361983"><ele>214.0</ele><time>2026-04-21T09:31:51.094Z</time></trkpt><trkpt lat="32.98379" lon="9.6363383"><ele>213.25</ele><time>2026-04-21T09:31:53.094Z</time></trkpt><trkpt lat="32.983915" lon="9.6364083"><ele>212.5</ele><time>2026-04-21T09:31:54.095Z</time></trkpt><trkpt lat="32.9840517" lon="9.6365017"><ele>211.75</ele><time>2026-04-21T09:31:55.095Z</time></trkpt><trkpt lat="32.9841867" lon="9.6365817"><ele>211.0</ele><time>2026-04-21T09:31:56.094Z</time></trkpt><trkpt lat="32.9844733" lon="9.6367383"><ele>210.66666666666666</ele><time>2026-04-21T09:31:58.094Z</time></trkpt><trkpt lat="32.98462" lon="9.6368133"><ele>210.33333333333331</ele><time>2026-04-21T09:31:59.095Z</time></trkpt><trkpt lat="32.9847633" lon="9.6368933"><ele>210.0</ele><time>2026-04-21T09:32:00.094Z</time></trkpt><trkpt lat="32.9849083" lon="9.6369767"><ele>211.33333333333331</ele><time>2026-04-21T09:32:01.094Z</time></trkpt><trkpt lat="32.9850517" lon="9.6370667"><ele>212.66666666666666</ele><time>2026-04-21T09:32:02.095Z</time></trkpt><trkpt lat="32.9852" lon="9.6371483"><ele>214.0</ele><time>2026-04-21T09:32:03.095Z</time></trkpt><trkpt lat="32.98534" lon="9.6372333"><ele>214.0</ele><time>2026-04-21T09:32:04.094Z</time></trkpt><trkpt lat="32.9854867" lon="9.637305"><ele>214.0</ele><time>2026-04-21T09:32:05.095Z</time></trkpt><trkpt lat="32.985625" lon="9.6373783"><ele>214.0</ele><time>2026-04-21T09:32:06.095Z</time></trkpt><trkpt lat="32.9857517" lon="9.6374667"><ele>213.33333333333331</ele><time>2026-04-21T09:32:07.095Z</time></trkpt><trkpt lat="32.9858817" lon="9.63754"><ele>212.66666666666669</ele><time>2026-04-21T09:32:08.094Z</time></trkpt><trkpt lat="32.9860067" lon="9.6376117"><ele>212.0</ele><time>2026-04-21T09:32:09.094Z</time></trkpt><trkpt lat="32.98624" lon="9.63773"><ele>212.5</ele><time>2026-04-21T09:32:11.094Z</time></trkpt><trkpt lat="32.9864683" lon="9.6378517"><ele>213.0</ele><time>2026-04-21T09:32:13.095Z</time></trkpt><trkpt lat="32.98669" lon="9.6379617"><ele>213.0</ele><time>2026-04-21T09:32:15.094Z</time></trkpt><trkpt lat="32.9869133" lon="9.6381033"><ele>213.0</ele><time>2026-04-21T09:32:17.094Z</time></trkpt><trkpt lat="32.9870317" lon="9.6381667"><ele>213.0</ele><time>2026-04-21T09:32:18.094Z</time></trkpt><trkpt lat="32.987145" lon="9.63823"><ele>213.0</ele><time>2026-04-21T09:32:19.094Z</time></trkpt><trkpt lat="32.9872467" lon="9.6382783"><ele>213.0</ele><time>2026-04-21T09:32:20.094Z</time></trkpt><trkpt lat="32.9873367" lon="9.638325"><ele>213.0</ele><time>2026-04-21T09:32:21.094Z</time></trkpt><trkpt lat="32.9874917" lon="9.63843"><ele>213.0</ele><time>2026-04-21T09:32:23.095Z</time></trkpt><trkpt lat="32.9876167" lon="9.6385067"><ele>212.99999999999997</ele><time>2026-04-21T09:32:25.095Z</time></trkpt><trkpt lat="32.9876767" lon="9.6385383"><ele>213.0</ele><time>2026-04-21T09:32:26.095Z</time></trkpt><trkpt lat="32.98773" lon="9.638585"><ele>213.0</ele><time>2026-04-21T09:32:27.095Z</time></trkpt><trkpt lat="32.987785" lon="9.6386383"><ele>213.0</ele><time>2026-04-21T09:32:28.095Z</time></trkpt><trkpt lat="32.9878383" lon="9.6386983"><ele>213.0</ele><time>2026-04-21T09:32:29.094Z</time></trkpt><trkpt lat="32.9878883" lon="9.638765"><ele>212.99999999999997</ele><time>2026-04-21T09:32:30.094Z</time></trkpt><trkpt lat="32.987935" lon="9.6388217"><ele>213.0</ele><time>2026-04-21T09:32:31.095Z</time></trkpt><trkpt lat="32.9879833" lon="9.6388783"><ele>213.25</ele><time>2026-04-21T09:32:32.094Z</time></trkpt><trkpt lat="32.9880633" lon="9.6389833"><ele>213.5</ele><time>2026-04-21T09:32:34.095Z</time></trkpt><trkpt lat="32.9881617" lon="9.639155"><ele>213.75</ele><time>2026-04-21T09:32:39.094Z</time></trkpt><trkpt lat="32.9881817" lon="9.63925"><ele>214.0</ele><time>2026-04-21T09:32:47.094Z</time></trkpt><trkpt lat="32.9882183" lon="9.6393717"><ele>214.5</ele><time>2026-04-21T09:32:50.095Z</time></trkpt><trkpt lat="32.9882467" lon="9.63953"><ele>215.0</ele><time>2026-04-21T09:32:52.094Z</time></trkpt><trkpt lat="32.988315" lon="9.6396933"><ele>215.5</ele><time>2026-04-21T09:32:54.094Z</time></trkpt><trkpt lat="32.9883917" lon="9.63976"><ele>216.0</ele><time>2026-04-21T09:32:56.095Z</time></trkpt><trkpt lat="32.9885617" lon="9.6397533"><ele>216.25</ele><time>2026-04-21T09:33:01.094Z</time></trkpt><trkpt lat="32.9886433" lon="9.639795"><ele>216.5</ele><time>2026-04-21T10:17:41.087Z</time></trkpt><trkpt lat="32.9888017" lon="9.6399317"><ele>216.75</ele><time>2026-04-21T10:17:45.086Z</time></trkpt><trkpt lat="32.9888633" lon="9.6399667"><ele>217.0</ele><time>2026-04-21T10:17:47.087Z</time></trkpt><trkpt lat="32.9889617" lon="9.6400317"><ele>217.0</ele><time>2026-04-21T10:17:49.087Z</time></trkpt><trkpt lat="32.98909" lon="9.640085"><ele>217.0</ele><time>2026-04-21T10:17:51.086Z</time></trkpt><trkpt lat="32.9891567" lon="9.6401133"><ele>217.0</ele><time>2026-04-21T10:17:52.087Z</time></trkpt><trkpt lat="32.9892733" lon="9.6401683"><ele>217.0</ele><time>2026-04-21T10:17:54.086Z</time></trkpt><trkpt lat="32.9893733" lon="9.64019"><ele>217.0</ele><time>2026-04-21T10:17:56.086Z</time></trkpt><trkpt lat="32.9894817" lon="9.6401933"><ele>215.75</ele><time>2026-04-21T10:17:58.086Z</time></trkpt><trkpt lat="32.9895667" lon="9.6401983"><ele>214.5</ele><time>2026-04-21T10:18:00.087Z</time></trkpt><trkpt lat="32.9896567" lon="9.6402183"><ele>213.25</ele><time>2026-04-21T10:18:03.087Z</time></trkpt><trkpt lat="32.9898467" lon="9.64026"><ele>212.0</ele><time>2026-04-21T10:18:08.087Z</time></trkpt><trkpt lat="32.9899417" lon="9.64027"><ele>211.50000000000003</ele><time>2026-04-21T10:18:10.087Z</time></trkpt><trkpt lat="32.990035" lon="9.64027"><ele>211.0</ele><time>2026-04-21T10:18:12.087Z</time></trkpt><trkpt lat="32.9901133" lon="9.6402283"><ele>210.5</ele><time>2026-04-21T10:18:14.087Z</time></trkpt><trkpt lat="32.99016" lon="9.6401367"><ele>210.0</ele><time>2026-04-21T10:18:16.087Z</time></trkpt><trkpt lat="32.9901883" lon="9.6400617"><ele>209.50000000000003</ele><time>2026-04-21T10:18:18.085Z</time></trkpt><trkpt lat="32.9902" lon="9.6399767"><ele>209.0</ele><time>2026-04-21T10:18:21.086Z</time></trkpt><trkpt lat="32.9902233" lon="9.63989"><ele>209.0</ele><time>2026-04-21T10:18:25.085Z</time></trkpt><trkpt lat="32.99024" lon="9.6397133"><ele>209.0</ele><time>2026-04-21T10:18:34.086Z</time></trkpt><trkpt lat="32.9902433" lon="9.639615"><ele>209.0</ele><time>2026-04-21T10:18:36.086Z</time></trkpt><trkpt lat="32.990245" lon="9.639495"><ele>209.0</ele><time>2026-04-21T10:18:38.086Z</time></trkpt><trkpt lat="32.9902417" lon="9.63936"><ele>209.0</ele><time>2026-04-21T10:18:40.086Z</time></trkpt><trkpt lat="32.9902283" lon="9.6392233"><ele>209.25</ele><time>2026-04-21T10:18:42.086Z</time></trkpt><trkpt lat="32.9902317" lon="9.63909"><ele>209.5</ele><time>2026-04-21T10:18:44.086Z</time></trkpt><trkpt lat="32.99024" lon="9.6389533"><ele>209.75</ele><time>2026-04-21T10:18:46.085Z</time></trkpt><trkpt lat="32.9902767" lon="9.6387183"><ele>210.0</ele><time>2026-04-21T10:18:50.086Z</time></trkpt><trkpt lat="32.99029" lon="9.63863"><ele>210.0</ele><time>2026-04-21T10:18:52.086Z</time></trkpt><trkpt lat="32.9902917" lon="9.6385467"><ele>210.0</ele><time>2026-04-21T10:18:54.085Z</time></trkpt><trkpt lat="32.9903" lon="9.638455"><ele>210.0</ele><time>2026-04-21T10:18:56.085Z</time></trkpt><trkpt lat="32.990305" lon="9.63836"><ele>210.0</ele><time>2026-04-21T10:18:58.085Z</time></trkpt><trkpt lat="32.9903133" lon="9.6382617"><ele>210.0</ele><time>2026-04-21T10:19:01.086Z</time></trkpt><trkpt lat="32.99033" lon="9.6381833"><ele>210.0</ele><time>2026-04-21T10:19:03.085Z</time></trkpt><trkpt lat="32.99035" lon="9.6380783"><ele>210.0</ele><time>2026-04-21T10:19:05.086Z</time></trkpt><trkpt lat="32.990385" lon="9.63796"><ele>210.0</ele><time>2026-04-21T10:19:07.086Z</time></trkpt><trkpt lat="32.9904033" lon="9.637755"><ele>210.0</ele><time>2026-04-21T10:19:11.086Z</time></trkpt><trkpt lat="32.9904117" lon="9.6376233"><ele>210.0</ele><time>2026-04-21T10:19:13.085Z</time></trkpt><trkpt lat="32.9904183" lon="9.63751"><ele>210.2</ele><time>2026-04-21T10:19:15.086Z</time></trkpt><trkpt lat="32.99043" lon="9.637395"><ele>210.4</ele><time>2026-04-21T10:19:17.086Z</time></trkpt><trkpt lat="32.9904567" lon="9.6372917"><ele>210.60000000000002</ele><time>2026-04-21T10:19:19.085Z</time></trkpt><trkpt lat="32.9905" lon="9.63715"><ele>210.8</ele><time>2026-04-21T10:19:21.086Z</time></trkpt><trkpt lat="32.99053" lon="9.6370367"><ele>211.0</ele><time>2026-04-21T10:19:23.085Z</time></trkpt><trkpt lat="32.9905583" lon="9.636935"><ele>210.5</ele><time>2026-04-21T10:19:25.085Z</time></trkpt><trkpt lat="32.9905933" lon="9.6368317"><ele>210.0</ele><time>2026-04-21T10:19:27.086Z</time></trkpt><trkpt lat="32.9906217" lon="9.6367333"><ele>209.5</ele><time>2026-04-21T10:19:29.085Z</time></trkpt><trkpt lat="32.990675" lon="9.636535"><ele>209.0</ele><time>2026-04-21T10:19:51.085Z</time></trkpt><trkpt lat="32.9906417" lon="9.636365"><ele>209.0</ele><time>2026-04-21T10:19:56.085Z</time></trkpt><trkpt lat="32.9905783" lon="9.6363483"><ele>209.0</ele><time>2026-04-21T10:19:59.085Z</time></trkpt><trkpt lat="32.9904717" lon="9.6363567"><ele>209.0</ele><time>2026-04-21T10:20:10.086Z</time></trkpt><trkpt lat="32.9903467" lon="9.6363617"><ele>209.0</ele><time>2026-04-21T10:20:12.085Z</time></trkpt><trkpt lat="32.9901567" lon="9.6363633"><ele>209.00000000000003</ele><time>2026-04-21T10:20:16.085Z</time></trkpt><trkpt lat="32.9900783" lon="9.6363467"><ele>209.0</ele><time>2026-04-21T10:20:31.086Z</time></trkpt><trkpt lat="32.9900067" lon="9.636315"><ele>209.0</ele><time>2026-04-21T10:20:33.086Z</time></trkpt><trkpt lat="32.9899217" lon="9.63637"><ele>209.0</ele><time>2026-04-21T10:20:39.086Z</time></trkpt><trkpt lat="32.9899933" lon="9.6363983"><ele>209.00000000000003</ele><time>2026-04-21T10:20:41.086Z</time></trkpt><trkpt lat="32.990075" lon="9.6363833"><ele>209.0</ele><time>2026-04-21T10:20:43.086Z</time></trkpt><trkpt lat="32.990165" lon="9.636345"><ele>209.00000000000003</ele><time>2026-04-21T10:20:45.086Z</time></trkpt><trkpt lat="32.9902817" lon="9.6363483"><ele>209.0</ele><time>2026-04-21T10:20:47.086Z</time></trkpt><trkpt lat="32.9903517" lon="9.6363583"><ele>209.0</ele><time>2026-04-21T10:20:48.085Z</time></trkpt><trkpt lat="32.9904267" lon="9.63637"><ele>209.0</ele><time>2026-04-21T10:20:49.086Z</time></trkpt><trkpt lat="32.9904933" lon="9.6363717"><ele>209.00000000000003</ele><time>2026-04-21T10:20:50.086Z</time></trkpt><trkpt lat="32.990595" lon="9.63637"><ele>209.0</ele><time>2026-04-21T10:20:52.086Z</time></trkpt><trkpt lat="32.9906633" lon="9.6364317"><ele>209.0</ele><time>2026-04-21T10:20:55.085Z</time></trkpt><trkpt lat="32.9906483" lon="9.6366083"><ele>209.0</ele><time>2026-04-21T10:20:59.085Z</time></trkpt><trkpt lat="32.99062" lon="9.6366967"><ele>209.0</ele><time>2026-04-21T10:21:02.085Z</time></trkpt><trkpt lat="32.99059" lon="9.6367783"><ele>209.0</ele><time>2026-04-21T10:22:13.085Z</time></trkpt><trkpt lat="32.9905483" lon="9.6369367"><ele>209.0</ele><time>2026-04-21T10:22:15.084Z</time></trkpt><trkpt lat="32.9905267" lon="9.6370717"><ele>209.39999999999998</ele><time>2026-04-21T10:22:17.084Z</time></trkpt><trkpt lat="32.9904867" lon="9.6371883"><ele>209.8</ele><time>2026-04-21T10:22:19.084Z</time></trkpt><trkpt lat="32.990435" lon="9.6373217"><ele>210.2</ele><time>2026-04-21T10:22:21.084Z</time></trkpt><trkpt lat="32.990405" lon="9.6374117"><ele>210.60000000000002</ele><time>2026-04-21T10:22:23.085Z</time></trkpt><trkpt lat="32.990395" lon="9.6375317"><ele>211.0</ele><time>2026-04-21T10:22:53.085Z</time></trkpt><trkpt lat="32.9903883" lon="9.6377667"><ele>210.75</ele><time>2026-04-21T10:22:57.085Z</time></trkpt><trkpt lat="32.9903667" lon="9.63784"><ele>210.5</ele><time>2026-04-21T10:31:22.082Z</time></trkpt><trkpt lat="32.9903317" lon="9.6380817"><ele>210.25</ele><time>2026-04-21T10:31:26.082Z</time></trkpt><trkpt lat="32.9902983" lon="9.6381867"><ele>210.0</ele><time>2026-04-21T10:31:28.082Z</time></trkpt><trkpt lat="32.9902783" lon="9.638305"><ele>210.0</ele><time>2026-04-21T10:31:30.082Z</time></trkpt><trkpt lat="32.9902683" lon="9.6383817"><ele>210.0</ele><time>2026-04-21T10:31:31.082Z</time></trkpt><trkpt lat="32.990255" lon="9.6385267"><ele>210.0</ele><time>2026-04-21T10:31:33.081Z</time></trkpt><trkpt lat="32.9902433" lon="9.6386717"><ele>210.0</ele><time>2026-04-21T10:31:35.081Z</time></trkpt><trkpt lat="32.9902417" lon="9.63875"><ele>210.0</ele><time>2026-04-21T10:31:36.081Z</time></trkpt><trkpt lat="32.990225" lon="9.6388983"><ele>210.2</ele><time>2026-04-21T10:31:38.082Z</time></trkpt><trkpt lat="32.9902083" lon="9.6390433"><ele>210.4</ele><time>2026-04-21T10:31:40.081Z</time></trkpt><trkpt lat="32.9902117" lon="9.6391267"><ele>210.60000000000002</ele><time>2026-04-21T10:31:41.081Z</time></trkpt><trkpt lat="32.990215" lon="9.63922"><ele>210.8</ele><time>2026-04-21T10:31:42.081Z</time></trkpt><trkpt lat="32.9902167" lon="9.6393117"><ele>211.0</ele><time>2026-04-21T10:31:43.082Z</time></trkpt><trkpt lat="32.9902283" lon="9.6394867"><ele>210.60000000000002</ele><time>2026-04-21T10:31:45.081Z</time></trkpt><trkpt lat="32.9902283" lon="9.6395783"><ele>210.2</ele><time>2026-04-21T10:31:46.081Z</time></trkpt><trkpt lat="32.9902217" lon="9.639675"><ele>209.8</ele><time>2026-04-21T10:31:47.082Z</time></trkpt><trkpt lat="32.99021" lon="9.639815"><ele>209.39999999999998</ele><time>2026-04-21T10:31:49.081Z</time></trkpt><trkpt lat="32.9901833" lon="9.6399267"><ele>209.0</ele><time>2026-04-21T10:31:51.081Z</time></trkpt><trkpt lat="32.990165" lon="9.640045"><ele>209.0</ele><time>2026-04-21T10:31:53.082Z</time></trkpt><trkpt lat="32.9901233" lon="9.640155"><ele>209.0</ele><time>2026-04-21T10:31:55.081Z</time></trkpt><trkpt lat="32.990075" lon="9.640225"><ele>209.0</ele><time>2026-04-21T10:31:57.081Z</time></trkpt><trkpt lat="32.9900317" lon="9.6402967"><ele>209.0</ele><time>2026-04-21T10:32:00.081Z</time></trkpt><trkpt lat="32.9901167" lon="9.6403267"><ele>209.0</ele><time>2026-04-21T10:32:49.081Z</time></trkpt><trkpt lat="32.9902717" lon="9.6404117"><ele>209.00000000000003</ele><time>2026-04-21T10:32:53.082Z</time></trkpt><trkpt lat="32.9902983" lon="9.64034"><ele>209.0</ele><time>2026-04-21T10:32:56.081Z</time></trkpt><trkpt lat="32.9902183" lon="9.6403067"><ele>209.0</ele><time>2026-04-21T10:32:58.082Z</time></trkpt><trkpt lat="32.9901267" lon="9.6403167"><ele>209.0</ele><time>2026-04-21T10:33:00.082Z</time></trkpt><trkpt lat="32.99008" lon="9.6402583"><ele>209.00000000000003</ele><time>2026-04-21T10:33:03.081Z</time></trkpt><trkpt lat="32.9901117" lon="9.6403233"><ele>209.0</ele><time>2026-04-21T10:35:31.08Z</time></trkpt><trkpt lat="32.9902717" lon="9.640285"><ele>209.00000000000003</ele><time>2026-04-21T10:35:35.08Z</time></trkpt><trkpt lat="32.9903417" lon="9.640205"><ele>209.0</ele><time>2026-04-21T10:35:37.081Z</time></trkpt><trkpt lat="32.990395" lon="9.64012"><ele>209.0</ele><time>2026-04-21T10:35:39.081Z</time></trkpt><trkpt lat="32.9904633" lon="9.6400917"><ele>209.0</ele><time>2026-04-21T10:35:42.081Z</time></trkpt><trkpt lat="32.9905383" lon="9.640075"><ele>209.00000000000003</ele><time>2026-04-21T10:35:44.081Z</time></trkpt><trkpt lat="32.990615" lon="9.6400417"><ele>209.0</ele><time>2026-04-21T10:35:46.08Z</time></trkpt><trkpt lat="32.99068" lon="9.6400467"><ele>209.0</ele><time>2026-04-21T10:36:01.081Z</time></trkpt><trkpt lat="32.9908317" lon="9.6399633"><ele>209.0</ele><time>2026-04-21T10:36:06.081Z</time></trkpt><trkpt lat="32.9908883" lon="9.63988"><ele>209.0</ele><time>2026-04-21T10:36:08.08Z</time></trkpt><trkpt lat="32.9909233" lon="9.6398"><ele>209.0</ele><time>2026-04-21T10:36:10.081Z</time></trkpt><trkpt lat="32.9909717" lon="9.63975"><ele>209.0</ele><time>2026-04-21T10:36:12.081Z</time></trkpt><trkpt lat="32.991055" lon="9.6397217"><ele>209.0</ele><time>2026-04-21T10:36:15.08Z</time></trkpt><trkpt lat="32.9911283" lon="9.63971"><ele>209.0</ele><time>2026-04-21T10:36:17.08Z</time></trkpt><trkpt lat="32.991205" lon="9.6397"><ele>209.0</ele><time>2026-04-21T10:36:36.08Z</time></trkpt><trkpt lat="32.9913983" lon="9.6396167"><ele>209.0</ele><time>2026-04-21T10:36:40.08Z</time></trkpt><trkpt lat="32.9914933" lon="9.6395317"><ele>209.0</ele><time>2026-04-21T10:36:42.081Z</time></trkpt><trkpt lat="32.9915833" lon="9.6394733"><ele>209.0</ele><time>2026-04-21T10:36:44.081Z</time></trkpt><trkpt lat="32.9916817" lon="9.639415"><ele>209.0</ele><time>2026-04-21T10:36:46.08Z</time></trkpt><trkpt lat="32.991775" lon="9.63934"><ele>209.0</ele><time>2026-04-21T10:36:48.079Z</time></trkpt><trkpt lat="32.9918583" lon="9.6392583"><ele>209.0</ele><time>2026-04-21T10:36:50.079Z</time></trkpt><trkpt lat="32.9919317" lon="9.6391667"><ele>209.5</ele><time>2026-04-21T10:36:52.079Z</time></trkpt><trkpt lat="32.992005" lon="9.639075"><ele>210.0</ele><time>2026-04-21T10:36:54.08Z</time></trkpt><trkpt lat="32.9920933" lon="9.6390317"><ele>210.5</ele><time>2026-04-21T10:36:56.079Z</time></trkpt><trkpt lat="32.992195" lon="9.63902"><ele>211.0</ele><time>2026-04-21T10:36:58.08Z</time></trkpt><trkpt lat="32.9923667" lon="9.639125"><ele>210.99999999999997</ele><time>2026-04-21T10:37:02.079Z</time></trkpt><trkpt lat="32.9924583" lon="9.63918"><ele>211.0</ele><time>2026-04-21T10:37:04.08Z</time></trkpt><trkpt lat="32.9925317" lon="9.6392183"><ele>211.0</ele><time>2026-04-21T10:37:06.079Z</time></trkpt><trkpt lat="32.992605" lon="9.6392417"><ele>211.0</ele><time>2026-04-21T10:37:08.08Z</time></trkpt><trkpt lat="32.9927117" lon="9.639245"><ele>210.99999999999997</ele><time>2026-04-21T10:37:10.079Z</time></trkpt><trkpt lat="32.99278" lon="9.639235"><ele>211.0</ele><time>2026-04-21T10:37:11.08Z</time></trkpt><trkpt lat="32.9928483" lon="9.6392217"><ele>210.8</ele><time>2026-04-21T10:37:12.08Z</time></trkpt><trkpt lat="32.99296" lon="9.639215"><ele>210.60000000000002</ele><time>2026-04-21T10:37:14.079Z</time></trkpt><trkpt lat="32.9930533" lon="9.6391967"><ele>210.4</ele><time>2026-04-21T10:37:16.08Z</time></trkpt><trkpt lat="32.993135" lon="9.6391967"><ele>210.2</ele><time>2026-04-21T10:37:18.079Z</time></trkpt><trkpt lat="32.99323" lon="9.639225"><ele>210.0</ele><time>2026-04-21T10:37:20.079Z</time></trkpt><trkpt lat="32.9934367" lon="9.63924"><ele>210.0</ele><time>2026-04-21T10:37:24.08Z</time></trkpt><trkpt lat="32.9935317" lon="9.6392267"><ele>210.0</ele><time>2026-04-21T10:37:26.08Z</time></trkpt><trkpt lat="32.9936233" lon="9.6392417"><ele>210.0</ele><time>2026-04-21T10:37:28.079Z</time></trkpt><trkpt lat="32.9937" lon="9.6392533"><ele>210.0</ele><time>2026-04-21T10:37:30.079Z</time></trkpt><trkpt lat="32.993735" lon="9.6393267"><ele>210.0</ele><time>2026-04-21T10:37:47.08Z</time></trkpt><trkpt lat="32.9938717" lon="9.6394933"><ele>210.2</ele><time>2026-04-21T10:37:51.08Z</time></trkpt><trkpt lat="32.993975" lon="9.639505"><ele>210.4</ele><time>2026-04-21T10:37:53.079Z</time></trkpt><trkpt lat="32.9940383" lon="9.6395067"><ele>210.60000000000002</ele><time>2026-04-21T10:37:54.08Z</time></trkpt><trkpt lat="32.9941017" lon="9.63951"><ele>210.8</ele><time>2026-04-21T10:37:55.08Z</time></trkpt><trkpt lat="32.99421" lon="9.639485"><ele>211.0</ele><time>2026-04-21T10:37:57.08Z</time></trkpt><trkpt lat="32.994305" lon="9.6394083"><ele>211.0</ele><time>2026-04-21T10:37:59.079Z</time></trkpt><trkpt lat="32.9943933" lon="9.6393617"><ele>211.0</ele><time>2026-04-21T10:38:01.08Z</time></trkpt><trkpt lat="32.994485" lon="9.6393317"><ele>211.0</ele><time>2026-04-21T10:38:03.079Z</time></trkpt><trkpt lat="32.994605" lon="9.63932"><ele>211.0</ele><time>2026-04-21T10:38:05.08Z</time></trkpt><trkpt lat="32.994725" lon="9.639295"><ele>211.0</ele><time>2026-04-21T10:38:07.08Z</time></trkpt><trkpt lat="32.9948433" lon="9.6392817"><ele>211.0</ele><time>2026-04-21T10:38:09.08Z</time></trkpt><trkpt lat="32.9950067" lon="9.6392117"><ele>211.0</ele><time>2026-04-21T10:38:13.079Z</time></trkpt><trkpt lat="32.995025" lon="9.6391333"><ele>211.0</ele><time>2026-04-21T10:38:43.079Z</time></trkpt><trkpt lat="32.9951383" lon="9.63899"><ele>211.0</ele><time>2026-04-21T10:38:47.079Z</time></trkpt><trkpt lat="32.9952483" lon="9.6389583"><ele>211.0</ele><time>2026-04-21T10:38:49.08Z</time></trkpt><trkpt lat="32.9953583" lon="9.63891"><ele>211.0</ele><time>2026-04-21T10:38:51.08Z</time></trkpt><trkpt lat="32.9954717" lon="9.6388833"><ele>211.0</ele><time>2026-04-21T10:38:53.079Z</time></trkpt><trkpt lat="32.9955533" lon="9.6388533"><ele>211.0</ele><time>2026-04-21T10:38:55.08Z</time></trkpt><trkpt lat="32.9956083" lon="9.6387517"><ele>211.0</ele><time>2026-04-21T10:38:57.079Z</time></trkpt><trkpt lat="32.9956233" lon="9.63867"><ele>211.0</ele><time>2026-04-21T10:38:59.079Z</time></trkpt><trkpt lat="32.995575" lon="9.6386033"><ele>211.0</ele><time>2026-04-21T10:39:01.08Z</time></trkpt><trkpt lat="32.9955117" lon="9.6385717"><ele>211.0</ele><time>2026-04-21T10:39:03.079Z</time></trkpt><trkpt lat="32.99545" lon="9.638605"><ele>211.0</ele><time>2026-04-21T10:43:25.078Z</time></trkpt><trkpt lat="32.9952983" lon="9.638715"><ele>211.0</ele><time>2026-04-21T10:43:29.077Z</time></trkpt><trkpt lat="32.9951783" lon="9.6387683"><ele>210.99999999999997</ele><time>2026-04-21T10:43:31.077Z</time></trkpt><trkpt lat="32.995115" lon="9.638795"><ele>211.0</ele><time>2026-04-21T10:43:32.077Z</time></trkpt><trkpt lat="32.9950517" lon="9.63881"><ele>211.0</ele><time>2026-04-21T10:43:33.078Z</time></trkpt><trkpt lat="32.99494" lon="9.6387917"><ele>211.0</ele><time>2026-04-21T10:43:35.077Z</time></trkpt><trkpt lat="32.9948467" lon="9.6387617"><ele>210.99999999999997</ele><time>2026-04-21T10:43:37.078Z</time></trkpt><trkpt lat="32.994755" lon="9.6387583"><ele>211.0</ele><time>2026-04-21T10:43:39.077Z</time></trkpt><trkpt lat="32.9946633" lon="9.6388233"><ele>211.0</ele><time>2026-04-21T10:43:41.077Z</time></trkpt><trkpt lat="32.9946067" lon="9.638935"><ele>211.0</ele><time>2026-04-21T10:43:43.077Z</time></trkpt><trkpt lat="32.9945533" lon="9.6390483"><ele>211.0</ele><time>2026-04-21T10:43:45.078Z</time></trkpt><trkpt lat="32.994515" lon="9.6391117"><ele>211.0</ele><time>2026-04-21T10:43:46.077Z</time></trkpt><trkpt lat="32.9944417" lon="9.6392367"><ele>211.0</ele><time>2026-04-21T10:43:48.077Z</time></trkpt><trkpt lat="32.9943883" lon="9.6393417"><ele>210.99999999999997</ele><time>2026-04-21T10:43:50.078Z</time></trkpt><trkpt lat="32.9943167" lon="9.6393917"><ele>211.0</ele><time>2026-04-21T10:43:52.077Z</time></trkpt><trkpt lat="32.9942317" lon="9.639415"><ele>211.0</ele><time>2026-04-21T10:43:54.077Z</time></trkpt><trkpt lat="32.9941317" lon="9.6394783"><ele>211.0</ele><time>2026-04-21T10:43:56.077Z</time></trkpt><trkpt lat="32.9940733" lon="9.6395067"><ele>210.99999999999997</ele><time>2026-04-21T10:43:57.078Z</time></trkpt><trkpt lat="32.9940083" lon="9.639525"><ele>211.0</ele><time>2026-04-21T10:43:58.078Z</time></trkpt><trkpt lat="32.9939417" lon="9.639525"><ele>211.0</ele><time>2026-04-21T10:43:59.078Z</time></trkpt><trkpt lat="32.993825" lon="9.6394983"><ele>211.0</ele><time>2026-04-21T10:44:01.077Z</time></trkpt><trkpt lat="32.9937183" lon="9.6394967"><ele>211.0</ele><time>2026-04-21T10:44:03.077Z</time></trkpt><trkpt lat="32.993655" lon="9.6395517"><ele>211.0</ele><time>2026-04-21T10:44:05.077Z</time></trkpt><trkpt lat="32.9935817" lon="9.63966"><ele>211.0</ele><time>2026-04-21T10:44:07.078Z</time></trkpt><trkpt lat="32.9934533" lon="9.6397683"><ele>211.0</ele><time>2026-04-21T10:44:10.077Z</time></trkpt><trkpt lat="32.9933883" lon="9.6397817"><ele>211.0</ele><time>2026-04-21T10:44:11.078Z</time></trkpt><trkpt lat="32.993325" lon="9.6397933"><ele>211.0</ele><time>2026-04-21T10:44:12.077Z</time></trkpt><trkpt lat="32.9932517" lon="9.639795"><ele>211.0</ele><time>2026-04-21T10:44:13.077Z</time></trkpt><trkpt lat="32.9931783" lon="9.6397967"><ele>211.0</ele><time>2026-04-21T10:44:14.077Z</time></trkpt><trkpt lat="32.993105" lon="9.6398067"><ele>211.0</ele><time>2026-04-21T10:44:15.078Z</time></trkpt><trkpt lat="32.9930283" lon="9.6398217"><ele>211.0</ele><time>2026-04-21T10:44:16.078Z</time></trkpt><trkpt lat="32.992965" lon="9.639825"><ele>211.0</ele><time>2026-04-21T10:44:17.078Z</time></trkpt><trkpt lat="32.9928967" lon="9.6398167"><ele>211.0</ele><time>2026-04-21T10:44:18.078Z</time></trkpt><trkpt lat="32.992825" lon="9.639795"><ele>211.0</ele><time>2026-04-21T10:44:19.077Z</time></trkpt><trkpt lat="32.9927483" lon="9.6397783"><ele>211.0</ele><time>2026-04-21T10:44:20.078Z</time></trkpt><trkpt lat="32.99268" lon="9.6397533"><ele>211.0</ele><time>2026-04-21T10:44:21.077Z</time></trkpt><trkpt lat="32.9926167" lon="9.6397317"><ele>211.0</ele><time>2026-04-21T10:44:22.077Z</time></trkpt><trkpt lat="32.9925583" lon="9.6397017"><ele>211.0</ele><time>2026-04-21T10:44:23.078Z</time></trkpt><trkpt lat="32.9924967" lon="9.6396683"><ele>210.8</ele><time>2026-04-21T10:44:24.077Z</time></trkpt><trkpt lat="32.992435" lon="9.6396283"><ele>210.60000000000002</ele><time>2026-04-21T10:44:25.078Z</time></trkpt><trkpt lat="32.99235" lon="9.6395633"><ele>210.4</ele><time>2026-04-21T10:44:27.077Z</time></trkpt><trkpt lat="32.9922883" lon="9.6395133"><ele>210.2</ele><time>2026-04-21T10:44:29.077Z</time></trkpt><trkpt lat="32.9921067" lon="9.6395683"><ele>210.0</ele><time>2026-04-21T10:44:33.077Z</time></trkpt><trkpt lat="32.9919883" lon="9.6395817"><ele>210.0</ele><time>2026-04-21T10:44:35.078Z</time></trkpt><trkpt lat="32.991925" lon="9.6395833"><ele>210.0</ele><time>2026-04-21T10:44:36.078Z</time></trkpt><trkpt lat="32.9918617" lon="9.6395783"><ele>210.0</ele><time>2026-04-21T10:44:37.077Z</time></trkpt><trkpt lat="32.9917933" lon="9.639575"><ele>210.0</ele><time>2026-04-21T10:44:38.078Z</time></trkpt><trkpt lat="32.991725" lon="9.6395583"><ele>210.0</ele><time>2026-04-21T10:44:39.077Z</time></trkpt><trkpt lat="32.9916583" lon="9.639545"><ele>210.0</ele><time>2026-04-21T10:44:40.077Z</time></trkpt><trkpt lat="32.9915517" lon="9.6395467"><ele>210.0</ele><time>2026-04-21T10:44:42.077Z</time></trkpt><trkpt lat="32.9914517" lon="9.6395867"><ele>209.83333333333334</ele><time>2026-04-21T10:44:44.077Z</time></trkpt><trkpt lat="32.991345" lon="9.639665"><ele>209.66666666666669</ele><time>2026-04-21T10:44:46.077Z</time></trkpt><trkpt lat="32.9912833" lon="9.6396967"><ele>209.5</ele><time>2026-04-21T10:44:47.078Z</time></trkpt><trkpt lat="32.99122" lon="9.6397183"><ele>209.33333333333334</ele><time>2026-04-21T10:44:48.078Z</time></trkpt><trkpt lat="32.99114" lon="9.6397317"><ele>209.16666666666669</ele><time>2026-04-21T10:44:49.078Z</time></trkpt><trkpt lat="32.9910617" lon="9.63975"><ele>209.0</ele><time>2026-04-21T10:44:50.077Z</time></trkpt><trkpt lat="32.9909283" lon="9.6397933"><ele>209.00000000000003</ele><time>2026-04-21T10:44:52.078Z</time></trkpt><trkpt lat="32.9908633" lon="9.63983"><ele>209.0</ele><time>2026-04-21T10:44:53.077Z</time></trkpt><trkpt lat="32.9907983" lon="9.6398733"><ele>209.0</ele><time>2026-04-21T10:44:54.077Z</time></trkpt><trkpt lat="32.9907367" lon="9.6399183"><ele>209.0</ele><time>2026-04-21T10:44:55.076Z</time></trkpt><trkpt lat="32.9906683" lon="9.63997"><ele>209.00000000000003</ele><time>2026-04-21T10:44:56.076Z</time></trkpt><trkpt lat="32.9906133" lon="9.6400067"><ele>209.0</ele><time>2026-04-21T10:44:57.077Z</time></trkpt><trkpt lat="32.9905217" lon="9.640055"><ele>209.00000000000003</ele><time>2026-04-21T10:44:59.076Z</time></trkpt><trkpt lat="32.9904633" lon="9.640085"><ele>209.0</ele><time>2026-04-21T10:45:00.077Z</time></trkpt><trkpt lat="32.9904017" lon="9.6401317"><ele>209.0</ele><time>2026-04-21T10:45:01.077Z</time></trkpt><trkpt lat="32.99033" lon="9.6402"><ele>209.0</ele><time>2026-04-21T10:45:02.077Z</time></trkpt><trkpt lat="32.99026" lon="9.6402717"><ele>209.00000000000003</ele><time>2026-04-21T10:45:03.077Z</time></trkpt><trkpt lat="32.9902" lon="9.6403267"><ele>209.0</ele><time>2026-04-21T10:45:04.076Z</time></trkpt><trkpt lat="32.9901" lon="9.640335"><ele>209.0</ele><time>2026-04-21T10:45:06.077Z</time></trkpt><trkpt lat="32.9900283" lon="9.640305"><ele>209.0</ele><time>2026-04-21T10:45:08.077Z</time></trkpt><trkpt lat="32.9901" lon="9.6403283"><ele>209.0</ele><time>2026-04-21T10:46:05.077Z</time></trkpt><trkpt lat="32.990295" lon="9.640255"><ele>209.0</ele><time>2026-04-21T10:46:09.077Z</time></trkpt><trkpt lat="32.9903917" lon="9.6401633"><ele>209.00000000000003</ele><time>2026-04-21T10:46:11.076Z</time></trkpt><trkpt lat="32.9904417" lon="9.6401133"><ele>209.0</ele><time>2026-04-21T10:46:12.076Z</time></trkpt><trkpt lat="32.9904983" lon="9.6400717"><ele>209.0</ele><time>2026-04-21T10:46:13.077Z</time></trkpt><trkpt lat="32.990555" lon="9.6400367"><ele>209.0</ele><time>2026-04-21T10:46:14.077Z</time></trkpt><trkpt lat="32.9906467" lon="9.6399733"><ele>209.00000000000003</ele><time>2026-04-21T10:46:16.076Z</time></trkpt><trkpt lat="32.9907433" lon="9.6399083"><ele>209.0</ele><time>2026-04-21T10:46:18.076Z</time></trkpt><trkpt lat="32.99084" lon="9.639835"><ele>209.00000000000003</ele><time>2026-04-21T10:46:20.077Z</time></trkpt><trkpt lat="32.9909017" lon="9.6398"><ele>209.0</ele><time>2026-04-21T10:46:21.077Z</time></trkpt><trkpt lat="32.99096" lon="9.6397633"><ele>209.0</ele><time>2026-04-21T10:46:22.077Z</time></trkpt><trkpt lat="32.99102" lon="9.6397367"><ele>209.0</ele><time>2026-04-21T10:46:23.076Z</time></trkpt><trkpt lat="32.9911383" lon="9.6397133"><ele>209.00000000000003</ele><time>2026-04-21T10:46:25.077Z</time></trkpt><trkpt lat="32.9912083" lon="9.6397133"><ele>209.0</ele><time>2026-04-21T10:46:26.077Z</time></trkpt><trkpt lat="32.99135" lon="9.639695"><ele>209.0</ele><time>2026-04-21T10:46:28.076Z</time></trkpt><trkpt lat="32.991415" lon="9.6396767"><ele>209.0</ele><time>2026-04-21T10:46:29.076Z</time></trkpt><trkpt lat="32.9915167" lon="9.63962"><ele>209.0</ele><time>2026-04-21T10:46:31.076Z</time></trkpt><trkpt lat="32.99158" lon="9.6395217"><ele>209.0</ele><time>2026-04-21T10:46:33.076Z</time></trkpt><trkpt lat="32.9916317" lon="9.639465"><ele>209.0</ele><time>2026-04-21T10:46:35.077Z</time></trkpt><trkpt lat="32.9917283" lon="9.6395383"><ele>209.2</ele><time>2026-04-21T10:46:44.076Z</time></trkpt><trkpt lat="32.991795" lon="9.639565"><ele>209.39999999999998</ele><time>2026-04-21T10:46:45.076Z</time></trkpt><trkpt lat="32.9918633" lon="9.6395883"><ele>209.6</ele><time>2026-04-21T10:46:46.077Z</time></trkpt><trkpt lat="32.9919267" lon="9.6396017"><ele>209.8</ele><time>2026-04-21T10:46:47.077Z</time></trkpt><trkpt lat="32.9921483" lon="9.639615"><ele>210.0</ele><time>2026-04-21T10:46:51.077Z</time></trkpt><trkpt lat="32.99227" lon="9.6396233"><ele>210.0</ele><time>2026-04-21T10:46:53.076Z</time></trkpt><trkpt lat="32.992375" lon="9.6396067"><ele>210.0</ele><time>2026-04-21T10:46:55.077Z</time></trkpt><trkpt lat="32.9924517" lon="9.63961"><ele>210.0</ele><time>2026-04-21T10:46:57.077Z</time></trkpt><trkpt lat="32.9925183" lon="9.6395517"><ele>210.0</ele><time>2026-04-21T10:47:00.077Z</time></trkpt><trkpt lat="32.9925733" lon="9.6394917"><ele>210.0</ele><time>2026-04-21T10:47:03.076Z</time></trkpt><trkpt lat="32.99268" lon="9.6394967"><ele>210.0</ele><time>2026-04-21T10:47:05.076Z</time></trkpt><trkpt lat="32.992745" lon="9.6395033"><ele>210.25</ele><time>2026-04-21T10:47:06.076Z</time></trkpt><trkpt lat="32.9928567" lon="9.6395133"><ele>210.5</ele><time>2026-04-21T10:47:08.077Z</time></trkpt><trkpt lat="32.992945" lon="9.6394983"><ele>210.75</ele><time>2026-04-21T10:53:59.073Z</time></trkpt><trkpt lat="32.99275" lon="9.6394917"><ele>211.0</ele><time>2026-04-21T10:54:04.074Z</time></trkpt><trkpt lat="32.9926517" lon="9.6394983"><ele>211.0</ele><time>2026-04-21T10:54:06.073Z</time></trkpt><trkpt lat="32.9925583" lon="9.6395"><ele>211.0</ele><time>2026-04-21T10:54:08.073Z</time></trkpt><trkpt lat="32.99245" lon="9.6394983"><ele>211.0</ele><time>2026-04-21T10:54:10.073Z</time></trkpt><trkpt lat="32.9923583" lon="9.6394983"><ele>211.0</ele><time>2026-04-21T10:54:12.074Z</time></trkpt><trkpt lat="32.9922483" lon="9.6394683"><ele>211.0</ele><time>2026-04-21T10:54:14.074Z</time></trkpt><trkpt lat="32.9921433" lon="9.63946"><ele>210.8</ele><time>2026-04-21T10:54:16.074Z</time></trkpt><trkpt lat="32.9920683" lon="9.6394833"><ele>210.60000000000002</ele><time>2026-04-21T10:54:18.073Z</time></trkpt><trkpt lat="32.9920033" lon="9.6395367"><ele>210.4</ele><time>2026-04-21T10:54:20.074Z</time></trkpt><trkpt lat="32.9918833" lon="9.63966"><ele>210.2</ele><time>2026-04-21T10:54:24.074Z</time></trkpt><trkpt lat="32.9918" lon="9.6396683"><ele>210.0</ele><time>2026-04-21T10:54:26.074Z</time></trkpt><trkpt lat="32.9917" lon="9.6396783"><ele>209.8</ele><time>2026-04-21T10:54:28.074Z</time></trkpt><trkpt lat="32.9915767" lon="9.6396783"><ele>209.6</ele><time>2026-04-21T10:54:30.073Z</time></trkpt><trkpt lat="32.9914517" lon="9.639675"><ele>209.39999999999998</ele><time>2026-04-21T10:54:32.074Z</time></trkpt><trkpt lat="32.9913333" lon="9.6396817"><ele>209.2</ele><time>2026-04-21T10:54:34.074Z</time></trkpt><trkpt lat="32.9912667" lon="9.6397033"><ele>209.0</ele><time>2026-04-21T10:54:35.073Z</time></trkpt><trkpt lat="32.991205" lon="9.639725"><ele>209.00000000000003</ele><time>2026-04-21T10:54:36.074Z</time></trkpt><trkpt lat="32.991135" lon="9.63975"><ele>209.0</ele><time>2026-04-21T10:54:37.073Z</time></trkpt><trkpt lat="32.9910667" lon="9.6397617"><ele>209.0</ele><time>2026-04-21T10:54:38.073Z</time></trkpt><trkpt lat="32.9909983" lon="9.6397833"><ele>209.0</ele><time>2026-04-21T10:54:39.073Z</time></trkpt><trkpt lat="32.9909367" lon="9.639805"><ele>209.00000000000003</ele><time>2026-04-21T10:54:40.074Z</time></trkpt><trkpt lat="32.9908733" lon="9.6398283"><ele>209.0</ele><time>2026-04-21T10:54:41.074Z</time></trkpt><trkpt lat="32.990705" lon="9.6399467"><ele>209.0</ele><time>2026-04-21T10:54:44.074Z</time></trkpt><trkpt lat="32.9906483" lon="9.6399867"><ele>209.0</ele><time>2026-04-21T10:54:45.073Z</time></trkpt><trkpt lat="32.990555" lon="9.6400533"><ele>209.0</ele><time>2026-04-21T10:54:47.073Z</time></trkpt><trkpt lat="32.9904533" lon="9.6401333"><ele>209.0</ele><time>2026-04-21T10:54:49.073Z</time></trkpt><trkpt lat="32.9903633" lon="9.6402183"><ele>209.0</ele><time>2026-04-21T10:54:51.073Z</time></trkpt><trkpt lat="32.990295" lon="9.640285"><ele>209.0</ele><time>2026-04-21T10:54:53.074Z</time></trkpt><trkpt lat="32.9902067" lon="9.6403117"><ele>209.0</ele><time>2026-04-21T10:54:56.074Z</time></trkpt><trkpt lat="32.9901233" lon="9.6402883"><ele>209.0</ele><time>2026-04-21T10:54:58.073Z</time></trkpt><trkpt lat="32.99005" lon="9.640265"><ele>209.0</ele><time>2026-04-21T10:55:00.073Z</time></trkpt><trkpt lat="32.9899567" lon="9.6402483"><ele>209.0</ele><time>2026-04-21T10:55:02.074Z</time></trkpt><trkpt lat="32.9897567" lon="9.6402383"><ele>209.50000000000003</ele><time>2026-04-21T10:55:06.074Z</time></trkpt><trkpt lat="32.9896383" lon="9.640225"><ele>210.0</ele><time>2026-04-21T10:55:08.073Z</time></trkpt><trkpt lat="32.989575" lon="9.6402133"><ele>210.5</ele><time>2026-04-21T10:55:09.073Z</time></trkpt><trkpt lat="32.9895067" lon="9.6401983"><ele>211.0</ele><time>2026-04-21T10:55:10.074Z</time></trkpt><trkpt lat="32.989445" lon="9.6401817"><ele>211.50000000000003</ele><time>2026-04-21T10:55:11.074Z</time></trkpt><trkpt lat="32.9893267" lon="9.64015"><ele>212.0</ele><time>2026-04-21T10:55:13.074Z</time></trkpt><trkpt lat="32.9892617" lon="9.6401267"><ele>212.0</ele><time>2026-04-21T10:55:14.073Z</time></trkpt><trkpt lat="32.9891933" lon="9.6401017"><ele>212.0</ele><time>2026-04-21T10:55:15.074Z</time></trkpt><trkpt lat="32.9890817" lon="9.6400583"><ele>212.0</ele><time>2026-04-21T10:55:17.073Z</time></trkpt><trkpt lat="32.98899" lon="9.6400183"><ele>212.0</ele><time>2026-04-21T10:55:19.074Z</time></trkpt><trkpt lat="32.9889" lon="9.6399617"><ele>212.0</ele><time>2026-04-21T10:55:21.074Z</time></trkpt><trkpt lat="32.988815" lon="9.6399"><ele>217.0</ele><time>2026-04-21T10:55:23.073Z</time></trkpt><trkpt lat="32.98866" lon="9.6399633"><ele>217.0</ele><time>2026-04-21T10:57:27.073Z</time></trkpt><trkpt lat="32.9885433" lon="9.6398717"><ele>217.0</ele><time>2026-04-21T10:58:36.072Z</time></trkpt></trkseg><trkseg><trkpt lat="32.9889667" lon="9.63991"><ele>216.99999999999997</ele><time>2026-04-21T12:48:17.149Z</time></trkpt><trkpt lat="32.988895" lon="9.63991"><ele>217.0</ele><time>2026-04-21T12:48:22.148Z</time></trkpt><trkpt lat="32.9888317" lon="9.6398767"><ele>217.0</ele><time>2026-04-21T12:48:25.147Z</time></trkpt><trkpt lat="32.988755" lon="9.6398067"><ele>217.0</ele><time>2026-04-21T12:48:53.148Z</time></trkpt><trkpt lat="32.9886867" lon="9.6398183"><ele>216.99999999999997</ele><time>2026-04-21T12:49:51.148Z</time></trkpt><trkpt lat="32.98859" lon="9.63976"><ele>217.0</ele><time>2026-04-21T12:49:54.147Z</time></trkpt><trkpt lat="32.9885133" lon="9.639745"><ele>216.99999999999997</ele><time>2026-04-21T12:49:56.147Z</time></trkpt><trkpt lat="32.9884383" lon="9.63973"><ele>217.0</ele><time>2026-04-21T12:49:58.147Z</time></trkpt><trkpt lat="32.988365" lon="9.6397217"><ele>217.0</ele><time>2026-04-21T12:50:00.147Z</time></trkpt><trkpt lat="32.9883" lon="9.6396783"><ele>217.0</ele><time>2026-04-21T12:50:02.147Z</time></trkpt><trkpt lat="32.98824" lon="9.6395917"><ele>216.99999999999997</ele><time>2026-04-21T12:50:04.147Z</time></trkpt><trkpt lat="32.9881917" lon="9.6394783"><ele>217.0</ele><time>2026-04-21T12:50:06.147Z</time></trkpt><trkpt lat="32.98817" lon="9.6393283"><ele>216.49999999999997</ele><time>2026-04-21T12:50:08.148Z</time></trkpt><trkpt lat="32.98816" lon="9.6391767"><ele>216.0</ele><time>2026-04-21T12:50:10.148Z</time></trkpt><trkpt lat="32.98813" lon="9.6391017"><ele>215.5</ele><time>2026-04-21T12:50:11.148Z</time></trkpt><trkpt lat="32.98809" lon="9.6390267"><ele>215.0</ele><time>2026-04-21T12:50:12.147Z</time></trkpt><trkpt lat="32.98804" lon="9.6389533"><ele>214.49999999999997</ele><time>2026-04-21T12:50:13.147Z</time></trkpt><trkpt lat="32.9879817" lon="9.6388883"><ele>214.0</ele><time>2026-04-21T12:50:14.148Z</time></trkpt><trkpt lat="32.987925" lon="9.6388217"><ele>213.99999999999997</ele><time>2026-04-21T12:50:15.148Z</time></trkpt><trkpt lat="32.98788" lon="9.6387617"><ele>214.0</ele><time>2026-04-21T12:50:16.148Z</time></trkpt><trkpt lat="32.9878317" lon="9.6387133"><ele>214.0</ele><time>2026-04-21T12:50:17.148Z</time></trkpt><trkpt lat="32.987745" lon="9.638615"><ele>214.0</ele><time>2026-04-21T12:50:19.148Z</time></trkpt><trkpt lat="32.9876917" lon="9.6385617"><ele>213.99999999999997</ele><time>2026-04-21T12:50:20.148Z</time></trkpt><trkpt lat="32.98764" lon="9.638515"><ele>214.0</ele><time>2026-04-21T12:50:21.148Z</time></trkpt><trkpt lat="32.9875717" lon="9.638465"><ele>213.83333333333331</ele><time>2026-04-21T12:50:22.148Z</time></trkpt><trkpt lat="32.9874967" lon="9.6384267"><ele>213.66666666666666</ele><time>2026-04-21T12:50:23.147Z</time></trkpt><trkpt lat="32.9874317" lon="9.6383867"><ele>213.5</ele><time>2026-04-21T12:50:24.148Z</time></trkpt><trkpt lat="32.9873517" lon="9.63835"><ele>213.33333333333331</ele><time>2026-04-21T12:50:25.148Z</time></trkpt><trkpt lat="32.9872717" lon="9.6383117"><ele>213.16666666666666</ele><time>2026-04-21T12:50:26.148Z</time></trkpt><trkpt lat="32.9871933" lon="9.6382817"><ele>213.0</ele><time>2026-04-21T12:50:27.147Z</time></trkpt><trkpt lat="32.9871283" lon="9.6382533"><ele>213.0</ele><time>2026-04-21T12:50:28.147Z</time></trkpt><trkpt lat="32.9870133" lon="9.638195"><ele>213.0</ele><time>2026-04-21T12:50:30.148Z</time></trkpt><trkpt lat="32.986905" lon="9.63814"><ele>213.0</ele><time>2026-04-21T12:50:32.147Z</time></trkpt><trkpt lat="32.9867983" lon="9.6380783"><ele>213.0</ele><time>2026-04-21T12:50:34.147Z</time></trkpt><trkpt lat="32.9867283" lon="9.6380417"><ele>213.0</ele><time>2026-04-21T12:50:35.148Z</time></trkpt><trkpt lat="32.9866533" lon="9.637995"><ele>213.0</ele><time>2026-04-21T12:50:36.148Z</time></trkpt><trkpt lat="32.986575" lon="9.637945"><ele>213.0</ele><time>2026-04-21T12:50:37.148Z</time></trkpt><trkpt lat="32.98649" lon="9.6378933"><ele>213.0</ele><time>2026-04-21T12:50:38.147Z</time></trkpt><trkpt lat="32.9863967" lon="9.637835"><ele>213.0</ele><time>2026-04-21T12:50:39.148Z</time></trkpt><trkpt lat="32.9862933" lon="9.6377817"><ele>213.0</ele><time>2026-04-21T12:50:40.147Z</time></trkpt><trkpt lat="32.9861817" lon="9.6377133"><ele>212.75</ele><time>2026-04-21T12:50:41.148Z</time></trkpt><trkpt lat="32.986065" lon="9.63766"><ele>212.5</ele><time>2026-04-21T12:50:42.147Z</time></trkpt><trkpt lat="32.9859433" lon="9.6376033"><ele>212.25</ele><time>2026-04-21T12:50:43.147Z</time></trkpt><trkpt lat="32.9858283" lon="9.6375383"><ele>212.0</ele><time>2026-04-21T12:50:44.148Z</time></trkpt><trkpt lat="32.98571" lon="9.63748"><ele>212.5</ele><time>2026-04-21T12:50:45.147Z</time></trkpt><trkpt lat="32.9855917" lon="9.6374217"><ele>213.0</ele><time>2026-04-21T12:50:46.148Z</time></trkpt><trkpt lat="32.98548" lon="9.6373517"><ele>213.5</ele><time>2026-04-21T12:50:47.147Z</time></trkpt><trkpt lat="32.985365" lon="9.63728"><ele>214.0</ele><time>2026-04-21T12:50:48.148Z</time></trkpt><trkpt lat="32.9852533" lon="9.637215"><ele>214.0</ele><time>2026-04-21T12:50:49.148Z</time></trkpt><trkpt lat="32.98514" lon="9.6371533"><ele>214.0</ele><time>2026-04-21T12:50:50.148Z</time></trkpt><trkpt lat="32.9850133" lon="9.63708"><ele>214.0</ele><time>2026-04-21T12:50:51.147Z</time></trkpt><trkpt lat="32.9848917" lon="9.63701"><ele>214.0</ele><time>2026-04-21T12:50:52.148Z</time></trkpt><trkpt lat="32.9847717" lon="9.6369383"><ele>213.0</ele><time>2026-04-21T12:50:53.147Z</time></trkpt><trkpt lat="32.9846467" lon="9.636865"><ele>212.0</ele><time>2026-04-21T12:50:54.147Z</time></trkpt><trkpt lat="32.984525" lon="9.6367867"><ele>211.0</ele><time>2026-04-21T12:50:55.148Z</time></trkpt><trkpt lat="32.9843967" lon="9.636725"><ele>210.0</ele><time>2026-04-21T12:50:56.148Z</time></trkpt><trkpt lat="32.9842733" lon="9.6366583"><ele>210.25</ele><time>2026-04-21T12:50:57.148Z</time></trkpt><trkpt lat="32.9841433" lon="9.6365933"><ele>210.5</ele><time>2026-04-21T12:50:58.147Z</time></trkpt><trkpt lat="32.9840167" lon="9.63652"><ele>210.75</ele><time>2026-04-21T12:50:59.148Z</time></trkpt><trkpt lat="32.9838933" lon="9.6364467"><ele>211.0</ele><time>2026-04-21T12:51:00.147Z</time></trkpt><trkpt lat="32.98378" lon="9.63638"><ele>211.0</ele><time>2026-04-21T12:51:01.147Z</time></trkpt><trkpt lat="32.98366" lon="9.6363133"><ele>211.0</ele><time>2026-04-21T12:51:02.148Z</time></trkpt><trkpt lat="32.9835283" lon="9.63624"><ele>211.0</ele><time>2026-04-21T12:51:03.147Z</time></trkpt><trkpt lat="32.9834183" lon="9.6361817"><ele>211.0</ele><time>2026-04-21T12:51:04.147Z</time></trkpt><trkpt lat="32.983295" lon="9.6361133"><ele>211.75</ele><time>2026-04-21T12:51:05.148Z</time></trkpt><trkpt lat="32.9831833" lon="9.6360533"><ele>212.5</ele><time>2026-04-21T12:51:06.148Z</time></trkpt><trkpt lat="32.983075" lon="9.636"><ele>213.25</ele><time>2026-04-21T12:51:07.147Z</time></trkpt><trkpt lat="32.98298" lon="9.6359467"><ele>214.0</ele><time>2026-04-21T12:51:08.148Z</time></trkpt><trkpt lat="32.9828833" lon="9.6358967"><ele>214.0</ele><time>2026-04-21T12:51:09.148Z</time></trkpt><trkpt lat="32.9827917" lon="9.6358417"><ele>213.99999999999997</ele><time>2026-04-21T12:51:10.148Z</time></trkpt><trkpt lat="32.9827" lon="9.63578"><ele>213.99999999999997</ele><time>2026-04-21T12:51:11.148Z</time></trkpt><trkpt lat="32.9826083" lon="9.6357233"><ele>214.0</ele><time>2026-04-21T12:51:12.148Z</time></trkpt><trkpt lat="32.9825117" lon="9.6356633"><ele>214.0</ele><time>2026-04-21T12:51:13.147Z</time></trkpt><trkpt lat="32.9824183" lon="9.6356"><ele>213.6</ele><time>2026-04-21T12:51:14.147Z</time></trkpt><trkpt lat="32.9823167" lon="9.6355467"><ele>213.2</ele><time>2026-04-21T12:51:15.148Z</time></trkpt><trkpt lat="32.9822167" lon="9.635495"><ele>212.79999999999998</ele><time>2026-04-21T12:51:16.147Z</time></trkpt><trkpt lat="32.98212" lon="9.6354333"><ele>212.39999999999998</ele><time>2026-04-21T12:51:17.147Z</time></trkpt><trkpt lat="32.9820233" lon="9.63537"><ele>212.0</ele><time>2026-04-21T12:51:18.148Z</time></trkpt><trkpt lat="32.98192" lon="9.63531"><ele>211.8</ele><time>2026-04-21T12:51:19.148Z</time></trkpt><trkpt lat="32.98183" lon="9.63526"><ele>211.6</ele><time>2026-04-21T12:51:20.148Z</time></trkpt><trkpt lat="32.98173" lon="9.6352083"><ele>211.4</ele><time>2026-04-21T12:51:21.147Z</time></trkpt><trkpt lat="32.98164" lon="9.6351583"><ele>211.20000000000002</ele><time>2026-04-21T12:51:22.148Z</time></trkpt><trkpt lat="32.981545" lon="9.6351017"><ele>211.0</ele><time>2026-04-21T12:51:23.148Z</time></trkpt><trkpt lat="32.9814483" lon="9.635045"><ele>211.0</ele><time>2026-04-21T12:51:24.148Z</time></trkpt><trkpt lat="32.9813567" lon="9.635005"><ele>211.0</ele><time>2026-04-21T12:51:25.147Z</time></trkpt><trkpt lat="32.98126" lon="9.63495"><ele>211.0</ele><time>2026-04-21T12:51:26.147Z</time></trkpt><trkpt lat="32.9811633" lon="9.6349"><ele>211.0</ele><time>2026-04-21T12:51:27.148Z</time></trkpt><trkpt lat="32.9810733" lon="9.63485"><ele>211.0</ele><time>2026-04-21T12:51:28.148Z</time></trkpt><trkpt lat="32.9809783" lon="9.6348033"><ele>211.0</ele><time>2026-04-21T12:51:29.148Z</time></trkpt><trkpt lat="32.9808983" lon="9.63476"><ele>211.0</ele><time>2026-04-21T12:51:30.147Z</time></trkpt><trkpt lat="32.9808117" lon="9.634705"><ele>211.0</ele><time>2026-04-21T12:51:31.147Z</time></trkpt><trkpt lat="32.98072" lon="9.6346567"><ele>211.0</ele><time>2026-04-21T12:51:32.147Z</time></trkpt><trkpt lat="32.98063" lon="9.63461"><ele>211.0</ele><time>2026-04-21T12:51:33.147Z</time></trkpt><trkpt lat="32.9805383" lon="9.634565"><ele>211.20000000000002</ele><time>2026-04-21T12:51:34.147Z</time></trkpt><trkpt lat="32.98045" lon="9.6345117"><ele>211.4</ele><time>2026-04-21T12:51:35.147Z</time></trkpt><trkpt lat="32.9803533" lon="9.63447"><ele>211.6</ele><time>2026-04-21T12:51:36.148Z</time></trkpt><trkpt lat="32.9802583" lon="9.6344233"><ele>211.8</ele><time>2026-04-21T12:51:37.147Z</time></trkpt><trkpt lat="32.9801617" lon="9.6343783"><ele>212.0</ele><time>2026-04-21T12:51:38.148Z</time></trkpt><trkpt lat="32.9800617" lon="9.6343283"><ele>212.0</ele><time>2026-04-21T12:51:39.147Z</time></trkpt><trkpt lat="32.9799683" lon="9.6342733"><ele>212.0</ele><time>2026-04-21T12:51:40.148Z</time></trkpt><trkpt lat="32.9798733" lon="9.6342133"><ele>212.0</ele><time>2026-04-21T12:51:41.148Z</time></trkpt><trkpt lat="32.9797883" lon="9.6341567"><ele>212.0</ele><time>2026-04-21T12:51:42.148Z</time></trkpt><trkpt lat="32.9796967" lon="9.6340917"><ele>212.0</ele><time>2026-04-21T12:51:43.148Z</time></trkpt><trkpt lat="32.9796" lon="9.6340317"><ele>212.0</ele><time>2026-04-21T12:51:44.148Z</time></trkpt><trkpt lat="32.9795067" lon="9.6339767"><ele>212.0</ele><time>2026-04-21T12:51:45.147Z</time></trkpt><trkpt lat="32.97941" lon="9.633925"><ele>212.0</ele><time>2026-04-21T12:51:46.148Z</time></trkpt><trkpt lat="32.9793183" lon="9.6338783"><ele>212.0</ele><time>2026-04-21T12:51:47.147Z</time></trkpt><trkpt lat="32.9792233" lon="9.63384"><ele>212.0</ele><time>2026-04-21T12:51:48.148Z</time></trkpt><trkpt lat="32.9791283" lon="9.633795"><ele>211.75</ele><time>2026-04-21T12:51:49.147Z</time></trkpt><trkpt lat="32.979025" lon="9.6337317"><ele>211.5</ele><time>2026-04-21T12:51:50.148Z</time></trkpt><trkpt lat="32.9789183" lon="9.63367"><ele>211.25</ele><time>2026-04-21T12:51:51.148Z</time></trkpt><trkpt lat="32.978815" lon="9.633605"><ele>211.0</ele><time>2026-04-21T12:51:52.147Z</time></trkpt><trkpt lat="32.9787183" lon="9.63355"><ele>211.0</ele><time>2026-04-21T12:51:53.147Z</time></trkpt><trkpt lat="32.9786233" lon="9.6334967"><ele>211.0</ele><time>2026-04-21T12:51:54.148Z</time></trkpt><trkpt lat="32.9785283" lon="9.6334467"><ele>211.0</ele><time>2026-04-21T12:51:55.147Z</time></trkpt><trkpt lat="32.9784317" lon="9.6333933"><ele>211.0</ele><time>2026-04-21T12:51:56.147Z</time></trkpt><trkpt lat="32.97833" lon="9.6333317"><ele>211.0</ele><time>2026-04-21T12:51:57.147Z</time></trkpt><trkpt lat="32.97824" lon="9.6332783"><ele>211.25</ele><time>2026-04-21T12:51:58.148Z</time></trkpt><trkpt lat="32.9781417" lon="9.6332183"><ele>211.5</ele><time>2026-04-21T12:51:59.147Z</time></trkpt><trkpt lat="32.9780383" lon="9.6331567"><ele>211.75</ele><time>2026-04-21T12:52:00.147Z</time></trkpt><trkpt lat="32.9779283" lon="9.6330967"><ele>212.0</ele><time>2026-04-21T12:52:01.147Z</time></trkpt><trkpt lat="32.9778317" lon="9.6330533"><ele>212.0</ele><time>2026-04-21T12:52:02.146Z</time></trkpt><trkpt lat="32.977735" lon="9.633"><ele>212.0</ele><time>2026-04-21T12:52:03.146Z</time></trkpt><trkpt lat="32.9776383" lon="9.6329533"><ele>212.0</ele><time>2026-04-21T12:52:04.146Z</time></trkpt><trkpt lat="32.9775433" lon="9.632905"><ele>212.0</ele><time>2026-04-21T12:52:05.146Z</time></trkpt><trkpt lat="32.977445" lon="9.6328467"><ele>212.0</ele><time>2026-04-21T12:52:06.147Z</time></trkpt><trkpt lat="32.9773483" lon="9.632785"><ele>211.6</ele><time>2026-04-21T12:52:07.146Z</time></trkpt><trkpt lat="32.9772533" lon="9.6327133"><ele>211.2</ele><time>2026-04-21T12:52:08.146Z</time></trkpt><trkpt lat="32.9771483" lon="9.6326583"><ele>210.8</ele><time>2026-04-21T12:52:09.147Z</time></trkpt><trkpt lat="32.9770517" lon="9.6325983"><ele>210.4</ele><time>2026-04-21T12:52:10.147Z</time></trkpt><trkpt lat="32.9769667" lon="9.6325333"><ele>210.0</ele><time>2026-04-21T12:52:11.146Z</time></trkpt><trkpt lat="32.976865" lon="9.6324667"><ele>210.0</ele><time>2026-04-21T12:52:12.147Z</time></trkpt><trkpt lat="32.97677" lon="9.6324233"><ele>210.0</ele><time>2026-04-21T12:52:13.147Z</time></trkpt><trkpt lat="32.9766683" lon="9.6323733"><ele>210.0</ele><time>2026-04-21T12:52:14.146Z</time></trkpt><trkpt lat="32.97658" lon="9.6323217"><ele>210.0</ele><time>2026-04-21T12:52:15.147Z</time></trkpt><trkpt lat="32.976475" lon="9.6322617"><ele>210.0</ele><time>2026-04-21T12:52:16.146Z</time></trkpt><trkpt lat="32.9763783" lon="9.6322067"><ele>210.0</ele><time>2026-04-21T12:52:17.146Z</time></trkpt><trkpt lat="32.9762867" lon="9.63216"><ele>210.0</ele><time>2026-04-21T12:52:18.146Z</time></trkpt><trkpt lat="32.9761967" lon="9.6321067"><ele>210.0</ele><time>2026-04-21T12:52:19.146Z</time></trkpt><trkpt lat="32.9760983" lon="9.6320533"><ele>210.0</ele><time>2026-04-21T12:52:20.146Z</time></trkpt><trkpt lat="32.9760183" lon="9.6319917"><ele>210.0</ele><time>2026-04-21T12:52:21.146Z</time></trkpt><trkpt lat="32.9759383" lon="9.6319333"><ele>210.2</ele><time>2026-04-21T12:52:22.147Z</time></trkpt><trkpt lat="32.9758533" lon="9.6318867"><ele>210.4</ele><time>2026-04-21T12:52:23.147Z</time></trkpt><trkpt lat="32.9757617" lon="9.63185"><ele>210.60000000000002</ele><time>2026-04-21T12:52:24.146Z</time></trkpt><trkpt lat="32.97567" lon="9.6318117"><ele>210.8</ele><time>2026-04-21T12:52:25.147Z</time></trkpt><trkpt lat="32.97559" lon="9.6317667"><ele>211.0</ele><time>2026-04-21T12:52:26.147Z</time></trkpt><trkpt lat="32.9755117" lon="9.6317317"><ele>210.99999999999997</ele><time>2026-04-21T12:52:27.146Z</time></trkpt><trkpt lat="32.9754467" lon="9.6316933"><ele>211.0</ele><time>2026-04-21T12:52:28.147Z</time></trkpt><trkpt lat="32.9753767" lon="9.6316583"><ele>211.0</ele><time>2026-04-21T12:52:29.147Z</time></trkpt><trkpt lat="32.9753033" lon="9.631605"><ele>211.0</ele><time>2026-04-21T12:52:30.146Z</time></trkpt><trkpt lat="32.9752233" lon="9.6315633"><ele>210.99999999999997</ele><time>2026-04-21T12:52:31.147Z</time></trkpt><trkpt lat="32.97514" lon="9.6315233"><ele>211.0</ele><time>2026-04-21T12:52:32.147Z</time></trkpt><trkpt lat="32.975075" lon="9.6314867"><ele>211.99999999999997</ele><time>2026-04-21T12:52:33.147Z</time></trkpt><trkpt lat="32.9750167" lon="9.6314533"><ele>213.0</ele><time>2026-04-21T12:52:34.146Z</time></trkpt><trkpt lat="32.9749117" lon="9.6313817"><ele>214.0</ele><time>2026-04-21T12:52:36.146Z</time></trkpt><trkpt lat="32.9748483" lon="9.6313583"><ele>215.0</ele><time>2026-04-21T12:52:37.146Z</time></trkpt><trkpt lat="32.9747817" lon="9.6313533"><ele>215.99999999999997</ele><time>2026-04-21T12:52:38.146Z</time></trkpt><trkpt lat="32.9747117" lon="9.631355"><ele>217.0</ele><time>2026-04-21T12:52:39.147Z</time></trkpt><trkpt lat="32.97464" lon="9.6313633"><ele>216.99999999999997</ele><time>2026-04-21T12:52:40.146Z</time></trkpt><trkpt lat="32.974565" lon="9.6313617"><ele>217.0</ele><time>2026-04-21T12:52:41.146Z</time></trkpt><trkpt lat="32.9744883" lon="9.6313517"><ele>217.0</ele><time>2026-04-21T12:52:42.146Z</time></trkpt><trkpt lat="32.9744" lon="9.631325"><ele>217.0</ele><time>2026-04-21T12:52:43.147Z</time></trkpt><trkpt lat="32.9743167" lon="9.6313033"><ele>216.99999999999997</ele><time>2026-04-21T12:52:44.147Z</time></trkpt><trkpt lat="32.9742283" lon="9.6312717"><ele>217.0</ele><time>2026-04-21T12:52:45.146Z</time></trkpt><trkpt lat="32.97414" lon="9.6312483"><ele>216.2</ele><time>2026-04-21T12:52:46.147Z</time></trkpt><trkpt lat="32.97405" lon="9.6312167"><ele>215.39999999999998</ele><time>2026-04-21T12:52:47.146Z</time></trkpt><trkpt lat="32.97396" lon="9.6311967"><ele>214.60000000000002</ele><time>2026-04-21T12:52:48.147Z</time></trkpt><trkpt lat="32.9738633" lon="9.6311733"><ele>213.8</ele><time>2026-04-21T12:52:49.147Z</time></trkpt><trkpt lat="32.9737733" lon="9.63115"><ele>213.0</ele><time>2026-04-21T12:52:50.146Z</time></trkpt><trkpt lat="32.973685" lon="9.6311383"><ele>212.83333333333334</ele><time>2026-04-21T12:52:51.146Z</time></trkpt><trkpt lat="32.9736067" lon="9.6311267"><ele>212.66666666666669</ele><time>2026-04-21T12:52:52.146Z</time></trkpt><trkpt lat="32.97354" lon="9.63112"><ele>212.5</ele><time>2026-04-21T12:52:53.147Z</time></trkpt><trkpt lat="32.9734467" lon="9.6310917"><ele>212.33333333333334</ele><time>2026-04-21T12:52:55.146Z</time></trkpt><trkpt lat="32.9733283" lon="9.6310583"><ele>212.16666666666669</ele><time>2026-04-21T12:52:57.146Z</time></trkpt><trkpt lat="32.9732533" lon="9.6310367"><ele>212.0</ele><time>2026-04-21T12:52:58.146Z</time></trkpt><trkpt lat="32.9731783" lon="9.63101"><ele>211.50000000000003</ele><time>2026-04-21T12:52:59.146Z</time></trkpt><trkpt lat="32.973095" lon="9.6309867"><ele>211.0</ele><time>2026-04-21T12:53:00.146Z</time></trkpt><trkpt lat="32.97301" lon="9.6309633"><ele>210.5</ele><time>2026-04-21T12:53:01.147Z</time></trkpt><trkpt lat="32.9729217" lon="9.630945"><ele>210.0</ele><time>2026-04-21T12:53:02.147Z</time></trkpt><trkpt lat="32.9728333" lon="9.6309217"><ele>209.50000000000003</ele><time>2026-04-21T12:53:03.146Z</time></trkpt><trkpt lat="32.9727383" lon="9.6309017"><ele>209.0</ele><time>2026-04-21T12:53:04.146Z</time></trkpt><trkpt lat="32.97265" lon="9.6308767"><ele>209.0</ele><time>2026-04-21T12:53:05.146Z</time></trkpt><trkpt lat="32.9725633" lon="9.630855"><ele>209.0</ele><time>2026-04-21T12:53:06.146Z</time></trkpt><trkpt lat="32.9724683" lon="9.630835"><ele>209.0</ele><time>2026-04-21T12:53:07.147Z</time></trkpt><trkpt lat="32.9723767" lon="9.6308117"><ele>209.0</ele><time>2026-04-21T12:53:08.147Z</time></trkpt><trkpt lat="32.9722817" lon="9.6307917"><ele>209.0</ele><time>2026-04-21T12:53:09.146Z</time></trkpt><trkpt lat="32.972185" lon="9.630765"><ele>208.79999999999998</ele><time>2026-04-21T12:53:10.147Z</time></trkpt><trkpt lat="32.97208" lon="9.6307367"><ele>208.6</ele><time>2026-04-21T12:53:11.146Z</time></trkpt><trkpt lat="32.9719733" lon="9.63071"><ele>208.4</ele><time>2026-04-21T12:53:12.147Z</time></trkpt><trkpt lat="32.971865" lon="9.6306817"><ele>208.2</ele><time>2026-04-21T12:53:13.147Z</time></trkpt><trkpt lat="32.9717567" lon="9.6306583"><ele>208.0</ele><time>2026-04-21T12:53:14.146Z</time></trkpt><trkpt lat="32.971645" lon="9.6306317"><ele>208.4</ele><time>2026-04-21T12:53:15.147Z</time></trkpt><trkpt lat="32.9715367" lon="9.6306067"><ele>208.8</ele><time>2026-04-21T12:53:16.146Z</time></trkpt><trkpt lat="32.9714267" lon="9.6305783"><ele>209.2</ele><time>2026-04-21T12:53:17.146Z</time></trkpt><trkpt lat="32.9713167" lon="9.6305567"><ele>209.6</ele><time>2026-04-21T12:53:18.146Z</time></trkpt><trkpt lat="32.97121" lon="9.6305367"><ele>210.0</ele><time>2026-04-21T12:53:19.147Z</time></trkpt><trkpt lat="32.9711017" lon="9.6305183"><ele>210.0</ele><time>2026-04-21T12:53:20.146Z</time></trkpt><trkpt lat="32.971" lon="9.6304983"><ele>210.0</ele><time>2026-04-21T12:53:21.146Z</time></trkpt><trkpt lat="32.9709" lon="9.6304783"><ele>210.0</ele><time>2026-04-21T12:53:22.147Z</time></trkpt><trkpt lat="32.97079" lon="9.6304567"><ele>210.0</ele><time>2026-04-21T12:53:23.146Z</time></trkpt><trkpt lat="32.970685" lon="9.6304367"><ele>210.0</ele><time>2026-04-21T12:53:24.146Z</time></trkpt><trkpt lat="32.9705817" lon="9.630415"><ele>210.6</ele><time>2026-04-21T12:53:25.146Z</time></trkpt><trkpt lat="32.9704817" lon="9.6303983"><ele>211.2</ele><time>2026-04-21T12:53:26.146Z</time></trkpt><trkpt lat="32.9703817" lon="9.6303883"><ele>211.8</ele><time>2026-04-21T12:53:27.147Z</time></trkpt><trkpt lat="32.97028" lon="9.630395"><ele>212.4</ele><time>2026-04-21T12:53:28.147Z</time></trkpt><trkpt lat="32.9701833" lon="9.6304117"><ele>213.0</ele><time>2026-04-21T12:53:29.147Z</time></trkpt><trkpt lat="32.9700917" lon="9.63042"><ele>213.4</ele><time>2026-04-21T12:53:30.147Z</time></trkpt><trkpt lat="32.9699983" lon="9.6304233"><ele>213.8</ele><time>2026-04-21T12:53:31.147Z</time></trkpt><trkpt lat="32.9699067" lon="9.630415"><ele>214.2</ele><time>2026-04-21T12:53:32.147Z</time></trkpt><trkpt lat="32.9698133" lon="9.6303917"><ele>214.6</ele><time>2026-04-21T12:53:33.147Z</time></trkpt><trkpt lat="32.9697117" lon="9.6303667"><ele>215.0</ele><time>2026-04-21T12:53:34.147Z</time></trkpt><trkpt lat="32.9696067" lon="9.6303433"><ele>215.0</ele><time>2026-04-21T12:53:35.147Z</time></trkpt><trkpt lat="32.9695017" lon="9.6303283"><ele>215.0</ele><time>2026-04-21T12:53:36.147Z</time></trkpt><trkpt lat="32.9693983" lon="9.6303017"><ele>215.0</ele><time>2026-04-21T12:53:37.146Z</time></trkpt><trkpt lat="32.9692983" lon="9.6302767"><ele>215.0</ele><time>2026-04-21T12:53:38.147Z</time></trkpt><trkpt lat="32.96919" lon="9.630265"><ele>215.0</ele><time>2026-04-21T12:53:39.146Z</time></trkpt><trkpt lat="32.969085" lon="9.63025"><ele>214.4</ele><time>2026-04-21T12:53:40.146Z</time></trkpt><trkpt lat="32.9689833" lon="9.6302483"><ele>213.8</ele><time>2026-04-21T12:53:41.146Z</time></trkpt><trkpt lat="32.96887" lon="9.6302433"><ele>213.2</ele><time>2026-04-21T12:53:42.147Z</time></trkpt><trkpt lat="32.96876" lon="9.6302383"><ele>212.6</ele><time>2026-04-21T12:53:43.146Z</time></trkpt><trkpt lat="32.96866" lon="9.63024"><ele>212.0</ele><time>2026-04-21T12:53:44.146Z</time></trkpt><trkpt lat="32.96855" lon="9.630225"><ele>212.0</ele><time>2026-04-21T12:53:45.146Z</time></trkpt><trkpt lat="32.9684467" lon="9.6302033"><ele>212.0</ele><time>2026-04-21T12:53:46.146Z</time></trkpt><trkpt lat="32.968345" lon="9.63018"><ele>212.0</ele><time>2026-04-21T12:53:47.147Z</time></trkpt><trkpt lat="32.968245" lon="9.6301583"><ele>212.0</ele><time>2026-04-21T12:53:48.146Z</time></trkpt><trkpt lat="32.9681367" lon="9.6301333"><ele>212.0</ele><time>2026-04-21T12:53:49.147Z</time></trkpt><trkpt lat="32.968035" lon="9.6301167"><ele>210.8</ele><time>2026-04-21T12:53:50.146Z</time></trkpt><trkpt lat="32.967925" lon="9.6301017"><ele>209.6</ele><time>2026-04-21T12:53:51.147Z</time></trkpt><trkpt lat="32.9678167" lon="9.630085"><ele>208.4</ele><time>2026-04-21T12:53:52.147Z</time></trkpt><trkpt lat="32.9677133" lon="9.6300717"><ele>207.20000000000002</ele><time>2026-04-21T12:53:53.146Z</time></trkpt><trkpt lat="32.9676083" lon="9.63006"><ele>206.0</ele><time>2026-04-21T12:53:54.147Z</time></trkpt><trkpt lat="32.9675083" lon="9.630055"><ele>205.8</ele><time>2026-04-21T12:53:55.146Z</time></trkpt><trkpt lat="32.96741" lon="9.6300467"><ele>205.60000000000002</ele><time>2026-04-21T12:53:56.146Z</time></trkpt><trkpt lat="32.9673167" lon="9.6300233"><ele>205.4</ele><time>2026-04-21T12:53:57.146Z</time></trkpt><trkpt lat="32.96722" lon="9.6300017"><ele>205.2</ele><time>2026-04-21T12:53:58.147Z</time></trkpt><trkpt lat="32.967115" lon="9.6299767"><ele>205.0</ele><time>2026-04-21T12:53:59.146Z</time></trkpt><trkpt lat="32.9670067" lon="9.6299533"><ele>205.0</ele><time>2026-04-21T12:54:00.147Z</time></trkpt><trkpt lat="32.9668883" lon="9.6299317"><ele>205.0</ele><time>2026-04-21T12:54:01.146Z</time></trkpt><trkpt lat="32.9667867" lon="9.62991"><ele>205.0</ele><time>2026-04-21T12:54:02.147Z</time></trkpt><trkpt lat="32.9666867" lon="9.629885"><ele>205.0</ele><time>2026-04-21T12:54:03.147Z</time></trkpt><trkpt lat="32.9665833" lon="9.6298617"><ele>205.0</ele><time>2026-04-21T12:54:04.146Z</time></trkpt><trkpt lat="32.966475" lon="9.6298417"><ele>206.2</ele><time>2026-04-21T12:54:05.146Z</time></trkpt><trkpt lat="32.9663683" lon="9.6298283"><ele>207.4</ele><time>2026-04-21T12:54:06.147Z</time></trkpt><trkpt lat="32.9662633" lon="9.6298133"><ele>208.60000000000002</ele><time>2026-04-21T12:54:07.147Z</time></trkpt><trkpt lat="32.9661633" lon="9.6297917"><ele>209.8</ele><time>2026-04-21T12:54:08.146Z</time></trkpt><trkpt lat="32.9660667" lon="9.6297717"><ele>211.0</ele><time>2026-04-21T12:54:09.147Z</time></trkpt><trkpt lat="32.965965" lon="9.6297517"><ele>211.0</ele><time>2026-04-21T12:54:10.147Z</time></trkpt><trkpt lat="32.9658667" lon="9.6297317"><ele>211.0</ele><time>2026-04-21T12:54:11.147Z</time></trkpt><trkpt lat="32.9657633" lon="9.6297133"><ele>211.0</ele><time>2026-04-21T12:54:12.147Z</time></trkpt><trkpt lat="32.9656583" lon="9.6296933"><ele>211.0</ele><time>2026-04-21T12:54:13.146Z</time></trkpt><trkpt lat="32.9655583" lon="9.629675"><ele>211.0</ele><time>2026-04-21T12:54:14.147Z</time></trkpt><trkpt lat="32.9654533" lon="9.629655"><ele>211.20000000000002</ele><time>2026-04-21T12:54:15.147Z</time></trkpt><trkpt lat="32.965345" lon="9.6296317"><ele>211.4</ele><time>2026-04-21T12:54:16.146Z</time></trkpt><trkpt lat="32.9652383" lon="9.6296183"><ele>211.6</ele><time>2026-04-21T12:54:17.147Z</time></trkpt><trkpt lat="32.965135" lon="9.6295967"><ele>211.8</ele><time>2026-04-21T12:54:18.147Z</time></trkpt><trkpt lat="32.9650317" lon="9.6295783"><ele>212.0</ele><time>2026-04-21T12:54:19.147Z</time></trkpt><trkpt lat="32.964925" lon="9.6295633"><ele>212.6</ele><time>2026-04-21T12:54:20.147Z</time></trkpt><trkpt lat="32.9648183" lon="9.6295417"><ele>213.2</ele><time>2026-04-21T12:54:21.147Z</time></trkpt><trkpt lat="32.96472" lon="9.6295267"><ele>213.8</ele><time>2026-04-21T12:54:22.147Z</time></trkpt><trkpt lat="32.9646217" lon="9.6295133"><ele>214.4</ele><time>2026-04-21T12:54:23.147Z</time></trkpt><trkpt lat="32.9645133" lon="9.62951"><ele>215.0</ele><time>2026-04-21T12:54:24.146Z</time></trkpt><trkpt lat="32.9644067" lon="9.6295"><ele>215.0</ele><time>2026-04-21T12:54:25.147Z</time></trkpt><trkpt lat="32.9643017" lon="9.629485"><ele>215.0</ele><time>2026-04-21T12:54:26.146Z</time></trkpt><trkpt lat="32.9641967" lon="9.6294683"><ele>215.0</ele><time>2026-04-21T12:54:27.146Z</time></trkpt><trkpt lat="32.9640867" lon="9.62944"><ele>215.0</ele><time>2026-04-21T12:54:28.146Z</time></trkpt><trkpt lat="32.96398" lon="9.6294167"><ele>215.0</ele><time>2026-04-21T12:54:29.147Z</time></trkpt><trkpt lat="32.9638783" lon="9.6293833"><ele>214.6</ele><time>2026-04-21T12:54:30.147Z</time></trkpt><trkpt lat="32.96378" lon="9.6293567"><ele>214.2</ele><time>2026-04-21T12:54:31.147Z</time></trkpt><trkpt lat="32.9636767" lon="9.6293333"><ele>213.8</ele><time>2026-04-21T12:54:32.147Z</time></trkpt><trkpt lat="32.9635667" lon="9.6293083"><ele>213.4</ele><time>2026-04-21T12:54:33.146Z</time></trkpt><trkpt lat="32.9634617" lon="9.62929"><ele>213.0</ele><time>2026-04-21T12:54:34.146Z</time></trkpt><trkpt lat="32.9633567" lon="9.6292817"><ele>213.0</ele><time>2026-04-21T12:54:35.147Z</time></trkpt><trkpt lat="32.9632533" lon="9.62927"><ele>213.0</ele><time>2026-04-21T12:54:36.146Z</time></trkpt><trkpt lat="32.9631383" lon="9.6292717"><ele>213.0</ele><time>2026-04-21T12:54:37.147Z</time></trkpt><trkpt lat="32.963025" lon="9.6292717"><ele>213.0</ele><time>2026-04-21T12:54:38.147Z</time></trkpt><trkpt lat="32.962915" lon="9.6292767"><ele>213.0</ele><time>2026-04-21T12:54:39.147Z</time></trkpt><trkpt lat="32.962815" lon="9.62928"><ele>213.0</ele><time>2026-04-21T12:54:40.147Z</time></trkpt><trkpt lat="32.9627217" lon="9.6292833"><ele>213.0</ele><time>2026-04-21T12:54:41.146Z</time></trkpt><trkpt lat="32.962635" lon="9.6292833"><ele>213.0</ele><time>2026-04-21T12:54:42.147Z</time></trkpt><trkpt lat="32.9625533" lon="9.629285"><ele>213.0</ele><time>2026-04-21T12:54:43.147Z</time></trkpt><trkpt lat="32.9624733" lon="9.62928"><ele>213.0</ele><time>2026-04-21T12:54:44.146Z</time></trkpt><trkpt lat="32.9623983" lon="9.6292633"><ele>213.0</ele><time>2026-04-21T12:54:45.146Z</time></trkpt><trkpt lat="32.962335" lon="9.62924"><ele>212.60000000000002</ele><time>2026-04-21T12:54:46.147Z</time></trkpt><trkpt lat="32.96223" lon="9.6291833"><ele>212.20000000000002</ele><time>2026-04-21T12:54:48.146Z</time></trkpt><trkpt lat="32.9621517" lon="9.62909"><ele>211.8</ele><time>2026-04-21T12:54:50.147Z</time></trkpt><trkpt lat="32.9620617" lon="9.6289967"><ele>211.4</ele><time>2026-04-21T12:54:52.146Z</time></trkpt><trkpt lat="32.962005" lon="9.6289467"><ele>211.0</ele><time>2026-04-21T12:54:53.146Z</time></trkpt><trkpt lat="32.961945" lon="9.6288983"><ele>211.0</ele><time>2026-04-21T12:54:54.146Z</time></trkpt><trkpt lat="32.961885" lon="9.6288533"><ele>211.0</ele><time>2026-04-21T12:54:55.147Z</time></trkpt><trkpt lat="32.9618233" lon="9.6288067"><ele>211.0</ele><time>2026-04-21T12:54:56.147Z</time></trkpt><trkpt lat="32.961755" lon="9.6287667"><ele>211.0</ele><time>2026-04-21T12:54:57.147Z</time></trkpt><trkpt lat="32.9616917" lon="9.6287233"><ele>211.0</ele><time>2026-04-21T12:54:58.146Z</time></trkpt><trkpt lat="32.9616233" lon="9.628685"><ele>211.0</ele><time>2026-04-21T12:54:59.146Z</time></trkpt><trkpt lat="32.961555" lon="9.6286417"><ele>211.0</ele><time>2026-04-21T12:55:00.147Z</time></trkpt><trkpt lat="32.9614967" lon="9.6285983"><ele>210.71428571428572</ele><time>2026-04-21T12:55:01.146Z</time></trkpt><trkpt lat="32.9614383" lon="9.628545"><ele>210.42857142857144</ele><time>2026-04-21T12:55:02.146Z</time></trkpt><trkpt lat="32.9613867" lon="9.6284933"><ele>210.14285714285714</ele><time>2026-04-21T12:55:03.146Z</time></trkpt><trkpt lat="32.9613333" lon="9.6284417"><ele>209.85714285714286</ele><time>2026-04-21T12:55:04.147Z</time></trkpt><trkpt lat="32.9612783" lon="9.6283883"><ele>209.57142857142856</ele><time>2026-04-21T12:55:05.147Z</time></trkpt><trkpt lat="32.9612183" lon="9.6283317"><ele>209.28571428571428</ele><time>2026-04-21T12:55:06.147Z</time></trkpt><trkpt lat="32.9611533" lon="9.6282667"><ele>209.0</ele><time>2026-04-21T12:55:07.147Z</time></trkpt><trkpt lat="32.9610883" lon="9.6282033"><ele>209.00000000000003</ele><time>2026-04-21T12:55:08.147Z</time></trkpt><trkpt lat="32.9610183" lon="9.6281367"><ele>209.0</ele><time>2026-04-21T12:55:09.147Z</time></trkpt><trkpt lat="32.960955" lon="9.628065"><ele>209.0</ele><time>2026-04-21T12:55:10.147Z</time></trkpt><trkpt lat="32.9608883" lon="9.628005"><ele>209.0</ele><time>2026-04-21T12:55:11.147Z</time></trkpt><trkpt lat="32.96082" lon="9.62794"><ele>209.00000000000003</ele><time>2026-04-21T12:55:12.147Z</time></trkpt><trkpt lat="32.960755" lon="9.627875"><ele>209.0</ele><time>2026-04-21T12:55:13.147Z</time></trkpt><trkpt lat="32.9606883" lon="9.627815"><ele>209.00000000000003</ele><time>2026-04-21T12:55:14.146Z</time></trkpt><trkpt lat="32.96062" lon="9.6277533"><ele>209.0</ele><time>2026-04-21T12:55:15.147Z</time></trkpt><trkpt lat="32.9605467" lon="9.6277017"><ele>209.0</ele><time>2026-04-21T12:55:16.146Z</time></trkpt><trkpt lat="32.9604733" lon="9.6276483"><ele>209.0</ele><time>2026-04-21T12:55:17.147Z</time></trkpt><trkpt lat="32.960405" lon="9.6275783"><ele>209.00000000000003</ele><time>2026-04-21T12:55:18.147Z</time></trkpt><trkpt lat="32.96034" lon="9.6275067"><ele>209.0</ele><time>2026-04-21T12:55:19.147Z</time></trkpt><trkpt lat="32.96028" lon="9.627435"><ele>209.00000000000003</ele><time>2026-04-21T12:55:20.147Z</time></trkpt><trkpt lat="32.960225" lon="9.627365"><ele>209.0</ele><time>2026-04-21T12:55:21.146Z</time></trkpt><trkpt lat="32.9601767" lon="9.6272967"><ele>209.0</ele><time>2026-04-21T12:55:22.145Z</time></trkpt><trkpt lat="32.9601317" lon="9.627225"><ele>209.0</ele><time>2026-04-21T12:55:23.146Z</time></trkpt><trkpt lat="32.960085" lon="9.6271533"><ele>209.00000000000003</ele><time>2026-04-21T12:55:24.146Z</time></trkpt><trkpt lat="32.9600383" lon="9.6270833"><ele>209.0</ele><time>2026-04-21T12:55:25.146Z</time></trkpt><trkpt lat="32.9599883" lon="9.62701"><ele>208.83333333333334</ele><time>2026-04-21T12:55:26.146Z</time></trkpt><trkpt lat="32.9599367" lon="9.62693"><ele>208.66666666666669</ele><time>2026-04-21T12:55:27.145Z</time></trkpt><trkpt lat="32.959895" lon="9.62686"><ele>208.5</ele><time>2026-04-21T12:55:28.145Z</time></trkpt><trkpt lat="32.95985" lon="9.6267833"><ele>208.33333333333331</ele><time>2026-04-21T12:55:29.146Z</time></trkpt><trkpt lat="32.959805" lon="9.6267033"><ele>208.16666666666666</ele><time>2026-04-21T12:55:30.146Z</time></trkpt><trkpt lat="32.9597617" lon="9.6266283"><ele>208.0</ele><time>2026-04-21T12:55:31.146Z</time></trkpt><trkpt lat="32.95972" lon="9.6265467"><ele>207.99999999999997</ele><time>2026-04-21T12:55:32.145Z</time></trkpt><trkpt lat="32.9596683" lon="9.6264683"><ele>208.0</ele><time>2026-04-21T12:55:33.145Z</time></trkpt><trkpt lat="32.9596267" lon="9.6263917"><ele>208.0</ele><time>2026-04-21T12:55:34.146Z</time></trkpt><trkpt lat="32.9595833" lon="9.6263167"><ele>208.0</ele><time>2026-04-21T12:55:35.145Z</time></trkpt><trkpt lat="32.9595367" lon="9.6262333"><ele>207.99999999999997</ele><time>2026-04-21T12:55:36.145Z</time></trkpt><trkpt lat="32.95949" lon="9.6261483"><ele>208.0</ele><time>2026-04-21T12:55:37.146Z</time></trkpt><trkpt lat="32.9594433" lon="9.6260617"><ele>208.33333333333331</ele><time>2026-04-21T12:55:38.145Z</time></trkpt><trkpt lat="32.9594033" lon="9.6259783"><ele>208.66666666666666</ele><time>2026-04-21T12:55:39.145Z</time></trkpt><trkpt lat="32.9593583" lon="9.6259017"><ele>209.0</ele><time>2026-04-21T12:55:40.146Z</time></trkpt><trkpt lat="32.9593133" lon="9.6258217"><ele>209.33333333333331</ele><time>2026-04-21T12:55:41.145Z</time></trkpt><trkpt lat="32.9592617" lon="9.6257383"><ele>209.66666666666666</ele><time>2026-04-21T12:55:42.145Z</time></trkpt><trkpt lat="32.95921" lon="9.6256583"><ele>210.0</ele><time>2026-04-21T12:55:43.146Z</time></trkpt><trkpt lat="32.9591633" lon="9.6255817"><ele>210.0</ele><time>2026-04-21T12:55:44.146Z</time></trkpt><trkpt lat="32.9591167" lon="9.6254967"><ele>210.0</ele><time>2026-04-21T12:55:45.146Z</time></trkpt><trkpt lat="32.9590717" lon="9.6254117"><ele>210.0</ele><time>2026-04-21T12:55:46.145Z</time></trkpt><trkpt lat="32.9590317" lon="9.625335"><ele>210.0</ele><time>2026-04-21T12:55:47.145Z</time></trkpt><trkpt lat="32.9589883" lon="9.6252583"><ele>210.0</ele><time>2026-04-21T12:55:48.145Z</time></trkpt><trkpt lat="32.95894" lon="9.6251867"><ele>210.0</ele><time>2026-04-21T12:55:49.145Z</time></trkpt><trkpt lat="32.9588933" lon="9.6251183"><ele>209.83333333333334</ele><time>2026-04-21T12:55:50.145Z</time></trkpt><trkpt lat="32.9588433" lon="9.6250483"><ele>209.66666666666669</ele><time>2026-04-21T12:55:51.146Z</time></trkpt><trkpt lat="32.9587883" lon="9.62498"><ele>209.5</ele><time>2026-04-21T12:55:52.145Z</time></trkpt><trkpt lat="32.9587383" lon="9.6249"><ele>209.33333333333334</ele><time>2026-04-21T12:55:53.146Z</time></trkpt><trkpt lat="32.958675" lon="9.624835"><ele>209.16666666666669</ele><time>2026-04-21T12:55:54.146Z</time></trkpt><trkpt lat="32.9586117" lon="9.6247617"><ele>209.0</ele><time>2026-04-21T12:55:55.145Z</time></trkpt><trkpt lat="32.9585517" lon="9.62469"><ele>209.00000000000003</ele><time>2026-04-21T12:55:56.145Z</time></trkpt><trkpt lat="32.958485" lon="9.6246283"><ele>209.0</ele><time>2026-04-21T12:55:57.145Z</time></trkpt><trkpt lat="32.95842" lon="9.6245633"><ele>209.0</ele><time>2026-04-21T12:55:58.145Z</time></trkpt><trkpt lat="32.9583633" lon="9.6244917"><ele>209.0</ele><time>2026-04-21T12:55:59.146Z</time></trkpt><trkpt lat="32.9583083" lon="9.6244217"><ele>209.00000000000003</ele><time>2026-04-21T12:56:00.146Z</time></trkpt><trkpt lat="32.9582483" lon="9.6243467"><ele>209.0</ele><time>2026-04-21T12:56:01.145Z</time></trkpt><trkpt lat="32.9581917" lon="9.6242783"><ele>208.50000000000003</ele><time>2026-04-21T12:56:02.146Z</time></trkpt><trkpt lat="32.9581433" lon="9.6242067"><ele>208.0</ele><time>2026-04-21T12:56:03.145Z</time></trkpt><trkpt lat="32.9580933" lon="9.62413"><ele>207.5</ele><time>2026-04-21T12:56:04.145Z</time></trkpt><trkpt lat="32.9580533" lon="9.62404"><ele>207.0</ele><time>2026-04-21T12:56:05.145Z</time></trkpt><trkpt lat="32.9580167" lon="9.623955"><ele>206.50000000000003</ele><time>2026-04-21T12:56:06.146Z</time></trkpt><trkpt lat="32.957985" lon="9.6238617"><ele>206.0</ele><time>2026-04-21T12:56:07.145Z</time></trkpt><trkpt lat="32.9579517" lon="9.623765"><ele>206.00000000000003</ele><time>2026-04-21T12:56:08.145Z</time></trkpt><trkpt lat="32.9579267" lon="9.6236683"><ele>206.0</ele><time>2026-04-21T12:56:09.146Z</time></trkpt><trkpt lat="32.9579033" lon="9.6235733"><ele>206.0</ele><time>2026-04-21T12:56:10.145Z</time></trkpt><trkpt lat="32.9578817" lon="9.62347"><ele>206.0</ele><time>2026-04-21T12:56:11.146Z</time></trkpt><trkpt lat="32.95786" lon="9.62338"><ele>206.00000000000003</ele><time>2026-04-21T12:56:12.146Z</time></trkpt><trkpt lat="32.9578483" lon="9.6232933"><ele>206.0</ele><time>2026-04-21T12:56:13.146Z</time></trkpt><trkpt lat="32.9578267" lon="9.6232117"><ele>206.66666666666669</ele><time>2026-04-21T12:56:14.146Z</time></trkpt><trkpt lat="32.957805" lon="9.623125"><ele>207.33333333333334</ele><time>2026-04-21T12:56:15.145Z</time></trkpt><trkpt lat="32.9577833" lon="9.6230417"><ele>208.0</ele><time>2026-04-21T12:56:16.145Z</time></trkpt><trkpt lat="32.9577567" lon="9.6229533"><ele>208.66666666666669</ele><time>2026-04-21T12:56:17.146Z</time></trkpt><trkpt lat="32.9577233" lon="9.6228683"><ele>209.33333333333334</ele><time>2026-04-21T12:56:18.146Z</time></trkpt><trkpt lat="32.9576883" lon="9.62278"><ele>210.0</ele><time>2026-04-21T12:56:19.146Z</time></trkpt><trkpt lat="32.957655" lon="9.62269"><ele>210.16666666666666</ele><time>2026-04-21T12:56:20.146Z</time></trkpt><trkpt lat="32.95762" lon="9.6226117"><ele>210.33333333333331</ele><time>2026-04-21T12:56:21.146Z</time></trkpt><trkpt lat="32.9575883" lon="9.62254"><ele>210.5</ele><time>2026-04-21T12:56:22.145Z</time></trkpt><trkpt lat="32.9575483" lon="9.62248"><ele>210.66666666666666</ele><time>2026-04-21T12:56:23.146Z</time></trkpt><trkpt lat="32.95749" lon="9.6224233"><ele>210.83333333333331</ele><time>2026-04-21T12:56:24.146Z</time></trkpt><trkpt lat="32.9574333" lon="9.6223617"><ele>211.0</ele><time>2026-04-21T12:56:25.146Z</time></trkpt><trkpt lat="32.9573583" lon="9.6222667"><ele>211.0</ele><time>2026-04-21T12:56:27.146Z</time></trkpt><trkpt lat="32.957325" lon="9.6221417"><ele>211.0</ele><time>2026-04-21T12:56:29.146Z</time></trkpt><trkpt lat="32.9573233" lon="9.6220217"><ele>211.0</ele><time>2026-04-21T12:56:31.145Z</time></trkpt><trkpt lat="32.9573083" lon="9.6218867"><ele>211.0</ele><time>2026-04-21T12:56:33.145Z</time></trkpt><trkpt lat="32.9572917" lon="9.62174"><ele>211.0</ele><time>2026-04-21T12:56:35.146Z</time></trkpt><trkpt lat="32.957275" lon="9.6216283"><ele>210.8</ele><time>2026-04-21T12:56:37.145Z</time></trkpt><trkpt lat="32.9572583" lon="9.6215383"><ele>210.60000000000002</ele><time>2026-04-21T12:56:39.146Z</time></trkpt><trkpt lat="32.9572417" lon="9.621435"><ele>210.4</ele><time>2026-04-21T12:56:41.146Z</time></trkpt><trkpt lat="32.9572217" lon="9.6213283"><ele>210.2</ele><time>2026-04-21T12:56:43.145Z</time></trkpt><trkpt lat="32.9571783" lon="9.621195"><ele>210.0</ele><time>2026-04-21T12:56:45.146Z</time></trkpt><trkpt lat="32.9571217" lon="9.62106"><ele>210.0</ele><time>2026-04-21T12:56:47.146Z</time></trkpt><trkpt lat="32.9570883" lon="9.6209783"><ele>210.0</ele><time>2026-04-21T12:56:48.145Z</time></trkpt><trkpt lat="32.9570533" lon="9.6209083"><ele>210.0</ele><time>2026-04-21T12:56:49.146Z</time></trkpt><trkpt lat="32.95698" lon="9.6208033"><ele>210.0</ele><time>2026-04-21T12:56:51.145Z</time></trkpt><trkpt lat="32.9569283" lon="9.6207567"><ele>210.0</ele><time>2026-04-21T12:56:52.145Z</time></trkpt><trkpt lat="32.9568417" lon="9.6206717"><ele>210.0</ele><time>2026-04-21T12:56:54.146Z</time></trkpt><trkpt lat="32.9567517" lon="9.6205833"><ele>209.8</ele><time>2026-04-21T12:56:56.146Z</time></trkpt><trkpt lat="32.9566583" lon="9.6204917"><ele>209.6</ele><time>2026-04-21T12:56:58.146Z</time></trkpt><trkpt lat="32.9565667" lon="9.62042"><ele>209.39999999999998</ele><time>2026-04-21T12:57:00.146Z</time></trkpt><trkpt lat="32.956475" lon="9.6203883"><ele>209.2</ele><time>2026-04-21T12:57:02.145Z</time></trkpt><trkpt lat="32.9563817" lon="9.62035"><ele>209.0</ele><time>2026-04-21T12:57:04.146Z</time></trkpt><trkpt lat="32.9562817" lon="9.62032"><ele>208.79999999999998</ele><time>2026-04-21T12:57:06.146Z</time></trkpt><trkpt lat="32.95617" lon="9.6202983"><ele>208.6</ele><time>2026-04-21T12:57:08.146Z</time></trkpt><trkpt lat="32.9560467" lon="9.6202567"><ele>208.4</ele><time>2026-04-21T12:57:10.145Z</time></trkpt><trkpt lat="32.9559817" lon="9.6202483"><ele>208.2</ele><time>2026-04-21T12:57:11.145Z</time></trkpt><trkpt lat="32.9559083" lon="9.620245"><ele>208.0</ele><time>2026-04-21T12:57:12.146Z</time></trkpt><trkpt lat="32.9558317" lon="9.6202517"><ele>208.2</ele><time>2026-04-21T12:57:13.145Z</time></trkpt><trkpt lat="32.9557517" lon="9.62027"><ele>208.4</ele><time>2026-04-21T12:57:14.146Z</time></trkpt><trkpt lat="32.95567" lon="9.6202883"><ele>208.6</ele><time>2026-04-21T12:57:15.146Z</time></trkpt><trkpt lat="32.95558" lon="9.6203117"><ele>208.79999999999998</ele><time>2026-04-21T12:57:16.146Z</time></trkpt><trkpt lat="32.9554833" lon="9.6203433"><ele>209.0</ele><time>2026-04-21T12:57:17.146Z</time></trkpt><trkpt lat="32.95539" lon="9.620375"><ele>209.0</ele><time>2026-04-21T12:57:18.145Z</time></trkpt><trkpt lat="32.955295" lon="9.6204117"><ele>209.0</ele><time>2026-04-21T12:57:19.146Z</time></trkpt><trkpt lat="32.9552" lon="9.62044"><ele>209.0</ele><time>2026-04-21T12:57:20.145Z</time></trkpt><trkpt lat="32.95511" lon="9.6204767"><ele>209.0</ele><time>2026-04-21T12:57:21.145Z</time></trkpt><trkpt lat="32.9550183" lon="9.620515"><ele>209.0</ele><time>2026-04-21T12:57:22.145Z</time></trkpt><trkpt lat="32.9549317" lon="9.620545"><ele>209.2</ele><time>2026-04-21T12:57:23.146Z</time></trkpt><trkpt lat="32.954845" lon="9.620575"><ele>209.39999999999998</ele><time>2026-04-21T12:57:24.145Z</time></trkpt><trkpt lat="32.95476" lon="9.620605"><ele>209.6</ele><time>2026-04-21T12:57:25.146Z</time></trkpt><trkpt lat="32.9546833" lon="9.620625"><ele>209.8</ele><time>2026-04-21T12:57:26.145Z</time></trkpt><trkpt lat="32.95462" lon="9.6206417"><ele>210.0</ele><time>2026-04-21T12:57:27.145Z</time></trkpt><trkpt lat="32.9544917" lon="9.6206583"><ele>210.0</ele><time>2026-04-21T12:57:29.145Z</time></trkpt><trkpt lat="32.95442" lon="9.6206633"><ele>210.0</ele><time>2026-04-21T12:57:30.146Z</time></trkpt><trkpt lat="32.9543517" lon="9.620665"><ele>210.0</ele><time>2026-04-21T12:57:31.145Z</time></trkpt><trkpt lat="32.9542817" lon="9.6206667"><ele>210.0</ele><time>2026-04-21T12:57:32.145Z</time></trkpt><trkpt lat="32.9542183" lon="9.620665"><ele>210.0</ele><time>2026-04-21T12:57:33.145Z</time></trkpt><trkpt lat="32.95411" lon="9.6206567"><ele>210.0</ele><time>2026-04-21T12:57:35.145Z</time></trkpt><trkpt lat="32.9540417" lon="9.6206567"><ele>210.0</ele><time>2026-04-21T12:57:37.146Z</time></trkpt><trkpt lat="32.9539767" lon="9.6206683"><ele>210.0</ele><time>2026-04-21T12:58:25.145Z</time></trkpt><trkpt lat="32.9538617" lon="9.62068"><ele>210.0</ele><time>2026-04-21T12:58:27.145Z</time></trkpt><trkpt lat="32.95379" lon="9.6206783"><ele>210.0</ele><time>2026-04-21T12:58:28.145Z</time></trkpt><trkpt lat="32.953715" lon="9.6206783"><ele>210.0</ele><time>2026-04-21T12:58:29.145Z</time></trkpt><trkpt lat="32.95364" lon="9.6206767"><ele>210.0</ele><time>2026-04-21T12:58:30.146Z</time></trkpt><trkpt lat="32.9535617" lon="9.62067"><ele>210.0</ele><time>2026-04-21T12:58:31.145Z</time></trkpt><trkpt lat="32.9534783" lon="9.6206633"><ele>210.0</ele><time>2026-04-21T12:58:32.145Z</time></trkpt><trkpt lat="32.9533933" lon="9.6206633"><ele>210.0</ele><time>2026-04-21T12:58:33.145Z</time></trkpt><trkpt lat="32.9533083" lon="9.62066"><ele>210.0</ele><time>2026-04-21T12:58:34.145Z</time></trkpt><trkpt lat="32.9532167" lon="9.6206583"><ele>210.0</ele><time>2026-04-21T12:58:35.145Z</time></trkpt><trkpt lat="32.9531233" lon="9.620655"><ele>210.0</ele><time>2026-04-21T12:58:36.144Z</time></trkpt><trkpt lat="32.9530333" lon="9.62065"><ele>210.33333333333334</ele><time>2026-04-21T12:58:37.145Z</time></trkpt><trkpt lat="32.9529467" lon="9.6206533"><ele>210.66666666666669</ele><time>2026-04-21T12:58:38.145Z</time></trkpt><trkpt lat="32.9528617" lon="9.620655"><ele>211.0</ele><time>2026-04-21T12:58:39.145Z</time></trkpt><trkpt lat="32.9527767" lon="9.6206533"><ele>211.33333333333334</ele><time>2026-04-21T12:58:40.145Z</time></trkpt><trkpt lat="32.95269" lon="9.6206617"><ele>211.66666666666669</ele><time>2026-04-21T12:58:41.144Z</time></trkpt><trkpt lat="32.9526033" lon="9.6206733"><ele>212.0</ele><time>2026-04-21T12:58:42.144Z</time></trkpt><trkpt lat="32.9525167" lon="9.6206867"><ele>210.83333333333334</ele><time>2026-04-21T12:58:43.145Z</time></trkpt><trkpt lat="32.95243" lon="9.620695"><ele>209.66666666666669</ele><time>2026-04-21T12:58:44.144Z</time></trkpt><trkpt lat="32.9523417" lon="9.6207017"><ele>208.5</ele><time>2026-04-21T12:58:45.144Z</time></trkpt><trkpt lat="32.9522533" lon="9.620705"><ele>207.33333333333331</ele><time>2026-04-21T12:58:46.145Z</time></trkpt><trkpt lat="32.952165" lon="9.6207117"><ele>206.16666666666666</ele><time>2026-04-21T12:58:47.144Z</time></trkpt><trkpt lat="32.9520783" lon="9.620725"><ele>205.0</ele><time>2026-04-21T12:58:48.145Z</time></trkpt><trkpt lat="32.9519967" lon="9.6207317"><ele>204.99999999999997</ele><time>2026-04-21T12:58:49.144Z</time></trkpt><trkpt lat="32.95191" lon="9.6207383"><ele>205.0</ele><time>2026-04-21T12:58:50.144Z</time></trkpt><trkpt lat="32.9518233" lon="9.6207517"><ele>205.0</ele><time>2026-04-21T12:58:51.145Z</time></trkpt><trkpt lat="32.9517417" lon="9.620755"><ele>205.0</ele><time>2026-04-21T12:58:52.144Z</time></trkpt><trkpt lat="32.9516667" lon="9.6207583"><ele>204.99999999999997</ele><time>2026-04-21T12:58:53.145Z</time></trkpt><trkpt lat="32.95159" lon="9.6207617"><ele>205.0</ele><time>2026-04-21T12:58:54.144Z</time></trkpt><trkpt lat="32.95151" lon="9.62077"><ele>204.99999999999997</ele><time>2026-04-21T12:58:55.144Z</time></trkpt><trkpt lat="32.9514383" lon="9.62077"><ele>205.0</ele><time>2026-04-21T12:58:56.145Z</time></trkpt><trkpt lat="32.951375" lon="9.620775"><ele>205.0</ele><time>2026-04-21T12:58:57.145Z</time></trkpt><trkpt lat="32.9512867" lon="9.620755"><ele>205.0</ele><time>2026-04-21T12:58:59.145Z</time></trkpt><trkpt lat="32.951205" lon="9.6207117"><ele>204.99999999999997</ele><time>2026-04-21T12:59:01.144Z</time></trkpt><trkpt lat="32.9511233" lon="9.6207267"><ele>205.0</ele><time>2026-04-21T12:59:03.145Z</time></trkpt><trkpt lat="32.95102" lon="9.6207433"><ele>205.0</ele><time>2026-04-21T12:59:05.144Z</time></trkpt><trkpt lat="32.9508967" lon="9.6207467"><ele>205.0</ele><time>2026-04-21T12:59:07.145Z</time></trkpt><trkpt lat="32.9508" lon="9.6207733"><ele>205.0</ele><time>2026-04-21T12:59:09.144Z</time></trkpt><trkpt lat="32.9507067" lon="9.6208083"><ele>205.0</ele><time>2026-04-21T12:59:11.144Z</time></trkpt><trkpt lat="32.950585" lon="9.6208233"><ele>205.0</ele><time>2026-04-21T12:59:13.145Z</time></trkpt><trkpt lat="32.9504567" lon="9.6208383"><ele>205.8</ele><time>2026-04-21T12:59:15.144Z</time></trkpt><trkpt lat="32.9503933" lon="9.620845"><ele>206.6</ele><time>2026-04-21T12:59:16.145Z</time></trkpt><trkpt lat="32.9502767" lon="9.6208433"><ele>207.39999999999998</ele><time>2026-04-21T12:59:18.145Z</time></trkpt><trkpt lat="32.9501683" lon="9.62078"><ele>208.2</ele><time>2026-04-21T12:59:20.144Z</time></trkpt><trkpt lat="32.95005" lon="9.620755"><ele>209.0</ele><time>2026-04-21T12:59:22.144Z</time></trkpt><trkpt lat="32.9499333" lon="9.6207717"><ele>209.00000000000003</ele><time>2026-04-21T12:59:24.144Z</time></trkpt><trkpt lat="32.9498133" lon="9.6207967"><ele>209.0</ele><time>2026-04-21T12:59:26.144Z</time></trkpt><trkpt lat="32.949745" lon="9.620805"><ele>209.0</ele><time>2026-04-21T12:59:27.144Z</time></trkpt><trkpt lat="32.9496783" lon="9.6208117"><ele>209.0</ele><time>2026-04-21T12:59:28.144Z</time></trkpt><trkpt lat="32.9496083" lon="9.6208217"><ele>209.00000000000003</ele><time>2026-04-21T12:59:29.145Z</time></trkpt><trkpt lat="32.949535" lon="9.6208233"><ele>209.0</ele><time>2026-04-21T12:59:30.145Z</time></trkpt><trkpt lat="32.9494617" lon="9.6208283"><ele>209.0</ele><time>2026-04-21T12:59:31.144Z</time></trkpt><trkpt lat="32.9493967" lon="9.6208333"><ele>209.0</ele><time>2026-04-21T12:59:32.144Z</time></trkpt><trkpt lat="32.9493283" lon="9.6208383"><ele>209.0</ele><time>2026-04-21T12:59:33.145Z</time></trkpt><trkpt lat="32.9492533" lon="9.6208567"><ele>209.0</ele><time>2026-04-21T12:59:34.144Z</time></trkpt><trkpt lat="32.9491767" lon="9.62087"><ele>209.0</ele><time>2026-04-21T12:59:35.144Z</time></trkpt><trkpt lat="32.9491" lon="9.620875"><ele>209.0</ele><time>2026-04-21T12:59:36.144Z</time></trkpt><trkpt lat="32.94902" lon="9.6208867"><ele>209.0</ele><time>2026-04-21T12:59:37.144Z</time></trkpt><trkpt lat="32.9489417" lon="9.6208917"><ele>209.00000000000003</ele><time>2026-04-21T12:59:38.145Z</time></trkpt><trkpt lat="32.9488667" lon="9.6208883"><ele>209.0</ele><time>2026-04-21T12:59:39.145Z</time></trkpt><trkpt lat="32.9487917" lon="9.620875"><ele>209.0</ele><time>2026-04-21T12:59:40.145Z</time></trkpt><trkpt lat="32.948725" lon="9.6208533"><ele>209.0</ele><time>2026-04-21T12:59:41.145Z</time></trkpt><trkpt lat="32.9486167" lon="9.6208333"><ele>209.00000000000003</ele><time>2026-04-21T12:59:43.145Z</time></trkpt><trkpt lat="32.948505" lon="9.62086"><ele>209.0</ele><time>2026-04-21T12:59:45.145Z</time></trkpt><trkpt lat="32.9484417" lon="9.6208883"><ele>209.00000000000003</ele><time>2026-04-21T12:59:46.145Z</time></trkpt><trkpt lat="32.9483767" lon="9.6209067"><ele>209.0</ele><time>2026-04-21T12:59:47.144Z</time></trkpt><trkpt lat="32.9482717" lon="9.62091"><ele>209.0</ele><time>2026-04-21T12:59:49.145Z</time></trkpt><trkpt lat="32.9481517" lon="9.6209033"><ele>209.0</ele><time>2026-04-21T12:59:51.144Z</time></trkpt><trkpt lat="32.9480817" lon="9.620905"><ele>209.00000000000003</ele><time>2026-04-21T12:59:52.144Z</time></trkpt><trkpt lat="32.948005" lon="9.6209083"><ele>209.0</ele><time>2026-04-21T12:59:53.144Z</time></trkpt><trkpt lat="32.94793" lon="9.620915"><ele>209.00000000000003</ele><time>2026-04-21T12:59:54.144Z</time></trkpt><trkpt lat="32.9478567" lon="9.62092"><ele>209.0</ele><time>2026-04-21T12:59:55.145Z</time></trkpt><trkpt lat="32.94778" lon="9.6209233"><ele>209.0</ele><time>2026-04-21T12:59:56.145Z</time></trkpt><trkpt lat="32.947695" lon="9.6209267"><ele>209.0</ele><time>2026-04-21T12:59:57.144Z</time></trkpt><trkpt lat="32.9476033" lon="9.620925"><ele>209.00000000000003</ele><time>2026-04-21T12:59:58.144Z</time></trkpt><trkpt lat="32.9475167" lon="9.620925"><ele>209.0</ele><time>2026-04-21T12:59:59.145Z</time></trkpt><trkpt lat="32.9474317" lon="9.620925"><ele>209.16666666666669</ele><time>2026-04-21T13:00:00.144Z</time></trkpt><trkpt lat="32.9473467" lon="9.6209233"><ele>209.33333333333334</ele><time>2026-04-21T13:00:01.144Z</time></trkpt><trkpt lat="32.9472583" lon="9.620925"><ele>209.5</ele><time>2026-04-21T13:00:02.144Z</time></trkpt><trkpt lat="32.9471733" lon="9.62093"><ele>209.66666666666669</ele><time>2026-04-21T13:00:03.144Z</time></trkpt><trkpt lat="32.9470917" lon="9.62094"><ele>209.83333333333334</ele><time>2026-04-21T13:00:04.144Z</time></trkpt><trkpt lat="32.94702" lon="9.6209533"><ele>210.0</ele><time>2026-04-21T13:00:05.145Z</time></trkpt><trkpt lat="32.9469567" lon="9.6209767"><ele>210.0</ele><time>2026-04-21T13:00:06.145Z</time></trkpt><trkpt lat="32.9468933" lon="9.6210033"><ele>210.0</ele><time>2026-04-21T13:00:07.144Z</time></trkpt><trkpt lat="32.946785" lon="9.621045"><ele>210.0</ele><time>2026-04-21T13:00:09.144Z</time></trkpt><trkpt lat="32.9466817" lon="9.6210417"><ele>210.0</ele><time>2026-04-21T13:00:11.144Z</time></trkpt><trkpt lat="32.946585" lon="9.6209983"><ele>210.0</ele><time>2026-04-21T13:00:13.144Z</time></trkpt><trkpt lat="32.94648" lon="9.620965"><ele>210.33333333333334</ele><time>2026-04-21T13:00:15.145Z</time></trkpt><trkpt lat="32.9463633" lon="9.6209833"><ele>210.66666666666669</ele><time>2026-04-21T13:00:17.145Z</time></trkpt><trkpt lat="32.9462933" lon="9.62099"><ele>211.0</ele><time>2026-04-21T13:00:18.144Z</time></trkpt><trkpt lat="32.946215" lon="9.6209917"><ele>211.33333333333334</ele><time>2026-04-21T13:00:19.144Z</time></trkpt><trkpt lat="32.9461433" lon="9.6209867"><ele>211.66666666666669</ele><time>2026-04-21T13:00:20.144Z</time></trkpt><trkpt lat="32.94608" lon="9.6209833"><ele>212.0</ele><time>2026-04-21T13:00:21.145Z</time></trkpt><trkpt lat="32.945965" lon="9.6209917"><ele>212.00000000000003</ele><time>2026-04-21T13:00:23.145Z</time></trkpt><trkpt lat="32.9459" lon="9.6210033"><ele>212.0</ele><time>2026-04-21T13:00:24.145Z</time></trkpt><trkpt lat="32.9457967" lon="9.6209983"><ele>212.0</ele><time>2026-04-21T13:00:26.145Z</time></trkpt><trkpt lat="32.94568" lon="9.6209967"><ele>212.0</ele><time>2026-04-21T13:00:28.144Z</time></trkpt><trkpt lat="32.9456167" lon="9.6209983"><ele>212.00000000000003</ele><time>2026-04-21T13:00:29.145Z</time></trkpt><trkpt lat="32.9455483" lon="9.6210117"><ele>212.0</ele><time>2026-04-21T13:00:30.144Z</time></trkpt><trkpt lat="32.9454733" lon="9.6210117"><ele>212.00000000000003</ele><time>2026-04-21T13:00:31.145Z</time></trkpt><trkpt lat="32.945395" lon="9.6210083"><ele>212.0</ele><time>2026-04-21T13:00:32.145Z</time></trkpt><trkpt lat="32.9453117" lon="9.6210083"><ele>212.0</ele><time>2026-04-21T13:00:33.144Z</time></trkpt><trkpt lat="32.9452233" lon="9.62101"><ele>212.0</ele><time>2026-04-21T13:00:34.144Z</time></trkpt><trkpt lat="32.9451383" lon="9.6210033"><ele>212.00000000000003</ele><time>2026-04-21T13:00:35.145Z</time></trkpt><trkpt lat="32.9450567" lon="9.6210033"><ele>212.0</ele><time>2026-04-21T13:00:36.144Z</time></trkpt><trkpt lat="32.944975" lon="9.6210067"><ele>212.00000000000003</ele><time>2026-04-21T13:00:37.145Z</time></trkpt><trkpt lat="32.9449" lon="9.621015"><ele>212.0</ele><time>2026-04-21T13:00:38.144Z</time></trkpt><trkpt lat="32.9448333" lon="9.62102"><ele>212.0</ele><time>2026-04-21T13:00:39.144Z</time></trkpt><trkpt lat="32.94473" lon="9.6210283"><ele>212.0</ele><time>2026-04-21T13:00:41.145Z</time></trkpt><trkpt lat="32.9446167" lon="9.6210383"><ele>212.00000000000003</ele><time>2026-04-21T13:00:43.145Z</time></trkpt><trkpt lat="32.9445467" lon="9.6210483"><ele>212.0</ele><time>2026-04-21T13:00:44.145Z</time></trkpt><trkpt lat="32.9444767" lon="9.6210483"><ele>212.00000000000003</ele><time>2026-04-21T13:00:45.144Z</time></trkpt><trkpt lat="32.9444017" lon="9.6210517"><ele>212.0</ele><time>2026-04-21T13:00:46.145Z</time></trkpt><trkpt lat="32.944335" lon="9.6210533"><ele>212.0</ele><time>2026-04-21T13:00:47.144Z</time></trkpt><trkpt lat="32.9442267" lon="9.621055"><ele>212.0</ele><time>2026-04-21T13:00:49.144Z</time></trkpt><trkpt lat="32.9441483" lon="9.6210133"><ele>212.00000000000003</ele><time>2026-04-21T13:00:51.144Z</time></trkpt><trkpt lat="32.94408" lon="9.620945"><ele>212.0</ele><time>2026-04-21T13:00:53.144Z</time></trkpt><trkpt lat="32.943975" lon="9.6209367"><ele>211.66666666666669</ele><time>2026-04-21T13:00:55.145Z</time></trkpt><trkpt lat="32.943915" lon="9.6209617"><ele>211.33333333333334</ele><time>2026-04-21T13:00:56.145Z</time></trkpt><trkpt lat="32.9438483" lon="9.6209933"><ele>211.0</ele><time>2026-04-21T13:00:57.145Z</time></trkpt><trkpt lat="32.9437767" lon="9.6210283"><ele>210.66666666666669</ele><time>2026-04-21T13:00:58.144Z</time></trkpt><trkpt lat="32.9437033" lon="9.6210567"><ele>210.33333333333334</ele><time>2026-04-21T13:00:59.145Z</time></trkpt><trkpt lat="32.94362" lon="9.6210767"><ele>210.0</ele><time>2026-04-21T13:01:00.145Z</time></trkpt><trkpt lat="32.9435333" lon="9.621085"><ele>210.0</ele><time>2026-04-21T13:01:01.144Z</time></trkpt><trkpt lat="32.943445" lon="9.621085"><ele>210.0</ele><time>2026-04-21T13:01:02.144Z</time></trkpt><trkpt lat="32.9433517" lon="9.6210767"><ele>210.0</ele><time>2026-04-21T13:01:03.145Z</time></trkpt><trkpt lat="32.94326" lon="9.6210717"><ele>210.0</ele><time>2026-04-21T13:01:04.145Z</time></trkpt><trkpt lat="32.9431683" lon="9.62107"><ele>210.0</ele><time>2026-04-21T13:01:05.144Z</time></trkpt><trkpt lat="32.943075" lon="9.621075"><ele>210.16666666666666</ele><time>2026-04-21T13:01:06.145Z</time></trkpt><trkpt lat="32.9429817" lon="9.62108"><ele>210.33333333333331</ele><time>2026-04-21T13:01:07.144Z</time></trkpt><trkpt lat="32.94289" lon="9.6210817"><ele>210.5</ele><time>2026-04-21T13:01:08.145Z</time></trkpt><trkpt lat="32.9427983" lon="9.6210867"><ele>210.66666666666666</ele><time>2026-04-21T13:01:09.145Z</time></trkpt><trkpt lat="32.9427117" lon="9.6210883"><ele>210.83333333333331</ele><time>2026-04-21T13:01:10.144Z</time></trkpt><trkpt lat="32.9426267" lon="9.6210933"><ele>211.0</ele><time>2026-04-21T13:01:11.144Z</time></trkpt><trkpt lat="32.9425433" lon="9.6210983"><ele>211.33333333333331</ele><time>2026-04-21T13:01:12.145Z</time></trkpt><trkpt lat="32.9424617" lon="9.6211083"><ele>211.66666666666666</ele><time>2026-04-21T13:01:13.144Z</time></trkpt><trkpt lat="32.9423833" lon="9.6211283"><ele>212.0</ele><time>2026-04-21T13:01:14.145Z</time></trkpt><trkpt lat="32.94231" lon="9.6211333"><ele>212.33333333333331</ele><time>2026-04-21T13:01:15.145Z</time></trkpt><trkpt lat="32.94224" lon="9.6211367"><ele>212.66666666666666</ele><time>2026-04-21T13:01:16.145Z</time></trkpt><trkpt lat="32.942155" lon="9.6211367"><ele>213.0</ele><time>2026-04-21T13:01:17.145Z</time></trkpt><trkpt lat="32.9420717" lon="9.6211383"><ele>213.0</ele><time>2026-04-21T13:01:18.144Z</time></trkpt><trkpt lat="32.9419917" lon="9.6211367"><ele>213.0</ele><time>2026-04-21T13:01:19.144Z</time></trkpt><trkpt lat="32.94191" lon="9.62114"><ele>213.0</ele><time>2026-04-21T13:01:20.144Z</time></trkpt><trkpt lat="32.94183" lon="9.6211467"><ele>213.0</ele><time>2026-04-21T13:01:21.144Z</time></trkpt><trkpt lat="32.9417583" lon="9.621155"><ele>213.0</ele><time>2026-04-21T13:01:22.144Z</time></trkpt><trkpt lat="32.941695" lon="9.62116"><ele>213.0</ele><time>2026-04-21T13:01:23.145Z</time></trkpt><trkpt lat="32.9415883" lon="9.6211533"><ele>213.0</ele><time>2026-04-21T13:01:25.145Z</time></trkpt><trkpt lat="32.941455" lon="9.6211683"><ele>213.0</ele><time>2026-04-21T13:01:27.145Z</time></trkpt><trkpt lat="32.9413833" lon="9.6211767"><ele>213.0</ele><time>2026-04-21T13:01:28.145Z</time></trkpt><trkpt lat="32.94131" lon="9.6211767"><ele>213.0</ele><time>2026-04-21T13:01:29.144Z</time></trkpt><trkpt lat="32.9412333" lon="9.621175"><ele>213.0</ele><time>2026-04-21T13:01:30.144Z</time></trkpt><trkpt lat="32.9411583" lon="9.6211733"><ele>213.0</ele><time>2026-04-21T13:01:31.144Z</time></trkpt><trkpt lat="32.9410817" lon="9.6211667"><ele>213.0</ele><time>2026-04-21T13:01:32.145Z</time></trkpt><trkpt lat="32.9409983" lon="9.6211667"><ele>213.0</ele><time>2026-04-21T13:01:33.144Z</time></trkpt><trkpt lat="32.9409133" lon="9.62117"><ele>213.0</ele><time>2026-04-21T13:01:34.145Z</time></trkpt><trkpt lat="32.9408267" lon="9.6211733"><ele>213.0</ele><time>2026-04-21T13:01:35.144Z</time></trkpt><trkpt lat="32.9407317" lon="9.62118"><ele>213.0</ele><time>2026-04-21T13:01:36.145Z</time></trkpt><trkpt lat="32.9406317" lon="9.621195"><ele>212.83333333333334</ele><time>2026-04-21T13:01:37.145Z</time></trkpt><trkpt lat="32.940545" lon="9.6211917"><ele>212.66666666666669</ele><time>2026-04-21T13:01:38.145Z</time></trkpt><trkpt lat="32.94046" lon="9.621195"><ele>212.5</ele><time>2026-04-21T13:01:39.144Z</time></trkpt><trkpt lat="32.940375" lon="9.6211917"><ele>212.33333333333334</ele><time>2026-04-21T13:01:40.145Z</time></trkpt><trkpt lat="32.9402883" lon="9.6211883"><ele>212.16666666666669</ele><time>2026-04-21T13:01:41.144Z</time></trkpt><trkpt lat="32.9402083" lon="9.62119"><ele>212.0</ele><time>2026-04-21T13:01:42.144Z</time></trkpt><trkpt lat="32.9401317" lon="9.62119"><ele>212.16666666666669</ele><time>2026-04-21T13:01:43.145Z</time></trkpt><trkpt lat="32.9400467" lon="9.6212"><ele>212.33333333333334</ele><time>2026-04-21T13:01:44.145Z</time></trkpt><trkpt lat="32.9399633" lon="9.6212017"><ele>212.5</ele><time>2026-04-21T13:01:45.144Z</time></trkpt><trkpt lat="32.9398817" lon="9.6212017"><ele>212.66666666666669</ele><time>2026-04-21T13:01:46.145Z</time></trkpt><trkpt lat="32.9397983" lon="9.6212067"><ele>212.83333333333334</ele><time>2026-04-21T13:01:47.144Z</time></trkpt><trkpt lat="32.9397233" lon="9.6212133"><ele>213.0</ele><time>2026-04-21T13:01:48.144Z</time></trkpt><trkpt lat="32.9396433" lon="9.6212133"><ele>213.0</ele><time>2026-04-21T13:01:49.143Z</time></trkpt><trkpt lat="32.9395667" lon="9.6212167"><ele>213.0</ele><time>2026-04-21T13:01:50.144Z</time></trkpt><trkpt lat="32.9394967" lon="9.6212233"><ele>213.0</ele><time>2026-04-21T13:01:51.143Z</time></trkpt><trkpt lat="32.9394267" lon="9.6212283"><ele>213.0</ele><time>2026-04-21T13:01:52.143Z</time></trkpt><trkpt lat="32.93935" lon="9.6212367"><ele>213.0</ele><time>2026-04-21T13:01:53.143Z</time></trkpt><trkpt lat="32.939265" lon="9.6212417"><ele>213.0</ele><time>2026-04-21T13:01:54.143Z</time></trkpt><trkpt lat="32.9391783" lon="9.62124"><ele>213.0</ele><time>2026-04-21T13:01:55.143Z</time></trkpt><trkpt lat="32.9390867" lon="9.62124"><ele>213.0</ele><time>2026-04-21T13:01:56.144Z</time></trkpt><trkpt lat="32.9389933" lon="9.6212433"><ele>213.0</ele><time>2026-04-21T13:01:57.143Z</time></trkpt><trkpt lat="32.9388967" lon="9.6212467"><ele>213.0</ele><time>2026-04-21T13:01:58.143Z</time></trkpt><trkpt lat="32.9388133" lon="9.6212483"><ele>213.0</ele><time>2026-04-21T13:01:59.144Z</time></trkpt><trkpt lat="32.938745" lon="9.62125"><ele>213.0</ele><time>2026-04-21T13:02:00.143Z</time></trkpt><trkpt lat="32.9386817" lon="9.6212517"><ele>213.0</ele><time>2026-04-21T13:02:01.143Z</time></trkpt><trkpt lat="32.9386083" lon="9.62125"><ele>213.0</ele><time>2026-04-21T13:02:02.143Z</time></trkpt><trkpt lat="32.9385267" lon="9.62125"><ele>213.0</ele><time>2026-04-21T13:02:03.144Z</time></trkpt><trkpt lat="32.9384467" lon="9.62125"><ele>213.0</ele><time>2026-04-21T13:02:04.144Z</time></trkpt><trkpt lat="32.93837" lon="9.6212533"><ele>213.0</ele><time>2026-04-21T13:02:05.143Z</time></trkpt><trkpt lat="32.9382917" lon="9.6212633"><ele>213.0</ele><time>2026-04-21T13:02:06.143Z</time></trkpt><trkpt lat="32.9382067" lon="9.62127"><ele>213.0</ele><time>2026-04-21T13:02:07.143Z</time></trkpt><trkpt lat="32.938115" lon="9.6212717"><ele>213.0</ele><time>2026-04-21T13:02:08.144Z</time></trkpt><trkpt lat="32.9380217" lon="9.6212767"><ele>213.0</ele><time>2026-04-21T13:02:09.143Z</time></trkpt><trkpt lat="32.9379217" lon="9.6212817"><ele>213.0</ele><time>2026-04-21T13:02:10.143Z</time></trkpt><trkpt lat="32.9378183" lon="9.62129"><ele>213.0</ele><time>2026-04-21T13:02:11.144Z</time></trkpt><trkpt lat="32.937715" lon="9.621295"><ele>213.0</ele><time>2026-04-21T13:02:12.143Z</time></trkpt><trkpt lat="32.9376117" lon="9.6212967"><ele>213.0</ele><time>2026-04-21T13:02:13.143Z</time></trkpt><trkpt lat="32.93752" lon="9.6213033"><ele>213.0</ele><time>2026-04-21T13:02:14.143Z</time></trkpt><trkpt lat="32.9374417" lon="9.6213133"><ele>213.0</ele><time>2026-04-21T13:02:15.143Z</time></trkpt><trkpt lat="32.9373683" lon="9.6213233"><ele>213.0</ele><time>2026-04-21T13:02:16.143Z</time></trkpt><trkpt lat="32.937295" lon="9.6213317"><ele>213.0</ele><time>2026-04-21T13:02:17.143Z</time></trkpt><trkpt lat="32.937215" lon="9.62133"><ele>213.0</ele><time>2026-04-21T13:02:18.144Z</time></trkpt><trkpt lat="32.93713" lon="9.6213317"><ele>213.0</ele><time>2026-04-21T13:02:19.144Z</time></trkpt><trkpt lat="32.9370533" lon="9.6213317"><ele>213.0</ele><time>2026-04-21T13:02:20.144Z</time></trkpt><trkpt lat="32.9369783" lon="9.6213333"><ele>213.0</ele><time>2026-04-21T13:02:21.144Z</time></trkpt><trkpt lat="32.9368867" lon="9.6213367"><ele>213.0</ele><time>2026-04-21T13:02:22.143Z</time></trkpt><trkpt lat="32.9367967" lon="9.6213367"><ele>213.0</ele><time>2026-04-21T13:02:23.143Z</time></trkpt><trkpt lat="32.9367117" lon="9.6213383"><ele>212.83333333333334</ele><time>2026-04-21T13:02:24.144Z</time></trkpt><trkpt lat="32.9366183" lon="9.6213383"><ele>212.66666666666669</ele><time>2026-04-21T13:02:25.143Z</time></trkpt><trkpt lat="32.93653" lon="9.6213383"><ele>212.5</ele><time>2026-04-21T13:02:26.143Z</time></trkpt><trkpt lat="32.9364417" lon="9.6213417"><ele>212.33333333333334</ele><time>2026-04-21T13:02:27.143Z</time></trkpt><trkpt lat="32.9363533" lon="9.6213467"><ele>212.16666666666669</ele><time>2026-04-21T13:02:28.143Z</time></trkpt><trkpt lat="32.9362683" lon="9.6213533"><ele>212.0</ele><time>2026-04-21T13:02:29.143Z</time></trkpt><trkpt lat="32.93618" lon="9.621355"><ele>212.00000000000003</ele><time>2026-04-21T13:02:30.144Z</time></trkpt><trkpt lat="32.9360917" lon="9.621355"><ele>212.0</ele><time>2026-04-21T13:02:31.144Z</time></trkpt><trkpt lat="32.9360033" lon="9.6213617"><ele>212.0</ele><time>2026-04-21T13:02:32.144Z</time></trkpt><trkpt lat="32.935915" lon="9.62137"><ele>212.0</ele><time>2026-04-21T13:02:33.144Z</time></trkpt><trkpt lat="32.9358217" lon="9.6213733"><ele>212.00000000000003</ele><time>2026-04-21T13:02:34.144Z</time></trkpt><trkpt lat="32.9357333" lon="9.6213783"><ele>212.0</ele><time>2026-04-21T13:02:35.144Z</time></trkpt><trkpt lat="32.93564" lon="9.621385"><ele>212.33333333333334</ele><time>2026-04-21T13:02:36.143Z</time></trkpt><trkpt lat="32.9355583" lon="9.6213867"><ele>212.66666666666669</ele><time>2026-04-21T13:02:37.143Z</time></trkpt><trkpt lat="32.9354733" lon="9.6213867"><ele>213.0</ele><time>2026-04-21T13:02:38.144Z</time></trkpt><trkpt lat="32.9353867" lon="9.621385"><ele>213.33333333333331</ele><time>2026-04-21T13:02:39.143Z</time></trkpt><trkpt lat="32.935305" lon="9.6213817"><ele>213.66666666666666</ele><time>2026-04-21T13:02:40.144Z</time></trkpt><trkpt lat="32.9352133" lon="9.6213867"><ele>214.0</ele><time>2026-04-21T13:02:41.144Z</time></trkpt><trkpt lat="32.9351183" lon="9.6213833"><ele>214.0</ele><time>2026-04-21T13:02:42.143Z</time></trkpt><trkpt lat="32.9350267" lon="9.62139"><ele>213.99999999999997</ele><time>2026-04-21T13:02:43.143Z</time></trkpt><trkpt lat="32.9349367" lon="9.6213967"><ele>213.99999999999997</ele><time>2026-04-21T13:02:44.143Z</time></trkpt><trkpt lat="32.934845" lon="9.6214067"><ele>214.0</ele><time>2026-04-21T13:02:45.144Z</time></trkpt><trkpt lat="32.9347533" lon="9.6214083"><ele>214.0</ele><time>2026-04-21T13:02:46.144Z</time></trkpt><trkpt lat="32.9346667" lon="9.6214133"><ele>213.99999999999997</ele><time>2026-04-21T13:02:47.144Z</time></trkpt><trkpt lat="32.934575" lon="9.6214183"><ele>214.0</ele><time>2026-04-21T13:02:48.143Z</time></trkpt><trkpt lat="32.93448" lon="9.6214217"><ele>214.0</ele><time>2026-04-21T13:02:49.144Z</time></trkpt><trkpt lat="32.934395" lon="9.6214167"><ele>214.0</ele><time>2026-04-21T13:02:50.144Z</time></trkpt><trkpt lat="32.9343033" lon="9.6214167"><ele>213.99999999999997</ele><time>2026-04-21T13:02:51.143Z</time></trkpt><trkpt lat="32.9342217" lon="9.6214217"><ele>214.0</ele><time>2026-04-21T13:02:52.143Z</time></trkpt><trkpt lat="32.934125" lon="9.6214267"><ele>214.2</ele><time>2026-04-21T13:02:53.144Z</time></trkpt><trkpt lat="32.934035" lon="9.62143"><ele>214.39999999999998</ele><time>2026-04-21T13:02:54.143Z</time></trkpt><trkpt lat="32.9339417" lon="9.6214383"><ele>214.6</ele><time>2026-04-21T13:02:55.144Z</time></trkpt><trkpt lat="32.9338517" lon="9.6214383"><ele>214.8</ele><time>2026-04-21T13:02:56.143Z</time></trkpt><trkpt lat="32.9337533" lon="9.6214417"><ele>215.0</ele><time>2026-04-21T13:02:57.143Z</time></trkpt><trkpt lat="32.93366" lon="9.6214433"><ele>215.0</ele><time>2026-04-21T13:02:58.144Z</time></trkpt><trkpt lat="32.9335683" lon="9.6214383"><ele>215.0</ele><time>2026-04-21T13:02:59.144Z</time></trkpt><trkpt lat="32.933475" lon="9.6214433"><ele>215.0</ele><time>2026-04-21T13:03:00.144Z</time></trkpt><trkpt lat="32.9333833" lon="9.6214483"><ele>215.0</ele><time>2026-04-21T13:03:01.144Z</time></trkpt><trkpt lat="32.9333033" lon="9.621455"><ele>215.0</ele><time>2026-04-21T13:03:02.144Z</time></trkpt><trkpt lat="32.9332083" lon="9.621455"><ele>214.83333333333334</ele><time>2026-04-21T13:03:03.144Z</time></trkpt><trkpt lat="32.9331267" lon="9.62146"><ele>214.66666666666669</ele><time>2026-04-21T13:03:04.144Z</time></trkpt><trkpt lat="32.9330383" lon="9.62147"><ele>214.5</ele><time>2026-04-21T13:03:05.143Z</time></trkpt><trkpt lat="32.932945" lon="9.6214733"><ele>214.33333333333331</ele><time>2026-04-21T13:03:06.143Z</time></trkpt><trkpt lat="32.9328567" lon="9.621475"><ele>214.16666666666666</ele><time>2026-04-21T13:03:07.143Z</time></trkpt><trkpt lat="32.9327633" lon="9.62148"><ele>214.0</ele><time>2026-04-21T13:03:08.144Z</time></trkpt><trkpt lat="32.93267" lon="9.621475"><ele>213.99999999999997</ele><time>2026-04-21T13:03:09.144Z</time></trkpt><trkpt lat="32.9325817" lon="9.6214733"><ele>214.0</ele><time>2026-04-21T13:03:10.143Z</time></trkpt><trkpt lat="32.9324917" lon="9.6214767"><ele>214.0</ele><time>2026-04-21T13:03:11.144Z</time></trkpt><trkpt lat="32.9324067" lon="9.6214867"><ele>214.0</ele><time>2026-04-21T13:03:12.144Z</time></trkpt><trkpt lat="32.932315" lon="9.62149"><ele>213.99999999999997</ele><time>2026-04-21T13:03:13.143Z</time></trkpt><trkpt lat="32.932225" lon="9.6214883"><ele>214.0</ele><time>2026-04-21T13:03:14.143Z</time></trkpt><trkpt lat="32.93213" lon="9.6214917"><ele>214.33333333333331</ele><time>2026-04-21T13:03:15.143Z</time></trkpt><trkpt lat="32.932035" lon="9.6214933"><ele>214.66666666666666</ele><time>2026-04-21T13:03:16.144Z</time></trkpt><trkpt lat="32.93194" lon="9.6215017"><ele>215.0</ele><time>2026-04-21T13:03:17.144Z</time></trkpt><trkpt lat="32.93185" lon="9.6215083"><ele>215.33333333333331</ele><time>2026-04-21T13:03:18.144Z</time></trkpt><trkpt lat="32.9317617" lon="9.6215133"><ele>215.66666666666666</ele><time>2026-04-21T13:03:19.143Z</time></trkpt><trkpt lat="32.9316833" lon="9.6215167"><ele>216.0</ele><time>2026-04-21T13:03:20.144Z</time></trkpt><trkpt lat="32.9316067" lon="9.6215217"><ele>216.20000000000002</ele><time>2026-04-21T13:03:21.144Z</time></trkpt><trkpt lat="32.9315167" lon="9.6215217"><ele>216.40000000000003</ele><time>2026-04-21T13:03:22.143Z</time></trkpt><trkpt lat="32.931425" lon="9.621525"><ele>216.6</ele><time>2026-04-21T13:03:23.143Z</time></trkpt><trkpt lat="32.9313283" lon="9.6215283"><ele>216.8</ele><time>2026-04-21T13:03:24.143Z</time></trkpt><trkpt lat="32.9312317" lon="9.6215383"><ele>217.0</ele><time>2026-04-21T13:03:25.143Z</time></trkpt><trkpt lat="32.9311367" lon="9.6215517"><ele>217.0</ele><time>2026-04-21T13:03:26.144Z</time></trkpt><trkpt lat="32.931045" lon="9.6215467"><ele>217.0</ele><time>2026-04-21T13:03:27.143Z</time></trkpt><trkpt lat="32.9309483" lon="9.6215467"><ele>217.0</ele><time>2026-04-21T13:03:28.143Z</time></trkpt><trkpt lat="32.9308517" lon="9.6215517"><ele>217.0</ele><time>2026-04-21T13:03:29.144Z</time></trkpt><trkpt lat="32.930745" lon="9.6215517"><ele>217.0</ele><time>2026-04-21T13:03:30.144Z</time></trkpt><trkpt lat="32.93064" lon="9.621555"><ele>217.0</ele><time>2026-04-21T13:03:31.144Z</time></trkpt><trkpt lat="32.9305367" lon="9.621565"><ele>217.0</ele><time>2026-04-21T13:03:32.144Z</time></trkpt><trkpt lat="32.93044" lon="9.6215683"><ele>217.0</ele><time>2026-04-21T13:03:33.143Z</time></trkpt><trkpt lat="32.9303433" lon="9.6215683"><ele>217.0</ele><time>2026-04-21T13:03:34.144Z</time></trkpt><trkpt lat="32.93025" lon="9.6215683"><ele>217.0</ele><time>2026-04-21T13:03:35.143Z</time></trkpt><trkpt lat="32.9301467" lon="9.6215717"><ele>216.6</ele><time>2026-04-21T13:03:36.143Z</time></trkpt><trkpt lat="32.9300517" lon="9.6215717"><ele>216.2</ele><time>2026-04-21T13:03:37.143Z</time></trkpt><trkpt lat="32.92996" lon="9.621575"><ele>215.8</ele><time>2026-04-21T13:03:38.144Z</time></trkpt><trkpt lat="32.9298733" lon="9.6215783"><ele>215.4</ele><time>2026-04-21T13:03:39.143Z</time></trkpt><trkpt lat="32.9297817" lon="9.621585"><ele>215.0</ele><time>2026-04-21T13:03:40.143Z</time></trkpt><trkpt lat="32.9296883" lon="9.6215933"><ele>215.00000000000003</ele><time>2026-04-21T13:03:41.143Z</time></trkpt><trkpt lat="32.9296133" lon="9.6215933"><ele>215.0</ele><time>2026-04-21T13:03:42.144Z</time></trkpt><trkpt lat="32.9295333" lon="9.621595"><ele>215.0</ele><time>2026-04-21T13:03:43.144Z</time></trkpt><trkpt lat="32.9294617" lon="9.62159"><ele>215.0</ele><time>2026-04-21T13:03:44.143Z</time></trkpt><trkpt lat="32.929395" lon="9.6215883"><ele>215.00000000000003</ele><time>2026-04-21T13:03:45.143Z</time></trkpt><trkpt lat="32.929305" lon="9.62158"><ele>215.0</ele><time>2026-04-21T13:03:46.143Z</time></trkpt><trkpt lat="32.929225" lon="9.6215883"><ele>215.2</ele><time>2026-04-21T13:03:47.143Z</time></trkpt><trkpt lat="32.9291417" lon="9.6215983"><ele>215.4</ele><time>2026-04-21T13:03:48.144Z</time></trkpt><trkpt lat="32.9290533" lon="9.6216083"><ele>215.60000000000002</ele><time>2026-04-21T13:03:49.144Z</time></trkpt><trkpt lat="32.9289533" lon="9.6216167"><ele>215.8</ele><time>2026-04-21T13:03:50.144Z</time></trkpt><trkpt lat="32.9288483" lon="9.6216217"><ele>216.0</ele><time>2026-04-21T13:03:51.143Z</time></trkpt><trkpt lat="32.9287483" lon="9.6216233"><ele>216.0</ele><time>2026-04-21T13:03:52.143Z</time></trkpt><trkpt lat="32.9286533" lon="9.6216183"><ele>216.00000000000003</ele><time>2026-04-21T13:03:53.143Z</time></trkpt><trkpt lat="32.9285467" lon="9.6216233"><ele>216.00000000000003</ele><time>2026-04-21T13:03:54.144Z</time></trkpt><trkpt lat="32.9284417" lon="9.6216317"><ele>216.0</ele><time>2026-04-21T13:03:55.143Z</time></trkpt><trkpt lat="32.9283367" lon="9.6216383"><ele>216.0</ele><time>2026-04-21T13:03:56.143Z</time></trkpt><trkpt lat="32.92823" lon="9.6216433"><ele>215.8</ele><time>2026-04-21T13:03:57.144Z</time></trkpt><trkpt lat="32.92813" lon="9.6216533"><ele>215.60000000000002</ele><time>2026-04-21T13:03:58.144Z</time></trkpt><trkpt lat="32.9280283" lon="9.6216567"><ele>215.4</ele><time>2026-04-21T13:03:59.143Z</time></trkpt><trkpt lat="32.927925" lon="9.621655"><ele>215.2</ele><time>2026-04-21T13:04:00.144Z</time></trkpt><trkpt lat="32.9278267" lon="9.6216567"><ele>215.0</ele><time>2026-04-21T13:04:01.143Z</time></trkpt><trkpt lat="32.927725" lon="9.6216617"><ele>215.0</ele><time>2026-04-21T13:04:02.143Z</time></trkpt><trkpt lat="32.9276217" lon="9.6216683"><ele>215.0</ele><time>2026-04-21T13:04:03.143Z</time></trkpt><trkpt lat="32.9275067" lon="9.62168"><ele>215.0</ele><time>2026-04-21T13:04:04.143Z</time></trkpt><trkpt lat="32.9274083" lon="9.6216867"><ele>215.0</ele><time>2026-04-21T13:04:05.144Z</time></trkpt><trkpt lat="32.9273" lon="9.6216883"><ele>215.0</ele><time>2026-04-21T13:04:06.143Z</time></trkpt><trkpt lat="32.927195" lon="9.6216983"><ele>215.0</ele><time>2026-04-21T13:04:07.144Z</time></trkpt><trkpt lat="32.9270867" lon="9.6217033"><ele>215.0</ele><time>2026-04-21T13:04:08.144Z</time></trkpt><trkpt lat="32.92699" lon="9.6217"><ele>215.0</ele><time>2026-04-21T13:04:09.144Z</time></trkpt><trkpt lat="32.926905" lon="9.6217"><ele>215.0</ele><time>2026-04-21T13:04:10.143Z</time></trkpt><trkpt lat="32.9268383" lon="9.621695"><ele>215.0</ele><time>2026-04-21T13:04:11.143Z</time></trkpt><trkpt lat="32.9267367" lon="9.6216983"><ele>215.00000000000003</ele><time>2026-04-21T13:04:13.144Z</time></trkpt><trkpt lat="32.9266567" lon="9.6216983"><ele>215.0</ele><time>2026-04-21T13:04:15.144Z</time></trkpt><trkpt lat="32.9265883" lon="9.6216983"><ele>215.0</ele><time>2026-04-21T13:04:18.144Z</time></trkpt><trkpt lat="32.9265533" lon="9.6217883"><ele>215.0</ele><time>2026-04-21T13:04:31.143Z</time></trkpt><trkpt lat="32.9266183" lon="9.62184"><ele>215.00000000000003</ele><time>2026-04-21T13:04:34.143Z</time></trkpt><trkpt lat="32.9266783" lon="9.6217717"><ele>215.0</ele><time>2026-04-21T13:04:37.143Z</time></trkpt><trkpt lat="32.9267367" lon="9.6217117"><ele>215.00000000000003</ele><time>2026-04-21T13:04:40.144Z</time></trkpt><trkpt lat="32.9268217" lon="9.6216833"><ele>215.0</ele><time>2026-04-21T13:04:42.144Z</time></trkpt><trkpt lat="32.9268883" lon="9.62168"><ele>215.0</ele><time>2026-04-21T13:04:43.143Z</time></trkpt><trkpt lat="32.926965" lon="9.6216783"><ele>215.0</ele><time>2026-04-21T13:04:44.144Z</time></trkpt><trkpt lat="32.92705" lon="9.6216783"><ele>215.00000000000003</ele><time>2026-04-21T13:04:45.143Z</time></trkpt><trkpt lat="32.9271467" lon="9.6216767"><ele>215.0</ele><time>2026-04-21T13:04:46.144Z</time></trkpt><trkpt lat="32.9272583" lon="9.6216767"><ele>215.0</ele><time>2026-04-21T13:04:47.144Z</time></trkpt><trkpt lat="32.92737" lon="9.6216717"><ele>215.0</ele><time>2026-04-21T13:04:48.143Z</time></trkpt><trkpt lat="32.927495" lon="9.621665"><ele>215.0</ele><time>2026-04-21T13:04:49.143Z</time></trkpt><trkpt lat="32.9276183" lon="9.6216583"><ele>215.0</ele><time>2026-04-21T13:04:50.144Z</time></trkpt><trkpt lat="32.92774" lon="9.6216617"><ele>215.0</ele><time>2026-04-21T13:04:51.144Z</time></trkpt><trkpt lat="32.927865" lon="9.6216517"><ele>215.0</ele><time>2026-04-21T13:04:52.143Z</time></trkpt><trkpt lat="32.927985" lon="9.6216433"><ele>215.0</ele><time>2026-04-21T13:04:53.143Z</time></trkpt><trkpt lat="32.92811" lon="9.6216417"><ele>215.0</ele><time>2026-04-21T13:04:54.144Z</time></trkpt><trkpt lat="32.928235" lon="9.6216417"><ele>215.0</ele><time>2026-04-21T13:04:55.143Z</time></trkpt><trkpt lat="32.9283583" lon="9.62164"><ele>215.0</ele><time>2026-04-21T13:04:56.143Z</time></trkpt><trkpt lat="32.9284767" lon="9.6216367"><ele>215.0</ele><time>2026-04-21T13:04:57.143Z</time></trkpt><trkpt lat="32.9286033" lon="9.62163"><ele>215.0</ele><time>2026-04-21T13:04:58.143Z</time></trkpt><trkpt lat="32.9287283" lon="9.6216167"><ele>215.25</ele><time>2026-04-21T13:04:59.142Z</time></trkpt><trkpt lat="32.9288567" lon="9.6216033"><ele>215.5</ele><time>2026-04-21T13:05:00.143Z</time></trkpt><trkpt lat="32.928975" lon="9.6215983"><ele>215.75</ele><time>2026-04-21T13:05:01.143Z</time></trkpt><trkpt lat="32.929085" lon="9.6215917"><ele>216.0</ele><time>2026-04-21T13:05:02.142Z</time></trkpt><trkpt lat="32.9291833" lon="9.6215817"><ele>215.83333333333334</ele><time>2026-04-21T13:05:03.142Z</time></trkpt><trkpt lat="32.9292817" lon="9.6215767"><ele>215.66666666666669</ele><time>2026-04-21T13:05:04.142Z</time></trkpt><trkpt lat="32.9293683" lon="9.6215767"><ele>215.5</ele><time>2026-04-21T13:05:05.143Z</time></trkpt><trkpt lat="32.9294517" lon="9.6215733"><ele>215.33333333333334</ele><time>2026-04-21T13:05:06.143Z</time></trkpt><trkpt lat="32.929535" lon="9.6215767"><ele>215.16666666666669</ele><time>2026-04-21T13:05:07.143Z</time></trkpt><trkpt lat="32.9296183" lon="9.6215833"><ele>215.0</ele><time>2026-04-21T13:05:08.143Z</time></trkpt><trkpt lat="32.92971" lon="9.621585"><ele>215.0</ele><time>2026-04-21T13:05:09.142Z</time></trkpt><trkpt lat="32.9298083" lon="9.621585"><ele>215.0</ele><time>2026-04-21T13:05:10.142Z</time></trkpt><trkpt lat="32.9299167" lon="9.6215833"><ele>215.0</ele><time>2026-04-21T13:05:11.143Z</time></trkpt><trkpt lat="32.9300217" lon="9.621575"><ele>215.0</ele><time>2026-04-21T13:05:12.143Z</time></trkpt><trkpt lat="32.9301283" lon="9.621565"><ele>215.0</ele><time>2026-04-21T13:05:13.142Z</time></trkpt><trkpt lat="32.93023" lon="9.6215583"><ele>215.4</ele><time>2026-04-21T13:05:14.143Z</time></trkpt><trkpt lat="32.930335" lon="9.62156"><ele>215.8</ele><time>2026-04-21T13:05:15.142Z</time></trkpt><trkpt lat="32.9304433" lon="9.6215517"><ele>216.2</ele><time>2026-04-21T13:05:16.142Z</time></trkpt><trkpt lat="32.9305483" lon="9.621545"><ele>216.6</ele><time>2026-04-21T13:05:17.143Z</time></trkpt><trkpt lat="32.9306483" lon="9.6215433"><ele>217.0</ele><time>2026-04-21T13:05:18.143Z</time></trkpt><trkpt lat="32.9307517" lon="9.62154"><ele>217.0</ele><time>2026-04-21T13:05:19.142Z</time></trkpt><trkpt lat="32.9308633" lon="9.6215433"><ele>217.0</ele><time>2026-04-21T13:05:20.143Z</time></trkpt><trkpt lat="32.9309717" lon="9.6215383"><ele>217.0</ele><time>2026-04-21T13:05:21.142Z</time></trkpt><trkpt lat="32.93108" lon="9.6215317"><ele>217.0</ele><time>2026-04-21T13:05:22.143Z</time></trkpt><trkpt lat="32.9311933" lon="9.6215283"><ele>217.0</ele><time>2026-04-21T13:05:23.143Z</time></trkpt><trkpt lat="32.9313117" lon="9.6215267"><ele>217.0</ele><time>2026-04-21T13:05:24.143Z</time></trkpt><trkpt lat="32.9314233" lon="9.6215233"><ele>217.0</ele><time>2026-04-21T13:05:25.142Z</time></trkpt><trkpt lat="32.93153" lon="9.6215183"><ele>217.0</ele><time>2026-04-21T13:05:26.142Z</time></trkpt><trkpt lat="32.9316383" lon="9.621515"><ele>217.0</ele><time>2026-04-21T13:05:27.143Z</time></trkpt><trkpt lat="32.931745" lon="9.6215067"><ele>217.0</ele><time>2026-04-21T13:05:28.142Z</time></trkpt><trkpt lat="32.931845" lon="9.6215017"><ele>216.75</ele><time>2026-04-21T13:05:29.142Z</time></trkpt><trkpt lat="32.9319483" lon="9.6214983"><ele>216.5</ele><time>2026-04-21T13:05:30.143Z</time></trkpt><trkpt lat="32.932065" lon="9.621495"><ele>216.25</ele><time>2026-04-21T13:05:31.143Z</time></trkpt><trkpt lat="32.93218" lon="9.6214833"><ele>216.0</ele><time>2026-04-21T13:05:32.143Z</time></trkpt><trkpt lat="32.9322983" lon="9.6214717"><ele>216.0</ele><time>2026-04-21T13:05:33.143Z</time></trkpt><trkpt lat="32.9324133" lon="9.6214617"><ele>216.0</ele><time>2026-04-21T13:05:34.143Z</time></trkpt><trkpt lat="32.932535" lon="9.6214633"><ele>216.0</ele><time>2026-04-21T13:05:35.143Z</time></trkpt><trkpt lat="32.932645" lon="9.62146"><ele>216.0</ele><time>2026-04-21T13:05:36.142Z</time></trkpt><trkpt lat="32.9327583" lon="9.6214583"><ele>215.5</ele><time>2026-04-21T13:05:37.142Z</time></trkpt><trkpt lat="32.93287" lon="9.6214583"><ele>215.0</ele><time>2026-04-21T13:05:38.143Z</time></trkpt><trkpt lat="32.9329867" lon="9.621455"><ele>214.5</ele><time>2026-04-21T13:05:39.143Z</time></trkpt><trkpt lat="32.9331033" lon="9.621445"><ele>214.0</ele><time>2026-04-21T13:05:40.142Z</time></trkpt><trkpt lat="32.9332183" lon="9.621445"><ele>214.0</ele><time>2026-04-21T13:05:41.142Z</time></trkpt><trkpt lat="32.9333333" lon="9.6214383"><ele>214.0</ele><time>2026-04-21T13:05:42.143Z</time></trkpt><trkpt lat="32.9334433" lon="9.6214317"><ele>214.0</ele><time>2026-04-21T13:05:43.143Z</time></trkpt><trkpt lat="32.9335617" lon="9.6214267"><ele>214.0</ele><time>2026-04-21T13:05:44.143Z</time></trkpt><trkpt lat="32.93367" lon="9.62142"><ele>214.0</ele><time>2026-04-21T13:05:45.142Z</time></trkpt><trkpt lat="32.9337833" lon="9.6214217"><ele>213.99999999999997</ele><time>2026-04-21T13:05:46.142Z</time></trkpt><trkpt lat="32.933895" lon="9.62142"><ele>213.99999999999997</ele><time>2026-04-21T13:05:47.142Z</time></trkpt><trkpt lat="32.9340067" lon="9.6214167"><ele>214.0</ele><time>2026-04-21T13:05:48.143Z</time></trkpt><trkpt lat="32.9341133" lon="9.6214133"><ele>214.0</ele><time>2026-04-21T13:05:49.142Z</time></trkpt><trkpt lat="32.9342233" lon="9.6214167"><ele>214.0</ele><time>2026-04-21T13:05:50.142Z</time></trkpt><trkpt lat="32.93433" lon="9.6214083"><ele>213.99999999999997</ele><time>2026-04-21T13:05:51.143Z</time></trkpt><trkpt lat="32.9344433" lon="9.621405"><ele>213.99999999999997</ele><time>2026-04-21T13:05:52.143Z</time></trkpt><trkpt lat="32.934555" lon="9.6213967"><ele>214.0</ele><time>2026-04-21T13:05:53.142Z</time></trkpt><trkpt lat="32.9346667" lon="9.6213917"><ele>214.0</ele><time>2026-04-21T13:05:54.142Z</time></trkpt><trkpt lat="32.9347867" lon="9.62139"><ele>214.0</ele><time>2026-04-21T13:05:55.142Z</time></trkpt><trkpt lat="32.9348983" lon="9.62139"><ele>213.99999999999997</ele><time>2026-04-21T13:05:56.143Z</time></trkpt><trkpt lat="32.9350117" lon="9.6213883"><ele>213.99999999999997</ele><time>2026-04-21T13:05:57.143Z</time></trkpt><trkpt lat="32.9351233" lon="9.6213883"><ele>214.0</ele><time>2026-04-21T13:05:58.142Z</time></trkpt><trkpt lat="32.9352317" lon="9.621385"><ele>214.0</ele><time>2026-04-21T13:05:59.142Z</time></trkpt><trkpt lat="32.93534" lon="9.6213767"><ele>214.0</ele><time>2026-04-21T13:06:00.142Z</time></trkpt><trkpt lat="32.9354517" lon="9.6213717"><ele>213.99999999999997</ele><time>2026-04-21T13:06:01.142Z</time></trkpt><trkpt lat="32.9355617" lon="9.62137"><ele>213.99999999999997</ele><time>2026-04-21T13:06:02.142Z</time></trkpt><trkpt lat="32.9356767" lon="9.6213683"><ele>214.0</ele><time>2026-04-21T13:06:03.142Z</time></trkpt><trkpt lat="32.9357833" lon="9.62137"><ele>214.0</ele><time>2026-04-21T13:06:04.143Z</time></trkpt><trkpt lat="32.9358933" lon="9.6213583"><ele>213.5</ele><time>2026-04-21T13:06:05.142Z</time></trkpt><trkpt lat="32.9360067" lon="9.621355"><ele>213.0</ele><time>2026-04-21T13:06:06.142Z</time></trkpt><trkpt lat="32.9361267" lon="9.621345"><ele>212.5</ele><time>2026-04-21T13:06:07.142Z</time></trkpt><trkpt lat="32.93625" lon="9.62134"><ele>212.0</ele><time>2026-04-21T13:06:08.143Z</time></trkpt><trkpt lat="32.936375" lon="9.6213367"><ele>212.0</ele><time>2026-04-21T13:06:09.143Z</time></trkpt><trkpt lat="32.9365" lon="9.6213367"><ele>212.0</ele><time>2026-04-21T13:06:10.143Z</time></trkpt><trkpt lat="32.9366217" lon="9.6213233"><ele>212.0</ele><time>2026-04-21T13:06:11.142Z</time></trkpt><trkpt lat="32.9367383" lon="9.62131"><ele>212.0</ele><time>2026-04-21T13:06:12.142Z</time></trkpt><trkpt lat="32.9368483" lon="9.6213033"><ele>212.2</ele><time>2026-04-21T13:06:13.143Z</time></trkpt><trkpt lat="32.9369617" lon="9.62131"><ele>212.39999999999998</ele><time>2026-04-21T13:06:14.143Z</time></trkpt><trkpt lat="32.93707" lon="9.6213017"><ele>212.60000000000002</ele><time>2026-04-21T13:06:15.143Z</time></trkpt><trkpt lat="32.93718" lon="9.621305"><ele>212.8</ele><time>2026-04-21T13:06:16.143Z</time></trkpt><trkpt lat="32.9372867" lon="9.6213067"><ele>213.0</ele><time>2026-04-21T13:06:17.143Z</time></trkpt><trkpt lat="32.9373833" lon="9.6213067"><ele>213.0</ele><time>2026-04-21T13:06:18.143Z</time></trkpt><trkpt lat="32.937475" lon="9.6213017"><ele>213.0</ele><time>2026-04-21T13:06:19.142Z</time></trkpt><trkpt lat="32.937575" lon="9.6213"><ele>213.0</ele><time>2026-04-21T13:06:20.143Z</time></trkpt><trkpt lat="32.9376767" lon="9.6212933"><ele>213.0</ele><time>2026-04-21T13:06:21.143Z</time></trkpt><trkpt lat="32.9377833" lon="9.6212833"><ele>213.0</ele><time>2026-04-21T13:06:22.142Z</time></trkpt><trkpt lat="32.9379" lon="9.6212767"><ele>213.0</ele><time>2026-04-21T13:06:23.142Z</time></trkpt><trkpt lat="32.93802" lon="9.62127"><ele>213.0</ele><time>2026-04-21T13:06:24.142Z</time></trkpt><trkpt lat="32.93814" lon="9.6212583"><ele>213.0</ele><time>2026-04-21T13:06:25.142Z</time></trkpt><trkpt lat="32.9382533" lon="9.6212467"><ele>213.0</ele><time>2026-04-21T13:06:26.143Z</time></trkpt><trkpt lat="32.9383583" lon="9.621245"><ele>213.0</ele><time>2026-04-21T13:06:27.143Z</time></trkpt><trkpt lat="32.9384417" lon="9.6212483"><ele>213.0</ele><time>2026-04-21T13:06:28.143Z</time></trkpt><trkpt lat="32.938515" lon="9.6212483"><ele>213.0</ele><time>2026-04-21T13:06:29.142Z</time></trkpt><trkpt lat="32.9385883" lon="9.62125"><ele>213.0</ele><time>2026-04-21T13:06:30.143Z</time></trkpt><trkpt lat="32.9386683" lon="9.6212467"><ele>213.0</ele><time>2026-04-21T13:06:31.143Z</time></trkpt><trkpt lat="32.9387483" lon="9.621245"><ele>213.0</ele><time>2026-04-21T13:06:32.142Z</time></trkpt><trkpt lat="32.9388267" lon="9.6212467"><ele>213.0</ele><time>2026-04-21T13:06:33.143Z</time></trkpt><trkpt lat="32.9389067" lon="9.6212483"><ele>213.0</ele><time>2026-04-21T13:06:34.142Z</time></trkpt><trkpt lat="32.9389967" lon="9.621245"><ele>213.0</ele><time>2026-04-21T13:06:35.142Z</time></trkpt><trkpt lat="32.9390967" lon="9.621245"><ele>213.0</ele><time>2026-04-21T13:06:36.142Z</time></trkpt><trkpt lat="32.9391983" lon="9.621235"><ele>213.0</ele><time>2026-04-21T13:06:37.143Z</time></trkpt><trkpt lat="32.939295" lon="9.6212317"><ele>213.0</ele><time>2026-04-21T13:06:38.142Z</time></trkpt><trkpt lat="32.9393917" lon="9.621225"><ele>213.0</ele><time>2026-04-21T13:06:39.143Z</time></trkpt><trkpt lat="32.9394833" lon="9.6212217"><ele>213.0</ele><time>2026-04-21T13:06:40.142Z</time></trkpt><trkpt lat="32.9395767" lon="9.62122"><ele>213.0</ele><time>2026-04-21T13:06:41.142Z</time></trkpt><trkpt lat="32.93966" lon="9.6212133"><ele>213.0</ele><time>2026-04-21T13:06:42.143Z</time></trkpt><trkpt lat="32.9397467" lon="9.6212083"><ele>213.0</ele><time>2026-04-21T13:06:43.142Z</time></trkpt><trkpt lat="32.9398417" lon="9.621205"><ele>213.0</ele><time>2026-04-21T13:06:44.143Z</time></trkpt><trkpt lat="32.9399333" lon="9.6211917"><ele>213.0</ele><time>2026-04-21T13:06:45.142Z</time></trkpt><trkpt lat="32.9400383" lon="9.62119"><ele>213.0</ele><time>2026-04-21T13:06:46.143Z</time></trkpt><trkpt lat="32.9401433" lon="9.6211783"><ele>213.0</ele><time>2026-04-21T13:06:47.142Z</time></trkpt><trkpt lat="32.9402583" lon="9.6211667"><ele>213.0</ele><time>2026-04-21T13:06:48.143Z</time></trkpt><trkpt lat="32.9403717" lon="9.62116"><ele>213.0</ele><time>2026-04-21T13:06:49.142Z</time></trkpt><trkpt lat="32.9404817" lon="9.6211567"><ele>213.0</ele><time>2026-04-21T13:06:50.143Z</time></trkpt><trkpt lat="32.940595" lon="9.6211517"><ele>213.0</ele><time>2026-04-21T13:06:51.143Z</time></trkpt><trkpt lat="32.94071" lon="9.6211483"><ele>213.0</ele><time>2026-04-21T13:06:52.143Z</time></trkpt><trkpt lat="32.9408233" lon="9.6211433"><ele>213.0</ele><time>2026-04-21T13:06:53.142Z</time></trkpt><trkpt lat="32.94092" lon="9.62115"><ele>213.0</ele><time>2026-04-21T13:06:54.142Z</time></trkpt><trkpt lat="32.941015" lon="9.621155"><ele>213.0</ele><time>2026-04-21T13:06:55.142Z</time></trkpt><trkpt lat="32.9411083" lon="9.6211517"><ele>213.0</ele><time>2026-04-21T13:06:56.143Z</time></trkpt><trkpt lat="32.941195" lon="9.6211517"><ele>213.0</ele><time>2026-04-21T13:06:57.143Z</time></trkpt><trkpt lat="32.9412817" lon="9.621155"><ele>213.0</ele><time>2026-04-21T13:06:58.143Z</time></trkpt><trkpt lat="32.9413683" lon="9.621155"><ele>213.0</ele><time>2026-04-21T13:06:59.143Z</time></trkpt><trkpt lat="32.9414483" lon="9.621155"><ele>213.0</ele><time>2026-04-21T13:07:00.143Z</time></trkpt><trkpt lat="32.941515" lon="9.6211467"><ele>213.0</ele><time>2026-04-21T13:07:01.142Z</time></trkpt><trkpt lat="32.9416233" lon="9.62115"><ele>213.0</ele><time>2026-04-21T13:07:03.142Z</time></trkpt><trkpt lat="32.9417367" lon="9.6211617"><ele>213.0</ele><time>2026-04-21T13:07:05.142Z</time></trkpt><trkpt lat="32.9418017" lon="9.6211583"><ele>213.0</ele><time>2026-04-21T13:07:06.142Z</time></trkpt><trkpt lat="32.9418783" lon="9.6211467"><ele>213.0</ele><time>2026-04-21T13:07:07.143Z</time></trkpt><trkpt lat="32.94196" lon="9.6211367"><ele>213.0</ele><time>2026-04-21T13:07:08.143Z</time></trkpt><trkpt lat="32.9420517" lon="9.6211367"><ele>213.0</ele><time>2026-04-21T13:07:09.143Z</time></trkpt><trkpt lat="32.9421517" lon="9.6211333"><ele>213.0</ele><time>2026-04-21T13:07:10.142Z</time></trkpt><trkpt lat="32.9422483" lon="9.6211217"><ele>213.0</ele><time>2026-04-21T13:07:11.142Z</time></trkpt><trkpt lat="32.942345" lon="9.6211217"><ele>213.0</ele><time>2026-04-21T13:07:12.143Z</time></trkpt><trkpt lat="32.9424367" lon="9.6211167"><ele>213.0</ele><time>2026-04-21T13:07:13.142Z</time></trkpt><trkpt lat="32.9425267" lon="9.62111"><ele>213.0</ele><time>2026-04-21T13:07:14.143Z</time></trkpt><trkpt lat="32.9426217" lon="9.6210967"><ele>213.0</ele><time>2026-04-21T13:07:15.143Z</time></trkpt><trkpt lat="32.942715" lon="9.6210767"><ele>212.60000000000002</ele><time>2026-04-21T13:07:16.143Z</time></trkpt><trkpt lat="32.942815" lon="9.6210617"><ele>212.20000000000002</ele><time>2026-04-21T13:07:17.142Z</time></trkpt><trkpt lat="32.942915" lon="9.6210583"><ele>211.8</ele><time>2026-04-21T13:07:18.143Z</time></trkpt><trkpt lat="32.9430133" lon="9.62106"><ele>211.4</ele><time>2026-04-21T13:07:19.142Z</time></trkpt><trkpt lat="32.9431183" lon="9.6210567"><ele>211.0</ele><time>2026-04-21T13:07:20.143Z</time></trkpt><trkpt lat="32.9432283" lon="9.621055"><ele>211.0</ele><time>2026-04-21T13:07:21.142Z</time></trkpt><trkpt lat="32.9433383" lon="9.6210683"><ele>211.0</ele><time>2026-04-21T13:07:22.142Z</time></trkpt><trkpt lat="32.9434433" lon="9.62107"><ele>211.0</ele><time>2026-04-21T13:07:23.143Z</time></trkpt><trkpt lat="32.94355" lon="9.6210633"><ele>211.0</ele><time>2026-04-21T13:07:24.142Z</time></trkpt><trkpt lat="32.9436733" lon="9.62105"><ele>211.0</ele><time>2026-04-21T13:07:25.142Z</time></trkpt><trkpt lat="32.9437817" lon="9.6210283"><ele>210.83333333333331</ele><time>2026-04-21T13:07:26.143Z</time></trkpt><trkpt lat="32.9438917" lon="9.620995"><ele>210.66666666666666</ele><time>2026-04-21T13:07:27.142Z</time></trkpt><trkpt lat="32.9439683" lon="9.6209633"><ele>210.5</ele><time>2026-04-21T13:07:28.143Z</time></trkpt><trkpt lat="32.9440483" lon="9.6209483"><ele>210.33333333333331</ele><time>2026-04-21T13:07:29.142Z</time></trkpt><trkpt lat="32.944115" lon="9.6209483"><ele>210.16666666666666</ele><time>2026-04-21T13:07:30.143Z</time></trkpt><trkpt lat="32.9442133" lon="9.6209883"><ele>210.0</ele><time>2026-04-21T13:07:32.143Z</time></trkpt><trkpt lat="32.9442867" lon="9.6210467"><ele>210.33333333333334</ele><time>2026-04-21T13:07:34.142Z</time></trkpt><trkpt lat="32.9443867" lon="9.62105"><ele>210.66666666666669</ele><time>2026-04-21T13:07:36.142Z</time></trkpt><trkpt lat="32.9444583" lon="9.6210533"><ele>211.0</ele><time>2026-04-21T13:07:37.143Z</time></trkpt><trkpt lat="32.9445433" lon="9.6210483"><ele>211.33333333333334</ele><time>2026-04-21T13:07:38.143Z</time></trkpt><trkpt lat="32.9446317" lon="9.6210417"><ele>211.66666666666669</ele><time>2026-04-21T13:07:39.142Z</time></trkpt><trkpt lat="32.9447183" lon="9.6210367"><ele>212.0</ele><time>2026-04-21T13:07:40.142Z</time></trkpt><trkpt lat="32.9448" lon="9.6210217"><ele>212.00000000000003</ele><time>2026-04-21T13:07:41.142Z</time></trkpt><trkpt lat="32.94487" lon="9.6210083"><ele>212.0</ele><time>2026-04-21T13:07:42.143Z</time></trkpt><trkpt lat="32.9449383" lon="9.6209933"><ele>212.0</ele><time>2026-04-21T13:07:43.143Z</time></trkpt><trkpt lat="32.94501" lon="9.62098"><ele>212.0</ele><time>2026-04-21T13:07:44.143Z</time></trkpt><trkpt lat="32.9450967" lon="9.6209817"><ele>212.00000000000003</ele><time>2026-04-21T13:07:45.142Z</time></trkpt><trkpt lat="32.9451883" lon="9.6209833"><ele>212.0</ele><time>2026-04-21T13:07:46.142Z</time></trkpt><trkpt lat="32.9452883" lon="9.62098"><ele>211.83333333333334</ele><time>2026-04-21T13:07:47.143Z</time></trkpt><trkpt lat="32.9454" lon="9.62099"><ele>211.66666666666669</ele><time>2026-04-21T13:07:48.142Z</time></trkpt><trkpt lat="32.945495" lon="9.6209917"><ele>211.5</ele><time>2026-04-21T13:07:49.143Z</time></trkpt><trkpt lat="32.9455783" lon="9.62099"><ele>211.33333333333331</ele><time>2026-04-21T13:07:50.143Z</time></trkpt><trkpt lat="32.9456433" lon="9.6209833"><ele>211.16666666666666</ele><time>2026-04-21T13:07:51.143Z</time></trkpt><trkpt lat="32.9457133" lon="9.6209767"><ele>211.0</ele><time>2026-04-21T13:07:52.142Z</time></trkpt><trkpt lat="32.945835" lon="9.6209717"><ele>211.20000000000002</ele><time>2026-04-21T13:07:54.143Z</time></trkpt><trkpt lat="32.945945" lon="9.6209667"><ele>211.4</ele><time>2026-04-21T13:07:56.143Z</time></trkpt><trkpt lat="32.9460517" lon="9.62097"><ele>211.6</ele><time>2026-04-21T13:07:58.142Z</time></trkpt><trkpt lat="32.9461183" lon="9.6209733"><ele>211.8</ele><time>2026-04-21T13:07:59.142Z</time></trkpt><trkpt lat="32.9462317" lon="9.62097"><ele>212.0</ele><time>2026-04-21T13:08:01.142Z</time></trkpt><trkpt lat="32.9463483" lon="9.6209583"><ele>212.00000000000003</ele><time>2026-04-21T13:08:03.143Z</time></trkpt><trkpt lat="32.9464183" lon="9.620955"><ele>212.0</ele><time>2026-04-21T13:08:04.142Z</time></trkpt><trkpt lat="32.9464917" lon="9.620945"><ele>212.0</ele><time>2026-04-21T13:08:05.143Z</time></trkpt><trkpt lat="32.9466117" lon="9.6209133"><ele>212.0</ele><time>2026-04-21T13:08:07.142Z</time></trkpt><trkpt lat="32.946675" lon="9.6209083"><ele>212.00000000000003</ele><time>2026-04-21T13:08:08.141Z</time></trkpt><trkpt lat="32.9467817" lon="9.6208933"><ele>212.0</ele><time>2026-04-21T13:08:10.141Z</time></trkpt><trkpt lat="32.946895" lon="9.6209033"><ele>211.6</ele><time>2026-04-21T13:08:12.142Z</time></trkpt><trkpt lat="32.94698" lon="9.62091"><ele>211.2</ele><time>2026-04-21T13:08:13.142Z</time></trkpt><trkpt lat="32.9470733" lon="9.620915"><ele>210.8</ele><time>2026-04-21T13:08:14.142Z</time></trkpt><trkpt lat="32.947185" lon="9.6209183"><ele>210.4</ele><time>2026-04-21T13:08:15.142Z</time></trkpt><trkpt lat="32.9473033" lon="9.6209267"><ele>210.0</ele><time>2026-04-21T13:08:16.142Z</time></trkpt><trkpt lat="32.94742" lon="9.6209317"><ele>210.0</ele><time>2026-04-21T13:08:17.141Z</time></trkpt><trkpt lat="32.9475383" lon="9.6209267"><ele>210.0</ele><time>2026-04-21T13:08:18.141Z</time></trkpt><trkpt lat="32.9476533" lon="9.6209233"><ele>210.0</ele><time>2026-04-21T13:08:19.141Z</time></trkpt><trkpt lat="32.94777" lon="9.6209167"><ele>210.0</ele><time>2026-04-21T13:08:20.141Z</time></trkpt><trkpt lat="32.94788" lon="9.6209033"><ele>209.8</ele><time>2026-04-21T13:08:21.141Z</time></trkpt><trkpt lat="32.9479867" lon="9.6208983"><ele>209.6</ele><time>2026-04-21T13:08:22.142Z</time></trkpt><trkpt lat="32.9480833" lon="9.6208983"><ele>209.39999999999998</ele><time>2026-04-21T13:08:23.142Z</time></trkpt><trkpt lat="32.948165" lon="9.620895"><ele>209.2</ele><time>2026-04-21T13:08:24.141Z</time></trkpt><trkpt lat="32.9482333" lon="9.620895"><ele>209.0</ele><time>2026-04-21T13:08:25.142Z</time></trkpt><trkpt lat="32.9483567" lon="9.62089"><ele>209.0</ele><time>2026-04-21T13:08:27.141Z</time></trkpt><trkpt lat="32.9484867" lon="9.62087"><ele>209.0</ele><time>2026-04-21T13:08:29.141Z</time></trkpt><trkpt lat="32.9485533" lon="9.620855"><ele>209.0</ele><time>2026-04-21T13:08:30.141Z</time></trkpt><trkpt lat="32.9486717" lon="9.6208133"><ele>209.0</ele><time>2026-04-21T13:08:32.141Z</time></trkpt><trkpt lat="32.9487767" lon="9.6208033"><ele>209.0</ele><time>2026-04-21T13:08:34.142Z</time></trkpt><trkpt lat="32.94888" lon="9.6208433"><ele>209.00000000000003</ele><time>2026-04-21T13:08:36.142Z</time></trkpt><trkpt lat="32.948945" lon="9.6208683"><ele>209.0</ele><time>2026-04-21T13:08:37.141Z</time></trkpt><trkpt lat="32.9490167" lon="9.6208867"><ele>209.0</ele><time>2026-04-21T13:08:38.142Z</time></trkpt><trkpt lat="32.9490933" lon="9.6208867"><ele>209.0</ele><time>2026-04-21T13:08:39.141Z</time></trkpt><trkpt lat="32.94918" lon="9.6208767"><ele>209.00000000000003</ele><time>2026-04-21T13:08:40.141Z</time></trkpt><trkpt lat="32.9492717" lon="9.62086"><ele>209.0</ele><time>2026-04-21T13:08:41.142Z</time></trkpt><trkpt lat="32.9493533" lon="9.620845"><ele>209.00000000000003</ele><time>2026-04-21T13:08:42.141Z</time></trkpt><trkpt lat="32.9494333" lon="9.6208333"><ele>209.0</ele><time>2026-04-21T13:08:43.142Z</time></trkpt><trkpt lat="32.9495133" lon="9.6208267"><ele>209.0</ele><time>2026-04-21T13:08:44.142Z</time></trkpt><trkpt lat="32.9495983" lon="9.6208217"><ele>209.0</ele><time>2026-04-21T13:08:45.142Z</time></trkpt><trkpt lat="32.949685" lon="9.6208183"><ele>209.00000000000003</ele><time>2026-04-21T13:08:46.141Z</time></trkpt><trkpt lat="32.9497733" lon="9.6208117"><ele>209.0</ele><time>2026-04-21T13:08:47.142Z</time></trkpt><trkpt lat="32.94987" lon="9.6208133"><ele>209.00000000000003</ele><time>2026-04-21T13:08:48.142Z</time></trkpt><trkpt lat="32.9499533" lon="9.6208183"><ele>209.0</ele><time>2026-04-21T13:08:49.141Z</time></trkpt><trkpt lat="32.950035" lon="9.6208233"><ele>209.0</ele><time>2026-04-21T13:08:50.142Z</time></trkpt><trkpt lat="32.9501067" lon="9.6208233"><ele>209.0</ele><time>2026-04-21T13:08:51.142Z</time></trkpt><trkpt lat="32.95018" lon="9.6208217"><ele>209.00000000000003</ele><time>2026-04-21T13:08:52.141Z</time></trkpt><trkpt lat="32.9502633" lon="9.6208217"><ele>209.0</ele><time>2026-04-21T13:08:53.141Z</time></trkpt><trkpt lat="32.95035" lon="9.6208217"><ele>209.16666666666669</ele><time>2026-04-21T13:08:54.142Z</time></trkpt><trkpt lat="32.9504333" lon="9.6208217"><ele>209.33333333333334</ele><time>2026-04-21T13:08:55.142Z</time></trkpt><trkpt lat="32.9505083" lon="9.6208233"><ele>209.5</ele><time>2026-04-21T13:08:56.141Z</time></trkpt><trkpt lat="32.950585" lon="9.6208133"><ele>209.66666666666669</ele><time>2026-04-21T13:08:57.141Z</time></trkpt><trkpt lat="32.95066" lon="9.6208083"><ele>209.83333333333334</ele><time>2026-04-21T13:08:58.141Z</time></trkpt><trkpt lat="32.950735" lon="9.6207967"><ele>210.0</ele><time>2026-04-21T13:08:59.141Z</time></trkpt><trkpt lat="32.9507983" lon="9.6207783"><ele>209.0</ele><time>2026-04-21T13:09:00.142Z</time></trkpt><trkpt lat="32.9509033" lon="9.6207483"><ele>208.0</ele><time>2026-04-21T13:09:02.142Z</time></trkpt><trkpt lat="32.9510267" lon="9.6207267"><ele>207.0</ele><time>2026-04-21T13:09:04.142Z</time></trkpt><trkpt lat="32.95109" lon="9.6207267"><ele>206.0</ele><time>2026-04-21T13:09:05.141Z</time></trkpt><trkpt lat="32.9511583" lon="9.620725"><ele>205.0</ele><time>2026-04-21T13:09:06.142Z</time></trkpt><trkpt lat="32.9512783" lon="9.6207183"><ele>204.99999999999997</ele><time>2026-04-21T13:09:08.141Z</time></trkpt><trkpt lat="32.9513667" lon="9.62074"><ele>205.0</ele><time>2026-04-21T13:09:10.141Z</time></trkpt><trkpt lat="32.95148" lon="9.6207667"><ele>205.0</ele><time>2026-04-21T13:09:12.141Z</time></trkpt><trkpt lat="32.9515467" lon="9.6207683"><ele>205.0</ele><time>2026-04-21T13:09:13.141Z</time></trkpt><trkpt lat="32.951625" lon="9.62076"><ele>204.99999999999997</ele><time>2026-04-21T13:09:14.141Z</time></trkpt><trkpt lat="32.9517167" lon="9.62075"><ele>205.0</ele><time>2026-04-21T13:09:15.142Z</time></trkpt><trkpt lat="32.9518117" lon="9.6207383"><ele>205.0</ele><time>2026-04-21T13:09:16.142Z</time></trkpt><trkpt lat="32.9519167" lon="9.6207267"><ele>205.0</ele><time>2026-04-21T13:09:17.142Z</time></trkpt><trkpt lat="32.952015" lon="9.6207217"><ele>205.0</ele><time>2026-04-21T13:09:18.142Z</time></trkpt><trkpt lat="32.9521167" lon="9.6207167"><ele>205.0</ele><time>2026-04-21T13:09:19.142Z</time></trkpt><trkpt lat="32.95223" lon="9.6207017"><ele>205.0</ele><time>2026-04-21T13:09:20.141Z</time></trkpt><trkpt lat="32.9523433" lon="9.6206917"><ele>205.0</ele><time>2026-04-21T13:09:21.141Z</time></trkpt><trkpt lat="32.952455" lon="9.6206783"><ele>205.0</ele><time>2026-04-21T13:09:22.141Z</time></trkpt><trkpt lat="32.9525733" lon="9.6206783"><ele>205.0</ele><time>2026-04-21T13:09:23.141Z</time></trkpt><trkpt lat="32.9526817" lon="9.620675"><ele>205.0</ele><time>2026-04-21T13:09:24.141Z</time></trkpt><trkpt lat="32.9527967" lon="9.6206683"><ele>206.75</ele><time>2026-04-21T13:09:25.142Z</time></trkpt><trkpt lat="32.95292" lon="9.6206667"><ele>208.5</ele><time>2026-04-21T13:09:26.142Z</time></trkpt><trkpt lat="32.9530383" lon="9.6206633"><ele>210.25</ele><time>2026-04-21T13:09:27.141Z</time></trkpt><trkpt lat="32.9531517" lon="9.620665"><ele>212.0</ele><time>2026-04-21T13:09:28.142Z</time></trkpt><trkpt lat="32.953265" lon="9.6206667"><ele>211.5</ele><time>2026-04-21T13:09:29.141Z</time></trkpt><trkpt lat="32.9533867" lon="9.6206683"><ele>211.0</ele><time>2026-04-21T13:09:30.141Z</time></trkpt><trkpt lat="32.9535" lon="9.6206667"><ele>210.5</ele><time>2026-04-21T13:09:31.142Z</time></trkpt><trkpt lat="32.9536133" lon="9.6206633"><ele>210.0</ele><time>2026-04-21T13:09:32.141Z</time></trkpt><trkpt lat="32.9537283" lon="9.6206617"><ele>210.0</ele><time>2026-04-21T13:09:33.142Z</time></trkpt><trkpt lat="32.9538417" lon="9.6206567"><ele>210.0</ele><time>2026-04-21T13:09:34.142Z</time></trkpt><trkpt lat="32.953955" lon="9.6206567"><ele>210.0</ele><time>2026-04-21T13:09:35.142Z</time></trkpt><trkpt lat="32.9540667" lon="9.620655"><ele>210.0</ele><time>2026-04-21T13:09:36.141Z</time></trkpt><trkpt lat="32.9541867" lon="9.6206583"><ele>210.0</ele><time>2026-04-21T13:09:37.142Z</time></trkpt><trkpt lat="32.9543067" lon="9.6206633"><ele>210.0</ele><time>2026-04-21T13:09:38.141Z</time></trkpt><trkpt lat="32.95443" lon="9.620665"><ele>210.0</ele><time>2026-04-21T13:09:39.142Z</time></trkpt><trkpt lat="32.9545433" lon="9.6206583"><ele>210.0</ele><time>2026-04-21T13:09:40.142Z</time></trkpt><trkpt lat="32.95466" lon="9.620655"><ele>210.0</ele><time>2026-04-21T13:09:41.142Z</time></trkpt><trkpt lat="32.9547767" lon="9.620655"><ele>210.0</ele><time>2026-04-21T13:09:42.142Z</time></trkpt><trkpt lat="32.9548967" lon="9.6206483"><ele>210.0</ele><time>2026-04-21T13:09:43.142Z</time></trkpt><trkpt lat="32.9550233" lon="9.6206483"><ele>210.0</ele><time>2026-04-21T13:09:44.141Z</time></trkpt><trkpt lat="32.9551433" lon="9.6206433"><ele>209.8</ele><time>2026-04-21T13:09:45.142Z</time></trkpt><trkpt lat="32.955255" lon="9.6206467"><ele>209.6</ele><time>2026-04-21T13:09:46.142Z</time></trkpt><trkpt lat="32.95536" lon="9.6206483"><ele>209.39999999999998</ele><time>2026-04-21T13:09:47.142Z</time></trkpt><trkpt lat="32.9554517" lon="9.6206633"><ele>209.2</ele><time>2026-04-21T13:09:48.141Z</time></trkpt><trkpt lat="32.955545" lon="9.62068"><ele>209.0</ele><time>2026-04-21T13:09:49.141Z</time></trkpt><trkpt lat="32.955635" lon="9.6207067"><ele>209.0</ele><time>2026-04-21T13:09:50.142Z</time></trkpt><trkpt lat="32.9557233" lon="9.6207333"><ele>209.0</ele><time>2026-04-21T13:09:51.141Z</time></trkpt><trkpt lat="32.9558183" lon="9.62077"><ele>209.0</ele><time>2026-04-21T13:09:52.142Z</time></trkpt><trkpt lat="32.9559133" lon="9.6208233"><ele>209.0</ele><time>2026-04-21T13:09:53.142Z</time></trkpt><trkpt lat="32.9560083" lon="9.6208717"><ele>209.0</ele><time>2026-04-21T13:09:54.141Z</time></trkpt><trkpt lat="32.956105" lon="9.6209133"><ele>209.00000000000003</ele><time>2026-04-21T13:09:55.142Z</time></trkpt><trkpt lat="32.9562033" lon="9.62095"><ele>209.0</ele><time>2026-04-21T13:09:56.142Z</time></trkpt><trkpt lat="32.956295" lon="9.620985"><ele>209.0</ele><time>2026-04-21T13:09:57.142Z</time></trkpt><trkpt lat="32.9563733" lon="9.62102"><ele>209.0</ele><time>2026-04-21T13:09:58.142Z</time></trkpt><trkpt lat="32.9564483" lon="9.6210617"><ele>209.00000000000003</ele><time>2026-04-21T13:09:59.142Z</time></trkpt><trkpt lat="32.9564967" lon="9.6211117"><ele>209.0</ele><time>2026-04-21T13:10:00.141Z</time></trkpt><trkpt lat="32.9565717" lon="9.6211717"><ele>209.0</ele><time>2026-04-21T13:10:01.141Z</time></trkpt><trkpt lat="32.956645" lon="9.6212483"><ele>209.0</ele><time>2026-04-21T13:10:02.141Z</time></trkpt><trkpt lat="32.9567183" lon="9.6213383"><ele>209.0</ele><time>2026-04-21T13:10:03.141Z</time></trkpt><trkpt lat="32.95679" lon="9.62143"><ele>209.0</ele><time>2026-04-21T13:10:04.141Z</time></trkpt><trkpt lat="32.9568467" lon="9.621525"><ele>209.0</ele><time>2026-04-21T13:10:05.142Z</time></trkpt><trkpt lat="32.9569117" lon="9.6216183"><ele>209.2</ele><time>2026-04-21T13:10:06.142Z</time></trkpt><trkpt lat="32.9569817" lon="9.6217183"><ele>209.39999999999998</ele><time>2026-04-21T13:10:07.142Z</time></trkpt><trkpt lat="32.95706" lon="9.6218083"><ele>209.6</ele><time>2026-04-21T13:10:08.141Z</time></trkpt><trkpt lat="32.9571267" lon="9.62189"><ele>209.8</ele><time>2026-04-21T13:10:09.142Z</time></trkpt><trkpt lat="32.957195" lon="9.621965"><ele>210.0</ele><time>2026-04-21T13:10:10.141Z</time></trkpt><trkpt lat="32.9572567" lon="9.62203"><ele>210.16666666666666</ele><time>2026-04-21T13:10:11.141Z</time></trkpt><trkpt lat="32.9573083" lon="9.6220967"><ele>210.33333333333331</ele><time>2026-04-21T13:10:12.142Z</time></trkpt><trkpt lat="32.9573383" lon="9.6221783"><ele>210.5</ele><time>2026-04-21T13:10:13.141Z</time></trkpt><trkpt lat="32.95737" lon="9.622275"><ele>210.66666666666666</ele><time>2026-04-21T13:10:14.141Z</time></trkpt><trkpt lat="32.957415" lon="9.6223633"><ele>210.83333333333331</ele><time>2026-04-21T13:10:15.141Z</time></trkpt><trkpt lat="32.9574633" lon="9.62244"><ele>211.0</ele><time>2026-04-21T13:10:16.141Z</time></trkpt><trkpt lat="32.9575233" lon="9.6225033"><ele>210.99999999999997</ele><time>2026-04-21T13:10:17.141Z</time></trkpt><trkpt lat="32.9575817" lon="9.62257"><ele>211.0</ele><time>2026-04-21T13:10:18.141Z</time></trkpt><trkpt lat="32.9576333" lon="9.6226467"><ele>211.0</ele><time>2026-04-21T13:10:19.141Z</time></trkpt><trkpt lat="32.9576767" lon="9.6227383"><ele>211.0</ele><time>2026-04-21T13:10:20.141Z</time></trkpt><trkpt lat="32.957715" lon="9.6228417"><ele>210.99999999999997</ele><time>2026-04-21T13:10:21.141Z</time></trkpt><trkpt lat="32.9577517" lon="9.6229467"><ele>211.0</ele><time>2026-04-21T13:10:22.141Z</time></trkpt><trkpt lat="32.9577867" lon="9.6230633"><ele>210.75</ele><time>2026-04-21T13:10:23.142Z</time></trkpt><trkpt lat="32.9578183" lon="9.623185"><ele>210.5</ele><time>2026-04-21T13:10:24.141Z</time></trkpt><trkpt lat="32.95785" lon="9.623315"><ele>210.25</ele><time>2026-04-21T13:10:25.142Z</time></trkpt><trkpt lat="32.957885" lon="9.6234483"><ele>210.0</ele><time>2026-04-21T13:10:26.141Z</time></trkpt><trkpt lat="32.957925" lon="9.6235733"><ele>209.2</ele><time>2026-04-21T13:10:27.141Z</time></trkpt><trkpt lat="32.957965" lon="9.6236967"><ele>208.4</ele><time>2026-04-21T13:10:28.142Z</time></trkpt><trkpt lat="32.9579983" lon="9.623815"><ele>207.60000000000002</ele><time>2026-04-21T13:10:29.142Z</time></trkpt><trkpt lat="32.9580383" lon="9.6239367"><ele>206.8</ele><time>2026-04-21T13:10:30.141Z</time></trkpt><trkpt lat="32.9580767" lon="9.62405"><ele>206.0</ele><time>2026-04-21T13:10:31.141Z</time></trkpt><trkpt lat="32.9581183" lon="9.6241583"><ele>206.0</ele><time>2026-04-21T13:10:32.142Z</time></trkpt><trkpt lat="32.9581833" lon="9.6242733"><ele>206.0</ele><time>2026-04-21T13:10:33.141Z</time></trkpt><trkpt lat="32.9582433" lon="9.6243733"><ele>206.0</ele><time>2026-04-21T13:10:34.142Z</time></trkpt><trkpt lat="32.9583117" lon="9.624465"><ele>206.0</ele><time>2026-04-21T13:10:35.142Z</time></trkpt><trkpt lat="32.9583817" lon="9.6245567"><ele>206.0</ele><time>2026-04-21T13:10:36.141Z</time></trkpt><trkpt lat="32.9584567" lon="9.6246433"><ele>206.60000000000002</ele><time>2026-04-21T13:10:37.142Z</time></trkpt><trkpt lat="32.95854" lon="9.6247283"><ele>207.2</ele><time>2026-04-21T13:10:38.142Z</time></trkpt><trkpt lat="32.9586233" lon="9.62481"><ele>207.8</ele><time>2026-04-21T13:10:39.142Z</time></trkpt><trkpt lat="32.9587067" lon="9.624895"><ele>208.39999999999998</ele><time>2026-04-21T13:10:40.141Z</time></trkpt><trkpt lat="32.9587833" lon="9.6249883"><ele>209.0</ele><time>2026-04-21T13:10:41.141Z</time></trkpt><trkpt lat="32.9588617" lon="9.6250883"><ele>209.0</ele><time>2026-04-21T13:10:42.141Z</time></trkpt><trkpt lat="32.9589167" lon="9.62519"><ele>209.0</ele><time>2026-04-21T13:10:43.141Z</time></trkpt><trkpt lat="32.9589767" lon="9.6252933"><ele>209.0</ele><time>2026-04-21T13:10:44.141Z</time></trkpt><trkpt lat="32.9590333" lon="9.6254067"><ele>209.0</ele><time>2026-04-21T13:10:45.142Z</time></trkpt><trkpt lat="32.9590933" lon="9.6255017"><ele>209.0</ele><time>2026-04-21T13:10:46.142Z</time></trkpt><trkpt lat="32.9591567" lon="9.6256017"><ele>209.2</ele><time>2026-04-21T13:10:47.141Z</time></trkpt><trkpt lat="32.9592183" lon="9.625705"><ele>209.39999999999998</ele><time>2026-04-21T13:10:48.142Z</time></trkpt><trkpt lat="32.95928" lon="9.6258133"><ele>209.6</ele><time>2026-04-21T13:10:49.141Z</time></trkpt><trkpt lat="32.9593417" lon="9.6259233"><ele>209.8</ele><time>2026-04-21T13:10:50.141Z</time></trkpt><trkpt lat="32.9594017" lon="9.62603"><ele>210.0</ele><time>2026-04-21T13:10:51.141Z</time></trkpt><trkpt lat="32.9594633" lon="9.6261367"><ele>209.6</ele><time>2026-04-21T13:10:52.141Z</time></trkpt><trkpt lat="32.9595217" lon="9.6262417"><ele>209.2</ele><time>2026-04-21T13:10:53.142Z</time></trkpt><trkpt lat="32.9595817" lon="9.62635"><ele>208.8</ele><time>2026-04-21T13:10:54.141Z</time></trkpt><trkpt lat="32.9596417" lon="9.6264583"><ele>208.4</ele><time>2026-04-21T13:10:55.141Z</time></trkpt><trkpt lat="32.95971" lon="9.6265733"><ele>208.0</ele><time>2026-04-21T13:10:56.142Z</time></trkpt><trkpt lat="32.9597667" lon="9.62668"><ele>208.0</ele><time>2026-04-21T13:10:57.142Z</time></trkpt><trkpt lat="32.959825" lon="9.62679"><ele>208.0</ele><time>2026-04-21T13:10:58.141Z</time></trkpt><trkpt lat="32.9598817" lon="9.6268967"><ele>208.0</ele><time>2026-04-21T13:10:59.141Z</time></trkpt><trkpt lat="32.9599417" lon="9.6269933"><ele>208.0</ele><time>2026-04-21T13:11:00.142Z</time></trkpt><trkpt lat="32.9600167" lon="9.6270833"><ele>208.0</ele><time>2026-04-21T13:11:01.142Z</time></trkpt><trkpt lat="32.9600833" lon="9.6271783"><ele>208.2</ele><time>2026-04-21T13:11:02.142Z</time></trkpt><trkpt lat="32.9601467" lon="9.6272733"><ele>208.4</ele><time>2026-04-21T13:11:03.141Z</time></trkpt><trkpt lat="32.96022" lon="9.62737"><ele>208.6</ele><time>2026-04-21T13:11:04.141Z</time></trkpt><trkpt lat="32.9602917" lon="9.6274683"><ele>208.79999999999998</ele><time>2026-04-21T13:11:05.141Z</time></trkpt><trkpt lat="32.9603733" lon="9.6275583"><ele>209.0</ele><time>2026-04-21T13:11:06.141Z</time></trkpt><trkpt lat="32.960465" lon="9.627645"><ele>209.0</ele><time>2026-04-21T13:11:07.142Z</time></trkpt><trkpt lat="32.9605583" lon="9.6277217"><ele>209.0</ele><time>2026-04-21T13:11:08.141Z</time></trkpt><trkpt lat="32.9606417" lon="9.6277933"><ele>209.0</ele><time>2026-04-21T13:11:09.141Z</time></trkpt><trkpt lat="32.96073" lon="9.627865"><ele>209.0</ele><time>2026-04-21T13:11:10.14Z</time></trkpt><trkpt lat="32.9608133" lon="9.627945"><ele>209.0</ele><time>2026-04-21T13:11:11.141Z</time></trkpt><trkpt lat="32.9608983" lon="9.6280233"><ele>209.0</ele><time>2026-04-21T13:11:12.141Z</time></trkpt><trkpt lat="32.960985" lon="9.6280933"><ele>209.0</ele><time>2026-04-21T13:11:13.141Z</time></trkpt><trkpt lat="32.96107" lon="9.6281717"><ele>209.0</ele><time>2026-04-21T13:11:14.141Z</time></trkpt><trkpt lat="32.9611583" lon="9.62825"><ele>209.0</ele><time>2026-04-21T13:11:15.141Z</time></trkpt><trkpt lat="32.9612433" lon="9.628335"><ele>209.0</ele><time>2026-04-21T13:11:16.141Z</time></trkpt><trkpt lat="32.9613233" lon="9.6284217"><ele>209.0</ele><time>2026-04-21T13:11:17.141Z</time></trkpt><trkpt lat="32.9614033" lon="9.6285083"><ele>209.0</ele><time>2026-04-21T13:11:18.14Z</time></trkpt><trkpt lat="32.9614833" lon="9.6285967"><ele>209.0</ele><time>2026-04-21T13:11:19.14Z</time></trkpt><trkpt lat="32.96156" lon="9.6286733"><ele>209.0</ele><time>2026-04-21T13:11:20.141Z</time></trkpt><trkpt lat="32.961645" lon="9.6287267"><ele>209.0</ele><time>2026-04-21T13:11:21.14Z</time></trkpt><trkpt lat="32.961735" lon="9.628765"><ele>209.39999999999998</ele><time>2026-04-21T13:11:22.14Z</time></trkpt><trkpt lat="32.9618317" lon="9.628805"><ele>209.8</ele><time>2026-04-21T13:11:23.141Z</time></trkpt><trkpt lat="32.9619267" lon="9.62886"><ele>210.2</ele><time>2026-04-21T13:11:24.141Z</time></trkpt><trkpt lat="32.9620083" lon="9.62892"><ele>210.60000000000002</ele><time>2026-04-21T13:11:25.141Z</time></trkpt><trkpt lat="32.96208" lon="9.6289917"><ele>211.0</ele><time>2026-04-21T13:11:26.14Z</time></trkpt><trkpt lat="32.9621583" lon="9.6290633"><ele>210.99999999999997</ele><time>2026-04-21T13:11:27.141Z</time></trkpt><trkpt lat="32.96224" lon="9.62912"><ele>211.0</ele><time>2026-04-21T13:11:28.141Z</time></trkpt><trkpt lat="32.9623217" lon="9.62918"><ele>211.0</ele><time>2026-04-21T13:11:29.14Z</time></trkpt><trkpt lat="32.9624017" lon="9.6292333"><ele>211.0</ele><time>2026-04-21T13:11:30.14Z</time></trkpt><trkpt lat="32.9624733" lon="9.6292717"><ele>210.99999999999997</ele><time>2026-04-21T13:11:31.141Z</time></trkpt><trkpt lat="32.9625467" lon="9.6292933"><ele>211.0</ele><time>2026-04-21T13:11:32.141Z</time></trkpt><trkpt lat="32.962635" lon="9.6292917"><ele>211.4</ele><time>2026-04-21T13:11:33.14Z</time></trkpt><trkpt lat="32.96274" lon="9.6292883"><ele>211.8</ele><time>2026-04-21T13:11:34.141Z</time></trkpt><trkpt lat="32.96285" lon="9.6292817"><ele>212.20000000000002</ele><time>2026-04-21T13:11:35.14Z</time></trkpt><trkpt lat="32.96296" lon="9.6292833"><ele>212.60000000000002</ele><time>2026-04-21T13:11:36.141Z</time></trkpt><trkpt lat="32.9630767" lon="9.6292783"><ele>213.0</ele><time>2026-04-21T13:11:37.141Z</time></trkpt><trkpt lat="32.9631983" lon="9.6292767"><ele>213.0</ele><time>2026-04-21T13:11:38.141Z</time></trkpt><trkpt lat="32.9633083" lon="9.62928"><ele>213.0</ele><time>2026-04-21T13:11:39.14Z</time></trkpt><trkpt lat="32.9634133" lon="9.6292817"><ele>213.0</ele><time>2026-04-21T13:11:40.141Z</time></trkpt><trkpt lat="32.9635183" lon="9.6292883"><ele>213.0</ele><time>2026-04-21T13:11:41.141Z</time></trkpt><trkpt lat="32.9636267" lon="9.6293017"><ele>213.0</ele><time>2026-04-21T13:11:42.14Z</time></trkpt><trkpt lat="32.9637367" lon="9.6293267"><ele>212.25</ele><time>2026-04-21T13:11:43.141Z</time></trkpt><trkpt lat="32.9638617" lon="9.6293533"><ele>211.5</ele><time>2026-04-21T13:11:44.14Z</time></trkpt><trkpt lat="32.9639833" lon="9.62939"><ele>210.75</ele><time>2026-04-21T13:11:45.14Z</time></trkpt><trkpt lat="32.9641" lon="9.6294233"><ele>210.0</ele><time>2026-04-21T13:11:46.141Z</time></trkpt><trkpt lat="32.96421" lon="9.629455"><ele>211.25</ele><time>2026-04-21T13:11:47.141Z</time></trkpt><trkpt lat="32.96433" lon="9.6294783"><ele>212.5</ele><time>2026-04-21T13:11:48.141Z</time></trkpt><trkpt lat="32.9644467" lon="9.629495"><ele>213.75</ele><time>2026-04-21T13:11:49.14Z</time></trkpt><trkpt lat="32.9645717" lon="9.6295183"><ele>215.0</ele><time>2026-04-21T13:11:50.141Z</time></trkpt><trkpt lat="32.96469" lon="9.6295367"><ele>215.0</ele><time>2026-04-21T13:11:51.141Z</time></trkpt><trkpt lat="32.9648033" lon="9.62956"><ele>215.0</ele><time>2026-04-21T13:11:52.141Z</time></trkpt><trkpt lat="32.964915" lon="9.6295783"><ele>215.0</ele><time>2026-04-21T13:11:53.141Z</time></trkpt><trkpt lat="32.9650317" lon="9.6296017"><ele>215.0</ele><time>2026-04-21T13:11:54.14Z</time></trkpt><trkpt lat="32.9651533" lon="9.6296183"><ele>214.25</ele><time>2026-04-21T13:11:55.14Z</time></trkpt><trkpt lat="32.96527" lon="9.6296317"><ele>213.5</ele><time>2026-04-21T13:11:56.141Z</time></trkpt><trkpt lat="32.96539" lon="9.6296517"><ele>212.75</ele><time>2026-04-21T13:11:57.14Z</time></trkpt><trkpt lat="32.965505" lon="9.629675"><ele>212.0</ele><time>2026-04-21T13:11:58.141Z</time></trkpt><trkpt lat="32.9656233" lon="9.6297017"><ele>212.0</ele><time>2026-04-21T13:11:59.141Z</time></trkpt><trkpt lat="32.9657383" lon="9.6297267"><ele>212.0</ele><time>2026-04-21T13:12:00.141Z</time></trkpt><trkpt lat="32.9658617" lon="9.6297433"><ele>212.0</ele><time>2026-04-21T13:12:01.141Z</time></trkpt><trkpt lat="32.9659767" lon="9.6297633"><ele>212.0</ele><time>2026-04-21T13:12:02.141Z</time></trkpt><trkpt lat="32.9660917" lon="9.6297833"><ele>211.75</ele><time>2026-04-21T13:12:03.14Z</time></trkpt><trkpt lat="32.966205" lon="9.6298017"><ele>211.5</ele><time>2026-04-21T13:12:04.14Z</time></trkpt><trkpt lat="32.9663183" lon="9.6298167"><ele>211.25</ele><time>2026-04-21T13:12:05.14Z</time></trkpt><trkpt lat="32.9664283" lon="9.6298383"><ele>211.0</ele><time>2026-04-21T13:12:06.141Z</time></trkpt><trkpt lat="32.9665483" lon="9.6298683"><ele>211.0</ele><time>2026-04-21T13:12:07.141Z</time></trkpt><trkpt lat="32.9666667" lon="9.6298933"><ele>211.0</ele><time>2026-04-21T13:12:08.141Z</time></trkpt><trkpt lat="32.966785" lon="9.629915"><ele>211.0</ele><time>2026-04-21T13:12:09.141Z</time></trkpt><trkpt lat="32.966905" lon="9.62994"><ele>211.0</ele><time>2026-04-21T13:12:10.14Z</time></trkpt><trkpt lat="32.9670217" lon="9.6299617"><ele>209.5</ele><time>2026-04-21T13:12:11.14Z</time></trkpt><trkpt lat="32.9671417" lon="9.6299883"><ele>208.0</ele><time>2026-04-21T13:12:12.141Z</time></trkpt><trkpt lat="32.9672633" lon="9.6300183"><ele>206.5</ele><time>2026-04-21T13:12:13.14Z</time></trkpt><trkpt lat="32.9673717" lon="9.6300433"><ele>205.0</ele><time>2026-04-21T13:12:14.14Z</time></trkpt><trkpt lat="32.967485" lon="9.6300617"><ele>205.25</ele><time>2026-04-21T13:12:15.141Z</time></trkpt><trkpt lat="32.9675933" lon="9.6300783"><ele>205.5</ele><time>2026-04-21T13:12:16.14Z</time></trkpt><trkpt lat="32.9677117" lon="9.63008"><ele>205.75</ele><time>2026-04-21T13:12:17.14Z</time></trkpt><trkpt lat="32.9678217" lon="9.63009"><ele>206.0</ele><time>2026-04-21T13:12:18.14Z</time></trkpt><trkpt lat="32.967945" lon="9.6301033"><ele>206.0</ele><time>2026-04-21T13:12:19.14Z</time></trkpt><trkpt lat="32.9680667" lon="9.6301183"><ele>206.0</ele><time>2026-04-21T13:12:20.141Z</time></trkpt><trkpt lat="32.9681883" lon="9.63014"><ele>206.0</ele><time>2026-04-21T13:12:21.141Z</time></trkpt><trkpt lat="32.9683133" lon="9.63016"><ele>206.0</ele><time>2026-04-21T13:12:22.14Z</time></trkpt><trkpt lat="32.96843" lon="9.63018"><ele>207.20000000000002</ele><time>2026-04-21T13:12:23.14Z</time></trkpt><trkpt lat="32.9685417" lon="9.6302"><ele>208.4</ele><time>2026-04-21T13:12:24.14Z</time></trkpt><trkpt lat="32.9686467" lon="9.6302183"><ele>209.6</ele><time>2026-04-21T13:12:25.141Z</time></trkpt><trkpt lat="32.9687483" lon="9.630235"><ele>210.8</ele><time>2026-04-21T13:12:26.14Z</time></trkpt><trkpt lat="32.9688533" lon="9.6302467"><ele>212.0</ele><time>2026-04-21T13:12:27.14Z</time></trkpt><trkpt lat="32.9689733" lon="9.6302467"><ele>212.0</ele><time>2026-04-21T13:12:28.141Z</time></trkpt><trkpt lat="32.9690817" lon="9.630255"><ele>212.0</ele><time>2026-04-21T13:12:29.141Z</time></trkpt><trkpt lat="32.96919" lon="9.6302667"><ele>212.0</ele><time>2026-04-21T13:12:30.14Z</time></trkpt><trkpt lat="32.9693017" lon="9.6302883"><ele>212.0</ele><time>2026-04-21T13:12:31.14Z</time></trkpt><trkpt lat="32.9694117" lon="9.6303067"><ele>212.0</ele><time>2026-04-21T13:12:32.14Z</time></trkpt><trkpt lat="32.969515" lon="9.6303267"><ele>212.2</ele><time>2026-04-21T13:12:33.14Z</time></trkpt><trkpt lat="32.9696217" lon="9.6303383"><ele>212.39999999999998</ele><time>2026-04-21T13:12:34.141Z</time></trkpt><trkpt lat="32.9697283" lon="9.6303467"><ele>212.60000000000002</ele><time>2026-04-21T13:12:35.141Z</time></trkpt><trkpt lat="32.9698267" lon="9.6303667"><ele>212.8</ele><time>2026-04-21T13:12:36.14Z</time></trkpt><trkpt lat="32.9699283" lon="9.6303867"><ele>213.0</ele><time>2026-04-21T13:12:37.141Z</time></trkpt><trkpt lat="32.97003" lon="9.6304033"><ele>213.0</ele><time>2026-04-21T13:12:38.141Z</time></trkpt><trkpt lat="32.970145" lon="9.6304117"><ele>213.0</ele><time>2026-04-21T13:12:39.14Z</time></trkpt><trkpt lat="32.97026" lon="9.6304067"><ele>213.0</ele><time>2026-04-21T13:12:40.14Z</time></trkpt><trkpt lat="32.9703817" lon="9.6303967"><ele>213.0</ele><time>2026-04-21T13:12:41.14Z</time></trkpt><trkpt lat="32.9704933" lon="9.6303917"><ele>213.0</ele><time>2026-04-21T13:12:42.14Z</time></trkpt><trkpt lat="32.970605" lon="9.6304033"><ele>213.0</ele><time>2026-04-21T13:12:43.141Z</time></trkpt><trkpt lat="32.970715" lon="9.63042"><ele>213.0</ele><time>2026-04-21T13:12:44.141Z</time></trkpt><trkpt lat="32.9708217" lon="9.6304417"><ele>213.0</ele><time>2026-04-21T13:12:45.14Z</time></trkpt><trkpt lat="32.9709333" lon="9.6304733"><ele>213.0</ele><time>2026-04-21T13:12:46.141Z</time></trkpt><trkpt lat="32.9710467" lon="9.6304917"><ele>212.25</ele><time>2026-04-21T13:12:47.141Z</time></trkpt><trkpt lat="32.9711617" lon="9.6305133"><ele>211.5</ele><time>2026-04-21T13:12:48.141Z</time></trkpt><trkpt lat="32.9712783" lon="9.6305367"><ele>210.75</ele><time>2026-04-21T13:12:49.141Z</time></trkpt><trkpt lat="32.9713917" lon="9.6305583"><ele>210.0</ele><time>2026-04-21T13:12:50.141Z</time></trkpt><trkpt lat="32.9715033" lon="9.6305933"><ele>210.0</ele><time>2026-04-21T13:12:51.14Z</time></trkpt><trkpt lat="32.9716133" lon="9.6306267"><ele>210.0</ele><time>2026-04-21T13:12:52.141Z</time></trkpt><trkpt lat="32.9717267" lon="9.630655"><ele>210.0</ele><time>2026-04-21T13:12:53.141Z</time></trkpt><trkpt lat="32.9718433" lon="9.630685"><ele>210.0</ele><time>2026-04-21T13:12:54.14Z</time></trkpt><trkpt lat="32.9719567" lon="9.63071"><ele>209.5</ele><time>2026-04-21T13:12:55.141Z</time></trkpt><trkpt lat="32.9720733" lon="9.6307433"><ele>209.0</ele><time>2026-04-21T13:12:56.141Z</time></trkpt><trkpt lat="32.9721883" lon="9.6307783"><ele>208.5</ele><time>2026-04-21T13:12:57.141Z</time></trkpt><trkpt lat="32.9723017" lon="9.6308033"><ele>208.0</ele><time>2026-04-21T13:12:58.141Z</time></trkpt><trkpt lat="32.9724167" lon="9.6308317"><ele>208.25</ele><time>2026-04-21T13:12:59.14Z</time></trkpt><trkpt lat="32.9725283" lon="9.6308583"><ele>208.5</ele><time>2026-04-21T13:13:00.141Z</time></trkpt><trkpt lat="32.9726483" lon="9.630885"><ele>208.75</ele><time>2026-04-21T13:13:01.141Z</time></trkpt><trkpt lat="32.9727683" lon="9.630915"><ele>209.0</ele><time>2026-04-21T13:13:02.141Z</time></trkpt><trkpt lat="32.972875" lon="9.6309417"><ele>209.0</ele><time>2026-04-21T13:13:03.141Z</time></trkpt><trkpt lat="32.9729917" lon="9.6309717"><ele>209.0</ele><time>2026-04-21T13:13:04.141Z</time></trkpt><trkpt lat="32.973115" lon="9.6310033"><ele>209.0</ele><time>2026-04-21T13:13:05.14Z</time></trkpt><trkpt lat="32.9732283" lon="9.63103"><ele>209.0</ele><time>2026-04-21T13:13:06.141Z</time></trkpt><trkpt lat="32.97334" lon="9.6310583"><ele>209.6</ele><time>2026-04-21T13:13:07.141Z</time></trkpt><trkpt lat="32.9734467" lon="9.63108"><ele>210.2</ele><time>2026-04-21T13:13:08.14Z</time></trkpt><trkpt lat="32.9735533" lon="9.63111"><ele>210.79999999999998</ele><time>2026-04-21T13:13:09.141Z</time></trkpt><trkpt lat="32.9736617" lon="9.6311283"><ele>211.39999999999998</ele><time>2026-04-21T13:13:10.14Z</time></trkpt><trkpt lat="32.973775" lon="9.6311417"><ele>212.0</ele><time>2026-04-21T13:13:11.14Z</time></trkpt><trkpt lat="32.9738933" lon="9.6311667"><ele>212.25</ele><time>2026-04-21T13:13:12.14Z</time></trkpt><trkpt lat="32.9740067" lon="9.6311933"><ele>212.5</ele><time>2026-04-21T13:13:13.141Z</time></trkpt><trkpt lat="32.9741267" lon="9.6312283"><ele>212.75</ele><time>2026-04-21T13:13:14.141Z</time></trkpt><trkpt lat="32.9742417" lon="9.6312683"><ele>213.0</ele><time>2026-04-21T13:13:15.141Z</time></trkpt><trkpt lat="32.974355" lon="9.6313017"><ele>213.8</ele><time>2026-04-21T13:13:16.141Z</time></trkpt><trkpt lat="32.9744633" lon="9.63133"><ele>214.60000000000002</ele><time>2026-04-21T13:13:17.141Z</time></trkpt><trkpt lat="32.97457" lon="9.6313433"><ele>215.39999999999998</ele><time>2026-04-21T13:13:18.141Z</time></trkpt><trkpt lat="32.974675" lon="9.631355"><ele>216.2</ele><time>2026-04-21T13:13:19.141Z</time></trkpt><trkpt lat="32.9747733" lon="9.631365"><ele>217.0</ele><time>2026-04-21T13:13:20.14Z</time></trkpt><trkpt lat="32.9748567" lon="9.6313817"><ele>216.99999999999997</ele><time>2026-04-21T13:13:21.141Z</time></trkpt><trkpt lat="32.9749317" lon="9.6314067"><ele>217.0</ele><time>2026-04-21T13:13:22.14Z</time></trkpt><trkpt lat="32.975" lon="9.6314417"><ele>217.0</ele><time>2026-04-21T13:13:23.14Z</time></trkpt><trkpt lat="32.975065" lon="9.6314733"><ele>217.0</ele><time>2026-04-21T13:13:24.141Z</time></trkpt><trkpt lat="32.9751867" lon="9.6315433"><ele>216.99999999999997</ele><time>2026-04-21T13:13:26.141Z</time></trkpt><trkpt lat="32.97526" lon="9.6315917"><ele>217.0</ele><time>2026-04-21T13:13:27.141Z</time></trkpt><trkpt lat="32.9753367" lon="9.6316367"><ele>215.99999999999997</ele><time>2026-04-21T13:13:28.14Z</time></trkpt><trkpt lat="32.9754117" lon="9.6316783"><ele>215.0</ele><time>2026-04-21T13:13:29.141Z</time></trkpt><trkpt lat="32.9754833" lon="9.6317183"><ele>214.0</ele><time>2026-04-21T13:13:30.141Z</time></trkpt><trkpt lat="32.9755533" lon="9.6317617"><ele>213.0</ele><time>2026-04-21T13:13:31.14Z</time></trkpt><trkpt lat="32.97563" lon="9.6318067"><ele>211.99999999999997</ele><time>2026-04-21T13:13:32.141Z</time></trkpt><trkpt lat="32.97571" lon="9.631845"><ele>211.0</ele><time>2026-04-21T13:13:33.141Z</time></trkpt><trkpt lat="32.9757967" lon="9.631885"><ele>210.83333333333331</ele><time>2026-04-21T13:13:34.141Z</time></trkpt><trkpt lat="32.97589" lon="9.631935"><ele>210.66666666666666</ele><time>2026-04-21T13:13:35.14Z</time></trkpt><trkpt lat="32.975975" lon="9.6319783"><ele>210.5</ele><time>2026-04-21T13:13:36.141Z</time></trkpt><trkpt lat="32.9760417" lon="9.632015"><ele>210.33333333333331</ele><time>2026-04-21T13:13:37.14Z</time></trkpt><trkpt lat="32.9761167" lon="9.63205"><ele>210.16666666666666</ele><time>2026-04-21T13:13:39.141Z</time></trkpt><trkpt lat="32.9760933" lon="9.632135"><ele>210.0</ele><time>2026-04-21T13:13:42.14Z</time></trkpt><trkpt lat="32.9760233" lon="9.6322683"><ele>210.0</ele><time>2026-04-21T13:13:44.141Z</time></trkpt><trkpt lat="32.97599" lon="9.632355"><ele>210.0</ele><time>2026-04-21T13:13:45.141Z</time></trkpt><trkpt lat="32.9759483" lon="9.632455"><ele>210.0</ele><time>2026-04-21T13:13:46.14Z</time></trkpt><trkpt lat="32.9759067" lon="9.632555"><ele>210.0</ele><time>2026-04-21T13:13:47.14Z</time></trkpt><trkpt lat="32.9758633" lon="9.632655"><ele>210.0</ele><time>2026-04-21T13:13:48.141Z</time></trkpt><trkpt lat="32.9758167" lon="9.6327483"><ele>210.0</ele><time>2026-04-21T13:13:49.141Z</time></trkpt><trkpt lat="32.9757833" lon="9.63284"><ele>210.0</ele><time>2026-04-21T13:13:50.141Z</time></trkpt><trkpt lat="32.9757517" lon="9.632925"><ele>210.0</ele><time>2026-04-21T13:13:51.14Z</time></trkpt><trkpt lat="32.9757167" lon="9.6330167"><ele>210.0</ele><time>2026-04-21T13:13:52.141Z</time></trkpt><trkpt lat="32.97568" lon="9.63311"><ele>210.0</ele><time>2026-04-21T13:13:53.14Z</time></trkpt><trkpt lat="32.975635" lon="9.6332017"><ele>210.0</ele><time>2026-04-21T13:13:54.14Z</time></trkpt><trkpt lat="32.9755917" lon="9.6332917"><ele>210.0</ele><time>2026-04-21T13:13:55.141Z</time></trkpt><trkpt lat="32.975555" lon="9.6333817"><ele>210.0</ele><time>2026-04-21T13:13:56.141Z</time></trkpt><trkpt lat="32.97552" lon="9.6334617"><ele>210.0</ele><time>2026-04-21T13:13:57.14Z</time></trkpt><trkpt lat="32.9754817" lon="9.6335683"><ele>210.0</ele><time>2026-04-21T13:13:59.141Z</time></trkpt><trkpt lat="32.9755267" lon="9.6334933"><ele>210.0</ele><time>2026-04-21T13:14:09.139Z</time></trkpt><trkpt lat="32.9755833" lon="9.63338"><ele>210.0</ele><time>2026-04-21T13:14:12.14Z</time></trkpt><trkpt lat="32.975545" lon="9.633465"><ele>210.0</ele><time>2026-04-21T13:14:21.139Z</time></trkpt><trkpt lat="32.97548" lon="9.6335517"><ele>210.0</ele><time>2026-04-21T13:14:23.14Z</time></trkpt><trkpt lat="32.975405" lon="9.633525"><ele>210.0</ele><time>2026-04-21T13:14:25.139Z</time></trkpt><trkpt lat="32.9753133" lon="9.6334867"><ele>210.0</ele><time>2026-04-21T13:14:27.14Z</time></trkpt><trkpt lat="32.975255" lon="9.6334367"><ele>210.0</ele><time>2026-04-21T13:14:29.14Z</time></trkpt></trkseg></trk></gpx>